<?xml version="1.0" encoding="UTF-8" standalone="no" ?>
<gpx xmlns="http://www.topografix.com/GPX/1/1" creator="www.cicloide.com" version="1.1" xmlns:xsi="http://www.w3.org/2001/XMLSchema-instance" xsi:schemaLocation="http://www.topografix.com/GPX/1/1 http://www.topografix.com/GPX/1/1/gpx.xsd">
  <trk>
    <name>www.cicloide.com 10891</name>
    <desc>www.cicloide.com 10891</desc>
    <trkseg>
      <trkpt lat="41.984295000" lon="2.606415100">
        <ele>178.90</ele>
        <time>2012-10-14T08:16:34Z</time>
      </trkpt>
      <trkpt lat="41.984234000" lon="2.606384100">
        <ele>178.90</ele>
        <time>2012-10-14T08:16:46Z</time>
      </trkpt>
      <trkpt lat="41.984058000" lon="2.606245100">
        <ele>178.90</ele>
        <time>2012-10-14T08:17:00Z</time>
      </trkpt>
      <trkpt lat="41.984077000" lon="2.606262100">
        <ele>178.90</ele>
        <time>2012-10-14T08:17:05Z</time>
      </trkpt>
      <trkpt lat="41.984070000" lon="2.606273100">
        <ele>178.90</ele>
        <time>2012-10-14T08:17:09Z</time>
      </trkpt>
      <trkpt lat="41.984070000" lon="2.606285100">
        <ele>178.90</ele>
        <time>2012-10-14T08:17:12Z</time>
      </trkpt>
      <trkpt lat="41.984070000" lon="2.606292100">
        <ele>178.90</ele>
        <time>2012-10-14T08:17:14Z</time>
      </trkpt>
      <trkpt lat="41.984062000" lon="2.606312100">
        <ele>178.90</ele>
        <time>2012-10-14T08:17:16Z</time>
      </trkpt>
      <trkpt lat="41.984043000" lon="2.606312100">
        <ele>178.90</ele>
        <time>2012-10-14T08:17:21Z</time>
      </trkpt>
      <trkpt lat="41.984028000" lon="2.606276100">
        <ele>178.90</ele>
        <time>2012-10-14T08:17:35Z</time>
      </trkpt>
      <trkpt lat="41.984039000" lon="2.606225100">
        <ele>178.90</ele>
        <time>2012-10-14T08:17:37Z</time>
      </trkpt>
      <trkpt lat="41.984100000" lon="2.606058100">
        <ele>178.90</ele>
        <time>2012-10-14T08:17:44Z</time>
      </trkpt>
      <trkpt lat="41.984207000" lon="2.605897100">
        <ele>178.90</ele>
        <time>2012-10-14T08:17:49Z</time>
      </trkpt>
      <trkpt lat="41.984344000" lon="2.605607100">
        <ele>178.00</ele>
        <time>2012-10-14T08:17:58Z</time>
      </trkpt>
      <trkpt lat="41.984455000" lon="2.605374100">
        <ele>177.50</ele>
        <time>2012-10-14T08:18:03Z</time>
      </trkpt>
      <trkpt lat="41.984631000" lon="2.605206100">
        <ele>177.00</ele>
        <time>2012-10-14T08:18:10Z</time>
      </trkpt>
      <trkpt lat="41.984867000" lon="2.605021100">
        <ele>177.50</ele>
        <time>2012-10-14T08:18:17Z</time>
      </trkpt>
      <trkpt lat="41.984901000" lon="2.604987100">
        <ele>177.50</ele>
        <time>2012-10-14T08:18:19Z</time>
      </trkpt>
      <trkpt lat="41.985126000" lon="2.604622100">
        <ele>177.50</ele>
        <time>2012-10-14T08:18:26Z</time>
      </trkpt>
      <trkpt lat="41.985279000" lon="2.604324100">
        <ele>177.50</ele>
        <time>2012-10-14T08:18:29Z</time>
      </trkpt>
      <trkpt lat="41.985355000" lon="2.603961100">
        <ele>176.10</ele>
        <time>2012-10-14T08:18:34Z</time>
      </trkpt>
      <trkpt lat="41.985340000" lon="2.603815100">
        <ele>176.10</ele>
        <time>2012-10-14T08:18:36Z</time>
      </trkpt>
      <trkpt lat="41.985306000" lon="2.603626100">
        <ele>176.10</ele>
        <time>2012-10-14T08:18:38Z</time>
      </trkpt>
      <trkpt lat="41.985294000" lon="2.603501100">
        <ele>176.10</ele>
        <time>2012-10-14T08:18:41Z</time>
      </trkpt>
      <trkpt lat="41.985405000" lon="2.603274100">
        <ele>175.60</ele>
        <time>2012-10-14T08:18:45Z</time>
      </trkpt>
      <trkpt lat="41.985443000" lon="2.603252100">
        <ele>175.60</ele>
        <time>2012-10-14T08:18:47Z</time>
      </trkpt>
      <trkpt lat="41.985909000" lon="2.603030100">
        <ele>175.60</ele>
        <time>2012-10-14T08:18:57Z</time>
      </trkpt>
      <trkpt lat="41.986156000" lon="2.602874100">
        <ele>175.60</ele>
        <time>2012-10-14T08:19:04Z</time>
      </trkpt>
      <trkpt lat="41.986168000" lon="2.602633100">
        <ele>175.60</ele>
        <time>2012-10-14T08:19:11Z</time>
      </trkpt>
      <trkpt lat="41.986103000" lon="2.602339100">
        <ele>175.60</ele>
        <time>2012-10-14T08:19:20Z</time>
      </trkpt>
      <trkpt lat="41.986019000" lon="2.602124100">
        <ele>177.00</ele>
        <time>2012-10-14T08:19:28Z</time>
      </trkpt>
      <trkpt lat="41.985943000" lon="2.601907100">
        <ele>178.00</ele>
        <time>2012-10-14T08:19:35Z</time>
      </trkpt>
      <trkpt lat="41.985847000" lon="2.601659100">
        <ele>178.90</ele>
        <time>2012-10-14T08:19:44Z</time>
      </trkpt>
      <trkpt lat="41.985779000" lon="2.601426100">
        <ele>180.40</ele>
        <time>2012-10-14T08:19:53Z</time>
      </trkpt>
      <trkpt lat="41.985661000" lon="2.601222100">
        <ele>181.80</ele>
        <time>2012-10-14T08:20:00Z</time>
      </trkpt>
      <trkpt lat="41.985554000" lon="2.601097100">
        <ele>182.30</ele>
        <time>2012-10-14T08:20:07Z</time>
      </trkpt>
      <trkpt lat="41.985420000" lon="2.600946100">
        <ele>183.80</ele>
        <time>2012-10-14T08:20:15Z</time>
      </trkpt>
      <trkpt lat="41.985294000" lon="2.600780100">
        <ele>185.20</ele>
        <time>2012-10-14T08:20:24Z</time>
      </trkpt>
      <trkpt lat="41.985126000" lon="2.600554100">
        <ele>186.60</ele>
        <time>2012-10-14T08:20:33Z</time>
      </trkpt>
      <trkpt lat="41.984989000" lon="2.600415100">
        <ele>188.10</ele>
        <time>2012-10-14T08:20:42Z</time>
      </trkpt>
      <trkpt lat="41.984783000" lon="2.600296100">
        <ele>190.50</ele>
        <time>2012-10-14T08:20:50Z</time>
      </trkpt>
      <trkpt lat="41.984608000" lon="2.600181100">
        <ele>192.40</ele>
        <time>2012-10-14T08:20:59Z</time>
      </trkpt>
      <trkpt lat="41.984436000" lon="2.600053100">
        <ele>193.80</ele>
        <time>2012-10-14T08:21:08Z</time>
      </trkpt>
      <trkpt lat="41.984196000" lon="2.599872100">
        <ele>194.30</ele>
        <time>2012-10-14T08:21:16Z</time>
      </trkpt>
      <trkpt lat="41.983929000" lon="2.599735100">
        <ele>194.30</ele>
        <time>2012-10-14T08:21:25Z</time>
      </trkpt>
      <trkpt lat="41.983562000" lon="2.599547100">
        <ele>194.80</ele>
        <time>2012-10-14T08:21:34Z</time>
      </trkpt>
      <trkpt lat="41.983261000" lon="2.599380100">
        <ele>194.80</ele>
        <time>2012-10-14T08:21:44Z</time>
      </trkpt>
      <trkpt lat="41.983013000" lon="2.599245100">
        <ele>194.80</ele>
        <time>2012-10-14T08:21:51Z</time>
      </trkpt>
      <trkpt lat="41.982697000" lon="2.599105100">
        <ele>194.80</ele>
        <time>2012-10-14T08:22:02Z</time>
      </trkpt>
      <trkpt lat="41.982399000" lon="2.598983100">
        <ele>195.30</ele>
        <time>2012-10-14T08:22:10Z</time>
      </trkpt>
      <trkpt lat="41.982155000" lon="2.598855100">
        <ele>195.30</ele>
        <time>2012-10-14T08:22:19Z</time>
      </trkpt>
      <trkpt lat="41.981918000" lon="2.598740100">
        <ele>195.80</ele>
        <time>2012-10-14T08:22:26Z</time>
      </trkpt>
      <trkpt lat="41.981590000" lon="2.598619100">
        <ele>196.70</ele>
        <time>2012-10-14T08:22:38Z</time>
      </trkpt>
      <trkpt lat="41.981327000" lon="2.598552100">
        <ele>197.20</ele>
        <time>2012-10-14T08:22:45Z</time>
      </trkpt>
      <trkpt lat="41.981045000" lon="2.598465100">
        <ele>197.70</ele>
        <time>2012-10-14T08:22:54Z</time>
      </trkpt>
      <trkpt lat="41.980965000" lon="2.598442100">
        <ele>197.70</ele>
        <time>2012-10-14T08:22:56Z</time>
      </trkpt>
      <trkpt lat="41.980526000" lon="2.598428100">
        <ele>197.70</ele>
        <time>2012-10-14T08:23:06Z</time>
      </trkpt>
      <trkpt lat="41.980042000" lon="2.598426100">
        <ele>197.70</ele>
        <time>2012-10-14T08:23:15Z</time>
      </trkpt>
      <trkpt lat="41.979824000" lon="2.598433100">
        <ele>197.70</ele>
        <time>2012-10-14T08:23:20Z</time>
      </trkpt>
      <trkpt lat="41.979347000" lon="2.598550100">
        <ele>196.20</ele>
        <time>2012-10-14T08:23:29Z</time>
      </trkpt>
      <trkpt lat="41.979004000" lon="2.598637100">
        <ele>196.20</ele>
        <time>2012-10-14T08:23:36Z</time>
      </trkpt>
      <trkpt lat="41.978783000" lon="2.598776100">
        <ele>196.20</ele>
        <time>2012-10-14T08:23:41Z</time>
      </trkpt>
      <trkpt lat="41.978394000" lon="2.599209100">
        <ele>196.20</ele>
        <time>2012-10-14T08:23:50Z</time>
      </trkpt>
      <trkpt lat="41.978065000" lon="2.599639100">
        <ele>196.20</ele>
        <time>2012-10-14T08:24:00Z</time>
      </trkpt>
      <trkpt lat="41.977848000" lon="2.600038100">
        <ele>195.80</ele>
        <time>2012-10-14T08:24:07Z</time>
      </trkpt>
      <trkpt lat="41.977661000" lon="2.600166100">
        <ele>195.80</ele>
        <time>2012-10-14T08:24:11Z</time>
      </trkpt>
      <trkpt lat="41.977509000" lon="2.600177100">
        <ele>195.30</ele>
        <time>2012-10-14T08:24:14Z</time>
      </trkpt>
      <trkpt lat="41.977261000" lon="2.600143100">
        <ele>195.30</ele>
        <time>2012-10-14T08:24:19Z</time>
      </trkpt>
      <trkpt lat="41.977123000" lon="2.600094100">
        <ele>195.30</ele>
        <time>2012-10-14T08:24:21Z</time>
      </trkpt>
      <trkpt lat="41.976978000" lon="2.599962100">
        <ele>195.30</ele>
        <time>2012-10-14T08:24:26Z</time>
      </trkpt>
      <trkpt lat="41.976894000" lon="2.599714100">
        <ele>195.30</ele>
        <time>2012-10-14T08:24:30Z</time>
      </trkpt>
      <trkpt lat="41.976913000" lon="2.599359100">
        <ele>195.30</ele>
        <time>2012-10-14T08:24:37Z</time>
      </trkpt>
      <trkpt lat="41.977131000" lon="2.598811100">
        <ele>195.30</ele>
        <time>2012-10-14T08:24:47Z</time>
      </trkpt>
      <trkpt lat="41.977425000" lon="2.598281100">
        <ele>195.30</ele>
        <time>2012-10-14T08:24:56Z</time>
      </trkpt>
      <trkpt lat="41.977768000" lon="2.597860100">
        <ele>195.30</ele>
        <time>2012-10-14T08:25:06Z</time>
      </trkpt>
      <trkpt lat="41.978218000" lon="2.597466100">
        <ele>195.30</ele>
        <time>2012-10-14T08:25:15Z</time>
      </trkpt>
      <trkpt lat="41.978615000" lon="2.597143100">
        <ele>194.30</ele>
        <time>2012-10-14T08:25:24Z</time>
      </trkpt>
      <trkpt lat="41.978775000" lon="2.597015100">
        <ele>194.30</ele>
        <time>2012-10-14T08:25:29Z</time>
      </trkpt>
      <trkpt lat="41.979195000" lon="2.596703100">
        <ele>194.30</ele>
        <time>2012-10-14T08:25:38Z</time>
      </trkpt>
      <trkpt lat="41.979515000" lon="2.596448100">
        <ele>194.30</ele>
        <time>2012-10-14T08:25:46Z</time>
      </trkpt>
      <trkpt lat="41.979759000" lon="2.596209100">
        <ele>193.80</ele>
        <time>2012-10-14T08:25:53Z</time>
      </trkpt>
      <trkpt lat="41.979927000" lon="2.595914100">
        <ele>195.30</ele>
        <time>2012-10-14T08:26:00Z</time>
      </trkpt>
      <trkpt lat="41.979992000" lon="2.595671100">
        <ele>195.30</ele>
        <time>2012-10-14T08:26:06Z</time>
      </trkpt>
      <trkpt lat="41.980057000" lon="2.595350100">
        <ele>195.80</ele>
        <time>2012-10-14T08:26:11Z</time>
      </trkpt>
      <trkpt lat="41.980064000" lon="2.595300100">
        <ele>195.80</ele>
        <time>2012-10-14T08:26:12Z</time>
      </trkpt>
      <trkpt lat="41.980095000" lon="2.594781100">
        <ele>196.20</ele>
        <time>2012-10-14T08:26:21Z</time>
      </trkpt>
      <trkpt lat="41.980087000" lon="2.594647100">
        <ele>196.20</ele>
        <time>2012-10-14T08:26:23Z</time>
      </trkpt>
      <trkpt lat="41.980026000" lon="2.594309100">
        <ele>196.20</ele>
        <time>2012-10-14T08:26:28Z</time>
      </trkpt>
      <trkpt lat="41.979851000" lon="2.593771100">
        <ele>196.20</ele>
        <time>2012-10-14T08:26:35Z</time>
      </trkpt>
      <trkpt lat="41.979744000" lon="2.593396100">
        <ele>196.20</ele>
        <time>2012-10-14T08:26:42Z</time>
      </trkpt>
      <trkpt lat="41.979691000" lon="2.593102100">
        <ele>196.20</ele>
        <time>2012-10-14T08:26:49Z</time>
      </trkpt>
      <trkpt lat="41.979675000" lon="2.592731100">
        <ele>197.20</ele>
        <time>2012-10-14T08:26:54Z</time>
      </trkpt>
      <trkpt lat="41.979691000" lon="2.592145100">
        <ele>197.70</ele>
        <time>2012-10-14T08:27:03Z</time>
      </trkpt>
      <trkpt lat="41.979744000" lon="2.591470100">
        <ele>197.70</ele>
        <time>2012-10-14T08:27:13Z</time>
      </trkpt>
      <trkpt lat="41.979767000" lon="2.591310100">
        <ele>197.70</ele>
        <time>2012-10-14T08:27:15Z</time>
      </trkpt>
      <trkpt lat="41.979950000" lon="2.590607100">
        <ele>196.20</ele>
        <time>2012-10-14T08:27:24Z</time>
      </trkpt>
      <trkpt lat="41.980053000" lon="2.590275100">
        <ele>196.20</ele>
        <time>2012-10-14T08:27:29Z</time>
      </trkpt>
      <trkpt lat="41.980328000" lon="2.589740100">
        <ele>195.80</ele>
        <time>2012-10-14T08:27:38Z</time>
      </trkpt>
      <trkpt lat="41.980389000" lon="2.589629100">
        <ele>195.80</ele>
        <time>2012-10-14T08:27:41Z</time>
      </trkpt>
      <trkpt lat="41.980736000" lon="2.589086100">
        <ele>195.80</ele>
        <time>2012-10-14T08:27:50Z</time>
      </trkpt>
      <trkpt lat="41.981007000" lon="2.588755100">
        <ele>195.30</ele>
        <time>2012-10-14T08:27:59Z</time>
      </trkpt>
      <trkpt lat="41.981167000" lon="2.588585100">
        <ele>195.30</ele>
        <time>2012-10-14T08:28:04Z</time>
      </trkpt>
      <trkpt lat="41.981461000" lon="2.588322100">
        <ele>195.30</ele>
        <time>2012-10-14T08:28:11Z</time>
      </trkpt>
      <trkpt lat="41.981583000" lon="2.588224100">
        <ele>195.30</ele>
        <time>2012-10-14T08:28:14Z</time>
      </trkpt>
      <trkpt lat="41.982018000" lon="2.587828100">
        <ele>195.30</ele>
        <time>2012-10-14T08:28:25Z</time>
      </trkpt>
      <trkpt lat="41.982334000" lon="2.587533100">
        <ele>195.30</ele>
        <time>2012-10-14T08:28:34Z</time>
      </trkpt>
      <trkpt lat="41.982586000" lon="2.587192100">
        <ele>195.30</ele>
        <time>2012-10-14T08:28:41Z</time>
      </trkpt>
      <trkpt lat="41.982822000" lon="2.586748100">
        <ele>195.30</ele>
        <time>2012-10-14T08:28:49Z</time>
      </trkpt>
      <trkpt lat="41.982990000" lon="2.586227100">
        <ele>195.30</ele>
        <time>2012-10-14T08:28:56Z</time>
      </trkpt>
      <trkpt lat="41.983032000" lon="2.585618100">
        <ele>195.30</ele>
        <time>2012-10-14T08:29:05Z</time>
      </trkpt>
      <trkpt lat="41.983032000" lon="2.585007100">
        <ele>195.30</ele>
        <time>2012-10-14T08:29:14Z</time>
      </trkpt>
      <trkpt lat="41.983166000" lon="2.584356100">
        <ele>195.30</ele>
        <time>2012-10-14T08:29:24Z</time>
      </trkpt>
      <trkpt lat="41.983360000" lon="2.583835100">
        <ele>195.30</ele>
        <time>2012-10-14T08:29:33Z</time>
      </trkpt>
      <trkpt lat="41.983574000" lon="2.583324100">
        <ele>195.30</ele>
        <time>2012-10-14T08:29:43Z</time>
      </trkpt>
      <trkpt lat="41.983791000" lon="2.582885100">
        <ele>195.30</ele>
        <time>2012-10-14T08:29:50Z</time>
      </trkpt>
      <trkpt lat="41.984127000" lon="2.582247100">
        <ele>195.30</ele>
        <time>2012-10-14T08:30:02Z</time>
      </trkpt>
      <trkpt lat="41.984455000" lon="2.581645100">
        <ele>195.30</ele>
        <time>2012-10-14T08:30:15Z</time>
      </trkpt>
      <trkpt lat="41.984726000" lon="2.581225100">
        <ele>195.30</ele>
        <time>2012-10-14T08:30:23Z</time>
      </trkpt>
      <trkpt lat="41.985031000" lon="2.580772100">
        <ele>196.20</ele>
        <time>2012-10-14T08:30:34Z</time>
      </trkpt>
      <trkpt lat="41.985203000" lon="2.580492100">
        <ele>196.20</ele>
        <time>2012-10-14T08:30:39Z</time>
      </trkpt>
      <trkpt lat="41.985325000" lon="2.580234100">
        <ele>196.20</ele>
        <time>2012-10-14T08:30:44Z</time>
      </trkpt>
      <trkpt lat="41.985573000" lon="2.579644100">
        <ele>196.20</ele>
        <time>2012-10-14T08:30:55Z</time>
      </trkpt>
      <trkpt lat="41.985813000" lon="2.578996100">
        <ele>196.20</ele>
        <time>2012-10-14T08:31:07Z</time>
      </trkpt>
      <trkpt lat="41.985886000" lon="2.578523100">
        <ele>196.70</ele>
        <time>2012-10-14T08:31:16Z</time>
      </trkpt>
      <trkpt lat="41.985992000" lon="2.577961100">
        <ele>196.70</ele>
        <time>2012-10-14T08:31:24Z</time>
      </trkpt>
      <trkpt lat="41.986156000" lon="2.577388100">
        <ele>196.70</ele>
        <time>2012-10-14T08:31:33Z</time>
      </trkpt>
      <trkpt lat="41.986221000" lon="2.576882100">
        <ele>196.70</ele>
        <time>2012-10-14T08:31:42Z</time>
      </trkpt>
      <trkpt lat="41.986198000" lon="2.576307100">
        <ele>196.70</ele>
        <time>2012-10-14T08:31:52Z</time>
      </trkpt>
      <trkpt lat="41.986195000" lon="2.575765100">
        <ele>196.70</ele>
        <time>2012-10-14T08:32:01Z</time>
      </trkpt>
      <trkpt lat="41.986183000" lon="2.575318100">
        <ele>197.20</ele>
        <time>2012-10-14T08:32:10Z</time>
      </trkpt>
      <trkpt lat="41.986153000" lon="2.574783100">
        <ele>198.20</ele>
        <time>2012-10-14T08:32:20Z</time>
      </trkpt>
      <trkpt lat="41.986103000" lon="2.574323100">
        <ele>199.60</ele>
        <time>2012-10-14T08:32:29Z</time>
      </trkpt>
      <trkpt lat="41.986088000" lon="2.574228100">
        <ele>199.60</ele>
        <time>2012-10-14T08:32:32Z</time>
      </trkpt>
      <trkpt lat="41.986084000" lon="2.574047100">
        <ele>200.10</ele>
        <time>2012-10-14T08:32:39Z</time>
      </trkpt>
      <trkpt lat="41.986076000" lon="2.573913100">
        <ele>200.60</ele>
        <time>2012-10-14T08:32:43Z</time>
      </trkpt>
      <trkpt lat="41.986031000" lon="2.573638100">
        <ele>201.50</ele>
        <time>2012-10-14T08:32:53Z</time>
      </trkpt>
      <trkpt lat="41.985966000" lon="2.573414100">
        <ele>202.50</ele>
        <time>2012-10-14T08:33:00Z</time>
      </trkpt>
      <trkpt lat="41.985924000" lon="2.573089100">
        <ele>203.00</ele>
        <time>2012-10-14T08:33:07Z</time>
      </trkpt>
      <trkpt lat="41.985924000" lon="2.572664100">
        <ele>203.00</ele>
        <time>2012-10-14T08:33:16Z</time>
      </trkpt>
      <trkpt lat="41.985989000" lon="2.572315100">
        <ele>203.00</ele>
        <time>2012-10-14T08:33:23Z</time>
      </trkpt>
      <trkpt lat="41.986076000" lon="2.572079100">
        <ele>203.50</ele>
        <time>2012-10-14T08:33:30Z</time>
      </trkpt>
      <trkpt lat="41.986153000" lon="2.571862100">
        <ele>203.50</ele>
        <time>2012-10-14T08:33:38Z</time>
      </trkpt>
      <trkpt lat="41.986183000" lon="2.571765100">
        <ele>203.50</ele>
        <time>2012-10-14T08:33:42Z</time>
      </trkpt>
      <trkpt lat="41.986324000" lon="2.571537100">
        <ele>203.50</ele>
        <time>2012-10-14T08:33:49Z</time>
      </trkpt>
      <trkpt lat="41.986347000" lon="2.571517100">
        <ele>203.50</ele>
        <time>2012-10-14T08:33:51Z</time>
      </trkpt>
      <trkpt lat="41.986500000" lon="2.571331100">
        <ele>203.50</ele>
        <time>2012-10-14T08:33:59Z</time>
      </trkpt>
      <trkpt lat="41.986603000" lon="2.571279100">
        <ele>203.50</ele>
        <time>2012-10-14T08:34:03Z</time>
      </trkpt>
      <trkpt lat="41.986752000" lon="2.571120100">
        <ele>203.50</ele>
        <time>2012-10-14T08:34:12Z</time>
      </trkpt>
      <trkpt lat="41.986912000" lon="2.571018100">
        <ele>203.50</ele>
        <time>2012-10-14T08:34:17Z</time>
      </trkpt>
      <trkpt lat="41.987175000" lon="2.570855100">
        <ele>203.50</ele>
        <time>2012-10-14T08:34:25Z</time>
      </trkpt>
      <trkpt lat="41.987503000" lon="2.570739100">
        <ele>203.90</ele>
        <time>2012-10-14T08:34:34Z</time>
      </trkpt>
      <trkpt lat="41.987724000" lon="2.570646100">
        <ele>203.90</ele>
        <time>2012-10-14T08:34:41Z</time>
      </trkpt>
      <trkpt lat="41.988113000" lon="2.570479100">
        <ele>204.90</ele>
        <time>2012-10-14T08:34:50Z</time>
      </trkpt>
      <trkpt lat="41.988384000" lon="2.570385100">
        <ele>204.90</ele>
        <time>2012-10-14T08:34:57Z</time>
      </trkpt>
      <trkpt lat="41.988804000" lon="2.570306100">
        <ele>205.40</ele>
        <time>2012-10-14T08:35:07Z</time>
      </trkpt>
      <trkpt lat="41.989273000" lon="2.570225100">
        <ele>206.30</ele>
        <time>2012-10-14T08:35:18Z</time>
      </trkpt>
      <trkpt lat="41.989353000" lon="2.570212100">
        <ele>206.30</ele>
        <time>2012-10-14T08:35:21Z</time>
      </trkpt>
      <trkpt lat="41.989895000" lon="2.570112100">
        <ele>206.80</ele>
        <time>2012-10-14T08:35:33Z</time>
      </trkpt>
      <trkpt lat="41.990284000" lon="2.570102100">
        <ele>206.80</ele>
        <time>2012-10-14T08:35:42Z</time>
      </trkpt>
      <trkpt lat="41.990692000" lon="2.570072100">
        <ele>207.30</ele>
        <time>2012-10-14T08:35:51Z</time>
      </trkpt>
      <trkpt lat="41.991058000" lon="2.570063100">
        <ele>207.30</ele>
        <time>2012-10-14T08:36:00Z</time>
      </trkpt>
      <trkpt lat="41.991394000" lon="2.570040100">
        <ele>207.30</ele>
        <time>2012-10-14T08:36:06Z</time>
      </trkpt>
      <trkpt lat="41.991817000" lon="2.569810100">
        <ele>207.30</ele>
        <time>2012-10-14T08:36:15Z</time>
      </trkpt>
      <trkpt lat="41.992226000" lon="2.569438100">
        <ele>206.30</ele>
        <time>2012-10-14T08:36:26Z</time>
      </trkpt>
      <trkpt lat="41.992374000" lon="2.569312100">
        <ele>206.30</ele>
        <time>2012-10-14T08:36:29Z</time>
      </trkpt>
      <trkpt lat="41.992702000" lon="2.568986100">
        <ele>206.30</ele>
        <time>2012-10-14T08:36:38Z</time>
      </trkpt>
      <trkpt lat="41.992855000" lon="2.568754100">
        <ele>206.30</ele>
        <time>2012-10-14T08:36:43Z</time>
      </trkpt>
      <trkpt lat="41.992950000" lon="2.568537100">
        <ele>206.30</ele>
        <time>2012-10-14T08:36:48Z</time>
      </trkpt>
      <trkpt lat="41.993053000" lon="2.568077100">
        <ele>206.30</ele>
        <time>2012-10-14T08:36:55Z</time>
      </trkpt>
      <trkpt lat="41.993088000" lon="2.567543100">
        <ele>207.30</ele>
        <time>2012-10-14T08:37:06Z</time>
      </trkpt>
      <trkpt lat="41.993076000" lon="2.567104100">
        <ele>207.30</ele>
        <time>2012-10-14T08:37:13Z</time>
      </trkpt>
      <trkpt lat="41.993034000" lon="2.566683100">
        <ele>207.80</ele>
        <time>2012-10-14T08:37:21Z</time>
      </trkpt>
      <trkpt lat="41.992840000" lon="2.565571100">
        <ele>208.70</ele>
        <time>2012-10-14T08:37:42Z</time>
      </trkpt>
      <trkpt lat="41.992744000" lon="2.565108100">
        <ele>210.20</ele>
        <time>2012-10-14T08:37:51Z</time>
      </trkpt>
      <trkpt lat="41.992641000" lon="2.564629100">
        <ele>211.10</ele>
        <time>2012-10-14T08:38:00Z</time>
      </trkpt>
      <trkpt lat="41.992489000" lon="2.564174100">
        <ele>212.10</ele>
        <time>2012-10-14T08:38:08Z</time>
      </trkpt>
      <trkpt lat="41.992340000" lon="2.563837100">
        <ele>212.60</ele>
        <time>2012-10-14T08:38:17Z</time>
      </trkpt>
      <trkpt lat="41.992172000" lon="2.563505100">
        <ele>213.10</ele>
        <time>2012-10-14T08:38:24Z</time>
      </trkpt>
      <trkpt lat="41.991955000" lon="2.563030100">
        <ele>213.60</ele>
        <time>2012-10-14T08:38:33Z</time>
      </trkpt>
      <trkpt lat="41.991871000" lon="2.562835100">
        <ele>214.00</ele>
        <time>2012-10-14T08:38:36Z</time>
      </trkpt>
      <trkpt lat="41.991741000" lon="2.562537100">
        <ele>214.00</ele>
        <time>2012-10-14T08:38:43Z</time>
      </trkpt>
      <trkpt lat="41.991570000" lon="2.562251100">
        <ele>214.00</ele>
        <time>2012-10-14T08:38:48Z</time>
      </trkpt>
      <trkpt lat="41.991173000" lon="2.561828100">
        <ele>214.00</ele>
        <time>2012-10-14T08:38:59Z</time>
      </trkpt>
      <trkpt lat="41.991047000" lon="2.561649100">
        <ele>214.00</ele>
        <time>2012-10-14T08:39:04Z</time>
      </trkpt>
      <trkpt lat="41.990971000" lon="2.561492100">
        <ele>214.00</ele>
        <time>2012-10-14T08:39:06Z</time>
      </trkpt>
      <trkpt lat="41.990879000" lon="2.561030100">
        <ele>214.50</ele>
        <time>2012-10-14T08:39:15Z</time>
      </trkpt>
      <trkpt lat="41.990910000" lon="2.560631100">
        <ele>214.50</ele>
        <time>2012-10-14T08:39:22Z</time>
      </trkpt>
      <trkpt lat="41.991062000" lon="2.560170100">
        <ele>215.00</ele>
        <time>2012-10-14T08:39:30Z</time>
      </trkpt>
      <trkpt lat="41.991211000" lon="2.559857100">
        <ele>215.50</ele>
        <time>2012-10-14T08:39:37Z</time>
      </trkpt>
      <trkpt lat="41.991428000" lon="2.559545100">
        <ele>215.90</ele>
        <time>2012-10-14T08:39:46Z</time>
      </trkpt>
      <trkpt lat="41.991680000" lon="2.559235100">
        <ele>216.40</ele>
        <time>2012-10-14T08:39:53Z</time>
      </trkpt>
      <trkpt lat="41.992001000" lon="2.558821100">
        <ele>216.40</ele>
        <time>2012-10-14T08:40:02Z</time>
      </trkpt>
      <trkpt lat="41.992069000" lon="2.558729100">
        <ele>216.40</ele>
        <time>2012-10-14T08:40:05Z</time>
      </trkpt>
      <trkpt lat="41.992165000" lon="2.558582100">
        <ele>216.40</ele>
        <time>2012-10-14T08:40:07Z</time>
      </trkpt>
      <trkpt lat="41.992245000" lon="2.558429100">
        <ele>216.40</ele>
        <time>2012-10-14T08:40:10Z</time>
      </trkpt>
      <trkpt lat="41.992325000" lon="2.558207100">
        <ele>216.40</ele>
        <time>2012-10-14T08:40:14Z</time>
      </trkpt>
      <trkpt lat="41.992393000" lon="2.557880100">
        <ele>216.40</ele>
        <time>2012-10-14T08:40:21Z</time>
      </trkpt>
      <trkpt lat="41.992416000" lon="2.557457100">
        <ele>216.40</ele>
        <time>2012-10-14T08:40:28Z</time>
      </trkpt>
      <trkpt lat="41.992359000" lon="2.557115100">
        <ele>215.50</ele>
        <time>2012-10-14T08:40:33Z</time>
      </trkpt>
      <trkpt lat="41.992054000" lon="2.556408100">
        <ele>215.00</ele>
        <time>2012-10-14T08:40:45Z</time>
      </trkpt>
      <trkpt lat="41.991833000" lon="2.556059100">
        <ele>215.00</ele>
        <time>2012-10-14T08:40:52Z</time>
      </trkpt>
      <trkpt lat="41.991726000" lon="2.555944100">
        <ele>215.00</ele>
        <time>2012-10-14T08:40:56Z</time>
      </trkpt>
      <trkpt lat="41.991295000" lon="2.555651100">
        <ele>215.00</ele>
        <time>2012-10-14T08:41:06Z</time>
      </trkpt>
      <trkpt lat="41.990971000" lon="2.555465100">
        <ele>215.00</ele>
        <time>2012-10-14T08:41:13Z</time>
      </trkpt>
      <trkpt lat="41.990501000" lon="2.555181100">
        <ele>215.00</ele>
        <time>2012-10-14T08:41:25Z</time>
      </trkpt>
      <trkpt lat="41.990089000" lon="2.555033100">
        <ele>215.90</ele>
        <time>2012-10-14T08:41:34Z</time>
      </trkpt>
      <trkpt lat="41.989689000" lon="2.554976100">
        <ele>216.40</ele>
        <time>2012-10-14T08:41:41Z</time>
      </trkpt>
      <trkpt lat="41.989296000" lon="2.554875100">
        <ele>216.40</ele>
        <time>2012-10-14T08:41:50Z</time>
      </trkpt>
      <trkpt lat="41.988922000" lon="2.554708100">
        <ele>216.90</ele>
        <time>2012-10-14T08:42:00Z</time>
      </trkpt>
      <trkpt lat="41.988449000" lon="2.554480100">
        <ele>217.40</ele>
        <time>2012-10-14T08:42:11Z</time>
      </trkpt>
      <trkpt lat="41.988098000" lon="2.554298100">
        <ele>217.90</ele>
        <time>2012-10-14T08:42:19Z</time>
      </trkpt>
      <trkpt lat="41.987797000" lon="2.554137100">
        <ele>218.40</ele>
        <time>2012-10-14T08:42:26Z</time>
      </trkpt>
      <trkpt lat="41.987411000" lon="2.553930100">
        <ele>218.40</ele>
        <time>2012-10-14T08:42:35Z</time>
      </trkpt>
      <trkpt lat="41.986954000" lon="2.553672100">
        <ele>218.80</ele>
        <time>2012-10-14T08:42:45Z</time>
      </trkpt>
      <trkpt lat="41.986458000" lon="2.553396100">
        <ele>219.80</ele>
        <time>2012-10-14T08:42:58Z</time>
      </trkpt>
      <trkpt lat="41.986008000" lon="2.553144100">
        <ele>220.30</ele>
        <time>2012-10-14T08:43:08Z</time>
      </trkpt>
      <trkpt lat="41.985550000" lon="2.552878100">
        <ele>221.70</ele>
        <time>2012-10-14T08:43:20Z</time>
      </trkpt>
      <trkpt lat="41.985073000" lon="2.552603100">
        <ele>222.20</ele>
        <time>2012-10-14T08:43:31Z</time>
      </trkpt>
      <trkpt lat="41.985031000" lon="2.552576100">
        <ele>222.20</ele>
        <time>2012-10-14T08:43:31Z</time>
      </trkpt>
      <trkpt lat="41.984844000" lon="2.552409100">
        <ele>222.20</ele>
        <time>2012-10-14T08:43:36Z</time>
      </trkpt>
      <trkpt lat="41.984715000" lon="2.552249100">
        <ele>222.70</ele>
        <time>2012-10-14T08:43:41Z</time>
      </trkpt>
      <trkpt lat="41.984558000" lon="2.551967100">
        <ele>222.20</ele>
        <time>2012-10-14T08:43:46Z</time>
      </trkpt>
      <trkpt lat="41.984467000" lon="2.551645100">
        <ele>223.20</ele>
        <time>2012-10-14T08:43:53Z</time>
      </trkpt>
      <trkpt lat="41.984432000" lon="2.551351100">
        <ele>223.20</ele>
        <time>2012-10-14T08:43:57Z</time>
      </trkpt>
      <trkpt lat="41.984520000" lon="2.550928100">
        <ele>223.60</ele>
        <time>2012-10-14T08:44:04Z</time>
      </trkpt>
      <trkpt lat="41.984550000" lon="2.550879100">
        <ele>223.60</ele>
        <time>2012-10-14T08:44:06Z</time>
      </trkpt>
      <trkpt lat="41.984608000" lon="2.550792100">
        <ele>223.60</ele>
        <time>2012-10-14T08:44:07Z</time>
      </trkpt>
      <trkpt lat="41.985046000" lon="2.550355100">
        <ele>224.60</ele>
        <time>2012-10-14T08:44:19Z</time>
      </trkpt>
      <trkpt lat="41.985149000" lon="2.550251100">
        <ele>224.60</ele>
        <time>2012-10-14T08:44:23Z</time>
      </trkpt>
      <trkpt lat="41.985294000" lon="2.550112100">
        <ele>224.60</ele>
        <time>2012-10-14T08:44:26Z</time>
      </trkpt>
      <trkpt lat="41.985680000" lon="2.549733100">
        <ele>225.60</ele>
        <time>2012-10-14T08:44:37Z</time>
      </trkpt>
      <trkpt lat="41.986076000" lon="2.549338100">
        <ele>226.10</ele>
        <time>2012-10-14T08:44:47Z</time>
      </trkpt>
      <trkpt lat="41.986187000" lon="2.549227100">
        <ele>226.10</ele>
        <time>2012-10-14T08:44:51Z</time>
      </trkpt>
      <trkpt lat="41.986557000" lon="2.548775100">
        <ele>226.50</ele>
        <time>2012-10-14T08:45:01Z</time>
      </trkpt>
      <trkpt lat="41.986732000" lon="2.548271100">
        <ele>227.00</ele>
        <time>2012-10-14T08:45:10Z</time>
      </trkpt>
      <trkpt lat="41.986763000" lon="2.547801100">
        <ele>227.50</ele>
        <time>2012-10-14T08:45:19Z</time>
      </trkpt>
      <trkpt lat="41.986729000" lon="2.547257100">
        <ele>227.50</ele>
        <time>2012-10-14T08:45:27Z</time>
      </trkpt>
      <trkpt lat="41.986702000" lon="2.547035100">
        <ele>228.00</ele>
        <time>2012-10-14T08:45:31Z</time>
      </trkpt>
      <trkpt lat="41.986607000" lon="2.546577100">
        <ele>228.40</ele>
        <time>2012-10-14T08:45:40Z</time>
      </trkpt>
      <trkpt lat="41.986481000" lon="2.546227100">
        <ele>228.90</ele>
        <time>2012-10-14T08:45:47Z</time>
      </trkpt>
      <trkpt lat="41.986229000" lon="2.545671100">
        <ele>229.90</ele>
        <time>2012-10-14T08:45:57Z</time>
      </trkpt>
      <trkpt lat="41.986088000" lon="2.545374100">
        <ele>230.40</ele>
        <time>2012-10-14T08:46:04Z</time>
      </trkpt>
      <trkpt lat="41.985973000" lon="2.545143100">
        <ele>230.90</ele>
        <time>2012-10-14T08:46:09Z</time>
      </trkpt>
      <trkpt lat="41.985710000" lon="2.544599100">
        <ele>231.80</ele>
        <time>2012-10-14T08:46:21Z</time>
      </trkpt>
      <trkpt lat="41.985512000" lon="2.544201100">
        <ele>232.30</ele>
        <time>2012-10-14T08:46:30Z</time>
      </trkpt>
      <trkpt lat="41.985287000" lon="2.543751100">
        <ele>233.30</ele>
        <time>2012-10-14T08:46:39Z</time>
      </trkpt>
      <trkpt lat="41.985264000" lon="2.543704100">
        <ele>233.30</ele>
        <time>2012-10-14T08:46:41Z</time>
      </trkpt>
      <trkpt lat="41.985214000" lon="2.543593100">
        <ele>233.70</ele>
        <time>2012-10-14T08:46:42Z</time>
      </trkpt>
      <trkpt lat="41.984955000" lon="2.543051100">
        <ele>234.70</ele>
        <time>2012-10-14T08:46:53Z</time>
      </trkpt>
      <trkpt lat="41.984810000" lon="2.542690100">
        <ele>234.70</ele>
        <time>2012-10-14T08:47:00Z</time>
      </trkpt>
      <trkpt lat="41.984753000" lon="2.542579100">
        <ele>234.70</ele>
        <time>2012-10-14T08:47:01Z</time>
      </trkpt>
      <trkpt lat="41.984558000" lon="2.542183100">
        <ele>234.20</ele>
        <time>2012-10-14T08:47:10Z</time>
      </trkpt>
      <trkpt lat="41.984413000" lon="2.541843100">
        <ele>234.20</ele>
        <time>2012-10-14T08:47:17Z</time>
      </trkpt>
      <trkpt lat="41.984283000" lon="2.541520100">
        <ele>234.70</ele>
        <time>2012-10-14T08:47:26Z</time>
      </trkpt>
      <trkpt lat="41.984161000" lon="2.541455100">
        <ele>234.70</ele>
        <time>2012-10-14T08:47:29Z</time>
      </trkpt>
      <trkpt lat="41.984119000" lon="2.541469100">
        <ele>234.70</ele>
        <time>2012-10-14T08:47:31Z</time>
      </trkpt>
      <trkpt lat="41.984047000" lon="2.541522100">
        <ele>235.20</ele>
        <time>2012-10-14T08:47:33Z</time>
      </trkpt>
      <trkpt lat="41.983662000" lon="2.541767100">
        <ele>235.20</ele>
        <time>2012-10-14T08:47:43Z</time>
      </trkpt>
      <trkpt lat="41.983379000" lon="2.541950100">
        <ele>235.20</ele>
        <time>2012-10-14T08:47:50Z</time>
      </trkpt>
      <trkpt lat="41.983265000" lon="2.541989100">
        <ele>235.70</ele>
        <time>2012-10-14T08:47:55Z</time>
      </trkpt>
      <trkpt lat="41.983101000" lon="2.541883100">
        <ele>236.60</ele>
        <time>2012-10-14T08:48:02Z</time>
      </trkpt>
      <trkpt lat="41.983055000" lon="2.541678100">
        <ele>237.60</ele>
        <time>2012-10-14T08:48:09Z</time>
      </trkpt>
      <trkpt lat="41.982983000" lon="2.541366100">
        <ele>240.00</ele>
        <time>2012-10-14T08:48:18Z</time>
      </trkpt>
      <trkpt lat="41.982952000" lon="2.541054100">
        <ele>241.90</ele>
        <time>2012-10-14T08:48:27Z</time>
      </trkpt>
      <trkpt lat="41.982933000" lon="2.540749100">
        <ele>243.40</ele>
        <time>2012-10-14T08:48:36Z</time>
      </trkpt>
      <trkpt lat="41.982922000" lon="2.540444100">
        <ele>245.30</ele>
        <time>2012-10-14T08:48:44Z</time>
      </trkpt>
      <trkpt lat="41.982914000" lon="2.540136100">
        <ele>246.70</ele>
        <time>2012-10-14T08:48:53Z</time>
      </trkpt>
      <trkpt lat="41.982914000" lon="2.539893100">
        <ele>248.20</ele>
        <time>2012-10-14T08:49:00Z</time>
      </trkpt>
      <trkpt lat="41.982857000" lon="2.539623100">
        <ele>249.60</ele>
        <time>2012-10-14T08:49:10Z</time>
      </trkpt>
      <trkpt lat="41.982674000" lon="2.539492100">
        <ele>253.00</ele>
        <time>2012-10-14T08:49:17Z</time>
      </trkpt>
      <trkpt lat="41.982548000" lon="2.539542100">
        <ele>255.90</ele>
        <time>2012-10-14T08:49:24Z</time>
      </trkpt>
      <trkpt lat="41.982452000" lon="2.539736100">
        <ele>255.90</ele>
        <time>2012-10-14T08:49:31Z</time>
      </trkpt>
      <trkpt lat="41.982452000" lon="2.539920100">
        <ele>255.90</ele>
        <time>2012-10-14T08:49:38Z</time>
      </trkpt>
      <trkpt lat="41.982479000" lon="2.540145100">
        <ele>257.30</ele>
        <time>2012-10-14T08:49:47Z</time>
      </trkpt>
      <trkpt lat="41.982502000" lon="2.540344100">
        <ele>258.20</ele>
        <time>2012-10-14T08:49:54Z</time>
      </trkpt>
      <trkpt lat="41.982536000" lon="2.540568100">
        <ele>259.70</ele>
        <time>2012-10-14T08:50:01Z</time>
      </trkpt>
      <trkpt lat="41.982582000" lon="2.540790100">
        <ele>261.10</ele>
        <time>2012-10-14T08:50:08Z</time>
      </trkpt>
      <trkpt lat="41.982590000" lon="2.541099100">
        <ele>262.60</ele>
        <time>2012-10-14T08:50:18Z</time>
      </trkpt>
      <trkpt lat="41.982578000" lon="2.541239100">
        <ele>263.50</ele>
        <time>2012-10-14T08:50:22Z</time>
      </trkpt>
      <trkpt lat="41.982456000" lon="2.541402100">
        <ele>265.50</ele>
        <time>2012-10-14T08:50:30Z</time>
      </trkpt>
      <trkpt lat="41.982414000" lon="2.541408100">
        <ele>265.50</ele>
        <time>2012-10-14T08:50:32Z</time>
      </trkpt>
      <trkpt lat="41.982269000" lon="2.541304100">
        <ele>267.40</ele>
        <time>2012-10-14T08:50:41Z</time>
      </trkpt>
      <trkpt lat="41.982243000" lon="2.541129100">
        <ele>269.30</ele>
        <time>2012-10-14T08:50:48Z</time>
      </trkpt>
      <trkpt lat="41.982265000" lon="2.540923100">
        <ele>271.20</ele>
        <time>2012-10-14T08:50:55Z</time>
      </trkpt>
      <trkpt lat="41.982277000" lon="2.540816100">
        <ele>271.70</ele>
        <time>2012-10-14T08:51:00Z</time>
      </trkpt>
      <trkpt lat="41.982227000" lon="2.540610100">
        <ele>273.60</ele>
        <time>2012-10-14T08:51:07Z</time>
      </trkpt>
      <trkpt lat="41.982216000" lon="2.540590100">
        <ele>273.60</ele>
        <time>2012-10-14T08:51:09Z</time>
      </trkpt>
      <trkpt lat="41.982052000" lon="2.540339100">
        <ele>275.60</ele>
        <time>2012-10-14T08:51:19Z</time>
      </trkpt>
      <trkpt lat="41.981934000" lon="2.540176100">
        <ele>277.00</ele>
        <time>2012-10-14T08:51:26Z</time>
      </trkpt>
      <trkpt lat="41.981876000" lon="2.540001100">
        <ele>278.40</ele>
        <time>2012-10-14T08:51:35Z</time>
      </trkpt>
      <trkpt lat="41.981804000" lon="2.539771100">
        <ele>279.90</ele>
        <time>2012-10-14T08:51:42Z</time>
      </trkpt>
      <trkpt lat="41.981728000" lon="2.539512100">
        <ele>281.80</ele>
        <time>2012-10-14T08:51:51Z</time>
      </trkpt>
      <trkpt lat="41.981670000" lon="2.539294100">
        <ele>282.80</ele>
        <time>2012-10-14T08:51:58Z</time>
      </trkpt>
      <trkpt lat="41.981682000" lon="2.539068100">
        <ele>283.20</ele>
        <time>2012-10-14T08:52:03Z</time>
      </trkpt>
      <trkpt lat="41.981773000" lon="2.538888100">
        <ele>284.20</ele>
        <time>2012-10-14T08:52:10Z</time>
      </trkpt>
      <trkpt lat="41.981934000" lon="2.538691100">
        <ele>286.10</ele>
        <time>2012-10-14T08:52:20Z</time>
      </trkpt>
      <trkpt lat="41.982040000" lon="2.538475100">
        <ele>287.60</ele>
        <time>2012-10-14T08:52:27Z</time>
      </trkpt>
      <trkpt lat="41.982121000" lon="2.538250100">
        <ele>289.50</ele>
        <time>2012-10-14T08:52:36Z</time>
      </trkpt>
      <trkpt lat="41.982216000" lon="2.538087100">
        <ele>291.40</ele>
        <time>2012-10-14T08:52:43Z</time>
      </trkpt>
      <trkpt lat="41.982285000" lon="2.537910100">
        <ele>292.40</ele>
        <time>2012-10-14T08:52:50Z</time>
      </trkpt>
      <trkpt lat="41.982346000" lon="2.537688100">
        <ele>294.30</ele>
        <time>2012-10-14T08:52:59Z</time>
      </trkpt>
      <trkpt lat="41.982368000" lon="2.537539100">
        <ele>295.30</ele>
        <time>2012-10-14T08:53:05Z</time>
      </trkpt>
      <trkpt lat="41.982422000" lon="2.537372100">
        <ele>297.20</ele>
        <time>2012-10-14T08:53:12Z</time>
      </trkpt>
      <trkpt lat="41.982517000" lon="2.537166100">
        <ele>298.10</ele>
        <time>2012-10-14T08:53:19Z</time>
      </trkpt>
      <trkpt lat="41.982613000" lon="2.536891100">
        <ele>299.60</ele>
        <time>2012-10-14T08:53:28Z</time>
      </trkpt>
      <trkpt lat="41.982662000" lon="2.536725100">
        <ele>301.00</ele>
        <time>2012-10-14T08:53:35Z</time>
      </trkpt>
      <trkpt lat="41.982742000" lon="2.536493100">
        <ele>303.00</ele>
        <time>2012-10-14T08:53:42Z</time>
      </trkpt>
      <trkpt lat="41.982773000" lon="2.536247100">
        <ele>304.40</ele>
        <time>2012-10-14T08:53:51Z</time>
      </trkpt>
      <trkpt lat="41.982773000" lon="2.535974100">
        <ele>306.30</ele>
        <time>2012-10-14T08:53:59Z</time>
      </trkpt>
      <trkpt lat="41.982792000" lon="2.535788100">
        <ele>307.30</ele>
        <time>2012-10-14T08:54:06Z</time>
      </trkpt>
      <trkpt lat="41.982849000" lon="2.535580100">
        <ele>309.70</ele>
        <time>2012-10-14T08:54:15Z</time>
      </trkpt>
      <trkpt lat="41.982887000" lon="2.535480100">
        <ele>313.00</ele>
        <time>2012-10-14T08:54:19Z</time>
      </trkpt>
      <trkpt lat="41.982983000" lon="2.535263100">
        <ele>314.50</ele>
        <time>2012-10-14T08:54:27Z</time>
      </trkpt>
      <trkpt lat="41.983074000" lon="2.535074100">
        <ele>314.50</ele>
        <time>2012-10-14T08:54:36Z</time>
      </trkpt>
      <trkpt lat="41.983150000" lon="2.534893100">
        <ele>315.50</ele>
        <time>2012-10-14T08:54:43Z</time>
      </trkpt>
      <trkpt lat="41.983154000" lon="2.534686100">
        <ele>315.90</ele>
        <time>2012-10-14T08:54:52Z</time>
      </trkpt>
      <trkpt lat="41.983070000" lon="2.534531100">
        <ele>316.90</ele>
        <time>2012-10-14T08:54:59Z</time>
      </trkpt>
      <trkpt lat="41.982876000" lon="2.534399100">
        <ele>320.30</ele>
        <time>2012-10-14T08:55:09Z</time>
      </trkpt>
      <trkpt lat="41.982773000" lon="2.534328100">
        <ele>323.10</ele>
        <time>2012-10-14T08:55:13Z</time>
      </trkpt>
      <trkpt lat="41.982613000" lon="2.534134100">
        <ele>323.60</ele>
        <time>2012-10-14T08:55:23Z</time>
      </trkpt>
      <trkpt lat="41.982605000" lon="2.533889100">
        <ele>323.60</ele>
        <time>2012-10-14T08:55:30Z</time>
      </trkpt>
      <trkpt lat="41.982723000" lon="2.533695100">
        <ele>323.60</ele>
        <time>2012-10-14T08:55:37Z</time>
      </trkpt>
      <trkpt lat="41.982872000" lon="2.533512100">
        <ele>324.10</ele>
        <time>2012-10-14T08:55:44Z</time>
      </trkpt>
      <trkpt lat="41.982994000" lon="2.533286100">
        <ele>326.00</ele>
        <time>2012-10-14T08:55:53Z</time>
      </trkpt>
      <trkpt lat="41.983021000" lon="2.533034100">
        <ele>327.50</ele>
        <time>2012-10-14T08:56:01Z</time>
      </trkpt>
      <trkpt lat="41.982941000" lon="2.532743100">
        <ele>328.90</ele>
        <time>2012-10-14T08:56:10Z</time>
      </trkpt>
      <trkpt lat="41.982853000" lon="2.532496100">
        <ele>330.40</ele>
        <time>2012-10-14T08:56:19Z</time>
      </trkpt>
      <trkpt lat="41.982777000" lon="2.532355100">
        <ele>331.80</ele>
        <time>2012-10-14T08:56:26Z</time>
      </trkpt>
      <trkpt lat="41.982651000" lon="2.532113100">
        <ele>333.70</ele>
        <time>2012-10-14T08:56:35Z</time>
      </trkpt>
      <trkpt lat="41.982552000" lon="2.531857100">
        <ele>335.60</ele>
        <time>2012-10-14T08:56:43Z</time>
      </trkpt>
      <trkpt lat="41.982464000" lon="2.531663100">
        <ele>336.10</ele>
        <time>2012-10-14T08:56:50Z</time>
      </trkpt>
      <trkpt lat="41.982407000" lon="2.531367100">
        <ele>338.00</ele>
        <time>2012-10-14T08:56:59Z</time>
      </trkpt>
      <trkpt lat="41.982365000" lon="2.531163100">
        <ele>340.00</ele>
        <time>2012-10-14T08:57:06Z</time>
      </trkpt>
      <trkpt lat="41.982307000" lon="2.530852100">
        <ele>341.90</ele>
        <time>2012-10-14T08:57:16Z</time>
      </trkpt>
      <trkpt lat="41.982254000" lon="2.530628100">
        <ele>343.30</ele>
        <time>2012-10-14T08:57:25Z</time>
      </trkpt>
      <trkpt lat="41.982185000" lon="2.530440100">
        <ele>346.70</ele>
        <time>2012-10-14T08:57:32Z</time>
      </trkpt>
      <trkpt lat="41.982124000" lon="2.530315100">
        <ele>350.10</ele>
        <time>2012-10-14T08:57:37Z</time>
      </trkpt>
      <trkpt lat="41.981956000" lon="2.530087100">
        <ele>350.10</ele>
        <time>2012-10-14T08:57:48Z</time>
      </trkpt>
      <trkpt lat="41.981846000" lon="2.529989100">
        <ele>350.10</ele>
        <time>2012-10-14T08:57:53Z</time>
      </trkpt>
      <trkpt lat="41.981663000" lon="2.529896100">
        <ele>350.10</ele>
        <time>2012-10-14T08:58:02Z</time>
      </trkpt>
      <trkpt lat="41.981480000" lon="2.529860100">
        <ele>351.50</ele>
        <time>2012-10-14T08:58:12Z</time>
      </trkpt>
      <trkpt lat="41.981327000" lon="2.529848100">
        <ele>352.00</ele>
        <time>2012-10-14T08:58:19Z</time>
      </trkpt>
      <trkpt lat="41.981098000" lon="2.529830100">
        <ele>352.90</ele>
        <time>2012-10-14T08:58:30Z</time>
      </trkpt>
      <trkpt lat="41.980907000" lon="2.529842100">
        <ele>352.90</ele>
        <time>2012-10-14T08:58:38Z</time>
      </trkpt>
      <trkpt lat="41.980652000" lon="2.529898100">
        <ele>353.40</ele>
        <time>2012-10-14T08:58:47Z</time>
      </trkpt>
      <trkpt lat="41.980381000" lon="2.529930100">
        <ele>353.40</ele>
        <time>2012-10-14T08:58:54Z</time>
      </trkpt>
      <trkpt lat="41.980076000" lon="2.529880100">
        <ele>353.90</ele>
        <time>2012-10-14T08:59:01Z</time>
      </trkpt>
      <trkpt lat="41.979782000" lon="2.529787100">
        <ele>353.90</ele>
        <time>2012-10-14T08:59:11Z</time>
      </trkpt>
      <trkpt lat="41.979683000" lon="2.529659100">
        <ele>354.40</ele>
        <time>2012-10-14T08:59:15Z</time>
      </trkpt>
      <trkpt lat="41.979591000" lon="2.529607100">
        <ele>354.40</ele>
        <time>2012-10-14T08:59:20Z</time>
      </trkpt>
      <trkpt lat="41.979534000" lon="2.529693100">
        <ele>354.40</ele>
        <time>2012-10-14T08:59:27Z</time>
      </trkpt>
      <trkpt lat="41.979584000" lon="2.529613100">
        <ele>354.40</ele>
        <time>2012-10-14T08:59:30Z</time>
      </trkpt>
      <trkpt lat="41.979546000" lon="2.529519100">
        <ele>354.40</ele>
        <time>2012-10-14T08:59:34Z</time>
      </trkpt>
      <trkpt lat="41.979511000" lon="2.529353100">
        <ele>354.40</ele>
        <time>2012-10-14T08:59:39Z</time>
      </trkpt>
      <trkpt lat="41.979511000" lon="2.529349100">
        <ele>354.90</ele>
        <time>2012-10-14T08:59:48Z</time>
      </trkpt>
      <trkpt lat="41.979511000" lon="2.529349100">
        <ele>354.90</ele>
        <time>2012-10-14T09:00:05Z</time>
      </trkpt>
      <trkpt lat="41.979485000" lon="2.529391100">
        <ele>355.80</ele>
        <time>2012-10-14T09:00:23Z</time>
      </trkpt>
      <trkpt lat="41.979527000" lon="2.529529100">
        <ele>355.80</ele>
        <time>2012-10-14T09:00:28Z</time>
      </trkpt>
      <trkpt lat="41.979477000" lon="2.529654100">
        <ele>355.80</ele>
        <time>2012-10-14T09:00:33Z</time>
      </trkpt>
      <trkpt lat="41.979427000" lon="2.529665100">
        <ele>355.80</ele>
        <time>2012-10-14T09:00:35Z</time>
      </trkpt>
      <trkpt lat="41.979069000" lon="2.529647100">
        <ele>355.80</ele>
        <time>2012-10-14T09:00:47Z</time>
      </trkpt>
      <trkpt lat="41.979057000" lon="2.529644100">
        <ele>355.80</ele>
        <time>2012-10-14T09:00:52Z</time>
      </trkpt>
      <trkpt lat="41.978985000" lon="2.529636100">
        <ele>355.80</ele>
        <time>2012-10-14T09:01:20Z</time>
      </trkpt>
      <trkpt lat="41.978767000" lon="2.529535100">
        <ele>355.80</ele>
        <time>2012-10-14T09:01:27Z</time>
      </trkpt>
      <trkpt lat="41.978561000" lon="2.529245100">
        <ele>355.80</ele>
        <time>2012-10-14T09:01:34Z</time>
      </trkpt>
      <trkpt lat="41.978424000" lon="2.529027100">
        <ele>355.80</ele>
        <time>2012-10-14T09:01:41Z</time>
      </trkpt>
      <trkpt lat="41.978283000" lon="2.528849100">
        <ele>355.80</ele>
        <time>2012-10-14T09:01:48Z</time>
      </trkpt>
      <trkpt lat="41.978092000" lon="2.528574100">
        <ele>355.80</ele>
        <time>2012-10-14T09:01:55Z</time>
      </trkpt>
      <trkpt lat="41.977867000" lon="2.528442100">
        <ele>355.80</ele>
        <time>2012-10-14T09:02:02Z</time>
      </trkpt>
      <trkpt lat="41.977551000" lon="2.528368100">
        <ele>356.30</ele>
        <time>2012-10-14T09:02:11Z</time>
      </trkpt>
      <trkpt lat="41.977512000" lon="2.528353100">
        <ele>356.30</ele>
        <time>2012-10-14T09:02:11Z</time>
      </trkpt>
      <trkpt lat="41.977413000" lon="2.528256100">
        <ele>356.30</ele>
        <time>2012-10-14T09:02:14Z</time>
      </trkpt>
      <trkpt lat="41.977337000" lon="2.527938100">
        <ele>356.30</ele>
        <time>2012-10-14T09:02:21Z</time>
      </trkpt>
      <trkpt lat="41.977345000" lon="2.527877100">
        <ele>356.30</ele>
        <time>2012-10-14T09:02:21Z</time>
      </trkpt>
      <trkpt lat="41.977409000" lon="2.527562100">
        <ele>356.80</ele>
        <time>2012-10-14T09:02:26Z</time>
      </trkpt>
      <trkpt lat="41.977470000" lon="2.527372100">
        <ele>356.80</ele>
        <time>2012-10-14T09:02:30Z</time>
      </trkpt>
      <trkpt lat="41.977451000" lon="2.527046100">
        <ele>356.80</ele>
        <time>2012-10-14T09:02:35Z</time>
      </trkpt>
      <trkpt lat="41.977379000" lon="2.526950100">
        <ele>356.80</ele>
        <time>2012-10-14T09:02:37Z</time>
      </trkpt>
      <trkpt lat="41.977264000" lon="2.526814100">
        <ele>357.30</ele>
        <time>2012-10-14T09:02:40Z</time>
      </trkpt>
      <trkpt lat="41.977207000" lon="2.526497100">
        <ele>357.30</ele>
        <time>2012-10-14T09:02:44Z</time>
      </trkpt>
      <trkpt lat="41.977245000" lon="2.526371100">
        <ele>357.30</ele>
        <time>2012-10-14T09:02:47Z</time>
      </trkpt>
      <trkpt lat="41.977333000" lon="2.526114100">
        <ele>357.30</ele>
        <time>2012-10-14T09:02:51Z</time>
      </trkpt>
      <trkpt lat="41.977333000" lon="2.525780100">
        <ele>357.30</ele>
        <time>2012-10-14T09:02:56Z</time>
      </trkpt>
      <trkpt lat="41.977303000" lon="2.525654100">
        <ele>357.30</ele>
        <time>2012-10-14T09:02:59Z</time>
      </trkpt>
      <trkpt lat="41.977203000" lon="2.525473100">
        <ele>357.30</ele>
        <time>2012-10-14T09:03:34Z</time>
      </trkpt>
      <trkpt lat="41.977234000" lon="2.525212100">
        <ele>357.30</ele>
        <time>2012-10-14T09:03:38Z</time>
      </trkpt>
      <trkpt lat="41.977322000" lon="2.524929100">
        <ele>357.30</ele>
        <time>2012-10-14T09:03:43Z</time>
      </trkpt>
      <trkpt lat="41.977318000" lon="2.524546100">
        <ele>357.80</ele>
        <time>2012-10-14T09:03:48Z</time>
      </trkpt>
      <trkpt lat="41.977417000" lon="2.524112100">
        <ele>357.80</ele>
        <time>2012-10-14T09:03:53Z</time>
      </trkpt>
      <trkpt lat="41.977520000" lon="2.523933100">
        <ele>357.80</ele>
        <time>2012-10-14T09:03:57Z</time>
      </trkpt>
      <trkpt lat="41.977535000" lon="2.523668100">
        <ele>357.80</ele>
        <time>2012-10-14T09:04:00Z</time>
      </trkpt>
      <trkpt lat="41.977390000" lon="2.523504100">
        <ele>357.80</ele>
        <time>2012-10-14T09:04:04Z</time>
      </trkpt>
      <trkpt lat="41.977112000" lon="2.523422100">
        <ele>358.20</ele>
        <time>2012-10-14T09:04:11Z</time>
      </trkpt>
      <trkpt lat="41.976852000" lon="2.523234100">
        <ele>357.30</ele>
        <time>2012-10-14T09:04:16Z</time>
      </trkpt>
      <trkpt lat="41.976810000" lon="2.523183100">
        <ele>357.30</ele>
        <time>2012-10-14T09:04:18Z</time>
      </trkpt>
      <trkpt lat="41.976608000" lon="2.523039100">
        <ele>357.30</ele>
        <time>2012-10-14T09:04:21Z</time>
      </trkpt>
      <trkpt lat="41.976486000" lon="2.522886100">
        <ele>357.30</ele>
        <time>2012-10-14T09:04:25Z</time>
      </trkpt>
      <trkpt lat="41.976250000" lon="2.522690100">
        <ele>356.30</ele>
        <time>2012-10-14T09:04:30Z</time>
      </trkpt>
      <trkpt lat="41.976196000" lon="2.522673100">
        <ele>356.30</ele>
        <time>2012-10-14T09:04:30Z</time>
      </trkpt>
      <trkpt lat="41.976025000" lon="2.522627100">
        <ele>355.80</ele>
        <time>2012-10-14T09:04:34Z</time>
      </trkpt>
      <trkpt lat="41.975792000" lon="2.522483100">
        <ele>355.30</ele>
        <time>2012-10-14T09:04:39Z</time>
      </trkpt>
      <trkpt lat="41.975605000" lon="2.522214100">
        <ele>355.30</ele>
        <time>2012-10-14T09:04:44Z</time>
      </trkpt>
      <trkpt lat="41.975391000" lon="2.522027100">
        <ele>355.30</ele>
        <time>2012-10-14T09:04:49Z</time>
      </trkpt>
      <trkpt lat="41.975285000" lon="2.522024100">
        <ele>355.30</ele>
        <time>2012-10-14T09:04:51Z</time>
      </trkpt>
      <trkpt lat="41.974907000" lon="2.522039100">
        <ele>354.90</ele>
        <time>2012-10-14T09:04:58Z</time>
      </trkpt>
      <trkpt lat="41.974705000" lon="2.522129100">
        <ele>354.90</ele>
        <time>2012-10-14T09:05:01Z</time>
      </trkpt>
      <trkpt lat="41.974380000" lon="2.522439100">
        <ele>354.90</ele>
        <time>2012-10-14T09:05:08Z</time>
      </trkpt>
      <trkpt lat="41.974102000" lon="2.522525100">
        <ele>354.90</ele>
        <time>2012-10-14T09:05:14Z</time>
      </trkpt>
      <trkpt lat="41.973881000" lon="2.522418100">
        <ele>354.90</ele>
        <time>2012-10-14T09:05:17Z</time>
      </trkpt>
      <trkpt lat="41.973663000" lon="2.522411100">
        <ele>354.90</ele>
        <time>2012-10-14T09:05:22Z</time>
      </trkpt>
      <trkpt lat="41.973228000" lon="2.522544100">
        <ele>354.90</ele>
        <time>2012-10-14T09:05:29Z</time>
      </trkpt>
      <trkpt lat="41.972950000" lon="2.522641100">
        <ele>354.90</ele>
        <time>2012-10-14T09:05:35Z</time>
      </trkpt>
      <trkpt lat="41.972641000" lon="2.522858100">
        <ele>354.90</ele>
        <time>2012-10-14T09:05:40Z</time>
      </trkpt>
      <trkpt lat="41.972313000" lon="2.522983100">
        <ele>354.90</ele>
        <time>2012-10-14T09:05:47Z</time>
      </trkpt>
      <trkpt lat="41.972084000" lon="2.523200100">
        <ele>354.90</ele>
        <time>2012-10-14T09:05:52Z</time>
      </trkpt>
      <trkpt lat="41.972050000" lon="2.523263100">
        <ele>354.90</ele>
        <time>2012-10-14T09:05:52Z</time>
      </trkpt>
      <trkpt lat="41.971970000" lon="2.523453100">
        <ele>354.90</ele>
        <time>2012-10-14T09:05:55Z</time>
      </trkpt>
      <trkpt lat="41.971874000" lon="2.523632100">
        <ele>354.90</ele>
        <time>2012-10-14T09:05:59Z</time>
      </trkpt>
      <trkpt lat="41.971756000" lon="2.523977100">
        <ele>355.80</ele>
        <time>2012-10-14T09:06:04Z</time>
      </trkpt>
      <trkpt lat="41.971596000" lon="2.524043100">
        <ele>355.80</ele>
        <time>2012-10-14T09:06:06Z</time>
      </trkpt>
      <trkpt lat="41.971382000" lon="2.524143100">
        <ele>356.30</ele>
        <time>2012-10-14T09:06:11Z</time>
      </trkpt>
      <trkpt lat="41.971203000" lon="2.524377100">
        <ele>356.30</ele>
        <time>2012-10-14T09:06:16Z</time>
      </trkpt>
      <trkpt lat="41.970921000" lon="2.524713100">
        <ele>356.30</ele>
        <time>2012-10-14T09:06:23Z</time>
      </trkpt>
      <trkpt lat="41.970654000" lon="2.524816100">
        <ele>356.80</ele>
        <time>2012-10-14T09:06:29Z</time>
      </trkpt>
      <trkpt lat="41.970448000" lon="2.524931100">
        <ele>356.80</ele>
        <time>2012-10-14T09:06:32Z</time>
      </trkpt>
      <trkpt lat="41.970318000" lon="2.525078100">
        <ele>356.80</ele>
        <time>2012-10-14T09:06:36Z</time>
      </trkpt>
      <trkpt lat="41.970173000" lon="2.525153100">
        <ele>356.80</ele>
        <time>2012-10-14T09:06:39Z</time>
      </trkpt>
      <trkpt lat="41.969971000" lon="2.525090100">
        <ele>356.80</ele>
        <time>2012-10-14T09:06:42Z</time>
      </trkpt>
      <trkpt lat="41.969955000" lon="2.525029100">
        <ele>356.80</ele>
        <time>2012-10-14T09:06:44Z</time>
      </trkpt>
      <trkpt lat="41.969860000" lon="2.524798100">
        <ele>356.80</ele>
        <time>2012-10-14T09:06:48Z</time>
      </trkpt>
      <trkpt lat="41.969776000" lon="2.524835100">
        <ele>358.20</ele>
        <time>2012-10-14T09:06:53Z</time>
      </trkpt>
      <trkpt lat="41.969673000" lon="2.524884100">
        <ele>361.10</ele>
        <time>2012-10-14T09:06:58Z</time>
      </trkpt>
      <trkpt lat="41.969616000" lon="2.524914100">
        <ele>364.00</ele>
        <time>2012-10-14T09:07:02Z</time>
      </trkpt>
      <trkpt lat="41.969582000" lon="2.524928100">
        <ele>365.00</ele>
        <time>2012-10-14T09:07:05Z</time>
      </trkpt>
      <trkpt lat="41.969460000" lon="2.524987100">
        <ele>365.90</ele>
        <time>2012-10-14T09:07:12Z</time>
      </trkpt>
      <trkpt lat="41.969334000" lon="2.525044100">
        <ele>366.40</ele>
        <time>2012-10-14T09:07:21Z</time>
      </trkpt>
      <trkpt lat="41.969200000" lon="2.525087100">
        <ele>368.30</ele>
        <time>2012-10-14T09:07:28Z</time>
      </trkpt>
      <trkpt lat="41.969040000" lon="2.525118100">
        <ele>369.80</ele>
        <time>2012-10-14T09:07:38Z</time>
      </trkpt>
      <trkpt lat="41.968933000" lon="2.525152100">
        <ele>371.70</ele>
        <time>2012-10-14T09:07:45Z</time>
      </trkpt>
      <trkpt lat="41.968822000" lon="2.525209100">
        <ele>373.10</ele>
        <time>2012-10-14T09:07:54Z</time>
      </trkpt>
      <trkpt lat="41.968811000" lon="2.525216100">
        <ele>373.60</ele>
        <time>2012-10-14T09:07:54Z</time>
      </trkpt>
      <trkpt lat="41.968681000" lon="2.525286100">
        <ele>375.50</ele>
        <time>2012-10-14T09:08:04Z</time>
      </trkpt>
      <trkpt lat="41.968575000" lon="2.525373100">
        <ele>378.90</ele>
        <time>2012-10-14T09:08:11Z</time>
      </trkpt>
      <trkpt lat="41.968498000" lon="2.525440100">
        <ele>382.30</ele>
        <time>2012-10-14T09:08:15Z</time>
      </trkpt>
      <trkpt lat="41.968384000" lon="2.525560100">
        <ele>382.70</ele>
        <time>2012-10-14T09:08:25Z</time>
      </trkpt>
      <trkpt lat="41.968307000" lon="2.525677100">
        <ele>384.20</ele>
        <time>2012-10-14T09:08:32Z</time>
      </trkpt>
      <trkpt lat="41.968239000" lon="2.525836100">
        <ele>386.10</ele>
        <time>2012-10-14T09:08:41Z</time>
      </trkpt>
      <trkpt lat="41.968178000" lon="2.526031100">
        <ele>387.50</ele>
        <time>2012-10-14T09:08:50Z</time>
      </trkpt>
      <trkpt lat="41.968128000" lon="2.526216100">
        <ele>390.00</ele>
        <time>2012-10-14T09:09:00Z</time>
      </trkpt>
      <trkpt lat="41.968094000" lon="2.526279100">
        <ele>390.40</ele>
        <time>2012-10-14T09:09:05Z</time>
      </trkpt>
      <trkpt lat="41.967983000" lon="2.526465100">
        <ele>392.80</ele>
        <time>2012-10-14T09:09:16Z</time>
      </trkpt>
      <trkpt lat="41.967934000" lon="2.526572100">
        <ele>394.80</ele>
        <time>2012-10-14T09:09:23Z</time>
      </trkpt>
      <trkpt lat="41.967857000" lon="2.526776100">
        <ele>396.70</ele>
        <time>2012-10-14T09:09:31Z</time>
      </trkpt>
      <trkpt lat="41.967800000" lon="2.527009100">
        <ele>398.10</ele>
        <time>2012-10-14T09:09:42Z</time>
      </trkpt>
      <trkpt lat="41.967751000" lon="2.527158100">
        <ele>400.00</ele>
        <time>2012-10-14T09:09:49Z</time>
      </trkpt>
      <trkpt lat="41.967651000" lon="2.527273100">
        <ele>401.50</ele>
        <time>2012-10-14T09:09:58Z</time>
      </trkpt>
      <trkpt lat="41.967510000" lon="2.527367100">
        <ele>403.40</ele>
        <time>2012-10-14T09:10:06Z</time>
      </trkpt>
      <trkpt lat="41.967411000" lon="2.527415100">
        <ele>404.90</ele>
        <time>2012-10-14T09:10:15Z</time>
      </trkpt>
      <trkpt lat="41.967319000" lon="2.527443100">
        <ele>406.30</ele>
        <time>2012-10-14T09:10:22Z</time>
      </trkpt>
      <trkpt lat="41.967205000" lon="2.527488100">
        <ele>409.70</ele>
        <time>2012-10-14T09:10:29Z</time>
      </trkpt>
      <trkpt lat="41.967148000" lon="2.527523100">
        <ele>413.00</ele>
        <time>2012-10-14T09:10:34Z</time>
      </trkpt>
      <trkpt lat="41.966988000" lon="2.527651100">
        <ele>415.00</ele>
        <time>2012-10-14T09:10:45Z</time>
      </trkpt>
      <trkpt lat="41.966888000" lon="2.527778100">
        <ele>415.90</ele>
        <time>2012-10-14T09:10:53Z</time>
      </trkpt>
      <trkpt lat="41.966789000" lon="2.527875100">
        <ele>417.40</ele>
        <time>2012-10-14T09:11:00Z</time>
      </trkpt>
      <trkpt lat="41.966747000" lon="2.527926100">
        <ele>418.30</ele>
        <time>2012-10-14T09:11:04Z</time>
      </trkpt>
      <trkpt lat="41.966595000" lon="2.528039100">
        <ele>420.70</ele>
        <time>2012-10-14T09:11:16Z</time>
      </trkpt>
      <trkpt lat="41.966480000" lon="2.528131100">
        <ele>422.60</ele>
        <time>2012-10-14T09:11:25Z</time>
      </trkpt>
      <trkpt lat="41.966358000" lon="2.528248100">
        <ele>425.50</ele>
        <time>2012-10-14T09:11:35Z</time>
      </trkpt>
      <trkpt lat="41.966290000" lon="2.528323100">
        <ele>429.90</ele>
        <time>2012-10-14T09:11:40Z</time>
      </trkpt>
      <trkpt lat="41.966274000" lon="2.528344100">
        <ele>430.30</ele>
        <time>2012-10-14T09:11:42Z</time>
      </trkpt>
      <trkpt lat="41.966213000" lon="2.528561100">
        <ele>430.80</ele>
        <time>2012-10-14T09:11:53Z</time>
      </trkpt>
      <trkpt lat="41.966206000" lon="2.528763100">
        <ele>431.80</ele>
        <time>2012-10-14T09:12:01Z</time>
      </trkpt>
      <trkpt lat="41.966221000" lon="2.528941100">
        <ele>433.70</ele>
        <time>2012-10-14T09:12:10Z</time>
      </trkpt>
      <trkpt lat="41.966232000" lon="2.529107100">
        <ele>435.60</ele>
        <time>2012-10-14T09:12:20Z</time>
      </trkpt>
      <trkpt lat="41.966228000" lon="2.529236100">
        <ele>437.50</ele>
        <time>2012-10-14T09:12:29Z</time>
      </trkpt>
      <trkpt lat="41.966202000" lon="2.529351100">
        <ele>440.40</ele>
        <time>2012-10-14T09:12:36Z</time>
      </trkpt>
      <trkpt lat="41.966171000" lon="2.529442100">
        <ele>443.80</ele>
        <time>2012-10-14T09:12:41Z</time>
      </trkpt>
      <trkpt lat="41.966125000" lon="2.529626100">
        <ele>444.30</ele>
        <time>2012-10-14T09:12:52Z</time>
      </trkpt>
      <trkpt lat="41.966015000" lon="2.529763100">
        <ele>445.70</ele>
        <time>2012-10-14T09:13:02Z</time>
      </trkpt>
      <trkpt lat="41.965939000" lon="2.529741100">
        <ele>446.70</ele>
        <time>2012-10-14T09:13:09Z</time>
      </trkpt>
      <trkpt lat="41.965935000" lon="2.529728100">
        <ele>446.70</ele>
        <time>2012-10-14T09:13:09Z</time>
      </trkpt>
      <trkpt lat="41.965916000" lon="2.529643100">
        <ele>447.60</ele>
        <time>2012-10-14T09:13:14Z</time>
      </trkpt>
      <trkpt lat="41.965954000" lon="2.529477100">
        <ele>449.10</ele>
        <time>2012-10-14T09:13:23Z</time>
      </trkpt>
      <trkpt lat="41.965954000" lon="2.529269100">
        <ele>450.00</ele>
        <time>2012-10-14T09:13:32Z</time>
      </trkpt>
      <trkpt lat="41.965908000" lon="2.529054100">
        <ele>452.00</ele>
        <time>2012-10-14T09:13:41Z</time>
      </trkpt>
      <trkpt lat="41.965851000" lon="2.528863100">
        <ele>452.90</ele>
        <time>2012-10-14T09:13:49Z</time>
      </trkpt>
      <trkpt lat="41.965828000" lon="2.528643100">
        <ele>453.90</ele>
        <time>2012-10-14T09:13:58Z</time>
      </trkpt>
      <trkpt lat="41.965847000" lon="2.528459100">
        <ele>454.40</ele>
        <time>2012-10-14T09:14:05Z</time>
      </trkpt>
      <trkpt lat="41.965881000" lon="2.528261100">
        <ele>455.80</ele>
        <time>2012-10-14T09:14:14Z</time>
      </trkpt>
      <trkpt lat="41.965954000" lon="2.528033100">
        <ele>456.80</ele>
        <time>2012-10-14T09:14:22Z</time>
      </trkpt>
      <trkpt lat="41.966000000" lon="2.527795100">
        <ele>458.70</ele>
        <time>2012-10-14T09:14:33Z</time>
      </trkpt>
      <trkpt lat="41.966007000" lon="2.527558100">
        <ele>460.10</ele>
        <time>2012-10-14T09:14:41Z</time>
      </trkpt>
      <trkpt lat="41.966110000" lon="2.527449100">
        <ele>461.10</ele>
        <time>2012-10-14T09:14:48Z</time>
      </trkpt>
      <trkpt lat="41.966263000" lon="2.527349100">
        <ele>462.00</ele>
        <time>2012-10-14T09:14:57Z</time>
      </trkpt>
      <trkpt lat="41.966431000" lon="2.527173100">
        <ele>463.00</ele>
        <time>2012-10-14T09:15:06Z</time>
      </trkpt>
      <trkpt lat="41.966637000" lon="2.526951100">
        <ele>464.00</ele>
        <time>2012-10-14T09:15:16Z</time>
      </trkpt>
      <trkpt lat="41.966866000" lon="2.526639100">
        <ele>464.00</ele>
        <time>2012-10-14T09:15:29Z</time>
      </trkpt>
      <trkpt lat="41.967083000" lon="2.526374100">
        <ele>464.90</ele>
        <time>2012-10-14T09:15:41Z</time>
      </trkpt>
      <trkpt lat="41.967171000" lon="2.526100100">
        <ele>465.90</ele>
        <time>2012-10-14T09:15:49Z</time>
      </trkpt>
      <trkpt lat="41.967239000" lon="2.525742100">
        <ele>466.40</ele>
        <time>2012-10-14T09:16:00Z</time>
      </trkpt>
      <trkpt lat="41.967312000" lon="2.525445100">
        <ele>467.30</ele>
        <time>2012-10-14T09:16:09Z</time>
      </trkpt>
      <trkpt lat="41.967365000" lon="2.525244100">
        <ele>467.80</ele>
        <time>2012-10-14T09:16:14Z</time>
      </trkpt>
      <trkpt lat="41.967445000" lon="2.524968100">
        <ele>468.80</ele>
        <time>2012-10-14T09:16:23Z</time>
      </trkpt>
      <trkpt lat="41.967567000" lon="2.524735100">
        <ele>468.80</ele>
        <time>2012-10-14T09:16:31Z</time>
      </trkpt>
      <trkpt lat="41.967808000" lon="2.524457100">
        <ele>469.70</ele>
        <time>2012-10-14T09:16:42Z</time>
      </trkpt>
      <trkpt lat="41.968033000" lon="2.524200100">
        <ele>470.70</ele>
        <time>2012-10-14T09:16:54Z</time>
      </trkpt>
      <trkpt lat="41.968197000" lon="2.523969100">
        <ele>472.60</ele>
        <time>2012-10-14T09:17:03Z</time>
      </trkpt>
      <trkpt lat="41.968254000" lon="2.523761100">
        <ele>474.10</ele>
        <time>2012-10-14T09:17:10Z</time>
      </trkpt>
      <trkpt lat="41.968243000" lon="2.523556100">
        <ele>475.00</ele>
        <time>2012-10-14T09:17:17Z</time>
      </trkpt>
      <trkpt lat="41.968182000" lon="2.523364100">
        <ele>477.00</ele>
        <time>2012-10-14T09:17:25Z</time>
      </trkpt>
      <trkpt lat="41.968109000" lon="2.523200100">
        <ele>478.40</ele>
        <time>2012-10-14T09:17:32Z</time>
      </trkpt>
      <trkpt lat="41.968033000" lon="2.523113100">
        <ele>481.80</ele>
        <time>2012-10-14T09:17:39Z</time>
      </trkpt>
      <trkpt lat="41.967976000" lon="2.523068100">
        <ele>485.10</ele>
        <time>2012-10-14T09:17:43Z</time>
      </trkpt>
      <trkpt lat="41.967945000" lon="2.523060100">
        <ele>485.10</ele>
        <time>2012-10-14T09:17:44Z</time>
      </trkpt>
      <trkpt lat="41.967918000" lon="2.523071100">
        <ele>485.60</ele>
        <time>2012-10-14T09:17:46Z</time>
      </trkpt>
      <trkpt lat="41.967907000" lon="2.523215100">
        <ele>485.60</ele>
        <time>2012-10-14T09:17:55Z</time>
      </trkpt>
      <trkpt lat="41.967907000" lon="2.523234100">
        <ele>485.60</ele>
        <time>2012-10-14T09:17:55Z</time>
      </trkpt>
      <trkpt lat="41.967941000" lon="2.523420100">
        <ele>486.10</ele>
        <time>2012-10-14T09:18:05Z</time>
      </trkpt>
      <trkpt lat="41.967941000" lon="2.523590100">
        <ele>487.50</ele>
        <time>2012-10-14T09:18:14Z</time>
      </trkpt>
      <trkpt lat="41.967896000" lon="2.523780100">
        <ele>489.50</ele>
        <time>2012-10-14T09:18:24Z</time>
      </trkpt>
      <trkpt lat="41.967819000" lon="2.523945100">
        <ele>491.40</ele>
        <time>2012-10-14T09:18:35Z</time>
      </trkpt>
      <trkpt lat="41.967724000" lon="2.524047100">
        <ele>493.30</ele>
        <time>2012-10-14T09:18:44Z</time>
      </trkpt>
      <trkpt lat="41.967594000" lon="2.524142100">
        <ele>494.70</ele>
        <time>2012-10-14T09:18:54Z</time>
      </trkpt>
      <trkpt lat="41.967525000" lon="2.524202100">
        <ele>496.70</ele>
        <time>2012-10-14T09:19:01Z</time>
      </trkpt>
      <trkpt lat="41.967411000" lon="2.524276100">
        <ele>498.10</ele>
        <time>2012-10-14T09:19:08Z</time>
      </trkpt>
      <trkpt lat="41.967331000" lon="2.524329100">
        <ele>499.50</ele>
        <time>2012-10-14T09:19:15Z</time>
      </trkpt>
      <trkpt lat="41.967228000" lon="2.524426100">
        <ele>501.50</ele>
        <time>2012-10-14T09:19:24Z</time>
      </trkpt>
      <trkpt lat="41.967094000" lon="2.524594100">
        <ele>503.40</ele>
        <time>2012-10-14T09:19:34Z</time>
      </trkpt>
      <trkpt lat="41.967041000" lon="2.524724100">
        <ele>507.20</ele>
        <time>2012-10-14T09:19:39Z</time>
      </trkpt>
      <trkpt lat="41.966972000" lon="2.524879100">
        <ele>509.20</ele>
        <time>2012-10-14T09:19:48Z</time>
      </trkpt>
      <trkpt lat="41.966866000" lon="2.525056100">
        <ele>509.20</ele>
        <time>2012-10-14T09:19:57Z</time>
      </trkpt>
      <trkpt lat="41.966759000" lon="2.525197100">
        <ele>509.60</ele>
        <time>2012-10-14T09:20:07Z</time>
      </trkpt>
      <trkpt lat="41.966679000" lon="2.525333100">
        <ele>511.10</ele>
        <time>2012-10-14T09:20:14Z</time>
      </trkpt>
      <trkpt lat="41.966595000" lon="2.525525100">
        <ele>512.50</ele>
        <time>2012-10-14T09:20:23Z</time>
      </trkpt>
      <trkpt lat="41.966553000" lon="2.525594100">
        <ele>513.50</ele>
        <time>2012-10-14T09:20:28Z</time>
      </trkpt>
      <trkpt lat="41.966408000" lon="2.525745100">
        <ele>514.40</ele>
        <time>2012-10-14T09:20:39Z</time>
      </trkpt>
      <trkpt lat="41.966282000" lon="2.525827100">
        <ele>516.40</ele>
        <time>2012-10-14T09:20:47Z</time>
      </trkpt>
      <trkpt lat="41.966148000" lon="2.525914100">
        <ele>517.80</ele>
        <time>2012-10-14T09:20:56Z</time>
      </trkpt>
      <trkpt lat="41.966030000" lon="2.526001100">
        <ele>519.20</ele>
        <time>2012-10-14T09:21:05Z</time>
      </trkpt>
      <trkpt lat="41.965866000" lon="2.526105100">
        <ele>520.70</ele>
        <time>2012-10-14T09:21:15Z</time>
      </trkpt>
      <trkpt lat="41.965679000" lon="2.526198100">
        <ele>523.60</ele>
        <time>2012-10-14T09:21:26Z</time>
      </trkpt>
      <trkpt lat="41.965527000" lon="2.526262100">
        <ele>525.00</ele>
        <time>2012-10-14T09:21:34Z</time>
      </trkpt>
      <trkpt lat="41.965416000" lon="2.526311100">
        <ele>526.50</ele>
        <time>2012-10-14T09:21:41Z</time>
      </trkpt>
      <trkpt lat="41.965256000" lon="2.526378100">
        <ele>527.90</ele>
        <time>2012-10-14T09:21:50Z</time>
      </trkpt>
      <trkpt lat="41.965134000" lon="2.526446100">
        <ele>529.30</ele>
        <time>2012-10-14T09:21:59Z</time>
      </trkpt>
      <trkpt lat="41.964962000" lon="2.526542100">
        <ele>530.80</ele>
        <time>2012-10-14T09:22:07Z</time>
      </trkpt>
      <trkpt lat="41.964802000" lon="2.526635100">
        <ele>532.20</ele>
        <time>2012-10-14T09:22:16Z</time>
      </trkpt>
      <trkpt lat="41.964531000" lon="2.526672100">
        <ele>533.20</ele>
        <time>2012-10-14T09:22:28Z</time>
      </trkpt>
      <trkpt lat="41.964329000" lon="2.526715100">
        <ele>534.20</ele>
        <time>2012-10-14T09:22:37Z</time>
      </trkpt>
      <trkpt lat="41.964153000" lon="2.526744100">
        <ele>535.10</ele>
        <time>2012-10-14T09:22:46Z</time>
      </trkpt>
      <trkpt lat="41.964096000" lon="2.526771100">
        <ele>535.60</ele>
        <time>2012-10-14T09:22:49Z</time>
      </trkpt>
      <trkpt lat="41.964043000" lon="2.526963100">
        <ele>536.50</ele>
        <time>2012-10-14T09:22:56Z</time>
      </trkpt>
      <trkpt lat="41.964176000" lon="2.527142100">
        <ele>537.00</ele>
        <time>2012-10-14T09:23:05Z</time>
      </trkpt>
      <trkpt lat="41.964413000" lon="2.527350100">
        <ele>539.00</ele>
        <time>2012-10-14T09:23:15Z</time>
      </trkpt>
      <trkpt lat="41.964554000" lon="2.527595100">
        <ele>540.40</ele>
        <time>2012-10-14T09:23:26Z</time>
      </trkpt>
      <trkpt lat="41.964546000" lon="2.527813100">
        <ele>541.80</ele>
        <time>2012-10-14T09:23:33Z</time>
      </trkpt>
      <trkpt lat="41.964478000" lon="2.528023100">
        <ele>542.80</ele>
        <time>2012-10-14T09:23:43Z</time>
      </trkpt>
      <trkpt lat="41.964424000" lon="2.528244100">
        <ele>544.20</ele>
        <time>2012-10-14T09:23:52Z</time>
      </trkpt>
      <trkpt lat="41.964382000" lon="2.528463100">
        <ele>545.70</ele>
        <time>2012-10-14T09:23:59Z</time>
      </trkpt>
      <trkpt lat="41.964355000" lon="2.528625100">
        <ele>548.60</ele>
        <time>2012-10-14T09:24:06Z</time>
      </trkpt>
      <trkpt lat="41.964321000" lon="2.528751100">
        <ele>551.90</ele>
        <time>2012-10-14T09:24:11Z</time>
      </trkpt>
      <trkpt lat="41.964268000" lon="2.528925100">
        <ele>552.90</ele>
        <time>2012-10-14T09:24:18Z</time>
      </trkpt>
      <trkpt lat="41.964142000" lon="2.529042100">
        <ele>552.90</ele>
        <time>2012-10-14T09:24:27Z</time>
      </trkpt>
      <trkpt lat="41.963989000" lon="2.529058100">
        <ele>554.30</ele>
        <time>2012-10-14T09:24:34Z</time>
      </trkpt>
      <trkpt lat="41.963837000" lon="2.529019100">
        <ele>554.80</ele>
        <time>2012-10-14T09:24:42Z</time>
      </trkpt>
      <trkpt lat="41.963638000" lon="2.528938100">
        <ele>556.30</ele>
        <time>2012-10-14T09:24:53Z</time>
      </trkpt>
      <trkpt lat="41.963444000" lon="2.528936100">
        <ele>557.20</ele>
        <time>2012-10-14T09:25:02Z</time>
      </trkpt>
      <trkpt lat="41.963276000" lon="2.529025100">
        <ele>558.70</ele>
        <time>2012-10-14T09:25:10Z</time>
      </trkpt>
      <trkpt lat="41.963078000" lon="2.529216100">
        <ele>559.60</ele>
        <time>2012-10-14T09:25:19Z</time>
      </trkpt>
      <trkpt lat="41.962994000" lon="2.529346100">
        <ele>559.60</ele>
        <time>2012-10-14T09:25:24Z</time>
      </trkpt>
      <trkpt lat="41.963036000" lon="2.529597100">
        <ele>560.10</ele>
        <time>2012-10-14T09:25:33Z</time>
      </trkpt>
      <trkpt lat="41.963081000" lon="2.529789100">
        <ele>560.60</ele>
        <time>2012-10-14T09:25:40Z</time>
      </trkpt>
      <trkpt lat="41.963097000" lon="2.529973100">
        <ele>562.00</ele>
        <time>2012-10-14T09:25:47Z</time>
      </trkpt>
      <trkpt lat="41.963127000" lon="2.530204100">
        <ele>563.00</ele>
        <time>2012-10-14T09:25:56Z</time>
      </trkpt>
      <trkpt lat="41.963158000" lon="2.530404100">
        <ele>564.90</ele>
        <time>2012-10-14T09:26:04Z</time>
      </trkpt>
      <trkpt lat="41.963139000" lon="2.530571100">
        <ele>566.80</ele>
        <time>2012-10-14T09:26:11Z</time>
      </trkpt>
      <trkpt lat="41.963028000" lon="2.530777100">
        <ele>568.30</ele>
        <time>2012-10-14T09:26:20Z</time>
      </trkpt>
      <trkpt lat="41.962994000" lon="2.530954100">
        <ele>569.70</ele>
        <time>2012-10-14T09:26:29Z</time>
      </trkpt>
      <trkpt lat="41.962952000" lon="2.531151100">
        <ele>571.20</ele>
        <time>2012-10-14T09:26:36Z</time>
      </trkpt>
      <trkpt lat="41.962822000" lon="2.531322100">
        <ele>571.60</ele>
        <time>2012-10-14T09:26:46Z</time>
      </trkpt>
      <trkpt lat="41.962719000" lon="2.531535100">
        <ele>572.60</ele>
        <time>2012-10-14T09:26:55Z</time>
      </trkpt>
      <trkpt lat="41.962635000" lon="2.531721100">
        <ele>574.00</ele>
        <time>2012-10-14T09:27:05Z</time>
      </trkpt>
      <trkpt lat="41.962475000" lon="2.531830100">
        <ele>576.00</ele>
        <time>2012-10-14T09:27:14Z</time>
      </trkpt>
      <trkpt lat="41.962337000" lon="2.531830100">
        <ele>576.50</ele>
        <time>2012-10-14T09:27:21Z</time>
      </trkpt>
      <trkpt lat="41.962219000" lon="2.531919100">
        <ele>577.40</ele>
        <time>2012-10-14T09:27:30Z</time>
      </trkpt>
      <trkpt lat="41.962166000" lon="2.532086100">
        <ele>578.40</ele>
        <time>2012-10-14T09:27:37Z</time>
      </trkpt>
      <trkpt lat="41.962166000" lon="2.532319100">
        <ele>580.80</ele>
        <time>2012-10-14T09:27:47Z</time>
      </trkpt>
      <trkpt lat="41.962193000" lon="2.532537100">
        <ele>582.20</ele>
        <time>2012-10-14T09:27:56Z</time>
      </trkpt>
      <trkpt lat="41.962181000" lon="2.532737100">
        <ele>583.20</ele>
        <time>2012-10-14T09:28:06Z</time>
      </trkpt>
      <trkpt lat="41.962074000" lon="2.532926100">
        <ele>584.10</ele>
        <time>2012-10-14T09:28:15Z</time>
      </trkpt>
      <trkpt lat="41.961933000" lon="2.533126100">
        <ele>585.60</ele>
        <time>2012-10-14T09:28:24Z</time>
      </trkpt>
      <trkpt lat="41.961807000" lon="2.533330100">
        <ele>586.50</ele>
        <time>2012-10-14T09:28:34Z</time>
      </trkpt>
      <trkpt lat="41.961681000" lon="2.533498100">
        <ele>588.00</ele>
        <time>2012-10-14T09:28:43Z</time>
      </trkpt>
      <trkpt lat="41.961559000" lon="2.533659100">
        <ele>589.40</ele>
        <time>2012-10-14T09:28:53Z</time>
      </trkpt>
      <trkpt lat="41.961407000" lon="2.533871100">
        <ele>591.30</ele>
        <time>2012-10-14T09:29:04Z</time>
      </trkpt>
      <trkpt lat="41.961315000" lon="2.534055100">
        <ele>592.30</ele>
        <time>2012-10-14T09:29:11Z</time>
      </trkpt>
      <trkpt lat="41.961231000" lon="2.534254100">
        <ele>593.80</ele>
        <time>2012-10-14T09:29:21Z</time>
      </trkpt>
      <trkpt lat="41.961189000" lon="2.534432100">
        <ele>595.70</ele>
        <time>2012-10-14T09:29:28Z</time>
      </trkpt>
      <trkpt lat="41.961155000" lon="2.534597100">
        <ele>596.60</ele>
        <time>2012-10-14T09:29:35Z</time>
      </trkpt>
      <trkpt lat="41.961132000" lon="2.534734100">
        <ele>598.10</ele>
        <time>2012-10-14T09:29:42Z</time>
      </trkpt>
      <trkpt lat="41.961105000" lon="2.534885100">
        <ele>599.00</ele>
        <time>2012-10-14T09:29:49Z</time>
      </trkpt>
      <trkpt lat="41.961056000" lon="2.535075100">
        <ele>600.00</ele>
        <time>2012-10-14T09:29:58Z</time>
      </trkpt>
      <trkpt lat="41.960991000" lon="2.535221100">
        <ele>601.40</ele>
        <time>2012-10-14T09:30:05Z</time>
      </trkpt>
      <trkpt lat="41.960953000" lon="2.535386100">
        <ele>602.40</ele>
        <time>2012-10-14T09:30:12Z</time>
      </trkpt>
      <trkpt lat="41.960964000" lon="2.535590100">
        <ele>603.80</ele>
        <time>2012-10-14T09:30:22Z</time>
      </trkpt>
      <trkpt lat="41.960991000" lon="2.535818100">
        <ele>606.70</ele>
        <time>2012-10-14T09:30:31Z</time>
      </trkpt>
      <trkpt lat="41.961002000" lon="2.535924100">
        <ele>609.60</ele>
        <time>2012-10-14T09:30:36Z</time>
      </trkpt>
      <trkpt lat="41.961014000" lon="2.536000100">
        <ele>613.00</ele>
        <time>2012-10-14T09:30:40Z</time>
      </trkpt>
      <trkpt lat="41.961029000" lon="2.536154100">
        <ele>613.50</ele>
        <time>2012-10-14T09:30:47Z</time>
      </trkpt>
      <trkpt lat="41.961025000" lon="2.536341100">
        <ele>613.90</ele>
        <time>2012-10-14T09:30:57Z</time>
      </trkpt>
      <trkpt lat="41.961018000" lon="2.536507100">
        <ele>615.90</ele>
        <time>2012-10-14T09:31:04Z</time>
      </trkpt>
      <trkpt lat="41.961006000" lon="2.536613100">
        <ele>616.30</ele>
        <time>2012-10-14T09:31:09Z</time>
      </trkpt>
      <trkpt lat="41.960979000" lon="2.536731100">
        <ele>617.80</ele>
        <time>2012-10-14T09:31:16Z</time>
      </trkpt>
      <trkpt lat="41.960941000" lon="2.536746100">
        <ele>619.20</ele>
        <time>2012-10-14T09:31:23Z</time>
      </trkpt>
      <trkpt lat="41.960934000" lon="2.536743100">
        <ele>619.70</ele>
        <time>2012-10-14T09:31:30Z</time>
      </trkpt>
      <trkpt lat="41.960934000" lon="2.536743100">
        <ele>619.70</ele>
        <time>2012-10-14T09:31:58Z</time>
      </trkpt>
      <trkpt lat="41.960930000" lon="2.536745100">
        <ele>621.60</ele>
        <time>2012-10-14T09:32:10Z</time>
      </trkpt>
      <trkpt lat="41.960930000" lon="2.536741100">
        <ele>621.60</ele>
        <time>2012-10-14T09:32:35Z</time>
      </trkpt>
      <trkpt lat="41.960922000" lon="2.536734100">
        <ele>621.60</ele>
        <time>2012-10-14T09:32:57Z</time>
      </trkpt>
      <trkpt lat="41.960899000" lon="2.536701100">
        <ele>621.60</ele>
        <time>2012-10-14T09:33:04Z</time>
      </trkpt>
      <trkpt lat="41.960869000" lon="2.536598100">
        <ele>621.60</ele>
        <time>2012-10-14T09:33:11Z</time>
      </trkpt>
      <trkpt lat="41.960869000" lon="2.536574100">
        <ele>620.70</ele>
        <time>2012-10-14T09:33:32Z</time>
      </trkpt>
      <trkpt lat="41.960835000" lon="2.536267100">
        <ele>620.70</ele>
        <time>2012-10-14T09:33:44Z</time>
      </trkpt>
      <trkpt lat="41.960781000" lon="2.536043100">
        <ele>620.70</ele>
        <time>2012-10-14T09:33:51Z</time>
      </trkpt>
      <trkpt lat="41.960720000" lon="2.535774100">
        <ele>622.60</ele>
        <time>2012-10-14T09:34:00Z</time>
      </trkpt>
      <trkpt lat="41.960686000" lon="2.535576100">
        <ele>623.50</ele>
        <time>2012-10-14T09:34:07Z</time>
      </trkpt>
      <trkpt lat="41.960674000" lon="2.535378100">
        <ele>624.50</ele>
        <time>2012-10-14T09:34:16Z</time>
      </trkpt>
      <trkpt lat="41.960674000" lon="2.535310100">
        <ele>625.00</ele>
        <time>2012-10-14T09:34:19Z</time>
      </trkpt>
      <trkpt lat="41.960697000" lon="2.535151100">
        <ele>626.40</ele>
        <time>2012-10-14T09:34:26Z</time>
      </trkpt>
      <trkpt lat="41.960697000" lon="2.535136100">
        <ele>626.40</ele>
        <time>2012-10-14T09:34:28Z</time>
      </trkpt>
      <trkpt lat="41.960697000" lon="2.535068100">
        <ele>627.90</ele>
        <time>2012-10-14T09:34:31Z</time>
      </trkpt>
      <trkpt lat="41.960724000" lon="2.534876100">
        <ele>628.80</ele>
        <time>2012-10-14T09:34:40Z</time>
      </trkpt>
      <trkpt lat="41.960728000" lon="2.534747100">
        <ele>630.30</ele>
        <time>2012-10-14T09:34:47Z</time>
      </trkpt>
      <trkpt lat="41.960720000" lon="2.534698100">
        <ele>630.80</ele>
        <time>2012-10-14T09:34:49Z</time>
      </trkpt>
      <trkpt lat="41.960724000" lon="2.534488100">
        <ele>632.20</ele>
        <time>2012-10-14T09:34:56Z</time>
      </trkpt>
      <trkpt lat="41.960724000" lon="2.534297100">
        <ele>633.20</ele>
        <time>2012-10-14T09:35:01Z</time>
      </trkpt>
      <trkpt lat="41.960728000" lon="2.534161100">
        <ele>634.60</ele>
        <time>2012-10-14T09:35:06Z</time>
      </trkpt>
      <trkpt lat="41.960716000" lon="2.533902100">
        <ele>636.50</ele>
        <time>2012-10-14T09:35:15Z</time>
      </trkpt>
      <trkpt lat="41.960690000" lon="2.533767100">
        <ele>637.00</ele>
        <time>2012-10-14T09:35:20Z</time>
      </trkpt>
      <trkpt lat="41.960640000" lon="2.533582100">
        <ele>638.50</ele>
        <time>2012-10-14T09:35:27Z</time>
      </trkpt>
      <trkpt lat="41.960598000" lon="2.533344100">
        <ele>640.40</ele>
        <time>2012-10-14T09:35:34Z</time>
      </trkpt>
      <trkpt lat="41.960552000" lon="2.533087100">
        <ele>641.80</ele>
        <time>2012-10-14T09:35:43Z</time>
      </trkpt>
      <trkpt lat="41.960503000" lon="2.532820100">
        <ele>643.30</ele>
        <time>2012-10-14T09:35:51Z</time>
      </trkpt>
      <trkpt lat="41.960487000" lon="2.532673100">
        <ele>644.70</ele>
        <time>2012-10-14T09:35:58Z</time>
      </trkpt>
      <trkpt lat="41.960510000" lon="2.532478100">
        <ele>646.10</ele>
        <time>2012-10-14T09:36:05Z</time>
      </trkpt>
      <trkpt lat="41.960548000" lon="2.532330100">
        <ele>647.10</ele>
        <time>2012-10-14T09:36:11Z</time>
      </trkpt>
      <trkpt lat="41.960602000" lon="2.532053100">
        <ele>649.00</ele>
        <time>2012-10-14T09:36:19Z</time>
      </trkpt>
      <trkpt lat="41.960632000" lon="2.531850100">
        <ele>651.90</ele>
        <time>2012-10-14T09:36:24Z</time>
      </trkpt>
      <trkpt lat="41.960670000" lon="2.531591100">
        <ele>654.30</ele>
        <time>2012-10-14T09:36:31Z</time>
      </trkpt>
      <trkpt lat="41.960873000" lon="2.530837100">
        <ele>654.30</ele>
        <time>2012-10-14T09:36:54Z</time>
      </trkpt>
      <trkpt lat="41.960926000" lon="2.530569100">
        <ele>654.80</ele>
        <time>2012-10-14T09:37:03Z</time>
      </trkpt>
      <trkpt lat="41.960922000" lon="2.530313100">
        <ele>654.80</ele>
        <time>2012-10-14T09:37:08Z</time>
      </trkpt>
      <trkpt lat="41.960842000" lon="2.529960100">
        <ele>656.20</ele>
        <time>2012-10-14T09:37:17Z</time>
      </trkpt>
      <trkpt lat="41.960804000" lon="2.529657100">
        <ele>657.20</ele>
        <time>2012-10-14T09:37:27Z</time>
      </trkpt>
      <trkpt lat="41.960819000" lon="2.529422100">
        <ele>658.60</ele>
        <time>2012-10-14T09:37:34Z</time>
      </trkpt>
      <trkpt lat="41.960850000" lon="2.529219100">
        <ele>659.60</ele>
        <time>2012-10-14T09:37:43Z</time>
      </trkpt>
      <trkpt lat="41.960850000" lon="2.529023100">
        <ele>661.00</ele>
        <time>2012-10-14T09:37:50Z</time>
      </trkpt>
      <trkpt lat="41.960888000" lon="2.528859100">
        <ele>662.50</ele>
        <time>2012-10-14T09:37:59Z</time>
      </trkpt>
      <trkpt lat="41.960930000" lon="2.528697100">
        <ele>663.00</ele>
        <time>2012-10-14T09:38:04Z</time>
      </trkpt>
      <trkpt lat="41.960945000" lon="2.528648100">
        <ele>663.00</ele>
        <time>2012-10-14T09:38:04Z</time>
      </trkpt>
      <trkpt lat="41.961079000" lon="2.528501100">
        <ele>663.00</ele>
        <time>2012-10-14T09:38:09Z</time>
      </trkpt>
      <trkpt lat="41.961365000" lon="2.528321100">
        <ele>663.00</ele>
        <time>2012-10-14T09:38:14Z</time>
      </trkpt>
      <trkpt lat="41.961483000" lon="2.528232100">
        <ele>663.00</ele>
        <time>2012-10-14T09:38:16Z</time>
      </trkpt>
      <trkpt lat="41.961651000" lon="2.528134100">
        <ele>661.50</ele>
        <time>2012-10-14T09:38:19Z</time>
      </trkpt>
      <trkpt lat="41.961746000" lon="2.528106100">
        <ele>661.50</ele>
        <time>2012-10-14T09:38:21Z</time>
      </trkpt>
      <trkpt lat="41.961922000" lon="2.528106100">
        <ele>661.50</ele>
        <time>2012-10-14T09:38:25Z</time>
      </trkpt>
      <trkpt lat="41.962082000" lon="2.527987100">
        <ele>660.60</ele>
        <time>2012-10-14T09:38:28Z</time>
      </trkpt>
      <trkpt lat="41.962055000" lon="2.527686100">
        <ele>659.60</ele>
        <time>2012-10-14T09:38:33Z</time>
      </trkpt>
      <trkpt lat="41.962021000" lon="2.527303100">
        <ele>657.20</ele>
        <time>2012-10-14T09:38:37Z</time>
      </trkpt>
      <trkpt lat="41.962032000" lon="2.527234100">
        <ele>656.70</ele>
        <time>2012-10-14T09:38:39Z</time>
      </trkpt>
      <trkpt lat="41.962059000" lon="2.527103100">
        <ele>655.30</ele>
        <time>2012-10-14T09:38:40Z</time>
      </trkpt>
      <trkpt lat="41.961987000" lon="2.526705100">
        <ele>653.80</ele>
        <time>2012-10-14T09:38:47Z</time>
      </trkpt>
      <trkpt lat="41.961956000" lon="2.526648100">
        <ele>653.80</ele>
        <time>2012-10-14T09:38:47Z</time>
      </trkpt>
      <trkpt lat="41.961807000" lon="2.526472100">
        <ele>653.80</ele>
        <time>2012-10-14T09:38:51Z</time>
      </trkpt>
      <trkpt lat="41.961666000" lon="2.526221100">
        <ele>653.80</ele>
        <time>2012-10-14T09:38:56Z</time>
      </trkpt>
      <trkpt lat="41.961628000" lon="2.525682100">
        <ele>653.30</ele>
        <time>2012-10-14T09:39:03Z</time>
      </trkpt>
      <trkpt lat="41.961681000" lon="2.525566100">
        <ele>653.30</ele>
        <time>2012-10-14T09:39:05Z</time>
      </trkpt>
      <trkpt lat="41.961781000" lon="2.525450100">
        <ele>653.30</ele>
        <time>2012-10-14T09:39:08Z</time>
      </trkpt>
      <trkpt lat="41.962036000" lon="2.525241100">
        <ele>652.90</ele>
        <time>2012-10-14T09:39:15Z</time>
      </trkpt>
      <trkpt lat="41.962254000" lon="2.525086100">
        <ele>652.90</ele>
        <time>2012-10-14T09:39:22Z</time>
      </trkpt>
      <trkpt lat="41.962410000" lon="2.524938100">
        <ele>653.80</ele>
        <time>2012-10-14T09:39:29Z</time>
      </trkpt>
      <trkpt lat="41.962566000" lon="2.524830100">
        <ele>654.80</ele>
        <time>2012-10-14T09:39:36Z</time>
      </trkpt>
      <trkpt lat="41.962669000" lon="2.524693100">
        <ele>655.30</ele>
        <time>2012-10-14T09:39:41Z</time>
      </trkpt>
      <trkpt lat="41.962799000" lon="2.524504100">
        <ele>655.80</ele>
        <time>2012-10-14T09:39:48Z</time>
      </trkpt>
      <trkpt lat="41.962948000" lon="2.524325100">
        <ele>656.20</ele>
        <time>2012-10-14T09:39:55Z</time>
      </trkpt>
      <trkpt lat="41.962975000" lon="2.524241100">
        <ele>656.20</ele>
        <time>2012-10-14T09:39:57Z</time>
      </trkpt>
      <trkpt lat="41.962917000" lon="2.524093100">
        <ele>656.20</ele>
        <time>2012-10-14T09:40:00Z</time>
      </trkpt>
      <trkpt lat="41.962749000" lon="2.523975100">
        <ele>656.20</ele>
        <time>2012-10-14T09:40:06Z</time>
      </trkpt>
      <trkpt lat="41.962383000" lon="2.523834100">
        <ele>655.30</ele>
        <time>2012-10-14T09:40:13Z</time>
      </trkpt>
      <trkpt lat="41.962334000" lon="2.523813100">
        <ele>654.30</ele>
        <time>2012-10-14T09:40:14Z</time>
      </trkpt>
      <trkpt lat="41.962074000" lon="2.523656100">
        <ele>653.80</ele>
        <time>2012-10-14T09:40:20Z</time>
      </trkpt>
      <trkpt lat="41.961773000" lon="2.523544100">
        <ele>653.80</ele>
        <time>2012-10-14T09:40:25Z</time>
      </trkpt>
      <trkpt lat="41.961632000" lon="2.523345100">
        <ele>653.30</ele>
        <time>2012-10-14T09:40:30Z</time>
      </trkpt>
      <trkpt lat="41.961380000" lon="2.523133100">
        <ele>652.90</ele>
        <time>2012-10-14T09:40:35Z</time>
      </trkpt>
      <trkpt lat="41.961250000" lon="2.522997100">
        <ele>652.40</ele>
        <time>2012-10-14T09:40:39Z</time>
      </trkpt>
      <trkpt lat="41.961288000" lon="2.522823100">
        <ele>651.40</ele>
        <time>2012-10-14T09:40:42Z</time>
      </trkpt>
      <trkpt lat="41.961422000" lon="2.522668100">
        <ele>651.00</ele>
        <time>2012-10-14T09:40:46Z</time>
      </trkpt>
      <trkpt lat="41.961575000" lon="2.522543100">
        <ele>650.50</ele>
        <time>2012-10-14T09:40:51Z</time>
      </trkpt>
      <trkpt lat="41.961803000" lon="2.522500100">
        <ele>650.50</ele>
        <time>2012-10-14T09:40:56Z</time>
      </trkpt>
      <trkpt lat="41.961864000" lon="2.522557100">
        <ele>650.00</ele>
        <time>2012-10-14T09:40:58Z</time>
      </trkpt>
      <trkpt lat="41.961914000" lon="2.522630100">
        <ele>650.00</ele>
        <time>2012-10-14T09:41:00Z</time>
      </trkpt>
      <trkpt lat="41.962093000" lon="2.522612100">
        <ele>649.50</ele>
        <time>2012-10-14T09:41:05Z</time>
      </trkpt>
      <trkpt lat="41.962311000" lon="2.522514100">
        <ele>648.50</ele>
        <time>2012-10-14T09:41:10Z</time>
      </trkpt>
      <trkpt lat="41.962490000" lon="2.522273100">
        <ele>648.10</ele>
        <time>2012-10-14T09:41:17Z</time>
      </trkpt>
      <trkpt lat="41.962471000" lon="2.521937100">
        <ele>647.10</ele>
        <time>2012-10-14T09:41:22Z</time>
      </trkpt>
      <trkpt lat="41.962471000" lon="2.521855100">
        <ele>647.10</ele>
        <time>2012-10-14T09:41:22Z</time>
      </trkpt>
      <trkpt lat="41.962440000" lon="2.521533100">
        <ele>644.70</ele>
        <time>2012-10-14T09:41:26Z</time>
      </trkpt>
      <trkpt lat="41.962448000" lon="2.521111100">
        <ele>640.40</ele>
        <time>2012-10-14T09:41:33Z</time>
      </trkpt>
      <trkpt lat="41.962528000" lon="2.520982100">
        <ele>639.40</ele>
        <time>2012-10-14T09:41:36Z</time>
      </trkpt>
      <trkpt lat="41.962669000" lon="2.521045100">
        <ele>639.40</ele>
        <time>2012-10-14T09:41:40Z</time>
      </trkpt>
      <trkpt lat="41.962780000" lon="2.521121100">
        <ele>639.40</ele>
        <time>2012-10-14T09:41:43Z</time>
      </trkpt>
      <trkpt lat="41.963169000" lon="2.521196100">
        <ele>639.40</ele>
        <time>2012-10-14T09:41:52Z</time>
      </trkpt>
      <trkpt lat="41.963379000" lon="2.521125100">
        <ele>638.90</ele>
        <time>2012-10-14T09:41:57Z</time>
      </trkpt>
      <trkpt lat="41.963573000" lon="2.520962100">
        <ele>638.90</ele>
        <time>2012-10-14T09:42:04Z</time>
      </trkpt>
      <trkpt lat="41.963688000" lon="2.520720100">
        <ele>638.90</ele>
        <time>2012-10-14T09:42:09Z</time>
      </trkpt>
      <trkpt lat="41.963802000" lon="2.520607100">
        <ele>638.90</ele>
        <time>2012-10-14T09:42:13Z</time>
      </trkpt>
      <trkpt lat="41.964027000" lon="2.520566100">
        <ele>638.90</ele>
        <time>2012-10-14T09:42:20Z</time>
      </trkpt>
      <trkpt lat="41.964119000" lon="2.520545100">
        <ele>638.90</ele>
        <time>2012-10-14T09:42:22Z</time>
      </trkpt>
      <trkpt lat="41.964260000" lon="2.520533100">
        <ele>638.50</ele>
        <time>2012-10-14T09:42:25Z</time>
      </trkpt>
      <trkpt lat="41.964634000" lon="2.520493100">
        <ele>637.50</ele>
        <time>2012-10-14T09:42:32Z</time>
      </trkpt>
      <trkpt lat="41.964737000" lon="2.520358100">
        <ele>637.50</ele>
        <time>2012-10-14T09:42:37Z</time>
      </trkpt>
      <trkpt lat="41.964771000" lon="2.520148100">
        <ele>637.50</ele>
        <time>2012-10-14T09:42:42Z</time>
      </trkpt>
      <trkpt lat="41.964802000" lon="2.519843100">
        <ele>638.50</ele>
        <time>2012-10-14T09:42:49Z</time>
      </trkpt>
      <trkpt lat="41.964798000" lon="2.519806100">
        <ele>638.90</ele>
        <time>2012-10-14T09:42:51Z</time>
      </trkpt>
      <trkpt lat="41.964764000" lon="2.519604100">
        <ele>639.40</ele>
        <time>2012-10-14T09:42:55Z</time>
      </trkpt>
      <trkpt lat="41.964733000" lon="2.519428100">
        <ele>639.90</ele>
        <time>2012-10-14T09:43:00Z</time>
      </trkpt>
      <trkpt lat="41.964695000" lon="2.519192100">
        <ele>641.30</ele>
        <time>2012-10-14T09:43:07Z</time>
      </trkpt>
      <trkpt lat="41.964649000" lon="2.518955100">
        <ele>642.30</ele>
        <time>2012-10-14T09:43:12Z</time>
      </trkpt>
      <trkpt lat="41.964588000" lon="2.518662100">
        <ele>643.30</ele>
        <time>2012-10-14T09:43:19Z</time>
      </trkpt>
      <trkpt lat="41.964485000" lon="2.518366100">
        <ele>644.20</ele>
        <time>2012-10-14T09:43:28Z</time>
      </trkpt>
      <trkpt lat="41.964378000" lon="2.518066100">
        <ele>646.10</ele>
        <time>2012-10-14T09:43:35Z</time>
      </trkpt>
      <trkpt lat="41.964302000" lon="2.517862100">
        <ele>648.10</ele>
        <time>2012-10-14T09:43:42Z</time>
      </trkpt>
      <trkpt lat="41.964397000" lon="2.517729100">
        <ele>650.50</ele>
        <time>2012-10-14T09:43:47Z</time>
      </trkpt>
      <trkpt lat="41.964451000" lon="2.517719100">
        <ele>651.00</ele>
        <time>2012-10-14T09:43:49Z</time>
      </trkpt>
      <trkpt lat="41.964684000" lon="2.517743100">
        <ele>650.00</ele>
        <time>2012-10-14T09:43:59Z</time>
      </trkpt>
      <trkpt lat="41.964848000" lon="2.517814100">
        <ele>650.00</ele>
        <time>2012-10-14T09:44:06Z</time>
      </trkpt>
      <trkpt lat="41.965038000" lon="2.517877100">
        <ele>650.00</ele>
        <time>2012-10-14T09:44:15Z</time>
      </trkpt>
      <trkpt lat="41.965210000" lon="2.517928100">
        <ele>650.00</ele>
        <time>2012-10-14T09:44:20Z</time>
      </trkpt>
      <trkpt lat="41.965488000" lon="2.517958100">
        <ele>650.00</ele>
        <time>2012-10-14T09:44:29Z</time>
      </trkpt>
      <trkpt lat="41.965698000" lon="2.517851100">
        <ele>651.40</ele>
        <time>2012-10-14T09:44:36Z</time>
      </trkpt>
      <trkpt lat="41.965977000" lon="2.517824100">
        <ele>651.40</ele>
        <time>2012-10-14T09:44:46Z</time>
      </trkpt>
      <trkpt lat="41.966099000" lon="2.517718100">
        <ele>651.90</ele>
        <time>2012-10-14T09:44:51Z</time>
      </trkpt>
      <trkpt lat="41.966217000" lon="2.517560100">
        <ele>652.40</ele>
        <time>2012-10-14T09:44:58Z</time>
      </trkpt>
      <trkpt lat="41.966228000" lon="2.517529100">
        <ele>652.40</ele>
        <time>2012-10-14T09:45:00Z</time>
      </trkpt>
      <trkpt lat="41.966228000" lon="2.517279100">
        <ele>653.30</ele>
        <time>2012-10-14T09:45:07Z</time>
      </trkpt>
      <trkpt lat="41.966068000" lon="2.516904100">
        <ele>653.30</ele>
        <time>2012-10-14T09:45:14Z</time>
      </trkpt>
      <trkpt lat="41.965855000" lon="2.516725100">
        <ele>653.30</ele>
        <time>2012-10-14T09:45:23Z</time>
      </trkpt>
      <trkpt lat="41.965599000" lon="2.516598100">
        <ele>651.90</ele>
        <time>2012-10-14T09:45:30Z</time>
      </trkpt>
      <trkpt lat="41.965462000" lon="2.516469100">
        <ele>651.90</ele>
        <time>2012-10-14T09:45:35Z</time>
      </trkpt>
      <trkpt lat="41.965298000" lon="2.516243100">
        <ele>651.90</ele>
        <time>2012-10-14T09:45:42Z</time>
      </trkpt>
      <trkpt lat="41.965111000" lon="2.516215100">
        <ele>651.90</ele>
        <time>2012-10-14T09:45:49Z</time>
      </trkpt>
      <trkpt lat="41.964970000" lon="2.516153100">
        <ele>652.90</ele>
        <time>2012-10-14T09:45:54Z</time>
      </trkpt>
      <trkpt lat="41.964893000" lon="2.515917100">
        <ele>653.30</ele>
        <time>2012-10-14T09:46:01Z</time>
      </trkpt>
      <trkpt lat="41.964859000" lon="2.515701100">
        <ele>653.80</ele>
        <time>2012-10-14T09:46:06Z</time>
      </trkpt>
      <trkpt lat="41.964760000" lon="2.515386100">
        <ele>654.30</ele>
        <time>2012-10-14T09:46:13Z</time>
      </trkpt>
      <trkpt lat="41.964737000" lon="2.515106100">
        <ele>654.30</ele>
        <time>2012-10-14T09:46:20Z</time>
      </trkpt>
      <trkpt lat="41.964870000" lon="2.514903100">
        <ele>654.30</ele>
        <time>2012-10-14T09:46:25Z</time>
      </trkpt>
      <trkpt lat="41.965038000" lon="2.514710100">
        <ele>654.30</ele>
        <time>2012-10-14T09:46:31Z</time>
      </trkpt>
      <trkpt lat="41.965107000" lon="2.514517100">
        <ele>654.30</ele>
        <time>2012-10-14T09:46:36Z</time>
      </trkpt>
      <trkpt lat="41.965073000" lon="2.514245100">
        <ele>654.30</ele>
        <time>2012-10-14T09:46:43Z</time>
      </trkpt>
      <trkpt lat="41.965103000" lon="2.513932100">
        <ele>654.30</ele>
        <time>2012-10-14T09:46:50Z</time>
      </trkpt>
      <trkpt lat="41.965157000" lon="2.513737100">
        <ele>654.30</ele>
        <time>2012-10-14T09:46:55Z</time>
      </trkpt>
      <trkpt lat="41.965267000" lon="2.513466100">
        <ele>652.90</ele>
        <time>2012-10-14T09:47:02Z</time>
      </trkpt>
      <trkpt lat="41.965462000" lon="2.513263100">
        <ele>652.40</ele>
        <time>2012-10-14T09:47:07Z</time>
      </trkpt>
      <trkpt lat="41.965668000" lon="2.513101100">
        <ele>651.90</ele>
        <time>2012-10-14T09:47:14Z</time>
      </trkpt>
      <trkpt lat="41.965771000" lon="2.512913100">
        <ele>651.00</ele>
        <time>2012-10-14T09:47:18Z</time>
      </trkpt>
      <trkpt lat="41.965694000" lon="2.512689100">
        <ele>651.00</ele>
        <time>2012-10-14T09:47:25Z</time>
      </trkpt>
      <trkpt lat="41.965565000" lon="2.512497100">
        <ele>650.50</ele>
        <time>2012-10-14T09:47:30Z</time>
      </trkpt>
      <trkpt lat="41.965405000" lon="2.512206100">
        <ele>650.00</ele>
        <time>2012-10-14T09:47:39Z</time>
      </trkpt>
      <trkpt lat="41.965313000" lon="2.512013100">
        <ele>649.50</ele>
        <time>2012-10-14T09:47:44Z</time>
      </trkpt>
      <trkpt lat="41.965126000" lon="2.511867100">
        <ele>649.00</ele>
        <time>2012-10-14T09:47:51Z</time>
      </trkpt>
      <trkpt lat="41.964870000" lon="2.511789100">
        <ele>648.50</ele>
        <time>2012-10-14T09:47:58Z</time>
      </trkpt>
      <trkpt lat="41.964638000" lon="2.511713100">
        <ele>648.50</ele>
        <time>2012-10-14T09:48:05Z</time>
      </trkpt>
      <trkpt lat="41.964386000" lon="2.511716100">
        <ele>650.00</ele>
        <time>2012-10-14T09:48:12Z</time>
      </trkpt>
      <trkpt lat="41.964237000" lon="2.511761100">
        <ele>650.00</ele>
        <time>2012-10-14T09:48:17Z</time>
      </trkpt>
      <trkpt lat="41.963955000" lon="2.511832100">
        <ele>651.00</ele>
        <time>2012-10-14T09:48:24Z</time>
      </trkpt>
      <trkpt lat="41.963871000" lon="2.511850100">
        <ele>651.00</ele>
        <time>2012-10-14T09:48:26Z</time>
      </trkpt>
      <trkpt lat="41.963783000" lon="2.511876100">
        <ele>651.00</ele>
        <time>2012-10-14T09:48:27Z</time>
      </trkpt>
      <trkpt lat="41.963551000" lon="2.511922100">
        <ele>651.00</ele>
        <time>2012-10-14T09:48:34Z</time>
      </trkpt>
      <trkpt lat="41.963474000" lon="2.511750100">
        <ele>651.00</ele>
        <time>2012-10-14T09:48:38Z</time>
      </trkpt>
      <trkpt lat="41.963539000" lon="2.511580100">
        <ele>651.00</ele>
        <time>2012-10-14T09:48:43Z</time>
      </trkpt>
      <trkpt lat="41.963669000" lon="2.511364100">
        <ele>651.00</ele>
        <time>2012-10-14T09:48:50Z</time>
      </trkpt>
      <trkpt lat="41.963844000" lon="2.511219100">
        <ele>651.40</ele>
        <time>2012-10-14T09:48:57Z</time>
      </trkpt>
      <trkpt lat="41.964020000" lon="2.511053100">
        <ele>651.40</ele>
        <time>2012-10-14T09:49:04Z</time>
      </trkpt>
      <trkpt lat="41.964111000" lon="2.510836100">
        <ele>651.90</ele>
        <time>2012-10-14T09:49:09Z</time>
      </trkpt>
      <trkpt lat="41.964157000" lon="2.510607100">
        <ele>652.40</ele>
        <time>2012-10-14T09:49:16Z</time>
      </trkpt>
      <trkpt lat="41.964115000" lon="2.510380100">
        <ele>653.30</ele>
        <time>2012-10-14T09:49:21Z</time>
      </trkpt>
      <trkpt lat="41.964108000" lon="2.510142100">
        <ele>653.30</ele>
        <time>2012-10-14T09:49:28Z</time>
      </trkpt>
      <trkpt lat="41.964119000" lon="2.509872100">
        <ele>653.80</ele>
        <time>2012-10-14T09:49:35Z</time>
      </trkpt>
      <trkpt lat="41.964111000" lon="2.509631100">
        <ele>654.30</ele>
        <time>2012-10-14T09:49:41Z</time>
      </trkpt>
      <trkpt lat="41.963997000" lon="2.509461100">
        <ele>655.80</ele>
        <time>2012-10-14T09:49:46Z</time>
      </trkpt>
      <trkpt lat="41.963943000" lon="2.509398100">
        <ele>656.70</ele>
        <time>2012-10-14T09:49:49Z</time>
      </trkpt>
      <trkpt lat="41.963985000" lon="2.509248100">
        <ele>660.60</ele>
        <time>2012-10-14T09:49:54Z</time>
      </trkpt>
      <trkpt lat="41.964134000" lon="2.509013100">
        <ele>663.00</ele>
        <time>2012-10-14T09:50:03Z</time>
      </trkpt>
      <trkpt lat="41.964172000" lon="2.508716100">
        <ele>663.00</ele>
        <time>2012-10-14T09:50:10Z</time>
      </trkpt>
      <trkpt lat="41.964218000" lon="2.508509100">
        <ele>663.00</ele>
        <time>2012-10-14T09:50:17Z</time>
      </trkpt>
      <trkpt lat="41.964249000" lon="2.508281100">
        <ele>663.00</ele>
        <time>2012-10-14T09:50:24Z</time>
      </trkpt>
      <trkpt lat="41.964314000" lon="2.508085100">
        <ele>663.90</ele>
        <time>2012-10-14T09:50:31Z</time>
      </trkpt>
      <trkpt lat="41.964458000" lon="2.507938100">
        <ele>665.40</ele>
        <time>2012-10-14T09:50:38Z</time>
      </trkpt>
      <trkpt lat="41.964615000" lon="2.507765100">
        <ele>665.80</ele>
        <time>2012-10-14T09:50:45Z</time>
      </trkpt>
      <trkpt lat="41.964748000" lon="2.507557100">
        <ele>667.30</ele>
        <time>2012-10-14T09:50:54Z</time>
      </trkpt>
      <trkpt lat="41.964870000" lon="2.507426100">
        <ele>670.70</ele>
        <time>2012-10-14T09:51:01Z</time>
      </trkpt>
      <trkpt lat="41.964928000" lon="2.507377100">
        <ele>674.00</ele>
        <time>2012-10-14T09:51:04Z</time>
      </trkpt>
      <trkpt lat="41.964996000" lon="2.507323100">
        <ele>675.50</ele>
        <time>2012-10-14T09:51:06Z</time>
      </trkpt>
      <trkpt lat="41.965115000" lon="2.507190100">
        <ele>672.10</ele>
        <time>2012-10-14T09:51:13Z</time>
      </trkpt>
      <trkpt lat="41.965206000" lon="2.506972100">
        <ele>671.60</ele>
        <time>2012-10-14T09:51:20Z</time>
      </trkpt>
      <trkpt lat="41.965313000" lon="2.506765100">
        <ele>673.10</ele>
        <time>2012-10-14T09:51:29Z</time>
      </trkpt>
      <trkpt lat="41.965397000" lon="2.506575100">
        <ele>674.50</ele>
        <time>2012-10-14T09:51:37Z</time>
      </trkpt>
      <trkpt lat="41.965397000" lon="2.506450100">
        <ele>675.50</ele>
        <time>2012-10-14T09:51:46Z</time>
      </trkpt>
      <trkpt lat="41.965393000" lon="2.506446100">
        <ele>675.90</ele>
        <time>2012-10-14T09:51:53Z</time>
      </trkpt>
      <trkpt lat="41.965389000" lon="2.506444100">
        <ele>675.00</ele>
        <time>2012-10-14T09:52:17Z</time>
      </trkpt>
      <trkpt lat="41.965385000" lon="2.506446100">
        <ele>675.00</ele>
        <time>2012-10-14T09:52:47Z</time>
      </trkpt>
      <trkpt lat="41.965385000" lon="2.506443100">
        <ele>675.00</ele>
        <time>2012-10-14T09:52:59Z</time>
      </trkpt>
      <trkpt lat="41.965328000" lon="2.506376100">
        <ele>675.00</ele>
        <time>2012-10-14T09:53:11Z</time>
      </trkpt>
      <trkpt lat="41.965199000" lon="2.506315100">
        <ele>675.00</ele>
        <time>2012-10-14T09:53:18Z</time>
      </trkpt>
      <trkpt lat="41.965179000" lon="2.506312100">
        <ele>675.00</ele>
        <time>2012-10-14T09:53:20Z</time>
      </trkpt>
      <trkpt lat="41.965061000" lon="2.506311100">
        <ele>676.40</ele>
        <time>2012-10-14T09:53:25Z</time>
      </trkpt>
      <trkpt lat="41.964909000" lon="2.506274100">
        <ele>676.40</ele>
        <time>2012-10-14T09:53:32Z</time>
      </trkpt>
      <trkpt lat="41.964752000" lon="2.506199100">
        <ele>676.90</ele>
        <time>2012-10-14T09:53:41Z</time>
      </trkpt>
      <trkpt lat="41.964653000" lon="2.506048100">
        <ele>678.80</ele>
        <time>2012-10-14T09:53:48Z</time>
      </trkpt>
      <trkpt lat="41.964622000" lon="2.505885100">
        <ele>680.30</ele>
        <time>2012-10-14T09:53:55Z</time>
      </trkpt>
      <trkpt lat="41.964642000" lon="2.505646100">
        <ele>680.80</ele>
        <time>2012-10-14T09:54:04Z</time>
      </trkpt>
      <trkpt lat="41.964622000" lon="2.505558100">
        <ele>681.20</ele>
        <time>2012-10-14T09:54:07Z</time>
      </trkpt>
      <trkpt lat="41.964508000" lon="2.505360100">
        <ele>683.60</ele>
        <time>2012-10-14T09:54:16Z</time>
      </trkpt>
      <trkpt lat="41.964436000" lon="2.505267100">
        <ele>687.00</ele>
        <time>2012-10-14T09:54:21Z</time>
      </trkpt>
      <trkpt lat="41.964355000" lon="2.505142100">
        <ele>690.40</ele>
        <time>2012-10-14T09:54:28Z</time>
      </trkpt>
      <trkpt lat="41.964317000" lon="2.505001100">
        <ele>689.90</ele>
        <time>2012-10-14T09:54:35Z</time>
      </trkpt>
      <trkpt lat="41.964321000" lon="2.504832100">
        <ele>689.90</ele>
        <time>2012-10-14T09:54:42Z</time>
      </trkpt>
      <trkpt lat="41.964397000" lon="2.504618100">
        <ele>690.80</ele>
        <time>2012-10-14T09:54:49Z</time>
      </trkpt>
      <trkpt lat="41.964523000" lon="2.504452100">
        <ele>692.30</ele>
        <time>2012-10-14T09:54:59Z</time>
      </trkpt>
      <trkpt lat="41.964596000" lon="2.504293100">
        <ele>693.70</ele>
        <time>2012-10-14T09:55:06Z</time>
      </trkpt>
      <trkpt lat="41.964649000" lon="2.504162100">
        <ele>694.20</ele>
        <time>2012-10-14T09:55:13Z</time>
      </trkpt>
      <trkpt lat="41.964649000" lon="2.504114100">
        <ele>694.70</ele>
        <time>2012-10-14T09:55:15Z</time>
      </trkpt>
      <trkpt lat="41.964687000" lon="2.503916100">
        <ele>696.10</ele>
        <time>2012-10-14T09:55:24Z</time>
      </trkpt>
      <trkpt lat="41.964745000" lon="2.503789100">
        <ele>697.10</ele>
        <time>2012-10-14T09:55:31Z</time>
      </trkpt>
      <trkpt lat="41.964783000" lon="2.503674100">
        <ele>700.00</ele>
        <time>2012-10-14T09:55:36Z</time>
      </trkpt>
      <trkpt lat="41.964828000" lon="2.503563100">
        <ele>703.30</ele>
        <time>2012-10-14T09:55:41Z</time>
      </trkpt>
      <trkpt lat="41.964859000" lon="2.503489100">
        <ele>703.80</ele>
        <time>2012-10-14T09:55:46Z</time>
      </trkpt>
      <trkpt lat="41.964943000" lon="2.503336100">
        <ele>704.30</ele>
        <time>2012-10-14T09:55:53Z</time>
      </trkpt>
      <trkpt lat="41.964958000" lon="2.503306100">
        <ele>704.30</ele>
        <time>2012-10-14T09:55:55Z</time>
      </trkpt>
      <trkpt lat="41.964993000" lon="2.503153100">
        <ele>705.80</ele>
        <time>2012-10-14T09:56:04Z</time>
      </trkpt>
      <trkpt lat="41.964912000" lon="2.503037100">
        <ele>707.20</ele>
        <time>2012-10-14T09:56:11Z</time>
      </trkpt>
      <trkpt lat="41.964798000" lon="2.502908100">
        <ele>707.20</ele>
        <time>2012-10-14T09:56:19Z</time>
      </trkpt>
      <trkpt lat="41.964626000" lon="2.502834100">
        <ele>707.20</ele>
        <time>2012-10-14T09:56:28Z</time>
      </trkpt>
      <trkpt lat="41.964443000" lon="2.502774100">
        <ele>707.20</ele>
        <time>2012-10-14T09:56:37Z</time>
      </trkpt>
      <trkpt lat="41.964268000" lon="2.502687100">
        <ele>707.20</ele>
        <time>2012-10-14T09:56:47Z</time>
      </trkpt>
      <trkpt lat="41.964104000" lon="2.502546100">
        <ele>708.20</ele>
        <time>2012-10-14T09:56:56Z</time>
      </trkpt>
      <trkpt lat="41.963943000" lon="2.502405100">
        <ele>708.60</ele>
        <time>2012-10-14T09:57:05Z</time>
      </trkpt>
      <trkpt lat="41.963882000" lon="2.502243100">
        <ele>709.10</ele>
        <time>2012-10-14T09:57:12Z</time>
      </trkpt>
      <trkpt lat="41.963871000" lon="2.502040100">
        <ele>710.50</ele>
        <time>2012-10-14T09:57:19Z</time>
      </trkpt>
      <trkpt lat="41.963875000" lon="2.501958100">
        <ele>710.50</ele>
        <time>2012-10-14T09:57:22Z</time>
      </trkpt>
      <trkpt lat="41.963806000" lon="2.501796100">
        <ele>711.00</ele>
        <time>2012-10-14T09:57:31Z</time>
      </trkpt>
      <trkpt lat="41.963676000" lon="2.501817100">
        <ele>711.00</ele>
        <time>2012-10-14T09:57:36Z</time>
      </trkpt>
      <trkpt lat="41.963562000" lon="2.501881100">
        <ele>708.60</ele>
        <time>2012-10-14T09:57:41Z</time>
      </trkpt>
      <trkpt lat="41.963486000" lon="2.501943100">
        <ele>705.30</ele>
        <time>2012-10-14T09:57:45Z</time>
      </trkpt>
      <trkpt lat="41.963394000" lon="2.502135100">
        <ele>701.90</ele>
        <time>2012-10-14T09:57:50Z</time>
      </trkpt>
      <trkpt lat="41.963268000" lon="2.502372100">
        <ele>701.90</ele>
        <time>2012-10-14T09:57:55Z</time>
      </trkpt>
      <trkpt lat="41.963131000" lon="2.502566100">
        <ele>701.40</ele>
        <time>2012-10-14T09:58:02Z</time>
      </trkpt>
      <trkpt lat="41.962978000" lon="2.502691100">
        <ele>701.40</ele>
        <time>2012-10-14T09:58:06Z</time>
      </trkpt>
      <trkpt lat="41.962864000" lon="2.502909100">
        <ele>700.00</ele>
        <time>2012-10-14T09:58:11Z</time>
      </trkpt>
      <trkpt lat="41.962860000" lon="2.502978100">
        <ele>700.00</ele>
        <time>2012-10-14T09:58:11Z</time>
      </trkpt>
      <trkpt lat="41.962860000" lon="2.503252100">
        <ele>697.10</ele>
        <time>2012-10-14T09:58:16Z</time>
      </trkpt>
      <trkpt lat="41.962803000" lon="2.503498100">
        <ele>692.80</ele>
        <time>2012-10-14T09:58:20Z</time>
      </trkpt>
      <trkpt lat="41.962715000" lon="2.503636100">
        <ele>689.40</ele>
        <time>2012-10-14T09:58:23Z</time>
      </trkpt>
      <trkpt lat="41.962631000" lon="2.503715100">
        <ele>688.00</ele>
        <time>2012-10-14T09:58:25Z</time>
      </trkpt>
      <trkpt lat="41.962490000" lon="2.503830100">
        <ele>686.50</ele>
        <time>2012-10-14T09:58:28Z</time>
      </trkpt>
      <trkpt lat="41.962330000" lon="2.504015100">
        <ele>686.50</ele>
        <time>2012-10-14T09:58:34Z</time>
      </trkpt>
      <trkpt lat="41.962273000" lon="2.504105100">
        <ele>686.50</ele>
        <time>2012-10-14T09:58:35Z</time>
      </trkpt>
      <trkpt lat="41.962040000" lon="2.504356100">
        <ele>685.10</ele>
        <time>2012-10-14T09:58:42Z</time>
      </trkpt>
      <trkpt lat="41.961857000" lon="2.504499100">
        <ele>681.70</ele>
        <time>2012-10-14T09:58:46Z</time>
      </trkpt>
      <trkpt lat="41.961769000" lon="2.504577100">
        <ele>679.80</ele>
        <time>2012-10-14T09:58:47Z</time>
      </trkpt>
      <trkpt lat="41.961555000" lon="2.504719100">
        <ele>675.90</ele>
        <time>2012-10-14T09:58:51Z</time>
      </trkpt>
      <trkpt lat="41.961258000" lon="2.504732100">
        <ele>673.50</ele>
        <time>2012-10-14T09:58:56Z</time>
      </trkpt>
      <trkpt lat="41.961079000" lon="2.504587100">
        <ele>674.00</ele>
        <time>2012-10-14T09:59:00Z</time>
      </trkpt>
      <trkpt lat="41.960911000" lon="2.504414100">
        <ele>673.50</ele>
        <time>2012-10-14T09:59:05Z</time>
      </trkpt>
      <trkpt lat="41.960663000" lon="2.504187100">
        <ele>675.00</ele>
        <time>2012-10-14T09:59:14Z</time>
      </trkpt>
      <trkpt lat="41.960560000" lon="2.504071100">
        <ele>675.90</ele>
        <time>2012-10-14T09:59:17Z</time>
      </trkpt>
      <trkpt lat="41.960373000" lon="2.504065100">
        <ele>676.40</ele>
        <time>2012-10-14T09:59:22Z</time>
      </trkpt>
      <trkpt lat="41.960129000" lon="2.503976100">
        <ele>676.40</ele>
        <time>2012-10-14T09:59:29Z</time>
      </trkpt>
      <trkpt lat="41.959991000" lon="2.503860100">
        <ele>676.40</ele>
        <time>2012-10-14T09:59:33Z</time>
      </trkpt>
      <trkpt lat="41.959866000" lon="2.503981100">
        <ele>676.40</ele>
        <time>2012-10-14T09:59:38Z</time>
      </trkpt>
      <trkpt lat="41.959850000" lon="2.504030100">
        <ele>676.40</ele>
        <time>2012-10-14T09:59:38Z</time>
      </trkpt>
      <trkpt lat="41.959766000" lon="2.504436100">
        <ele>675.00</ele>
        <time>2012-10-14T09:59:47Z</time>
      </trkpt>
      <trkpt lat="41.959736000" lon="2.504467100">
        <ele>674.00</ele>
        <time>2012-10-14T09:59:47Z</time>
      </trkpt>
      <trkpt lat="41.959602000" lon="2.504616100">
        <ele>673.50</ele>
        <time>2012-10-14T09:59:52Z</time>
      </trkpt>
      <trkpt lat="41.959423000" lon="2.504796100">
        <ele>673.10</ele>
        <time>2012-10-14T09:59:57Z</time>
      </trkpt>
      <trkpt lat="41.959339000" lon="2.504864100">
        <ele>673.10</ele>
        <time>2012-10-14T09:59:59Z</time>
      </trkpt>
      <trkpt lat="41.959122000" lon="2.505075100">
        <ele>672.60</ele>
        <time>2012-10-14T10:00:04Z</time>
      </trkpt>
      <trkpt lat="41.959061000" lon="2.505455100">
        <ele>671.60</ele>
        <time>2012-10-14T10:00:11Z</time>
      </trkpt>
      <trkpt lat="41.959049000" lon="2.505509100">
        <ele>671.60</ele>
        <time>2012-10-14T10:00:11Z</time>
      </trkpt>
      <trkpt lat="41.958958000" lon="2.505872100">
        <ele>670.70</ele>
        <time>2012-10-14T10:00:20Z</time>
      </trkpt>
      <trkpt lat="41.958935000" lon="2.505904100">
        <ele>670.70</ele>
        <time>2012-10-14T10:00:20Z</time>
      </trkpt>
      <trkpt lat="41.958805000" lon="2.505858100">
        <ele>670.70</ele>
        <time>2012-10-14T10:00:25Z</time>
      </trkpt>
      <trkpt lat="41.958710000" lon="2.505715100">
        <ele>670.70</ele>
        <time>2012-10-14T10:00:30Z</time>
      </trkpt>
      <trkpt lat="41.958504000" lon="2.505502100">
        <ele>670.70</ele>
        <time>2012-10-14T10:00:35Z</time>
      </trkpt>
      <trkpt lat="41.958248000" lon="2.505141100">
        <ele>670.70</ele>
        <time>2012-10-14T10:00:44Z</time>
      </trkpt>
      <trkpt lat="41.958054000" lon="2.504808100">
        <ele>670.70</ele>
        <time>2012-10-14T10:00:51Z</time>
      </trkpt>
      <trkpt lat="41.957973000" lon="2.504672100">
        <ele>670.70</ele>
        <time>2012-10-14T10:00:55Z</time>
      </trkpt>
      <trkpt lat="41.957836000" lon="2.504341100">
        <ele>670.70</ele>
        <time>2012-10-14T10:01:02Z</time>
      </trkpt>
      <trkpt lat="41.957813000" lon="2.504292100">
        <ele>670.70</ele>
        <time>2012-10-14T10:01:02Z</time>
      </trkpt>
      <trkpt lat="41.957592000" lon="2.504074100">
        <ele>670.20</ele>
        <time>2012-10-14T10:01:09Z</time>
      </trkpt>
      <trkpt lat="41.957397000" lon="2.503834100">
        <ele>668.70</ele>
        <time>2012-10-14T10:01:14Z</time>
      </trkpt>
      <trkpt lat="41.957291000" lon="2.503534100">
        <ele>668.20</ele>
        <time>2012-10-14T10:01:19Z</time>
      </trkpt>
      <trkpt lat="41.957268000" lon="2.503400100">
        <ele>667.80</ele>
        <time>2012-10-14T10:01:21Z</time>
      </trkpt>
      <trkpt lat="41.957096000" lon="2.503139100">
        <ele>666.30</ele>
        <time>2012-10-14T10:01:26Z</time>
      </trkpt>
      <trkpt lat="41.956909000" lon="2.502930100">
        <ele>664.90</ele>
        <time>2012-10-14T10:01:31Z</time>
      </trkpt>
      <trkpt lat="41.956875000" lon="2.502945100">
        <ele>663.90</ele>
        <time>2012-10-14T10:01:31Z</time>
      </trkpt>
      <trkpt lat="41.956684000" lon="2.503088100">
        <ele>659.60</ele>
        <time>2012-10-14T10:01:36Z</time>
      </trkpt>
      <trkpt lat="41.956463000" lon="2.503340100">
        <ele>658.60</ele>
        <time>2012-10-14T10:01:42Z</time>
      </trkpt>
      <trkpt lat="41.956402000" lon="2.503449100">
        <ele>658.60</ele>
        <time>2012-10-14T10:01:45Z</time>
      </trkpt>
      <trkpt lat="41.956211000" lon="2.503672100">
        <ele>658.60</ele>
        <time>2012-10-14T10:01:49Z</time>
      </trkpt>
      <trkpt lat="41.956097000" lon="2.503741100">
        <ele>658.20</ele>
        <time>2012-10-14T10:01:50Z</time>
      </trkpt>
      <trkpt lat="41.955940000" lon="2.503978100">
        <ele>657.20</ele>
        <time>2012-10-14T10:01:54Z</time>
      </trkpt>
      <trkpt lat="41.955799000" lon="2.504261100">
        <ele>654.80</ele>
        <time>2012-10-14T10:01:59Z</time>
      </trkpt>
      <trkpt lat="41.955700000" lon="2.504391100">
        <ele>652.90</ele>
        <time>2012-10-14T10:02:01Z</time>
      </trkpt>
      <trkpt lat="41.955509000" lon="2.504492100">
        <ele>648.50</ele>
        <time>2012-10-14T10:02:04Z</time>
      </trkpt>
      <trkpt lat="41.955452000" lon="2.504417100">
        <ele>647.60</ele>
        <time>2012-10-14T10:02:06Z</time>
      </trkpt>
      <trkpt lat="41.955353000" lon="2.504146100">
        <ele>651.40</ele>
        <time>2012-10-14T10:02:13Z</time>
      </trkpt>
      <trkpt lat="41.955257000" lon="2.504016100">
        <ele>654.80</ele>
        <time>2012-10-14T10:02:17Z</time>
      </trkpt>
      <trkpt lat="41.955227000" lon="2.503940100">
        <ele>655.30</ele>
        <time>2012-10-14T10:02:18Z</time>
      </trkpt>
      <trkpt lat="41.955105000" lon="2.503639100">
        <ele>654.80</ele>
        <time>2012-10-14T10:02:27Z</time>
      </trkpt>
      <trkpt lat="41.955032000" lon="2.503368100">
        <ele>654.80</ele>
        <time>2012-10-14T10:02:34Z</time>
      </trkpt>
      <trkpt lat="41.955044000" lon="2.503026100">
        <ele>655.30</ele>
        <time>2012-10-14T10:02:41Z</time>
      </trkpt>
      <trkpt lat="41.954975000" lon="2.502703100">
        <ele>655.80</ele>
        <time>2012-10-14T10:02:48Z</time>
      </trkpt>
      <trkpt lat="41.954857000" lon="2.502400100">
        <ele>656.20</ele>
        <time>2012-10-14T10:02:55Z</time>
      </trkpt>
      <trkpt lat="41.954697000" lon="2.502363100">
        <ele>656.20</ele>
        <time>2012-10-14T10:03:00Z</time>
      </trkpt>
      <trkpt lat="41.954479000" lon="2.502429100">
        <ele>656.70</ele>
        <time>2012-10-14T10:03:07Z</time>
      </trkpt>
      <trkpt lat="41.954273000" lon="2.502529100">
        <ele>656.70</ele>
        <time>2012-10-14T10:03:12Z</time>
      </trkpt>
      <trkpt lat="41.954052000" lon="2.502665100">
        <ele>656.70</ele>
        <time>2012-10-14T10:03:19Z</time>
      </trkpt>
      <trkpt lat="41.953831000" lon="2.502879100">
        <ele>657.20</ele>
        <time>2012-10-14T10:03:28Z</time>
      </trkpt>
      <trkpt lat="41.953671000" lon="2.503054100">
        <ele>657.70</ele>
        <time>2012-10-14T10:03:33Z</time>
      </trkpt>
      <trkpt lat="41.953472000" lon="2.503265100">
        <ele>658.60</ele>
        <time>2012-10-14T10:03:40Z</time>
      </trkpt>
      <trkpt lat="41.953403000" lon="2.503450100">
        <ele>658.60</ele>
        <time>2012-10-14T10:03:45Z</time>
      </trkpt>
      <trkpt lat="41.953293000" lon="2.503590100">
        <ele>658.60</ele>
        <time>2012-10-14T10:03:49Z</time>
      </trkpt>
      <trkpt lat="41.953106000" lon="2.503716100">
        <ele>659.10</ele>
        <time>2012-10-14T10:03:56Z</time>
      </trkpt>
      <trkpt lat="41.952877000" lon="2.503812100">
        <ele>659.10</ele>
        <time>2012-10-14T10:04:03Z</time>
      </trkpt>
      <trkpt lat="41.952671000" lon="2.503909100">
        <ele>659.60</ele>
        <time>2012-10-14T10:04:10Z</time>
      </trkpt>
      <trkpt lat="41.952549000" lon="2.503821100">
        <ele>659.60</ele>
        <time>2012-10-14T10:04:13Z</time>
      </trkpt>
      <trkpt lat="41.952488000" lon="2.503540100">
        <ele>660.10</ele>
        <time>2012-10-14T10:04:20Z</time>
      </trkpt>
      <trkpt lat="41.952446000" lon="2.503281100">
        <ele>661.00</ele>
        <time>2012-10-14T10:04:27Z</time>
      </trkpt>
      <trkpt lat="41.952351000" lon="2.503201100">
        <ele>661.50</ele>
        <time>2012-10-14T10:04:31Z</time>
      </trkpt>
      <trkpt lat="41.952118000" lon="2.503179100">
        <ele>662.50</ele>
        <time>2012-10-14T10:04:38Z</time>
      </trkpt>
      <trkpt lat="41.951935000" lon="2.503124100">
        <ele>663.90</ele>
        <time>2012-10-14T10:04:46Z</time>
      </trkpt>
      <trkpt lat="41.951717000" lon="2.503118100">
        <ele>665.40</ele>
        <time>2012-10-14T10:04:53Z</time>
      </trkpt>
      <trkpt lat="41.951637000" lon="2.503042100">
        <ele>665.40</ele>
        <time>2012-10-14T10:04:57Z</time>
      </trkpt>
      <trkpt lat="41.951714000" lon="2.502821100">
        <ele>665.80</ele>
        <time>2012-10-14T10:05:06Z</time>
      </trkpt>
      <trkpt lat="41.951866000" lon="2.502658100">
        <ele>666.80</ele>
        <time>2012-10-14T10:05:12Z</time>
      </trkpt>
      <trkpt lat="41.952042000" lon="2.502663100">
        <ele>667.30</ele>
        <time>2012-10-14T10:05:18Z</time>
      </trkpt>
      <trkpt lat="41.952183000" lon="2.502551100">
        <ele>668.20</ele>
        <time>2012-10-14T10:05:23Z</time>
      </trkpt>
      <trkpt lat="41.952297000" lon="2.502264100">
        <ele>669.20</ele>
        <time>2012-10-14T10:05:30Z</time>
      </trkpt>
      <trkpt lat="41.952343000" lon="2.502044100">
        <ele>670.20</ele>
        <time>2012-10-14T10:05:37Z</time>
      </trkpt>
      <trkpt lat="41.952419000" lon="2.501779100">
        <ele>671.10</ele>
        <time>2012-10-14T10:05:44Z</time>
      </trkpt>
      <trkpt lat="41.952591000" lon="2.501601100">
        <ele>672.10</ele>
        <time>2012-10-14T10:05:51Z</time>
      </trkpt>
      <trkpt lat="41.952648000" lon="2.501408100">
        <ele>673.10</ele>
        <time>2012-10-14T10:05:58Z</time>
      </trkpt>
      <trkpt lat="41.952652000" lon="2.501226100">
        <ele>673.50</ele>
        <time>2012-10-14T10:06:03Z</time>
      </trkpt>
      <trkpt lat="41.952671000" lon="2.501012100">
        <ele>674.00</ele>
        <time>2012-10-14T10:06:10Z</time>
      </trkpt>
      <trkpt lat="41.952705000" lon="2.500815100">
        <ele>674.00</ele>
        <time>2012-10-14T10:06:17Z</time>
      </trkpt>
      <trkpt lat="41.952778000" lon="2.500581100">
        <ele>675.00</ele>
        <time>2012-10-14T10:06:24Z</time>
      </trkpt>
      <trkpt lat="41.952839000" lon="2.500406100">
        <ele>676.40</ele>
        <time>2012-10-14T10:06:29Z</time>
      </trkpt>
      <trkpt lat="41.952972000" lon="2.500241100">
        <ele>679.30</ele>
        <time>2012-10-14T10:06:36Z</time>
      </trkpt>
      <trkpt lat="41.953041000" lon="2.500118100">
        <ele>682.20</ele>
        <time>2012-10-14T10:06:41Z</time>
      </trkpt>
      <trkpt lat="41.953064000" lon="2.500063100">
        <ele>682.70</ele>
        <time>2012-10-14T10:06:43Z</time>
      </trkpt>
      <trkpt lat="41.953159000" lon="2.499836100">
        <ele>683.60</ele>
        <time>2012-10-14T10:06:50Z</time>
      </trkpt>
      <trkpt lat="41.953217000" lon="2.499667100">
        <ele>683.60</ele>
        <time>2012-10-14T10:06:57Z</time>
      </trkpt>
      <trkpt lat="41.953251000" lon="2.499527100">
        <ele>683.60</ele>
        <time>2012-10-14T10:07:02Z</time>
      </trkpt>
      <trkpt lat="41.953396000" lon="2.499292100">
        <ele>683.60</ele>
        <time>2012-10-14T10:07:11Z</time>
      </trkpt>
      <trkpt lat="41.953522000" lon="2.499093100">
        <ele>685.10</ele>
        <time>2012-10-14T10:07:18Z</time>
      </trkpt>
      <trkpt lat="41.953636000" lon="2.498910100">
        <ele>687.00</ele>
        <time>2012-10-14T10:07:25Z</time>
      </trkpt>
      <trkpt lat="41.953678000" lon="2.498722100">
        <ele>688.40</ele>
        <time>2012-10-14T10:07:32Z</time>
      </trkpt>
      <trkpt lat="41.953682000" lon="2.498700100">
        <ele>688.40</ele>
        <time>2012-10-14T10:07:34Z</time>
      </trkpt>
      <trkpt lat="41.953663000" lon="2.498589100">
        <ele>692.30</ele>
        <time>2012-10-14T10:07:39Z</time>
      </trkpt>
      <trkpt lat="41.953632000" lon="2.498528100">
        <ele>692.30</ele>
        <time>2012-10-14T10:07:44Z</time>
      </trkpt>
      <trkpt lat="41.953598000" lon="2.498506100">
        <ele>688.00</ele>
        <time>2012-10-14T10:07:49Z</time>
      </trkpt>
      <trkpt lat="41.953510000" lon="2.498483100">
        <ele>687.00</ele>
        <time>2012-10-14T10:07:54Z</time>
      </trkpt>
      <trkpt lat="41.953354000" lon="2.498458100">
        <ele>687.00</ele>
        <time>2012-10-14T10:08:00Z</time>
      </trkpt>
      <trkpt lat="41.953144000" lon="2.498480100">
        <ele>686.50</ele>
        <time>2012-10-14T10:08:07Z</time>
      </trkpt>
      <trkpt lat="41.953056000" lon="2.498498100">
        <ele>686.50</ele>
        <time>2012-10-14T10:08:10Z</time>
      </trkpt>
      <trkpt lat="41.952896000" lon="2.498461100">
        <ele>686.00</ele>
        <time>2012-10-14T10:08:12Z</time>
      </trkpt>
      <trkpt lat="41.952675000" lon="2.498290100">
        <ele>681.20</ele>
        <time>2012-10-14T10:08:17Z</time>
      </trkpt>
      <trkpt lat="41.952503000" lon="2.498197100">
        <ele>675.90</ele>
        <time>2012-10-14T10:08:22Z</time>
      </trkpt>
      <trkpt lat="41.952423000" lon="2.498150100">
        <ele>673.10</ele>
        <time>2012-10-14T10:08:24Z</time>
      </trkpt>
      <trkpt lat="41.952370000" lon="2.498135100">
        <ele>673.10</ele>
        <time>2012-10-14T10:08:24Z</time>
      </trkpt>
      <trkpt lat="41.952221000" lon="2.498152100">
        <ele>671.10</ele>
        <time>2012-10-14T10:08:29Z</time>
      </trkpt>
      <trkpt lat="41.952061000" lon="2.498243100">
        <ele>669.20</ele>
        <time>2012-10-14T10:08:33Z</time>
      </trkpt>
      <trkpt lat="41.951801000" lon="2.498267100">
        <ele>667.30</ele>
        <time>2012-10-14T10:08:38Z</time>
      </trkpt>
      <trkpt lat="41.951714000" lon="2.498287100">
        <ele>666.80</ele>
        <time>2012-10-14T10:08:40Z</time>
      </trkpt>
      <trkpt lat="41.951477000" lon="2.498382100">
        <ele>666.30</ele>
        <time>2012-10-14T10:08:45Z</time>
      </trkpt>
      <trkpt lat="41.951374000" lon="2.498366100">
        <ele>666.30</ele>
        <time>2012-10-14T10:08:47Z</time>
      </trkpt>
      <trkpt lat="41.951241000" lon="2.498367100">
        <ele>665.40</ele>
        <time>2012-10-14T10:08:50Z</time>
      </trkpt>
      <trkpt lat="41.951214000" lon="2.498295100">
        <ele>664.90</ele>
        <time>2012-10-14T10:08:54Z</time>
      </trkpt>
      <trkpt lat="41.951237000" lon="2.498289100">
        <ele>663.50</ele>
        <time>2012-10-14T10:08:54Z</time>
      </trkpt>
      <trkpt lat="41.951298000" lon="2.498284100">
        <ele>661.50</ele>
        <time>2012-10-14T10:08:57Z</time>
      </trkpt>
      <trkpt lat="41.951485000" lon="2.498260100">
        <ele>656.70</ele>
        <time>2012-10-14T10:09:01Z</time>
      </trkpt>
      <trkpt lat="41.951530000" lon="2.498235100">
        <ele>655.30</ele>
        <time>2012-10-14T10:09:01Z</time>
      </trkpt>
      <trkpt lat="41.951729000" lon="2.498133100">
        <ele>648.50</ele>
        <time>2012-10-14T10:09:06Z</time>
      </trkpt>
      <trkpt lat="41.951847000" lon="2.498103100">
        <ele>646.10</ele>
        <time>2012-10-14T10:09:08Z</time>
      </trkpt>
      <trkpt lat="41.952049000" lon="2.497923100">
        <ele>646.10</ele>
        <time>2012-10-14T10:09:11Z</time>
      </trkpt>
      <trkpt lat="41.952209000" lon="2.497743100">
        <ele>652.40</ele>
        <time>2012-10-14T10:09:16Z</time>
      </trkpt>
      <trkpt lat="41.952255000" lon="2.497741100">
        <ele>653.80</ele>
        <time>2012-10-14T10:09:16Z</time>
      </trkpt>
      <trkpt lat="41.952385000" lon="2.497747100">
        <ele>657.70</ele>
        <time>2012-10-14T10:09:20Z</time>
      </trkpt>
      <trkpt lat="41.952408000" lon="2.497649100">
        <ele>656.70</ele>
        <time>2012-10-14T10:09:23Z</time>
      </trkpt>
      <trkpt lat="41.952374000" lon="2.497624100">
        <ele>653.80</ele>
        <time>2012-10-14T10:09:25Z</time>
      </trkpt>
      <trkpt lat="41.952217000" lon="2.497602100">
        <ele>647.60</ele>
        <time>2012-10-14T10:09:30Z</time>
      </trkpt>
      <trkpt lat="41.952160000" lon="2.497600100">
        <ele>644.20</ele>
        <time>2012-10-14T10:09:32Z</time>
      </trkpt>
      <trkpt lat="41.952003000" lon="2.497627100">
        <ele>640.90</ele>
        <time>2012-10-14T10:09:37Z</time>
      </trkpt>
      <trkpt lat="41.951870000" lon="2.497648100">
        <ele>637.50</ele>
        <time>2012-10-14T10:09:41Z</time>
      </trkpt>
      <trkpt lat="41.951725000" lon="2.497681100">
        <ele>635.60</ele>
        <time>2012-10-14T10:09:48Z</time>
      </trkpt>
      <trkpt lat="41.951538000" lon="2.497779100">
        <ele>635.60</ele>
        <time>2012-10-14T10:09:53Z</time>
      </trkpt>
      <trkpt lat="41.951481000" lon="2.497789100">
        <ele>634.60</ele>
        <time>2012-10-14T10:09:55Z</time>
      </trkpt>
      <trkpt lat="41.951389000" lon="2.497749100">
        <ele>634.10</ele>
        <time>2012-10-14T10:10:00Z</time>
      </trkpt>
      <trkpt lat="41.951397000" lon="2.497534100">
        <ele>633.70</ele>
        <time>2012-10-14T10:10:05Z</time>
      </trkpt>
      <trkpt lat="41.951416000" lon="2.497232100">
        <ele>629.80</ele>
        <time>2012-10-14T10:10:10Z</time>
      </trkpt>
      <trkpt lat="41.951439000" lon="2.497084100">
        <ele>626.00</ele>
        <time>2012-10-14T10:10:14Z</time>
      </trkpt>
      <trkpt lat="41.951469000" lon="2.496920100">
        <ele>623.10</ele>
        <time>2012-10-14T10:10:17Z</time>
      </trkpt>
      <trkpt lat="41.951492000" lon="2.496824100">
        <ele>621.60</ele>
        <time>2012-10-14T10:10:19Z</time>
      </trkpt>
      <trkpt lat="41.951576000" lon="2.496680100">
        <ele>620.70</ele>
        <time>2012-10-14T10:10:21Z</time>
      </trkpt>
      <trkpt lat="41.951725000" lon="2.496390100">
        <ele>618.80</ele>
        <time>2012-10-14T10:10:26Z</time>
      </trkpt>
      <trkpt lat="41.951717000" lon="2.496177100">
        <ele>614.90</ele>
        <time>2012-10-14T10:10:31Z</time>
      </trkpt>
      <trkpt lat="41.951618000" lon="2.496090100">
        <ele>611.10</ele>
        <time>2012-10-14T10:10:33Z</time>
      </trkpt>
      <trkpt lat="41.951534000" lon="2.496092100">
        <ele>609.10</ele>
        <time>2012-10-14T10:10:35Z</time>
      </trkpt>
      <trkpt lat="41.951321000" lon="2.496122100">
        <ele>607.20</ele>
        <time>2012-10-14T10:10:40Z</time>
      </trkpt>
      <trkpt lat="41.951138000" lon="2.496160100">
        <ele>604.30</ele>
        <time>2012-10-14T10:10:47Z</time>
      </trkpt>
      <trkpt lat="41.951080000" lon="2.496073100">
        <ele>601.90</ele>
        <time>2012-10-14T10:10:50Z</time>
      </trkpt>
      <trkpt lat="41.951084000" lon="2.495752100">
        <ele>600.50</ele>
        <time>2012-10-14T10:10:57Z</time>
      </trkpt>
      <trkpt lat="41.950977000" lon="2.495373100">
        <ele>600.50</ele>
        <time>2012-10-14T10:11:03Z</time>
      </trkpt>
      <trkpt lat="41.950802000" lon="2.495013100">
        <ele>599.50</ele>
        <time>2012-10-14T10:11:10Z</time>
      </trkpt>
      <trkpt lat="41.950615000" lon="2.494714100">
        <ele>599.00</ele>
        <time>2012-10-14T10:11:17Z</time>
      </trkpt>
      <trkpt lat="41.950516000" lon="2.494497100">
        <ele>598.10</ele>
        <time>2012-10-14T10:11:22Z</time>
      </trkpt>
      <trkpt lat="41.950436000" lon="2.494363100">
        <ele>594.70</ele>
        <time>2012-10-14T10:11:25Z</time>
      </trkpt>
      <trkpt lat="41.950363000" lon="2.494276100">
        <ele>591.30</ele>
        <time>2012-10-14T10:11:27Z</time>
      </trkpt>
      <trkpt lat="41.950275000" lon="2.494233100">
        <ele>589.40</ele>
        <time>2012-10-14T10:11:30Z</time>
      </trkpt>
      <trkpt lat="41.950123000" lon="2.494200100">
        <ele>590.40</ele>
        <time>2012-10-14T10:11:34Z</time>
      </trkpt>
      <trkpt lat="41.950001000" lon="2.494143100">
        <ele>589.90</ele>
        <time>2012-10-14T10:11:39Z</time>
      </trkpt>
      <trkpt lat="41.949986000" lon="2.494069100">
        <ele>589.90</ele>
        <time>2012-10-14T10:11:41Z</time>
      </trkpt>
      <trkpt lat="41.949966000" lon="2.493786100">
        <ele>590.90</ele>
        <time>2012-10-14T10:11:48Z</time>
      </trkpt>
      <trkpt lat="41.949917000" lon="2.493723100">
        <ele>590.90</ele>
        <time>2012-10-14T10:11:50Z</time>
      </trkpt>
      <trkpt lat="41.949699000" lon="2.493474100">
        <ele>590.90</ele>
        <time>2012-10-14T10:11:58Z</time>
      </trkpt>
      <trkpt lat="41.949574000" lon="2.493341100">
        <ele>591.30</ele>
        <time>2012-10-14T10:12:05Z</time>
      </trkpt>
      <trkpt lat="41.949501000" lon="2.493227100">
        <ele>592.80</ele>
        <time>2012-10-14T10:12:12Z</time>
      </trkpt>
      <trkpt lat="41.949409000" lon="2.493170100">
        <ele>595.70</ele>
        <time>2012-10-14T10:12:17Z</time>
      </trkpt>
      <trkpt lat="41.949226000" lon="2.493101100">
        <ele>598.10</ele>
        <time>2012-10-14T10:12:26Z</time>
      </trkpt>
      <trkpt lat="41.949165000" lon="2.492988100">
        <ele>596.20</ele>
        <time>2012-10-14T10:12:28Z</time>
      </trkpt>
      <trkpt lat="41.949070000" lon="2.492781100">
        <ele>592.30</ele>
        <time>2012-10-14T10:12:33Z</time>
      </trkpt>
      <trkpt lat="41.948975000" lon="2.492607100">
        <ele>591.30</ele>
        <time>2012-10-14T10:12:38Z</time>
      </trkpt>
      <trkpt lat="41.948883000" lon="2.492482100">
        <ele>595.20</ele>
        <time>2012-10-14T10:12:42Z</time>
      </trkpt>
      <trkpt lat="41.948845000" lon="2.492448100">
        <ele>596.60</ele>
        <time>2012-10-14T10:12:45Z</time>
      </trkpt>
      <trkpt lat="41.948719000" lon="2.492402100">
        <ele>599.00</ele>
        <time>2012-10-14T10:12:52Z</time>
      </trkpt>
      <trkpt lat="41.948582000" lon="2.492388100">
        <ele>599.00</ele>
        <time>2012-10-14T10:12:59Z</time>
      </trkpt>
      <trkpt lat="41.948540000" lon="2.492396100">
        <ele>597.60</ele>
        <time>2012-10-14T10:13:06Z</time>
      </trkpt>
      <trkpt lat="41.948524000" lon="2.492389100">
        <ele>597.60</ele>
        <time>2012-10-14T10:13:12Z</time>
      </trkpt>
      <trkpt lat="41.948498000" lon="2.492347100">
        <ele>597.60</ele>
        <time>2012-10-14T10:13:15Z</time>
      </trkpt>
      <trkpt lat="41.948486000" lon="2.492222100">
        <ele>596.60</ele>
        <time>2012-10-14T10:13:20Z</time>
      </trkpt>
      <trkpt lat="41.948517000" lon="2.492152100">
        <ele>596.60</ele>
        <time>2012-10-14T10:13:27Z</time>
      </trkpt>
      <trkpt lat="41.948578000" lon="2.492077100">
        <ele>596.60</ele>
        <time>2012-10-14T10:13:31Z</time>
      </trkpt>
      <trkpt lat="41.948601000" lon="2.492046100">
        <ele>597.60</ele>
        <time>2012-10-14T10:13:34Z</time>
      </trkpt>
      <trkpt lat="41.948700000" lon="2.492006100">
        <ele>597.60</ele>
        <time>2012-10-14T10:13:41Z</time>
      </trkpt>
      <trkpt lat="41.948814000" lon="2.492000100">
        <ele>598.60</ele>
        <time>2012-10-14T10:13:46Z</time>
      </trkpt>
      <trkpt lat="41.949135000" lon="2.492127100">
        <ele>598.60</ele>
        <time>2012-10-14T10:13:57Z</time>
      </trkpt>
      <trkpt lat="41.949154000" lon="2.492124100">
        <ele>598.60</ele>
        <time>2012-10-14T10:13:57Z</time>
      </trkpt>
      <trkpt lat="41.949223000" lon="2.492023100">
        <ele>597.10</ele>
        <time>2012-10-14T10:14:02Z</time>
      </trkpt>
      <trkpt lat="41.949272000" lon="2.491805100">
        <ele>597.10</ele>
        <time>2012-10-14T10:14:11Z</time>
      </trkpt>
      <trkpt lat="41.949360000" lon="2.491767100">
        <ele>598.10</ele>
        <time>2012-10-14T10:14:18Z</time>
      </trkpt>
      <trkpt lat="41.949394000" lon="2.491790100">
        <ele>598.60</ele>
        <time>2012-10-14T10:14:19Z</time>
      </trkpt>
      <trkpt lat="41.949478000" lon="2.491920100">
        <ele>599.50</ele>
        <time>2012-10-14T10:14:28Z</time>
      </trkpt>
      <trkpt lat="41.949558000" lon="2.492106100">
        <ele>602.40</ele>
        <time>2012-10-14T10:14:37Z</time>
      </trkpt>
      <trkpt lat="41.949627000" lon="2.492201100">
        <ele>605.80</ele>
        <time>2012-10-14T10:14:42Z</time>
      </trkpt>
      <trkpt lat="41.949730000" lon="2.492331100">
        <ele>607.20</ele>
        <time>2012-10-14T10:14:49Z</time>
      </trkpt>
      <trkpt lat="41.949860000" lon="2.492430100">
        <ele>607.20</ele>
        <time>2012-10-14T10:14:58Z</time>
      </trkpt>
      <trkpt lat="41.950005000" lon="2.492462100">
        <ele>608.20</ele>
        <time>2012-10-14T10:15:06Z</time>
      </trkpt>
      <trkpt lat="41.950157000" lon="2.492577100">
        <ele>609.10</ele>
        <time>2012-10-14T10:15:17Z</time>
      </trkpt>
      <trkpt lat="41.950256000" lon="2.492674100">
        <ele>610.10</ele>
        <time>2012-10-14T10:15:24Z</time>
      </trkpt>
      <trkpt lat="41.950363000" lon="2.492712100">
        <ele>610.60</ele>
        <time>2012-10-14T10:15:29Z</time>
      </trkpt>
      <trkpt lat="41.950470000" lon="2.492771100">
        <ele>612.00</ele>
        <time>2012-10-14T10:15:36Z</time>
      </trkpt>
      <trkpt lat="41.950573000" lon="2.492845100">
        <ele>613.00</ele>
        <time>2012-10-14T10:15:43Z</time>
      </trkpt>
      <trkpt lat="41.950680000" lon="2.492881100">
        <ele>613.90</ele>
        <time>2012-10-14T10:15:50Z</time>
      </trkpt>
      <trkpt lat="41.950798000" lon="2.492910100">
        <ele>615.40</ele>
        <time>2012-10-14T10:15:57Z</time>
      </trkpt>
      <trkpt lat="41.950916000" lon="2.492952100">
        <ele>616.30</ele>
        <time>2012-10-14T10:16:04Z</time>
      </trkpt>
      <trkpt lat="41.951080000" lon="2.493026100">
        <ele>617.80</ele>
        <time>2012-10-14T10:16:13Z</time>
      </trkpt>
      <trkpt lat="41.951233000" lon="2.493103100">
        <ele>619.20</ele>
        <time>2012-10-14T10:16:23Z</time>
      </trkpt>
      <trkpt lat="41.951374000" lon="2.493202100">
        <ele>620.70</ele>
        <time>2012-10-14T10:16:32Z</time>
      </trkpt>
      <trkpt lat="41.951393000" lon="2.493206100">
        <ele>620.70</ele>
        <time>2012-10-14T10:16:32Z</time>
      </trkpt>
      <trkpt lat="41.951527000" lon="2.493223100">
        <ele>621.60</ele>
        <time>2012-10-14T10:16:41Z</time>
      </trkpt>
      <trkpt lat="41.951630000" lon="2.493230100">
        <ele>623.10</ele>
        <time>2012-10-14T10:16:48Z</time>
      </trkpt>
      <trkpt lat="41.951675000" lon="2.493228100">
        <ele>623.10</ele>
        <time>2012-10-14T10:16:51Z</time>
      </trkpt>
      <trkpt lat="41.951752000" lon="2.493096100">
        <ele>624.50</ele>
        <time>2012-10-14T10:16:56Z</time>
      </trkpt>
      <trkpt lat="41.951756000" lon="2.493067100">
        <ele>624.50</ele>
        <time>2012-10-14T10:16:58Z</time>
      </trkpt>
      <trkpt lat="41.951736000" lon="2.493011100">
        <ele>625.50</ele>
        <time>2012-10-14T10:17:00Z</time>
      </trkpt>
      <trkpt lat="41.951721000" lon="2.493003100">
        <ele>625.50</ele>
        <time>2012-10-14T10:17:01Z</time>
      </trkpt>
      <trkpt lat="41.951595000" lon="2.493038100">
        <ele>627.40</ele>
        <time>2012-10-14T10:17:08Z</time>
      </trkpt>
      <trkpt lat="41.951485000" lon="2.492989100">
        <ele>628.40</ele>
        <time>2012-10-14T10:17:15Z</time>
      </trkpt>
      <trkpt lat="41.951401000" lon="2.492894100">
        <ele>629.30</ele>
        <time>2012-10-14T10:17:22Z</time>
      </trkpt>
      <trkpt lat="41.951286000" lon="2.492796100">
        <ele>631.20</ele>
        <time>2012-10-14T10:17:29Z</time>
      </trkpt>
      <trkpt lat="41.951126000" lon="2.492678100">
        <ele>632.20</ele>
        <time>2012-10-14T10:17:40Z</time>
      </trkpt>
      <trkpt lat="41.950947000" lon="2.492549100">
        <ele>634.10</ele>
        <time>2012-10-14T10:17:50Z</time>
      </trkpt>
      <trkpt lat="41.950829000" lon="2.492462100">
        <ele>634.60</ele>
        <time>2012-10-14T10:17:55Z</time>
      </trkpt>
      <trkpt lat="41.950691000" lon="2.492349100">
        <ele>635.60</ele>
        <time>2012-10-14T10:18:02Z</time>
      </trkpt>
      <trkpt lat="41.950508000" lon="2.492220100">
        <ele>636.50</ele>
        <time>2012-10-14T10:18:11Z</time>
      </trkpt>
      <trkpt lat="41.950466000" lon="2.492178100">
        <ele>636.50</ele>
        <time>2012-10-14T10:18:13Z</time>
      </trkpt>
      <trkpt lat="41.950451000" lon="2.492093100">
        <ele>637.00</ele>
        <time>2012-10-14T10:18:16Z</time>
      </trkpt>
      <trkpt lat="41.950520000" lon="2.492102100">
        <ele>638.50</ele>
        <time>2012-10-14T10:18:23Z</time>
      </trkpt>
      <trkpt lat="41.950581000" lon="2.492167100">
        <ele>638.90</ele>
        <time>2012-10-14T10:18:27Z</time>
      </trkpt>
      <trkpt lat="41.950695000" lon="2.492269100">
        <ele>640.40</ele>
        <time>2012-10-14T10:18:34Z</time>
      </trkpt>
      <trkpt lat="41.950706000" lon="2.492268100">
        <ele>640.40</ele>
        <time>2012-10-14T10:18:36Z</time>
      </trkpt>
      <trkpt lat="41.950813000" lon="2.492323100">
        <ele>641.80</ele>
        <time>2012-10-14T10:18:41Z</time>
      </trkpt>
      <trkpt lat="41.950874000" lon="2.492355100">
        <ele>642.80</ele>
        <time>2012-10-14T10:18:46Z</time>
      </trkpt>
      <trkpt lat="41.950981000" lon="2.492411100">
        <ele>643.70</ele>
        <time>2012-10-14T10:18:53Z</time>
      </trkpt>
      <trkpt lat="41.951050000" lon="2.492429100">
        <ele>644.70</ele>
        <time>2012-10-14T10:18:56Z</time>
      </trkpt>
      <trkpt lat="41.951111000" lon="2.492433100">
        <ele>645.70</ele>
        <time>2012-10-14T10:19:00Z</time>
      </trkpt>
      <trkpt lat="41.951248000" lon="2.492425100">
        <ele>647.10</ele>
        <time>2012-10-14T10:19:10Z</time>
      </trkpt>
      <trkpt lat="41.951317000" lon="2.492330100">
        <ele>649.00</ele>
        <time>2012-10-14T10:19:17Z</time>
      </trkpt>
      <trkpt lat="41.951340000" lon="2.492257100">
        <ele>650.00</ele>
        <time>2012-10-14T10:19:19Z</time>
      </trkpt>
      <trkpt lat="41.951344000" lon="2.492089100">
        <ele>651.40</ele>
        <time>2012-10-14T10:19:26Z</time>
      </trkpt>
      <trkpt lat="41.951344000" lon="2.492064100">
        <ele>651.40</ele>
        <time>2012-10-14T10:19:28Z</time>
      </trkpt>
      <trkpt lat="41.951321000" lon="2.491898100">
        <ele>653.30</ele>
        <time>2012-10-14T10:19:35Z</time>
      </trkpt>
      <trkpt lat="41.951275000" lon="2.491753100">
        <ele>654.30</ele>
        <time>2012-10-14T10:19:43Z</time>
      </trkpt>
      <trkpt lat="41.951256000" lon="2.491673100">
        <ele>655.80</ele>
        <time>2012-10-14T10:19:49Z</time>
      </trkpt>
      <trkpt lat="41.951225000" lon="2.491557100">
        <ele>656.70</ele>
        <time>2012-10-14T10:19:54Z</time>
      </trkpt>
      <trkpt lat="41.951221000" lon="2.491407100">
        <ele>657.20</ele>
        <time>2012-10-14T10:20:01Z</time>
      </trkpt>
      <trkpt lat="41.951233000" lon="2.491220100">
        <ele>658.20</ele>
        <time>2012-10-14T10:20:10Z</time>
      </trkpt>
      <trkpt lat="41.951241000" lon="2.491101100">
        <ele>658.60</ele>
        <time>2012-10-14T10:20:15Z</time>
      </trkpt>
      <trkpt lat="41.951241000" lon="2.491051100">
        <ele>659.10</ele>
        <time>2012-10-14T10:20:18Z</time>
      </trkpt>
      <trkpt lat="41.951199000" lon="2.490865100">
        <ele>660.10</ele>
        <time>2012-10-14T10:20:25Z</time>
      </trkpt>
      <trkpt lat="41.951157000" lon="2.490666100">
        <ele>661.00</ele>
        <time>2012-10-14T10:20:34Z</time>
      </trkpt>
      <trkpt lat="41.951172000" lon="2.490505100">
        <ele>661.50</ele>
        <time>2012-10-14T10:20:39Z</time>
      </trkpt>
      <trkpt lat="41.951153000" lon="2.490305100">
        <ele>662.00</ele>
        <time>2012-10-14T10:20:46Z</time>
      </trkpt>
      <trkpt lat="41.951107000" lon="2.490098100">
        <ele>662.50</ele>
        <time>2012-10-14T10:20:53Z</time>
      </trkpt>
      <trkpt lat="41.951138000" lon="2.489862100">
        <ele>663.50</ele>
        <time>2012-10-14T10:21:02Z</time>
      </trkpt>
      <trkpt lat="41.951202000" lon="2.489722100">
        <ele>663.90</ele>
        <time>2012-10-14T10:21:07Z</time>
      </trkpt>
      <trkpt lat="41.951221000" lon="2.489485100">
        <ele>664.90</ele>
        <time>2012-10-14T10:21:16Z</time>
      </trkpt>
      <trkpt lat="41.951221000" lon="2.489435100">
        <ele>665.40</ele>
        <time>2012-10-14T10:21:19Z</time>
      </trkpt>
      <trkpt lat="41.951256000" lon="2.489199100">
        <ele>666.30</ele>
        <time>2012-10-14T10:21:26Z</time>
      </trkpt>
      <trkpt lat="41.951260000" lon="2.489027100">
        <ele>668.20</ele>
        <time>2012-10-14T10:21:33Z</time>
      </trkpt>
      <trkpt lat="41.951283000" lon="2.488821100">
        <ele>668.70</ele>
        <time>2012-10-14T10:21:38Z</time>
      </trkpt>
      <trkpt lat="41.951271000" lon="2.488639100">
        <ele>669.70</ele>
        <time>2012-10-14T10:21:45Z</time>
      </trkpt>
      <trkpt lat="41.951283000" lon="2.488476100">
        <ele>670.70</ele>
        <time>2012-10-14T10:21:51Z</time>
      </trkpt>
      <trkpt lat="41.951302000" lon="2.488405100">
        <ele>670.70</ele>
        <time>2012-10-14T10:21:52Z</time>
      </trkpt>
      <trkpt lat="41.951405000" lon="2.488385100">
        <ele>671.10</ele>
        <time>2012-10-14T10:21:58Z</time>
      </trkpt>
      <trkpt lat="41.951546000" lon="2.488530100">
        <ele>672.60</ele>
        <time>2012-10-14T10:22:08Z</time>
      </trkpt>
      <trkpt lat="41.951664000" lon="2.488655100">
        <ele>673.50</ele>
        <time>2012-10-14T10:22:15Z</time>
      </trkpt>
      <trkpt lat="41.951820000" lon="2.488725100">
        <ele>674.50</ele>
        <time>2012-10-14T10:22:24Z</time>
      </trkpt>
      <trkpt lat="41.951996000" lon="2.488798100">
        <ele>675.50</ele>
        <time>2012-10-14T10:22:31Z</time>
      </trkpt>
      <trkpt lat="41.952137000" lon="2.488918100">
        <ele>676.40</ele>
        <time>2012-10-14T10:22:39Z</time>
      </trkpt>
      <trkpt lat="41.952251000" lon="2.489051100">
        <ele>676.90</ele>
        <time>2012-10-14T10:22:48Z</time>
      </trkpt>
      <trkpt lat="41.952354000" lon="2.489164100">
        <ele>678.30</ele>
        <time>2012-10-14T10:22:55Z</time>
      </trkpt>
      <trkpt lat="41.952404000" lon="2.489278100">
        <ele>678.80</ele>
        <time>2012-10-14T10:23:02Z</time>
      </trkpt>
      <trkpt lat="41.952503000" lon="2.489427100">
        <ele>679.30</ele>
        <time>2012-10-14T10:23:09Z</time>
      </trkpt>
      <trkpt lat="41.952599000" lon="2.489536100">
        <ele>680.30</ele>
        <time>2012-10-14T10:23:16Z</time>
      </trkpt>
      <trkpt lat="41.952713000" lon="2.489662100">
        <ele>681.20</ele>
        <time>2012-10-14T10:23:23Z</time>
      </trkpt>
      <trkpt lat="41.952839000" lon="2.489777100">
        <ele>683.20</ele>
        <time>2012-10-14T10:23:32Z</time>
      </trkpt>
      <trkpt lat="41.952953000" lon="2.489825100">
        <ele>683.60</ele>
        <time>2012-10-14T10:23:39Z</time>
      </trkpt>
      <trkpt lat="41.953125000" lon="2.489799100">
        <ele>686.00</ele>
        <time>2012-10-14T10:23:49Z</time>
      </trkpt>
      <trkpt lat="41.953285000" lon="2.489786100">
        <ele>688.40</ele>
        <time>2012-10-14T10:23:59Z</time>
      </trkpt>
      <trkpt lat="41.953320000" lon="2.489777100">
        <ele>688.90</ele>
        <time>2012-10-14T10:24:01Z</time>
      </trkpt>
      <trkpt lat="41.953377000" lon="2.489643100">
        <ele>690.80</ele>
        <time>2012-10-14T10:24:08Z</time>
      </trkpt>
      <trkpt lat="41.953369000" lon="2.489576100">
        <ele>691.30</ele>
        <time>2012-10-14T10:24:12Z</time>
      </trkpt>
      <trkpt lat="41.953335000" lon="2.489392100">
        <ele>692.30</ele>
        <time>2012-10-14T10:24:19Z</time>
      </trkpt>
      <trkpt lat="41.953323000" lon="2.489194100">
        <ele>693.20</ele>
        <time>2012-10-14T10:24:27Z</time>
      </trkpt>
      <trkpt lat="41.953251000" lon="2.489078100">
        <ele>694.20</ele>
        <time>2012-10-14T10:24:34Z</time>
      </trkpt>
      <trkpt lat="41.953182000" lon="2.488957100">
        <ele>694.70</ele>
        <time>2012-10-14T10:24:41Z</time>
      </trkpt>
      <trkpt lat="41.953114000" lon="2.488831100">
        <ele>696.10</ele>
        <time>2012-10-14T10:24:48Z</time>
      </trkpt>
      <trkpt lat="41.953106000" lon="2.488812100">
        <ele>696.10</ele>
        <time>2012-10-14T10:24:50Z</time>
      </trkpt>
      <trkpt lat="41.953030000" lon="2.488670100">
        <ele>697.10</ele>
        <time>2012-10-14T10:24:57Z</time>
      </trkpt>
      <trkpt lat="41.953022000" lon="2.488653100">
        <ele>697.10</ele>
        <time>2012-10-14T10:24:59Z</time>
      </trkpt>
      <trkpt lat="41.952995000" lon="2.488526100">
        <ele>698.00</ele>
        <time>2012-10-14T10:25:04Z</time>
      </trkpt>
      <trkpt lat="41.952969000" lon="2.488413100">
        <ele>698.50</ele>
        <time>2012-10-14T10:25:09Z</time>
      </trkpt>
      <trkpt lat="41.952930000" lon="2.488272100">
        <ele>700.00</ele>
        <time>2012-10-14T10:25:16Z</time>
      </trkpt>
      <trkpt lat="41.952930000" lon="2.488118100">
        <ele>700.90</ele>
        <time>2012-10-14T10:25:23Z</time>
      </trkpt>
      <trkpt lat="41.952927000" lon="2.488075100">
        <ele>700.90</ele>
        <time>2012-10-14T10:25:25Z</time>
      </trkpt>
      <trkpt lat="41.952908000" lon="2.487881100">
        <ele>701.90</ele>
        <time>2012-10-14T10:25:35Z</time>
      </trkpt>
      <trkpt lat="41.952900000" lon="2.487707100">
        <ele>703.30</ele>
        <time>2012-10-14T10:25:42Z</time>
      </trkpt>
      <trkpt lat="41.952866000" lon="2.487562100">
        <ele>705.30</ele>
        <time>2012-10-14T10:25:49Z</time>
      </trkpt>
      <trkpt lat="41.952827000" lon="2.487490100">
        <ele>708.20</ele>
        <time>2012-10-14T10:25:53Z</time>
      </trkpt>
      <trkpt lat="41.952755000" lon="2.487418100">
        <ele>712.00</ele>
        <time>2012-10-14T10:26:00Z</time>
      </trkpt>
      <trkpt lat="41.952721000" lon="2.487300100">
        <ele>712.00</ele>
        <time>2012-10-14T10:26:05Z</time>
      </trkpt>
      <trkpt lat="41.952801000" lon="2.487068100">
        <ele>710.50</ele>
        <time>2012-10-14T10:26:17Z</time>
      </trkpt>
      <trkpt lat="41.952805000" lon="2.487016100">
        <ele>710.50</ele>
        <time>2012-10-14T10:26:19Z</time>
      </trkpt>
      <trkpt lat="41.952801000" lon="2.486823100">
        <ele>710.50</ele>
        <time>2012-10-14T10:26:26Z</time>
      </trkpt>
      <trkpt lat="41.952873000" lon="2.486790100">
        <ele>710.50</ele>
        <time>2012-10-14T10:26:31Z</time>
      </trkpt>
      <trkpt lat="41.952930000" lon="2.486784100">
        <ele>712.00</ele>
        <time>2012-10-14T10:26:35Z</time>
      </trkpt>
      <trkpt lat="41.953037000" lon="2.486623100">
        <ele>712.50</ele>
        <time>2012-10-14T10:26:43Z</time>
      </trkpt>
      <trkpt lat="41.953072000" lon="2.486523100">
        <ele>713.00</ele>
        <time>2012-10-14T10:26:48Z</time>
      </trkpt>
      <trkpt lat="41.953079000" lon="2.486499100">
        <ele>713.40</ele>
        <time>2012-10-14T10:26:50Z</time>
      </trkpt>
      <trkpt lat="41.953072000" lon="2.486417100">
        <ele>713.90</ele>
        <time>2012-10-14T10:26:54Z</time>
      </trkpt>
      <trkpt lat="41.953037000" lon="2.486248100">
        <ele>715.40</ele>
        <time>2012-10-14T10:27:02Z</time>
      </trkpt>
      <trkpt lat="41.953037000" lon="2.486166100">
        <ele>715.80</ele>
        <time>2012-10-14T10:27:06Z</time>
      </trkpt>
      <trkpt lat="41.952991000" lon="2.485900100">
        <ele>717.80</ele>
        <time>2012-10-14T10:27:16Z</time>
      </trkpt>
      <trkpt lat="41.952988000" lon="2.485695100">
        <ele>718.20</ele>
        <time>2012-10-14T10:27:25Z</time>
      </trkpt>
      <trkpt lat="41.953045000" lon="2.485561100">
        <ele>718.70</ele>
        <time>2012-10-14T10:27:32Z</time>
      </trkpt>
      <trkpt lat="41.953159000" lon="2.485532100">
        <ele>720.20</ele>
        <time>2012-10-14T10:27:39Z</time>
      </trkpt>
      <trkpt lat="41.953255000" lon="2.485553100">
        <ele>720.70</ele>
        <time>2012-10-14T10:27:46Z</time>
      </trkpt>
      <trkpt lat="41.953377000" lon="2.485493100">
        <ele>722.10</ele>
        <time>2012-10-14T10:27:55Z</time>
      </trkpt>
      <trkpt lat="41.953476000" lon="2.485457100">
        <ele>723.00</ele>
        <time>2012-10-14T10:28:02Z</time>
      </trkpt>
      <trkpt lat="41.953575000" lon="2.485452100">
        <ele>724.00</ele>
        <time>2012-10-14T10:28:07Z</time>
      </trkpt>
      <trkpt lat="41.953705000" lon="2.485469100">
        <ele>725.00</ele>
        <time>2012-10-14T10:28:14Z</time>
      </trkpt>
      <trkpt lat="41.953770000" lon="2.485496100">
        <ele>725.50</ele>
        <time>2012-10-14T10:28:19Z</time>
      </trkpt>
      <trkpt lat="41.953915000" lon="2.485539100">
        <ele>726.40</ele>
        <time>2012-10-14T10:28:26Z</time>
      </trkpt>
      <trkpt lat="41.953964000" lon="2.485554100">
        <ele>726.90</ele>
        <time>2012-10-14T10:28:28Z</time>
      </trkpt>
      <trkpt lat="41.954041000" lon="2.485461100">
        <ele>727.90</ele>
        <time>2012-10-14T10:28:35Z</time>
      </trkpt>
      <trkpt lat="41.953995000" lon="2.485278100">
        <ele>729.30</ele>
        <time>2012-10-14T10:28:45Z</time>
      </trkpt>
      <trkpt lat="41.953880000" lon="2.485245100">
        <ele>730.30</ele>
        <time>2012-10-14T10:28:52Z</time>
      </trkpt>
      <trkpt lat="41.953754000" lon="2.485239100">
        <ele>732.20</ele>
        <time>2012-10-14T10:28:59Z</time>
      </trkpt>
      <trkpt lat="41.953594000" lon="2.485210100">
        <ele>732.70</ele>
        <time>2012-10-14T10:29:06Z</time>
      </trkpt>
      <trkpt lat="41.953434000" lon="2.485132100">
        <ele>733.60</ele>
        <time>2012-10-14T10:29:13Z</time>
      </trkpt>
      <trkpt lat="41.953297000" lon="2.485058100">
        <ele>735.50</ele>
        <time>2012-10-14T10:29:22Z</time>
      </trkpt>
      <trkpt lat="41.953285000" lon="2.485053100">
        <ele>736.00</ele>
        <time>2012-10-14T10:29:27Z</time>
      </trkpt>
      <trkpt lat="41.953285000" lon="2.485053100">
        <ele>736.00</ele>
        <time>2012-10-14T10:29:37Z</time>
      </trkpt>
      <trkpt lat="41.953239000" lon="2.485037100">
        <ele>737.00</ele>
        <time>2012-10-14T10:29:44Z</time>
      </trkpt>
      <trkpt lat="41.953224000" lon="2.485027100">
        <ele>737.00</ele>
        <time>2012-10-14T10:29:46Z</time>
      </trkpt>
      <trkpt lat="41.953144000" lon="2.484992100">
        <ele>737.50</ele>
        <time>2012-10-14T10:29:50Z</time>
      </trkpt>
      <trkpt lat="41.952969000" lon="2.485018100">
        <ele>739.40</ele>
        <time>2012-10-14T10:30:00Z</time>
      </trkpt>
      <trkpt lat="41.952877000" lon="2.484941100">
        <ele>742.80</ele>
        <time>2012-10-14T10:30:07Z</time>
      </trkpt>
      <trkpt lat="41.952839000" lon="2.484809100">
        <ele>746.10</ele>
        <time>2012-10-14T10:30:12Z</time>
      </trkpt>
      <trkpt lat="41.952854000" lon="2.484636100">
        <ele>745.60</ele>
        <time>2012-10-14T10:30:21Z</time>
      </trkpt>
      <trkpt lat="41.952854000" lon="2.484558100">
        <ele>743.70</ele>
        <time>2012-10-14T10:30:28Z</time>
      </trkpt>
      <trkpt lat="41.952850000" lon="2.484550100">
        <ele>742.80</ele>
        <time>2012-10-14T10:30:35Z</time>
      </trkpt>
      <trkpt lat="41.952827000" lon="2.484617100">
        <ele>742.80</ele>
        <time>2012-10-14T10:30:42Z</time>
      </trkpt>
      <trkpt lat="41.952808000" lon="2.484622100">
        <ele>742.80</ele>
        <time>2012-10-14T10:30:49Z</time>
      </trkpt>
      <trkpt lat="41.952805000" lon="2.484627100">
        <ele>742.80</ele>
        <time>2012-10-14T10:31:17Z</time>
      </trkpt>
      <trkpt lat="41.952808000" lon="2.484627100">
        <ele>742.80</ele>
        <time>2012-10-14T10:31:24Z</time>
      </trkpt>
      <trkpt lat="41.952808000" lon="2.484627100">
        <ele>742.80</ele>
        <time>2012-10-14T10:31:36Z</time>
      </trkpt>
      <trkpt lat="41.952808000" lon="2.484628100">
        <ele>742.30</ele>
        <time>2012-10-14T10:32:28Z</time>
      </trkpt>
      <trkpt lat="41.952805000" lon="2.484626100">
        <ele>742.30</ele>
        <time>2012-10-14T10:33:22Z</time>
      </trkpt>
      <trkpt lat="41.952808000" lon="2.484627100">
        <ele>742.30</ele>
        <time>2012-10-14T10:33:41Z</time>
      </trkpt>
      <trkpt lat="41.952812000" lon="2.484625100">
        <ele>742.30</ele>
        <time>2012-10-14T10:34:06Z</time>
      </trkpt>
      <trkpt lat="41.952812000" lon="2.484621100">
        <ele>742.30</ele>
        <time>2012-10-14T10:35:03Z</time>
      </trkpt>
      <trkpt lat="41.952816000" lon="2.484618100">
        <ele>742.30</ele>
        <time>2012-10-14T10:35:29Z</time>
      </trkpt>
      <trkpt lat="41.952816000" lon="2.484618100">
        <ele>742.30</ele>
        <time>2012-10-14T10:35:54Z</time>
      </trkpt>
      <trkpt lat="41.952816000" lon="2.484624100">
        <ele>741.80</ele>
        <time>2012-10-14T10:36:16Z</time>
      </trkpt>
      <trkpt lat="41.952812000" lon="2.484621100">
        <ele>741.80</ele>
        <time>2012-10-14T10:36:58Z</time>
      </trkpt>
      <trkpt lat="41.952812000" lon="2.484625100">
        <ele>741.80</ele>
        <time>2012-10-14T10:38:25Z</time>
      </trkpt>
      <trkpt lat="41.952808000" lon="2.484627100">
        <ele>741.80</ele>
        <time>2012-10-14T10:38:44Z</time>
      </trkpt>
      <trkpt lat="41.952808000" lon="2.484631100">
        <ele>741.80</ele>
        <time>2012-10-14T10:39:28Z</time>
      </trkpt>
      <trkpt lat="41.952808000" lon="2.484631100">
        <ele>741.80</ele>
        <time>2012-10-14T10:39:49Z</time>
      </trkpt>
      <trkpt lat="41.952805000" lon="2.484631100">
        <ele>741.30</ele>
        <time>2012-10-14T10:40:13Z</time>
      </trkpt>
      <trkpt lat="41.952812000" lon="2.484632100">
        <ele>741.30</ele>
        <time>2012-10-14T10:41:33Z</time>
      </trkpt>
      <trkpt lat="41.952820000" lon="2.484629100">
        <ele>741.30</ele>
        <time>2012-10-14T10:42:08Z</time>
      </trkpt>
      <trkpt lat="41.952816000" lon="2.484629100">
        <ele>741.30</ele>
        <time>2012-10-14T10:43:00Z</time>
      </trkpt>
      <trkpt lat="41.952816000" lon="2.484631100">
        <ele>741.30</ele>
        <time>2012-10-14T10:43:44Z</time>
      </trkpt>
      <trkpt lat="41.952816000" lon="2.484630100">
        <ele>741.30</ele>
        <time>2012-10-14T10:44:19Z</time>
      </trkpt>
      <trkpt lat="41.952812000" lon="2.484634100">
        <ele>741.30</ele>
        <time>2012-10-14T10:46:19Z</time>
      </trkpt>
      <trkpt lat="41.952816000" lon="2.484627100">
        <ele>741.30</ele>
        <time>2012-10-14T10:46:54Z</time>
      </trkpt>
      <trkpt lat="41.952816000" lon="2.484632100">
        <ele>741.30</ele>
        <time>2012-10-14T10:47:34Z</time>
      </trkpt>
      <trkpt lat="41.952820000" lon="2.484631100">
        <ele>741.30</ele>
        <time>2012-10-14T10:48:18Z</time>
      </trkpt>
      <trkpt lat="41.952824000" lon="2.484640100">
        <ele>741.30</ele>
        <time>2012-10-14T10:49:05Z</time>
      </trkpt>
      <trkpt lat="41.952824000" lon="2.484617100">
        <ele>741.30</ele>
        <time>2012-10-14T10:49:18Z</time>
      </trkpt>
      <trkpt lat="41.952881000" lon="2.484501100">
        <ele>741.30</ele>
        <time>2012-10-14T10:49:31Z</time>
      </trkpt>
      <trkpt lat="41.952892000" lon="2.484276100">
        <ele>740.80</ele>
        <time>2012-10-14T10:49:39Z</time>
      </trkpt>
      <trkpt lat="41.952942000" lon="2.484015100">
        <ele>739.40</ele>
        <time>2012-10-14T10:49:48Z</time>
      </trkpt>
      <trkpt lat="41.952953000" lon="2.483868100">
        <ele>738.40</ele>
        <time>2012-10-14T10:49:53Z</time>
      </trkpt>
      <trkpt lat="41.952961000" lon="2.483710100">
        <ele>735.10</ele>
        <time>2012-10-14T10:49:57Z</time>
      </trkpt>
      <trkpt lat="41.953037000" lon="2.483494100">
        <ele>731.70</ele>
        <time>2012-10-14T10:50:00Z</time>
      </trkpt>
      <trkpt lat="41.953102000" lon="2.483208100">
        <ele>727.90</ele>
        <time>2012-10-14T10:50:07Z</time>
      </trkpt>
      <trkpt lat="41.953117000" lon="2.483150100">
        <ele>728.80</ele>
        <time>2012-10-14T10:50:07Z</time>
      </trkpt>
      <trkpt lat="41.953125000" lon="2.482912100">
        <ele>727.40</ele>
        <time>2012-10-14T10:50:11Z</time>
      </trkpt>
      <trkpt lat="41.953106000" lon="2.482791100">
        <ele>727.40</ele>
        <time>2012-10-14T10:50:14Z</time>
      </trkpt>
      <trkpt lat="41.952980000" lon="2.482368100">
        <ele>727.40</ele>
        <time>2012-10-14T10:50:21Z</time>
      </trkpt>
      <trkpt lat="41.952930000" lon="2.482188100">
        <ele>725.50</ele>
        <time>2012-10-14T10:50:26Z</time>
      </trkpt>
      <trkpt lat="41.952927000" lon="2.482018100">
        <ele>721.60</ele>
        <time>2012-10-14T10:50:30Z</time>
      </trkpt>
      <trkpt lat="41.952938000" lon="2.481870100">
        <ele>718.20</ele>
        <time>2012-10-14T10:50:33Z</time>
      </trkpt>
      <trkpt lat="41.952938000" lon="2.481818100">
        <ele>717.30</ele>
        <time>2012-10-14T10:50:35Z</time>
      </trkpt>
      <trkpt lat="41.952923000" lon="2.481468100">
        <ele>716.30</ele>
        <time>2012-10-14T10:50:40Z</time>
      </trkpt>
      <trkpt lat="41.952812000" lon="2.481169100">
        <ele>715.80</ele>
        <time>2012-10-14T10:50:46Z</time>
      </trkpt>
      <trkpt lat="41.952858000" lon="2.480879100">
        <ele>713.90</ele>
        <time>2012-10-14T10:50:49Z</time>
      </trkpt>
      <trkpt lat="41.953018000" lon="2.480671100">
        <ele>710.10</ele>
        <time>2012-10-14T10:50:54Z</time>
      </trkpt>
      <trkpt lat="41.953094000" lon="2.480431100">
        <ele>706.70</ele>
        <time>2012-10-14T10:50:58Z</time>
      </trkpt>
      <trkpt lat="41.953094000" lon="2.480369100">
        <ele>706.20</ele>
        <time>2012-10-14T10:50:58Z</time>
      </trkpt>
      <trkpt lat="41.953068000" lon="2.480195100">
        <ele>706.20</ele>
        <time>2012-10-14T10:51:01Z</time>
      </trkpt>
      <trkpt lat="41.953022000" lon="2.479847100">
        <ele>705.80</ele>
        <time>2012-10-14T10:51:06Z</time>
      </trkpt>
      <trkpt lat="41.952919000" lon="2.479577100">
        <ele>702.40</ele>
        <time>2012-10-14T10:51:12Z</time>
      </trkpt>
      <trkpt lat="41.952854000" lon="2.479450100">
        <ele>699.00</ele>
        <time>2012-10-14T10:51:15Z</time>
      </trkpt>
      <trkpt lat="41.952732000" lon="2.479287100">
        <ele>695.70</ele>
        <time>2012-10-14T10:51:19Z</time>
      </trkpt>
      <trkpt lat="41.952595000" lon="2.479105100">
        <ele>695.70</ele>
        <time>2012-10-14T10:51:24Z</time>
      </trkpt>
      <trkpt lat="41.952473000" lon="2.478886100">
        <ele>695.70</ele>
        <time>2012-10-14T10:51:29Z</time>
      </trkpt>
      <trkpt lat="41.952354000" lon="2.478690100">
        <ele>695.20</ele>
        <time>2012-10-14T10:51:34Z</time>
      </trkpt>
      <trkpt lat="41.952282000" lon="2.478464100">
        <ele>691.30</ele>
        <time>2012-10-14T10:51:40Z</time>
      </trkpt>
      <trkpt lat="41.952240000" lon="2.478347100">
        <ele>687.00</ele>
        <time>2012-10-14T10:51:43Z</time>
      </trkpt>
      <trkpt lat="41.952183000" lon="2.478205100">
        <ele>683.60</ele>
        <time>2012-10-14T10:51:45Z</time>
      </trkpt>
      <trkpt lat="41.952160000" lon="2.478145100">
        <ele>682.70</ele>
        <time>2012-10-14T10:51:47Z</time>
      </trkpt>
      <trkpt lat="41.952114000" lon="2.477923100">
        <ele>679.80</ele>
        <time>2012-10-14T10:51:50Z</time>
      </trkpt>
      <trkpt lat="41.952026000" lon="2.477673100">
        <ele>677.40</ele>
        <time>2012-10-14T10:51:54Z</time>
      </trkpt>
      <trkpt lat="41.951920000" lon="2.477302100">
        <ele>674.50</ele>
        <time>2012-10-14T10:51:59Z</time>
      </trkpt>
      <trkpt lat="41.951733000" lon="2.476989100">
        <ele>669.70</ele>
        <time>2012-10-14T10:52:04Z</time>
      </trkpt>
      <trkpt lat="41.951572000" lon="2.476999100">
        <ele>667.80</ele>
        <time>2012-10-14T10:52:07Z</time>
      </trkpt>
      <trkpt lat="41.951511000" lon="2.477006100">
        <ele>667.80</ele>
        <time>2012-10-14T10:52:11Z</time>
      </trkpt>
      <trkpt lat="41.951473000" lon="2.477041100">
        <ele>668.70</ele>
        <time>2012-10-14T10:52:18Z</time>
      </trkpt>
      <trkpt lat="41.951477000" lon="2.477038100">
        <ele>669.70</ele>
        <time>2012-10-14T10:52:28Z</time>
      </trkpt>
      <trkpt lat="41.951500000" lon="2.476987100">
        <ele>669.70</ele>
        <time>2012-10-14T10:52:35Z</time>
      </trkpt>
      <trkpt lat="41.951492000" lon="2.476968100">
        <ele>669.70</ele>
        <time>2012-10-14T10:54:01Z</time>
      </trkpt>
      <trkpt lat="41.951485000" lon="2.476964100">
        <ele>669.70</ele>
        <time>2012-10-14T10:55:33Z</time>
      </trkpt>
      <trkpt lat="41.951485000" lon="2.476965100">
        <ele>669.70</ele>
        <time>2012-10-14T10:56:17Z</time>
      </trkpt>
      <trkpt lat="41.951481000" lon="2.476987100">
        <ele>670.20</ele>
        <time>2012-10-14T10:56:22Z</time>
      </trkpt>
      <trkpt lat="41.951469000" lon="2.476994100">
        <ele>670.20</ele>
        <time>2012-10-14T10:56:30Z</time>
      </trkpt>
      <trkpt lat="41.951458000" lon="2.476999100">
        <ele>670.20</ele>
        <time>2012-10-14T10:56:39Z</time>
      </trkpt>
      <trkpt lat="41.951336000" lon="2.477046100">
        <ele>670.70</ele>
        <time>2012-10-14T10:56:46Z</time>
      </trkpt>
      <trkpt lat="41.951271000" lon="2.477184100">
        <ele>670.70</ele>
        <time>2012-10-14T10:56:51Z</time>
      </trkpt>
      <trkpt lat="41.951283000" lon="2.477392100">
        <ele>669.20</ele>
        <time>2012-10-14T10:56:57Z</time>
      </trkpt>
      <trkpt lat="41.951229000" lon="2.477599100">
        <ele>665.80</ele>
        <time>2012-10-14T10:57:00Z</time>
      </trkpt>
      <trkpt lat="41.951206000" lon="2.477704100">
        <ele>663.50</ele>
        <time>2012-10-14T10:57:02Z</time>
      </trkpt>
      <trkpt lat="41.951233000" lon="2.478039100">
        <ele>660.10</ele>
        <time>2012-10-14T10:57:07Z</time>
      </trkpt>
      <trkpt lat="41.951244000" lon="2.478131100">
        <ele>659.10</ele>
        <time>2012-10-14T10:57:09Z</time>
      </trkpt>
      <trkpt lat="41.951256000" lon="2.478619100">
        <ele>656.70</ele>
        <time>2012-10-14T10:57:14Z</time>
      </trkpt>
      <trkpt lat="41.951305000" lon="2.478795100">
        <ele>655.30</ele>
        <time>2012-10-14T10:57:17Z</time>
      </trkpt>
      <trkpt lat="41.951424000" lon="2.479139100">
        <ele>654.30</ele>
        <time>2012-10-14T10:57:23Z</time>
      </trkpt>
      <trkpt lat="41.951698000" lon="2.479269100">
        <ele>654.30</ele>
        <time>2012-10-14T10:57:30Z</time>
      </trkpt>
      <trkpt lat="41.951889000" lon="2.479459100">
        <ele>654.30</ele>
        <time>2012-10-14T10:57:37Z</time>
      </trkpt>
      <trkpt lat="41.951874000" lon="2.479606100">
        <ele>654.30</ele>
        <time>2012-10-14T10:57:40Z</time>
      </trkpt>
      <trkpt lat="41.951828000" lon="2.479621100">
        <ele>654.30</ele>
        <time>2012-10-14T10:57:42Z</time>
      </trkpt>
      <trkpt lat="41.951641000" lon="2.479739100">
        <ele>654.80</ele>
        <time>2012-10-14T10:57:49Z</time>
      </trkpt>
      <trkpt lat="41.951519000" lon="2.479941100">
        <ele>654.80</ele>
        <time>2012-10-14T10:57:56Z</time>
      </trkpt>
      <trkpt lat="41.951485000" lon="2.480182100">
        <ele>655.80</ele>
        <time>2012-10-14T10:58:03Z</time>
      </trkpt>
      <trkpt lat="41.951378000" lon="2.480491100">
        <ele>655.80</ele>
        <time>2012-10-14T10:58:10Z</time>
      </trkpt>
      <trkpt lat="41.951363000" lon="2.480539100">
        <ele>655.80</ele>
        <time>2012-10-14T10:58:12Z</time>
      </trkpt>
      <trkpt lat="41.951309000" lon="2.480851100">
        <ele>655.80</ele>
        <time>2012-10-14T10:58:17Z</time>
      </trkpt>
      <trkpt lat="41.951309000" lon="2.480986100">
        <ele>655.80</ele>
        <time>2012-10-14T10:58:20Z</time>
      </trkpt>
      <trkpt lat="41.951324000" lon="2.481217100">
        <ele>655.80</ele>
        <time>2012-10-14T10:58:24Z</time>
      </trkpt>
      <trkpt lat="41.951324000" lon="2.481374100">
        <ele>655.80</ele>
        <time>2012-10-14T10:58:27Z</time>
      </trkpt>
      <trkpt lat="41.951267000" lon="2.481690100">
        <ele>652.90</ele>
        <time>2012-10-14T10:58:31Z</time>
      </trkpt>
      <trkpt lat="41.951157000" lon="2.481625100">
        <ele>650.00</ele>
        <time>2012-10-14T10:58:34Z</time>
      </trkpt>
      <trkpt lat="41.951092000" lon="2.481550100">
        <ele>648.10</ele>
        <time>2012-10-14T10:58:36Z</time>
      </trkpt>
      <trkpt lat="41.950920000" lon="2.481414100">
        <ele>643.70</ele>
        <time>2012-10-14T10:58:41Z</time>
      </trkpt>
      <trkpt lat="41.950756000" lon="2.481437100">
        <ele>643.30</ele>
        <time>2012-10-14T10:58:46Z</time>
      </trkpt>
      <trkpt lat="41.950706000" lon="2.481284100">
        <ele>642.30</ele>
        <time>2012-10-14T10:58:48Z</time>
      </trkpt>
      <trkpt lat="41.950565000" lon="2.480987100">
        <ele>640.40</ele>
        <time>2012-10-14T10:58:53Z</time>
      </trkpt>
      <trkpt lat="41.950352000" lon="2.480650100">
        <ele>636.50</ele>
        <time>2012-10-14T10:58:59Z</time>
      </trkpt>
      <trkpt lat="41.950119000" lon="2.480379100">
        <ele>633.20</ele>
        <time>2012-10-14T10:59:02Z</time>
      </trkpt>
      <trkpt lat="41.949879000" lon="2.480135100">
        <ele>629.30</ele>
        <time>2012-10-14T10:59:07Z</time>
      </trkpt>
      <trkpt lat="41.949638000" lon="2.479778100">
        <ele>625.00</ele>
        <time>2012-10-14T10:59:12Z</time>
      </trkpt>
      <trkpt lat="41.949547000" lon="2.479856100">
        <ele>623.10</ele>
        <time>2012-10-14T10:59:16Z</time>
      </trkpt>
      <trkpt lat="41.949490000" lon="2.480050100">
        <ele>621.60</ele>
        <time>2012-10-14T10:59:18Z</time>
      </trkpt>
      <trkpt lat="41.949425000" lon="2.480306100">
        <ele>621.20</ele>
        <time>2012-10-14T10:59:23Z</time>
      </trkpt>
      <trkpt lat="41.949402000" lon="2.480450100">
        <ele>620.70</ele>
        <time>2012-10-14T10:59:25Z</time>
      </trkpt>
      <trkpt lat="41.949387000" lon="2.480597100">
        <ele>619.70</ele>
        <time>2012-10-14T10:59:26Z</time>
      </trkpt>
      <trkpt lat="41.949333000" lon="2.480817100">
        <ele>619.20</ele>
        <time>2012-10-14T10:59:30Z</time>
      </trkpt>
      <trkpt lat="41.949314000" lon="2.480949100">
        <ele>616.80</ele>
        <time>2012-10-14T10:59:32Z</time>
      </trkpt>
      <trkpt lat="41.949223000" lon="2.481187100">
        <ele>613.90</ele>
        <time>2012-10-14T10:59:35Z</time>
      </trkpt>
      <trkpt lat="41.949127000" lon="2.481362100">
        <ele>611.10</ele>
        <time>2012-10-14T10:59:39Z</time>
      </trkpt>
      <trkpt lat="41.949070000" lon="2.481574100">
        <ele>608.70</ele>
        <time>2012-10-14T10:59:42Z</time>
      </trkpt>
      <trkpt lat="41.948936000" lon="2.481708100">
        <ele>605.80</ele>
        <time>2012-10-14T10:59:47Z</time>
      </trkpt>
      <trkpt lat="41.948906000" lon="2.481636100">
        <ele>604.30</ele>
        <time>2012-10-14T10:59:49Z</time>
      </trkpt>
      <trkpt lat="41.948792000" lon="2.481238100">
        <ele>601.90</ele>
        <time>2012-10-14T10:59:56Z</time>
      </trkpt>
      <trkpt lat="41.948727000" lon="2.481050100">
        <ele>600.50</ele>
        <time>2012-10-14T10:59:58Z</time>
      </trkpt>
      <trkpt lat="41.948521000" lon="2.480655100">
        <ele>596.20</ele>
        <time>2012-10-14T11:00:05Z</time>
      </trkpt>
      <trkpt lat="41.948261000" lon="2.480480100">
        <ele>592.80</ele>
        <time>2012-10-14T11:00:10Z</time>
      </trkpt>
      <trkpt lat="41.948196000" lon="2.480492100">
        <ele>592.30</ele>
        <time>2012-10-14T11:00:10Z</time>
      </trkpt>
      <trkpt lat="41.948090000" lon="2.480536100">
        <ele>591.30</ele>
        <time>2012-10-14T11:00:12Z</time>
      </trkpt>
      <trkpt lat="41.947948000" lon="2.480538100">
        <ele>590.40</ele>
        <time>2012-10-14T11:00:15Z</time>
      </trkpt>
      <trkpt lat="41.947735000" lon="2.480652100">
        <ele>587.00</ele>
        <time>2012-10-14T11:00:20Z</time>
      </trkpt>
      <trkpt lat="41.947704000" lon="2.480694100">
        <ele>587.50</ele>
        <time>2012-10-14T11:00:22Z</time>
      </trkpt>
      <trkpt lat="41.947643000" lon="2.480782100">
        <ele>587.00</ele>
        <time>2012-10-14T11:00:24Z</time>
      </trkpt>
      <trkpt lat="41.947571000" lon="2.480693100">
        <ele>585.60</ele>
        <time>2012-10-14T11:00:27Z</time>
      </trkpt>
      <trkpt lat="41.947632000" lon="2.480596100">
        <ele>583.20</ele>
        <time>2012-10-14T11:00:31Z</time>
      </trkpt>
      <trkpt lat="41.947792000" lon="2.480306100">
        <ele>578.80</ele>
        <time>2012-10-14T11:00:38Z</time>
      </trkpt>
      <trkpt lat="41.947952000" lon="2.480240100">
        <ele>576.00</ele>
        <time>2012-10-14T11:00:43Z</time>
      </trkpt>
      <trkpt lat="41.947979000" lon="2.480206100">
        <ele>576.00</ele>
        <time>2012-10-14T11:00:43Z</time>
      </trkpt>
      <trkpt lat="41.948212000" lon="2.480011100">
        <ele>574.00</ele>
        <time>2012-10-14T11:00:50Z</time>
      </trkpt>
      <trkpt lat="41.948269000" lon="2.480014100">
        <ele>573.10</ele>
        <time>2012-10-14T11:00:50Z</time>
      </trkpt>
      <trkpt lat="41.948376000" lon="2.480040100">
        <ele>572.10</ele>
        <time>2012-10-14T11:00:52Z</time>
      </trkpt>
      <trkpt lat="41.948563000" lon="2.480142100">
        <ele>569.20</ele>
        <time>2012-10-14T11:00:57Z</time>
      </trkpt>
      <trkpt lat="41.948616000" lon="2.480024100">
        <ele>566.80</ele>
        <time>2012-10-14T11:01:00Z</time>
      </trkpt>
      <trkpt lat="41.948566000" lon="2.479736100">
        <ele>564.90</ele>
        <time>2012-10-14T11:01:06Z</time>
      </trkpt>
      <trkpt lat="41.948540000" lon="2.479689100">
        <ele>563.50</ele>
        <time>2012-10-14T11:01:06Z</time>
      </trkpt>
      <trkpt lat="41.948391000" lon="2.479482100">
        <ele>562.50</ele>
        <time>2012-10-14T11:01:11Z</time>
      </trkpt>
      <trkpt lat="41.948307000" lon="2.479319100">
        <ele>561.50</ele>
        <time>2012-10-14T11:01:14Z</time>
      </trkpt>
      <trkpt lat="41.948257000" lon="2.478982100">
        <ele>558.70</ele>
        <time>2012-10-14T11:01:20Z</time>
      </trkpt>
      <trkpt lat="41.948257000" lon="2.478616100">
        <ele>555.80</ele>
        <time>2012-10-14T11:01:25Z</time>
      </trkpt>
      <trkpt lat="41.948284000" lon="2.478130100">
        <ele>551.90</ele>
        <time>2012-10-14T11:01:32Z</time>
      </trkpt>
      <trkpt lat="41.948299000" lon="2.477980100">
        <ele>550.50</ele>
        <time>2012-10-14T11:01:34Z</time>
      </trkpt>
      <trkpt lat="41.948402000" lon="2.477633100">
        <ele>548.10</ele>
        <time>2012-10-14T11:01:39Z</time>
      </trkpt>
      <trkpt lat="41.948521000" lon="2.477471100">
        <ele>546.20</ele>
        <time>2012-10-14T11:01:44Z</time>
      </trkpt>
      <trkpt lat="41.948532000" lon="2.477409100">
        <ele>545.70</ele>
        <time>2012-10-14T11:01:46Z</time>
      </trkpt>
      <trkpt lat="41.948463000" lon="2.477367100">
        <ele>544.20</ele>
        <time>2012-10-14T11:01:49Z</time>
      </trkpt>
      <trkpt lat="41.948402000" lon="2.477446100">
        <ele>543.80</ele>
        <time>2012-10-14T11:01:51Z</time>
      </trkpt>
      <trkpt lat="41.948360000" lon="2.477521100">
        <ele>542.80</ele>
        <time>2012-10-14T11:01:53Z</time>
      </trkpt>
      <trkpt lat="41.948212000" lon="2.477772100">
        <ele>540.90</ele>
        <time>2012-10-14T11:02:00Z</time>
      </trkpt>
      <trkpt lat="41.948204000" lon="2.477875100">
        <ele>539.90</ele>
        <time>2012-10-14T11:02:01Z</time>
      </trkpt>
      <trkpt lat="41.948101000" lon="2.478253100">
        <ele>536.50</ele>
        <time>2012-10-14T11:02:07Z</time>
      </trkpt>
      <trkpt lat="41.948055000" lon="2.478376100">
        <ele>535.60</ele>
        <time>2012-10-14T11:02:10Z</time>
      </trkpt>
      <trkpt lat="41.947994000" lon="2.478806100">
        <ele>531.80</ele>
        <time>2012-10-14T11:02:17Z</time>
      </trkpt>
      <trkpt lat="41.947979000" lon="2.478956100">
        <ele>530.80</ele>
        <time>2012-10-14T11:02:19Z</time>
      </trkpt>
      <trkpt lat="41.947872000" lon="2.478978100">
        <ele>529.30</ele>
        <time>2012-10-14T11:02:24Z</time>
      </trkpt>
      <trkpt lat="41.947792000" lon="2.478879100">
        <ele>528.90</ele>
        <time>2012-10-14T11:02:28Z</time>
      </trkpt>
      <trkpt lat="41.947613000" lon="2.478468100">
        <ele>528.90</ele>
        <time>2012-10-14T11:02:35Z</time>
      </trkpt>
      <trkpt lat="41.947590000" lon="2.478397100">
        <ele>527.90</ele>
        <time>2012-10-14T11:02:36Z</time>
      </trkpt>
      <trkpt lat="41.947525000" lon="2.478131100">
        <ele>524.10</ele>
        <time>2012-10-14T11:02:40Z</time>
      </trkpt>
      <trkpt lat="41.947514000" lon="2.477866100">
        <ele>518.80</ele>
        <time>2012-10-14T11:02:43Z</time>
      </trkpt>
      <trkpt lat="41.947517000" lon="2.477723100">
        <ele>516.80</ele>
        <time>2012-10-14T11:02:45Z</time>
      </trkpt>
      <trkpt lat="41.947498000" lon="2.477316100">
        <ele>514.90</ele>
        <time>2012-10-14T11:02:52Z</time>
      </trkpt>
      <trkpt lat="41.947487000" lon="2.477255100">
        <ele>514.40</ele>
        <time>2012-10-14T11:02:52Z</time>
      </trkpt>
      <trkpt lat="41.947380000" lon="2.476957100">
        <ele>514.00</ele>
        <time>2012-10-14T11:02:59Z</time>
      </trkpt>
      <trkpt lat="41.947262000" lon="2.476764100">
        <ele>510.60</ele>
        <time>2012-10-14T11:03:02Z</time>
      </trkpt>
      <trkpt lat="41.947174000" lon="2.476635100">
        <ele>507.20</ele>
        <time>2012-10-14T11:03:06Z</time>
      </trkpt>
      <trkpt lat="41.947063000" lon="2.476537100">
        <ele>504.40</ele>
        <time>2012-10-14T11:03:09Z</time>
      </trkpt>
      <trkpt lat="41.946960000" lon="2.476401100">
        <ele>502.40</ele>
        <time>2012-10-14T11:03:11Z</time>
      </trkpt>
      <trkpt lat="41.946789000" lon="2.475989100">
        <ele>502.90</ele>
        <time>2012-10-14T11:03:18Z</time>
      </trkpt>
      <trkpt lat="41.946766000" lon="2.475925100">
        <ele>502.90</ele>
        <time>2012-10-14T11:03:18Z</time>
      </trkpt>
      <trkpt lat="41.946640000" lon="2.475708100">
        <ele>500.50</ele>
        <time>2012-10-14T11:03:23Z</time>
      </trkpt>
      <trkpt lat="41.946529000" lon="2.475481100">
        <ele>496.20</ele>
        <time>2012-10-14T11:03:27Z</time>
      </trkpt>
      <trkpt lat="41.946453000" lon="2.475303100">
        <ele>492.30</ele>
        <time>2012-10-14T11:03:30Z</time>
      </trkpt>
      <trkpt lat="41.946404000" lon="2.475171100">
        <ele>490.40</ele>
        <time>2012-10-14T11:03:32Z</time>
      </trkpt>
      <trkpt lat="41.946362000" lon="2.475065100">
        <ele>489.50</ele>
        <time>2012-10-14T11:03:34Z</time>
      </trkpt>
      <trkpt lat="41.946213000" lon="2.474796100">
        <ele>487.50</ele>
        <time>2012-10-14T11:03:39Z</time>
      </trkpt>
      <trkpt lat="41.946033000" lon="2.474709100">
        <ele>485.60</ele>
        <time>2012-10-14T11:03:42Z</time>
      </trkpt>
      <trkpt lat="41.945992000" lon="2.474727100">
        <ele>484.60</ele>
        <time>2012-10-14T11:03:44Z</time>
      </trkpt>
      <trkpt lat="41.945824000" lon="2.474867100">
        <ele>481.80</ele>
        <time>2012-10-14T11:03:48Z</time>
      </trkpt>
      <trkpt lat="41.945549000" lon="2.474986100">
        <ele>477.40</ele>
        <time>2012-10-14T11:03:53Z</time>
      </trkpt>
      <trkpt lat="41.945278000" lon="2.475061100">
        <ele>473.60</ele>
        <time>2012-10-14T11:03:58Z</time>
      </trkpt>
      <trkpt lat="41.945229000" lon="2.475078100">
        <ele>472.60</ele>
        <time>2012-10-14T11:03:58Z</time>
      </trkpt>
      <trkpt lat="41.945118000" lon="2.475100100">
        <ele>471.70</ele>
        <time>2012-10-14T11:04:00Z</time>
      </trkpt>
      <trkpt lat="41.944942000" lon="2.475160100">
        <ele>469.30</ele>
        <time>2012-10-14T11:04:05Z</time>
      </trkpt>
      <trkpt lat="41.944756000" lon="2.475221100">
        <ele>467.30</ele>
        <time>2012-10-14T11:04:09Z</time>
      </trkpt>
      <trkpt lat="41.944752000" lon="2.475127100">
        <ele>466.40</ele>
        <time>2012-10-14T11:04:12Z</time>
      </trkpt>
      <trkpt lat="41.944881000" lon="2.474970100">
        <ele>465.40</ele>
        <time>2012-10-14T11:04:17Z</time>
      </trkpt>
      <trkpt lat="41.944904000" lon="2.474901100">
        <ele>464.90</ele>
        <time>2012-10-14T11:04:17Z</time>
      </trkpt>
      <trkpt lat="41.944965000" lon="2.474601100">
        <ele>461.60</ele>
        <time>2012-10-14T11:04:23Z</time>
      </trkpt>
      <trkpt lat="41.944977000" lon="2.474561100">
        <ele>460.60</ele>
        <time>2012-10-14T11:04:24Z</time>
      </trkpt>
      <trkpt lat="41.944939000" lon="2.474387100">
        <ele>456.30</ele>
        <time>2012-10-14T11:04:28Z</time>
      </trkpt>
      <trkpt lat="41.944923000" lon="2.474283100">
        <ele>457.20</ele>
        <time>2012-10-14T11:04:35Z</time>
      </trkpt>
      <trkpt lat="41.944958000" lon="2.474175100">
        <ele>460.60</ele>
        <time>2012-10-14T11:04:40Z</time>
      </trkpt>
      <trkpt lat="41.945030000" lon="2.474060100">
        <ele>461.10</ele>
        <time>2012-10-14T11:04:45Z</time>
      </trkpt>
      <trkpt lat="41.945152000" lon="2.473975100">
        <ele>461.10</ele>
        <time>2012-10-14T11:04:52Z</time>
      </trkpt>
      <trkpt lat="41.945156000" lon="2.473974100">
        <ele>459.60</ele>
        <time>2012-10-14T11:05:01Z</time>
      </trkpt>
      <trkpt lat="41.945190000" lon="2.473947100">
        <ele>459.60</ele>
        <time>2012-10-14T11:05:10Z</time>
      </trkpt>
      <trkpt lat="41.945271000" lon="2.473939100">
        <ele>459.60</ele>
        <time>2012-10-14T11:05:13Z</time>
      </trkpt>
      <trkpt lat="41.945389000" lon="2.473934100">
        <ele>459.60</ele>
        <time>2012-10-14T11:05:17Z</time>
      </trkpt>
      <trkpt lat="41.945480000" lon="2.473676100">
        <ele>458.20</ele>
        <time>2012-10-14T11:05:22Z</time>
      </trkpt>
      <trkpt lat="41.945492000" lon="2.473550100">
        <ele>458.70</ele>
        <time>2012-10-14T11:05:24Z</time>
      </trkpt>
      <trkpt lat="41.945618000" lon="2.473180100">
        <ele>453.90</ele>
        <time>2012-10-14T11:05:29Z</time>
      </trkpt>
      <trkpt lat="41.945740000" lon="2.472890100">
        <ele>450.50</ele>
        <time>2012-10-14T11:05:34Z</time>
      </trkpt>
      <trkpt lat="41.945816000" lon="2.472763100">
        <ele>449.10</ele>
        <time>2012-10-14T11:05:36Z</time>
      </trkpt>
      <trkpt lat="41.946152000" lon="2.472309100">
        <ele>448.10</ele>
        <time>2012-10-14T11:05:43Z</time>
      </trkpt>
      <trkpt lat="41.946255000" lon="2.472095100">
        <ele>447.60</ele>
        <time>2012-10-14T11:05:48Z</time>
      </trkpt>
      <trkpt lat="41.946266000" lon="2.471894100">
        <ele>445.20</ele>
        <time>2012-10-14T11:05:51Z</time>
      </trkpt>
      <trkpt lat="41.946430000" lon="2.471915100">
        <ele>440.90</ele>
        <time>2012-10-14T11:05:57Z</time>
      </trkpt>
      <trkpt lat="41.946537000" lon="2.472066100">
        <ele>438.00</ele>
        <time>2012-10-14T11:06:00Z</time>
      </trkpt>
      <trkpt lat="41.946545000" lon="2.472356100">
        <ele>436.10</ele>
        <time>2012-10-14T11:06:04Z</time>
      </trkpt>
      <trkpt lat="41.946537000" lon="2.472515100">
        <ele>435.60</ele>
        <time>2012-10-14T11:06:05Z</time>
      </trkpt>
      <trkpt lat="41.946575000" lon="2.472811100">
        <ele>434.60</ele>
        <time>2012-10-14T11:06:11Z</time>
      </trkpt>
      <trkpt lat="41.946693000" lon="2.472823100">
        <ele>432.70</ele>
        <time>2012-10-14T11:06:14Z</time>
      </trkpt>
      <trkpt lat="41.946884000" lon="2.472632100">
        <ele>430.80</ele>
        <time>2012-10-14T11:06:19Z</time>
      </trkpt>
      <trkpt lat="41.946899000" lon="2.472366100">
        <ele>430.80</ele>
        <time>2012-10-14T11:06:23Z</time>
      </trkpt>
      <trkpt lat="41.946861000" lon="2.472084100">
        <ele>430.80</ele>
        <time>2012-10-14T11:06:26Z</time>
      </trkpt>
      <trkpt lat="41.946888000" lon="2.471860100">
        <ele>430.80</ele>
        <time>2012-10-14T11:06:30Z</time>
      </trkpt>
      <trkpt lat="41.946903000" lon="2.471587100">
        <ele>428.90</ele>
        <time>2012-10-14T11:06:35Z</time>
      </trkpt>
      <trkpt lat="41.946823000" lon="2.471596100">
        <ele>427.40</ele>
        <time>2012-10-14T11:06:37Z</time>
      </trkpt>
      <trkpt lat="41.946655000" lon="2.471642100">
        <ele>423.10</ele>
        <time>2012-10-14T11:06:40Z</time>
      </trkpt>
      <trkpt lat="41.946560000" lon="2.471607100">
        <ele>419.30</ele>
        <time>2012-10-14T11:06:44Z</time>
      </trkpt>
      <trkpt lat="41.946457000" lon="2.471320100">
        <ele>416.90</ele>
        <time>2012-10-14T11:06:49Z</time>
      </trkpt>
      <trkpt lat="41.946529000" lon="2.471179100">
        <ele>416.40</ele>
        <time>2012-10-14T11:06:52Z</time>
      </trkpt>
      <trkpt lat="41.946774000" lon="2.471056100">
        <ele>416.40</ele>
        <time>2012-10-14T11:06:58Z</time>
      </trkpt>
      <trkpt lat="41.946980000" lon="2.470941100">
        <ele>416.40</ele>
        <time>2012-10-14T11:07:01Z</time>
      </trkpt>
      <trkpt lat="41.947262000" lon="2.470770100">
        <ele>417.80</ele>
        <time>2012-10-14T11:07:08Z</time>
      </trkpt>
      <trkpt lat="41.947506000" lon="2.470676100">
        <ele>418.30</ele>
        <time>2012-10-14T11:07:15Z</time>
      </trkpt>
      <trkpt lat="41.947659000" lon="2.470614100">
        <ele>418.80</ele>
        <time>2012-10-14T11:07:20Z</time>
      </trkpt>
      <trkpt lat="41.947708000" lon="2.470366100">
        <ele>418.80</ele>
        <time>2012-10-14T11:07:24Z</time>
      </trkpt>
      <trkpt lat="41.947697000" lon="2.470312100">
        <ele>418.80</ele>
        <time>2012-10-14T11:07:25Z</time>
      </trkpt>
      <trkpt lat="41.947678000" lon="2.469905100">
        <ele>415.90</ele>
        <time>2012-10-14T11:07:32Z</time>
      </trkpt>
      <trkpt lat="41.947701000" lon="2.469822100">
        <ele>413.50</ele>
        <time>2012-10-14T11:07:34Z</time>
      </trkpt>
      <trkpt lat="41.947823000" lon="2.469741100">
        <ele>410.60</ele>
        <time>2012-10-14T11:07:38Z</time>
      </trkpt>
      <trkpt lat="41.947929000" lon="2.469709100">
        <ele>410.10</ele>
        <time>2012-10-14T11:07:41Z</time>
      </trkpt>
      <trkpt lat="41.948071000" lon="2.469604100">
        <ele>409.70</ele>
        <time>2012-10-14T11:07:43Z</time>
      </trkpt>
      <trkpt lat="41.948219000" lon="2.469311100">
        <ele>409.70</ele>
        <time>2012-10-14T11:07:48Z</time>
      </trkpt>
      <trkpt lat="41.948349000" lon="2.468940100">
        <ele>409.70</ele>
        <time>2012-10-14T11:07:55Z</time>
      </trkpt>
      <trkpt lat="41.948513000" lon="2.468765100">
        <ele>408.20</ele>
        <time>2012-10-14T11:07:59Z</time>
      </trkpt>
      <trkpt lat="41.948647000" lon="2.468566100">
        <ele>404.90</ele>
        <time>2012-10-14T11:08:02Z</time>
      </trkpt>
      <trkpt lat="41.948860000" lon="2.468265100">
        <ele>400.50</ele>
        <time>2012-10-14T11:08:05Z</time>
      </trkpt>
      <trkpt lat="41.948910000" lon="2.468188100">
        <ele>399.60</ele>
        <time>2012-10-14T11:08:07Z</time>
      </trkpt>
      <trkpt lat="41.949116000" lon="2.467857100">
        <ele>397.60</ele>
        <time>2012-10-14T11:08:11Z</time>
      </trkpt>
      <trkpt lat="41.949257000" lon="2.467625100">
        <ele>396.20</ele>
        <time>2012-10-14T11:08:14Z</time>
      </trkpt>
      <trkpt lat="41.949394000" lon="2.467440100">
        <ele>395.20</ele>
        <time>2012-10-14T11:08:18Z</time>
      </trkpt>
      <trkpt lat="41.949554000" lon="2.467351100">
        <ele>394.30</ele>
        <time>2012-10-14T11:08:21Z</time>
      </trkpt>
      <trkpt lat="41.949764000" lon="2.467203100">
        <ele>391.40</ele>
        <time>2012-10-14T11:08:25Z</time>
      </trkpt>
      <trkpt lat="41.950073000" lon="2.466971100">
        <ele>389.50</ele>
        <time>2012-10-14T11:08:32Z</time>
      </trkpt>
      <trkpt lat="41.950409000" lon="2.466717100">
        <ele>389.50</ele>
        <time>2012-10-14T11:08:37Z</time>
      </trkpt>
      <trkpt lat="41.950588000" lon="2.466458100">
        <ele>389.50</ele>
        <time>2012-10-14T11:08:42Z</time>
      </trkpt>
      <trkpt lat="41.950672000" lon="2.466106100">
        <ele>389.50</ele>
        <time>2012-10-14T11:08:49Z</time>
      </trkpt>
      <trkpt lat="41.950623000" lon="2.465908100">
        <ele>389.50</ele>
        <time>2012-10-14T11:08:53Z</time>
      </trkpt>
      <trkpt lat="41.950588000" lon="2.465807100">
        <ele>389.50</ele>
        <time>2012-10-14T11:08:54Z</time>
      </trkpt>
      <trkpt lat="41.950592000" lon="2.465626100">
        <ele>390.40</ele>
        <time>2012-10-14T11:08:58Z</time>
      </trkpt>
      <trkpt lat="41.950672000" lon="2.465573100">
        <ele>390.90</ele>
        <time>2012-10-14T11:09:03Z</time>
      </trkpt>
      <trkpt lat="41.950775000" lon="2.465620100">
        <ele>391.90</ele>
        <time>2012-10-14T11:09:12Z</time>
      </trkpt>
      <trkpt lat="41.950928000" lon="2.465700100">
        <ele>393.80</ele>
        <time>2012-10-14T11:09:20Z</time>
      </trkpt>
      <trkpt lat="41.951004000" lon="2.465724100">
        <ele>397.20</ele>
        <time>2012-10-14T11:09:26Z</time>
      </trkpt>
      <trkpt lat="41.951042000" lon="2.465729100">
        <ele>400.00</ele>
        <time>2012-10-14T11:09:29Z</time>
      </trkpt>
      <trkpt lat="41.951069000" lon="2.465738100">
        <ele>400.50</ele>
        <time>2012-10-14T11:09:31Z</time>
      </trkpt>
      <trkpt lat="41.951107000" lon="2.465752100">
        <ele>401.00</ele>
        <time>2012-10-14T11:09:34Z</time>
      </trkpt>
      <trkpt lat="41.951218000" lon="2.465848100">
        <ele>401.00</ele>
        <time>2012-10-14T11:09:43Z</time>
      </trkpt>
      <trkpt lat="41.951286000" lon="2.466031100">
        <ele>401.50</ele>
        <time>2012-10-14T11:09:52Z</time>
      </trkpt>
      <trkpt lat="41.951359000" lon="2.466200100">
        <ele>403.40</ele>
        <time>2012-10-14T11:10:00Z</time>
      </trkpt>
      <trkpt lat="41.951450000" lon="2.466396100">
        <ele>404.90</ele>
        <time>2012-10-14T11:10:11Z</time>
      </trkpt>
      <trkpt lat="41.951473000" lon="2.466479100">
        <ele>406.30</ele>
        <time>2012-10-14T11:10:16Z</time>
      </trkpt>
      <trkpt lat="41.951500000" lon="2.466591100">
        <ele>407.30</ele>
        <time>2012-10-14T11:10:21Z</time>
      </trkpt>
      <trkpt lat="41.951584000" lon="2.466730100">
        <ele>408.70</ele>
        <time>2012-10-14T11:10:30Z</time>
      </trkpt>
      <trkpt lat="41.951653000" lon="2.466749100">
        <ele>409.70</ele>
        <time>2012-10-14T11:10:35Z</time>
      </trkpt>
      <trkpt lat="41.951809000" lon="2.466617100">
        <ele>410.10</ele>
        <time>2012-10-14T11:10:42Z</time>
      </trkpt>
      <trkpt lat="41.951981000" lon="2.466482100">
        <ele>410.10</ele>
        <time>2012-10-14T11:10:49Z</time>
      </trkpt>
      <trkpt lat="41.952145000" lon="2.466388100">
        <ele>408.20</ele>
        <time>2012-10-14T11:10:53Z</time>
      </trkpt>
      <trkpt lat="41.952301000" lon="2.466194100">
        <ele>403.90</ele>
        <time>2012-10-14T11:10:58Z</time>
      </trkpt>
      <trkpt lat="41.952343000" lon="2.466010100">
        <ele>400.00</ele>
        <time>2012-10-14T11:11:00Z</time>
      </trkpt>
      <trkpt lat="41.952423000" lon="2.465929100">
        <ele>397.20</ele>
        <time>2012-10-14T11:11:03Z</time>
      </trkpt>
      <trkpt lat="41.952526000" lon="2.465900100">
        <ele>396.20</ele>
        <time>2012-10-14T11:11:05Z</time>
      </trkpt>
      <trkpt lat="41.952606000" lon="2.465710100">
        <ele>394.80</ele>
        <time>2012-10-14T11:11:10Z</time>
      </trkpt>
      <trkpt lat="41.952644000" lon="2.465554100">
        <ele>393.80</ele>
        <time>2012-10-14T11:11:14Z</time>
      </trkpt>
      <trkpt lat="41.952740000" lon="2.465580100">
        <ele>392.80</ele>
        <time>2012-10-14T11:11:15Z</time>
      </trkpt>
      <trkpt lat="41.952950000" lon="2.465649100">
        <ele>390.00</ele>
        <time>2012-10-14T11:11:19Z</time>
      </trkpt>
      <trkpt lat="41.953094000" lon="2.465386100">
        <ele>385.10</ele>
        <time>2012-10-14T11:11:24Z</time>
      </trkpt>
      <trkpt lat="41.953133000" lon="2.465248100">
        <ele>383.20</ele>
        <time>2012-10-14T11:11:26Z</time>
      </trkpt>
      <trkpt lat="41.953220000" lon="2.464948100">
        <ele>381.80</ele>
        <time>2012-10-14T11:11:31Z</time>
      </trkpt>
      <trkpt lat="41.953358000" lon="2.464858100">
        <ele>381.80</ele>
        <time>2012-10-14T11:11:35Z</time>
      </trkpt>
      <trkpt lat="41.953423000" lon="2.464996100">
        <ele>381.80</ele>
        <time>2012-10-14T11:11:38Z</time>
      </trkpt>
      <trkpt lat="41.953480000" lon="2.465151100">
        <ele>380.30</ele>
        <time>2012-10-14T11:11:43Z</time>
      </trkpt>
      <trkpt lat="41.953625000" lon="2.465246100">
        <ele>379.90</ele>
        <time>2012-10-14T11:11:50Z</time>
      </trkpt>
      <trkpt lat="41.953728000" lon="2.465312100">
        <ele>379.90</ele>
        <time>2012-10-14T11:11:57Z</time>
      </trkpt>
      <trkpt lat="41.953987000" lon="2.465346100">
        <ele>379.90</ele>
        <time>2012-10-14T11:12:09Z</time>
      </trkpt>
      <trkpt lat="41.954041000" lon="2.465362100">
        <ele>381.30</ele>
        <time>2012-10-14T11:12:13Z</time>
      </trkpt>
      <trkpt lat="41.954178000" lon="2.465355100">
        <ele>382.70</ele>
        <time>2012-10-14T11:12:22Z</time>
      </trkpt>
      <trkpt lat="41.954319000" lon="2.465350100">
        <ele>383.70</ele>
        <time>2012-10-14T11:12:29Z</time>
      </trkpt>
      <trkpt lat="41.954384000" lon="2.465351100">
        <ele>384.20</ele>
        <time>2012-10-14T11:12:32Z</time>
      </trkpt>
      <trkpt lat="41.954506000" lon="2.465320100">
        <ele>385.10</ele>
        <time>2012-10-14T11:12:39Z</time>
      </trkpt>
      <trkpt lat="41.954685000" lon="2.465296100">
        <ele>386.60</ele>
        <time>2012-10-14T11:12:48Z</time>
      </trkpt>
      <trkpt lat="41.954849000" lon="2.465406100">
        <ele>388.00</ele>
        <time>2012-10-14T11:12:56Z</time>
      </trkpt>
      <trkpt lat="41.954960000" lon="2.465467100">
        <ele>388.50</ele>
        <time>2012-10-14T11:13:02Z</time>
      </trkpt>
      <trkpt lat="41.955105000" lon="2.465533100">
        <ele>389.50</ele>
        <time>2012-10-14T11:13:10Z</time>
      </trkpt>
      <trkpt lat="41.955235000" lon="2.465652100">
        <ele>390.40</ele>
        <time>2012-10-14T11:13:19Z</time>
      </trkpt>
      <trkpt lat="41.955360000" lon="2.465813100">
        <ele>391.40</ele>
        <time>2012-10-14T11:13:26Z</time>
      </trkpt>
      <trkpt lat="41.955452000" lon="2.465882100">
        <ele>392.80</ele>
        <time>2012-10-14T11:13:33Z</time>
      </trkpt>
      <trkpt lat="41.955566000" lon="2.465838100">
        <ele>393.30</ele>
        <time>2012-10-14T11:13:38Z</time>
      </trkpt>
      <trkpt lat="41.955605000" lon="2.465790100">
        <ele>393.80</ele>
        <time>2012-10-14T11:13:40Z</time>
      </trkpt>
      <trkpt lat="41.955681000" lon="2.465497100">
        <ele>393.80</ele>
        <time>2012-10-14T11:13:47Z</time>
      </trkpt>
      <trkpt lat="41.955822000" lon="2.465370100">
        <ele>393.80</ele>
        <time>2012-10-14T11:13:52Z</time>
      </trkpt>
      <trkpt lat="41.956009000" lon="2.465255100">
        <ele>393.80</ele>
        <time>2012-10-14T11:13:57Z</time>
      </trkpt>
      <trkpt lat="41.956238000" lon="2.465118100">
        <ele>393.80</ele>
        <time>2012-10-14T11:14:04Z</time>
      </trkpt>
      <trkpt lat="41.956406000" lon="2.465185100">
        <ele>392.40</ele>
        <time>2012-10-14T11:14:08Z</time>
      </trkpt>
      <trkpt lat="41.956512000" lon="2.465285100">
        <ele>392.40</ele>
        <time>2012-10-14T11:14:11Z</time>
      </trkpt>
      <trkpt lat="41.956673000" lon="2.465372100">
        <ele>391.90</ele>
        <time>2012-10-14T11:14:15Z</time>
      </trkpt>
      <trkpt lat="41.957138000" lon="2.465497100">
        <ele>390.00</ele>
        <time>2012-10-14T11:14:24Z</time>
      </trkpt>
      <trkpt lat="41.957329000" lon="2.465658100">
        <ele>389.50</ele>
        <time>2012-10-14T11:14:27Z</time>
      </trkpt>
      <trkpt lat="41.957420000" lon="2.465761100">
        <ele>389.50</ele>
        <time>2012-10-14T11:14:29Z</time>
      </trkpt>
      <trkpt lat="41.957672000" lon="2.466115100">
        <ele>388.50</ele>
        <time>2012-10-14T11:14:36Z</time>
      </trkpt>
      <trkpt lat="41.957924000" lon="2.466211100">
        <ele>387.10</ele>
        <time>2012-10-14T11:14:41Z</time>
      </trkpt>
      <trkpt lat="41.957989000" lon="2.466031100">
        <ele>386.60</ele>
        <time>2012-10-14T11:14:43Z</time>
      </trkpt>
      <trkpt lat="41.958000000" lon="2.465689100">
        <ele>385.60</ele>
        <time>2012-10-14T11:14:48Z</time>
      </trkpt>
      <trkpt lat="41.958103000" lon="2.465033100">
        <ele>384.20</ele>
        <time>2012-10-14T11:14:58Z</time>
      </trkpt>
      <trkpt lat="41.958115000" lon="2.464970100">
        <ele>384.20</ele>
        <time>2012-10-14T11:15:00Z</time>
      </trkpt>
      <trkpt lat="41.958191000" lon="2.464696100">
        <ele>383.70</ele>
        <time>2012-10-14T11:15:05Z</time>
      </trkpt>
      <trkpt lat="41.958233000" lon="2.464509100">
        <ele>383.70</ele>
        <time>2012-10-14T11:15:07Z</time>
      </trkpt>
      <trkpt lat="41.958229000" lon="2.463857100">
        <ele>382.70</ele>
        <time>2012-10-14T11:15:16Z</time>
      </trkpt>
      <trkpt lat="41.958229000" lon="2.463785100">
        <ele>382.70</ele>
        <time>2012-10-14T11:15:18Z</time>
      </trkpt>
      <trkpt lat="41.958138000" lon="2.463580100">
        <ele>382.30</ele>
        <time>2012-10-14T11:15:21Z</time>
      </trkpt>
      <trkpt lat="41.958050000" lon="2.463538100">
        <ele>382.30</ele>
        <time>2012-10-14T11:15:23Z</time>
      </trkpt>
      <trkpt lat="41.957867000" lon="2.463487100">
        <ele>381.80</ele>
        <time>2012-10-14T11:15:28Z</time>
      </trkpt>
      <trkpt lat="41.957691000" lon="2.463512100">
        <ele>381.80</ele>
        <time>2012-10-14T11:15:31Z</time>
      </trkpt>
      <trkpt lat="41.957321000" lon="2.463622100">
        <ele>381.30</ele>
        <time>2012-10-14T11:15:40Z</time>
      </trkpt>
      <trkpt lat="41.957226000" lon="2.463660100">
        <ele>381.30</ele>
        <time>2012-10-14T11:15:42Z</time>
      </trkpt>
      <trkpt lat="41.956974000" lon="2.463727100">
        <ele>380.30</ele>
        <time>2012-10-14T11:15:47Z</time>
      </trkpt>
      <trkpt lat="41.956886000" lon="2.463666100">
        <ele>380.30</ele>
        <time>2012-10-14T11:15:49Z</time>
      </trkpt>
      <trkpt lat="41.956772000" lon="2.463552100">
        <ele>380.30</ele>
        <time>2012-10-14T11:15:52Z</time>
      </trkpt>
      <trkpt lat="41.956627000" lon="2.463421100">
        <ele>380.30</ele>
        <time>2012-10-14T11:15:56Z</time>
      </trkpt>
      <trkpt lat="41.956474000" lon="2.463347100">
        <ele>379.90</ele>
        <time>2012-10-14T11:15:59Z</time>
      </trkpt>
      <trkpt lat="41.956306000" lon="2.463140100">
        <ele>379.90</ele>
        <time>2012-10-14T11:16:05Z</time>
      </trkpt>
      <trkpt lat="41.956184000" lon="2.463013100">
        <ele>379.90</ele>
        <time>2012-10-14T11:16:08Z</time>
      </trkpt>
      <trkpt lat="41.955917000" lon="2.462884100">
        <ele>379.90</ele>
        <time>2012-10-14T11:16:13Z</time>
      </trkpt>
      <trkpt lat="41.955643000" lon="2.462747100">
        <ele>379.90</ele>
        <time>2012-10-14T11:16:20Z</time>
      </trkpt>
      <trkpt lat="41.955490000" lon="2.462656100">
        <ele>379.90</ele>
        <time>2012-10-14T11:16:24Z</time>
      </trkpt>
      <trkpt lat="41.955334000" lon="2.462453100">
        <ele>379.90</ele>
        <time>2012-10-14T11:16:29Z</time>
      </trkpt>
      <trkpt lat="41.955147000" lon="2.462297100">
        <ele>379.90</ele>
        <time>2012-10-14T11:16:34Z</time>
      </trkpt>
      <trkpt lat="41.954990000" lon="2.462170100">
        <ele>379.90</ele>
        <time>2012-10-14T11:16:38Z</time>
      </trkpt>
      <trkpt lat="41.954884000" lon="2.461862100">
        <ele>378.90</ele>
        <time>2012-10-14T11:16:43Z</time>
      </trkpt>
      <trkpt lat="41.954880000" lon="2.461633100">
        <ele>378.90</ele>
        <time>2012-10-14T11:16:46Z</time>
      </trkpt>
      <trkpt lat="41.954880000" lon="2.461334100">
        <ele>378.40</ele>
        <time>2012-10-14T11:16:50Z</time>
      </trkpt>
      <trkpt lat="41.954868000" lon="2.461185100">
        <ele>377.90</ele>
        <time>2012-10-14T11:16:52Z</time>
      </trkpt>
      <trkpt lat="41.954765000" lon="2.460966100">
        <ele>377.90</ele>
        <time>2012-10-14T11:16:55Z</time>
      </trkpt>
      <trkpt lat="41.954685000" lon="2.460706100">
        <ele>377.50</ele>
        <time>2012-10-14T11:17:02Z</time>
      </trkpt>
      <trkpt lat="41.954720000" lon="2.460613100">
        <ele>377.50</ele>
        <time>2012-10-14T11:17:04Z</time>
      </trkpt>
      <trkpt lat="41.954773000" lon="2.460382100">
        <ele>377.00</ele>
        <time>2012-10-14T11:17:07Z</time>
      </trkpt>
      <trkpt lat="41.954758000" lon="2.460150100">
        <ele>377.00</ele>
        <time>2012-10-14T11:17:11Z</time>
      </trkpt>
      <trkpt lat="41.954788000" lon="2.459852100">
        <ele>377.00</ele>
        <time>2012-10-14T11:17:16Z</time>
      </trkpt>
      <trkpt lat="41.954742000" lon="2.459574100">
        <ele>377.00</ele>
        <time>2012-10-14T11:17:21Z</time>
      </trkpt>
      <trkpt lat="41.954655000" lon="2.459224100">
        <ele>377.00</ele>
        <time>2012-10-14T11:17:28Z</time>
      </trkpt>
      <trkpt lat="41.954636000" lon="2.459106100">
        <ele>377.00</ele>
        <time>2012-10-14T11:17:30Z</time>
      </trkpt>
      <trkpt lat="41.954514000" lon="2.458897100">
        <ele>377.90</ele>
        <time>2012-10-14T11:17:35Z</time>
      </trkpt>
      <trkpt lat="41.954456000" lon="2.458709100">
        <ele>377.90</ele>
        <time>2012-10-14T11:17:40Z</time>
      </trkpt>
      <trkpt lat="41.954491000" lon="2.458686100">
        <ele>377.90</ele>
        <time>2012-10-14T11:17:42Z</time>
      </trkpt>
      <trkpt lat="41.954704000" lon="2.458617100">
        <ele>377.90</ele>
        <time>2012-10-14T11:17:47Z</time>
      </trkpt>
      <trkpt lat="41.954876000" lon="2.458461100">
        <ele>377.90</ele>
        <time>2012-10-14T11:17:51Z</time>
      </trkpt>
      <trkpt lat="41.954865000" lon="2.458420100">
        <ele>377.90</ele>
        <time>2012-10-14T11:17:53Z</time>
      </trkpt>
      <trkpt lat="41.954739000" lon="2.458099100">
        <ele>377.90</ele>
        <time>2012-10-14T11:18:01Z</time>
      </trkpt>
      <trkpt lat="41.954723000" lon="2.457989100">
        <ele>377.90</ele>
        <time>2012-10-14T11:18:03Z</time>
      </trkpt>
      <trkpt lat="41.954769000" lon="2.457606100">
        <ele>377.90</ele>
        <time>2012-10-14T11:18:08Z</time>
      </trkpt>
      <trkpt lat="41.954773000" lon="2.457204100">
        <ele>377.90</ele>
        <time>2012-10-14T11:18:15Z</time>
      </trkpt>
      <trkpt lat="41.954849000" lon="2.456971100">
        <ele>377.90</ele>
        <time>2012-10-14T11:18:19Z</time>
      </trkpt>
      <trkpt lat="41.954876000" lon="2.456514100">
        <ele>377.90</ele>
        <time>2012-10-14T11:18:26Z</time>
      </trkpt>
      <trkpt lat="41.954849000" lon="2.456284100">
        <ele>377.90</ele>
        <time>2012-10-14T11:18:31Z</time>
      </trkpt>
      <trkpt lat="41.954746000" lon="2.456038100">
        <ele>378.40</ele>
        <time>2012-10-14T11:18:36Z</time>
      </trkpt>
      <trkpt lat="41.954773000" lon="2.455769100">
        <ele>378.40</ele>
        <time>2012-10-14T11:18:41Z</time>
      </trkpt>
      <trkpt lat="41.954857000" lon="2.455701100">
        <ele>378.40</ele>
        <time>2012-10-14T11:18:43Z</time>
      </trkpt>
      <trkpt lat="41.954941000" lon="2.455668100">
        <ele>378.40</ele>
        <time>2012-10-14T11:18:45Z</time>
      </trkpt>
      <trkpt lat="41.955120000" lon="2.455641100">
        <ele>378.40</ele>
        <time>2012-10-14T11:18:48Z</time>
      </trkpt>
      <trkpt lat="41.955322000" lon="2.455527100">
        <ele>378.40</ele>
        <time>2012-10-14T11:18:53Z</time>
      </trkpt>
      <trkpt lat="41.955421000" lon="2.455343100">
        <ele>378.90</ele>
        <time>2012-10-14T11:18:57Z</time>
      </trkpt>
      <trkpt lat="41.955471000" lon="2.455163100">
        <ele>378.90</ele>
        <time>2012-10-14T11:19:00Z</time>
      </trkpt>
      <trkpt lat="41.955513000" lon="2.455050100">
        <ele>378.90</ele>
        <time>2012-10-14T11:19:02Z</time>
      </trkpt>
      <trkpt lat="41.955688000" lon="2.454490100">
        <ele>378.90</ele>
        <time>2012-10-14T11:19:11Z</time>
      </trkpt>
      <trkpt lat="41.955887000" lon="2.453980100">
        <ele>377.90</ele>
        <time>2012-10-14T11:19:20Z</time>
      </trkpt>
      <trkpt lat="41.956085000" lon="2.453689100">
        <ele>377.50</ele>
        <time>2012-10-14T11:19:25Z</time>
      </trkpt>
      <trkpt lat="41.956196000" lon="2.453408100">
        <ele>377.00</ele>
        <time>2012-10-14T11:19:30Z</time>
      </trkpt>
      <trkpt lat="41.956268000" lon="2.453117100">
        <ele>377.00</ele>
        <time>2012-10-14T11:19:35Z</time>
      </trkpt>
      <trkpt lat="41.956364000" lon="2.452822100">
        <ele>377.00</ele>
        <time>2012-10-14T11:19:39Z</time>
      </trkpt>
      <trkpt lat="41.956413000" lon="2.452777100">
        <ele>377.00</ele>
        <time>2012-10-14T11:19:41Z</time>
      </trkpt>
      <trkpt lat="41.956501000" lon="2.452670100">
        <ele>376.50</ele>
        <time>2012-10-14T11:19:42Z</time>
      </trkpt>
      <trkpt lat="41.956619000" lon="2.452485100">
        <ele>376.50</ele>
        <time>2012-10-14T11:19:46Z</time>
      </trkpt>
      <trkpt lat="41.956696000" lon="2.452353100">
        <ele>375.50</ele>
        <time>2012-10-14T11:19:47Z</time>
      </trkpt>
      <trkpt lat="41.956821000" lon="2.452193100">
        <ele>375.50</ele>
        <time>2012-10-14T11:19:51Z</time>
      </trkpt>
      <trkpt lat="41.956993000" lon="2.451799100">
        <ele>374.60</ele>
        <time>2012-10-14T11:19:56Z</time>
      </trkpt>
      <trkpt lat="41.956936000" lon="2.451549100">
        <ele>374.10</ele>
        <time>2012-10-14T11:20:00Z</time>
      </trkpt>
      <trkpt lat="41.956810000" lon="2.451346100">
        <ele>374.10</ele>
        <time>2012-10-14T11:20:05Z</time>
      </trkpt>
      <trkpt lat="41.956806000" lon="2.451069100">
        <ele>373.60</ele>
        <time>2012-10-14T11:20:08Z</time>
      </trkpt>
      <trkpt lat="41.956959000" lon="2.451032100">
        <ele>373.60</ele>
        <time>2012-10-14T11:20:12Z</time>
      </trkpt>
      <trkpt lat="41.957230000" lon="2.450934100">
        <ele>373.10</ele>
        <time>2012-10-14T11:20:17Z</time>
      </trkpt>
      <trkpt lat="41.957329000" lon="2.450802100">
        <ele>373.10</ele>
        <time>2012-10-14T11:20:21Z</time>
      </trkpt>
      <trkpt lat="41.957401000" lon="2.450732100">
        <ele>373.10</ele>
        <time>2012-10-14T11:20:22Z</time>
      </trkpt>
      <trkpt lat="41.957554000" lon="2.450670100">
        <ele>373.10</ele>
        <time>2012-10-14T11:20:26Z</time>
      </trkpt>
      <trkpt lat="41.957676000" lon="2.450664100">
        <ele>373.10</ele>
        <time>2012-10-14T11:20:29Z</time>
      </trkpt>
      <trkpt lat="41.957806000" lon="2.450668100">
        <ele>372.60</ele>
        <time>2012-10-14T11:20:33Z</time>
      </trkpt>
      <trkpt lat="41.957939000" lon="2.450550100">
        <ele>372.60</ele>
        <time>2012-10-14T11:20:36Z</time>
      </trkpt>
      <trkpt lat="41.958038000" lon="2.450217100">
        <ele>372.20</ele>
        <time>2012-10-14T11:20:43Z</time>
      </trkpt>
      <trkpt lat="41.958084000" lon="2.450125100">
        <ele>372.20</ele>
        <time>2012-10-14T11:20:45Z</time>
      </trkpt>
      <trkpt lat="41.958225000" lon="2.449986100">
        <ele>372.20</ele>
        <time>2012-10-14T11:20:48Z</time>
      </trkpt>
      <trkpt lat="41.958363000" lon="2.449828100">
        <ele>371.70</ele>
        <time>2012-10-14T11:20:52Z</time>
      </trkpt>
      <trkpt lat="41.958462000" lon="2.449651100">
        <ele>371.70</ele>
        <time>2012-10-14T11:20:57Z</time>
      </trkpt>
      <trkpt lat="41.958591000" lon="2.449270100">
        <ele>371.20</ele>
        <time>2012-10-14T11:21:04Z</time>
      </trkpt>
      <trkpt lat="41.958755000" lon="2.449125100">
        <ele>370.70</ele>
        <time>2012-10-14T11:21:08Z</time>
      </trkpt>
      <trkpt lat="41.958797000" lon="2.449078100">
        <ele>370.70</ele>
        <time>2012-10-14T11:21:09Z</time>
      </trkpt>
      <trkpt lat="41.959183000" lon="2.448690100">
        <ele>370.20</ele>
        <time>2012-10-14T11:21:16Z</time>
      </trkpt>
      <trkpt lat="41.959270000" lon="2.448603100">
        <ele>369.80</ele>
        <time>2012-10-14T11:21:18Z</time>
      </trkpt>
      <trkpt lat="41.959415000" lon="2.448512100">
        <ele>369.80</ele>
        <time>2012-10-14T11:21:22Z</time>
      </trkpt>
      <trkpt lat="41.959541000" lon="2.448303100">
        <ele>368.80</ele>
        <time>2012-10-14T11:21:27Z</time>
      </trkpt>
      <trkpt lat="41.959587000" lon="2.448071100">
        <ele>368.30</ele>
        <time>2012-10-14T11:21:30Z</time>
      </trkpt>
      <trkpt lat="41.959766000" lon="2.447974100">
        <ele>367.80</ele>
        <time>2012-10-14T11:21:34Z</time>
      </trkpt>
      <trkpt lat="41.959961000" lon="2.447818100">
        <ele>367.40</ele>
        <time>2012-10-14T11:21:39Z</time>
      </trkpt>
      <trkpt lat="41.960060000" lon="2.447605100">
        <ele>366.90</ele>
        <time>2012-10-14T11:21:44Z</time>
      </trkpt>
      <trkpt lat="41.960110000" lon="2.447585100">
        <ele>366.40</ele>
        <time>2012-10-14T11:21:44Z</time>
      </trkpt>
      <trkpt lat="41.960285000" lon="2.447362100">
        <ele>366.40</ele>
        <time>2012-10-14T11:21:51Z</time>
      </trkpt>
      <trkpt lat="41.960358000" lon="2.447223100">
        <ele>366.40</ele>
        <time>2012-10-14T11:21:53Z</time>
      </trkpt>
      <trkpt lat="41.960449000" lon="2.447092100">
        <ele>366.40</ele>
        <time>2012-10-14T11:21:56Z</time>
      </trkpt>
      <trkpt lat="41.960579000" lon="2.446935100">
        <ele>366.40</ele>
        <time>2012-10-14T11:22:00Z</time>
      </trkpt>
      <trkpt lat="41.960728000" lon="2.446832100">
        <ele>366.40</ele>
        <time>2012-10-14T11:22:05Z</time>
      </trkpt>
      <trkpt lat="41.960865000" lon="2.446687100">
        <ele>366.40</ele>
        <time>2012-10-14T11:22:10Z</time>
      </trkpt>
      <trkpt lat="41.960854000" lon="2.446582100">
        <ele>366.40</ele>
        <time>2012-10-14T11:22:12Z</time>
      </trkpt>
      <trkpt lat="41.960804000" lon="2.446407100">
        <ele>366.40</ele>
        <time>2012-10-14T11:22:14Z</time>
      </trkpt>
      <trkpt lat="41.960884000" lon="2.446309100">
        <ele>366.40</ele>
        <time>2012-10-14T11:22:19Z</time>
      </trkpt>
      <trkpt lat="41.961178000" lon="2.446357100">
        <ele>367.80</ele>
        <time>2012-10-14T11:22:26Z</time>
      </trkpt>
      <trkpt lat="41.961327000" lon="2.446374100">
        <ele>368.30</ele>
        <time>2012-10-14T11:22:30Z</time>
      </trkpt>
      <trkpt lat="41.961483000" lon="2.446224100">
        <ele>368.80</ele>
        <time>2012-10-14T11:22:35Z</time>
      </trkpt>
      <trkpt lat="41.961666000" lon="2.446149100">
        <ele>369.30</ele>
        <time>2012-10-14T11:22:40Z</time>
      </trkpt>
      <trkpt lat="41.961788000" lon="2.445970100">
        <ele>369.80</ele>
        <time>2012-10-14T11:22:45Z</time>
      </trkpt>
      <trkpt lat="41.961803000" lon="2.445931100">
        <ele>370.20</ele>
        <time>2012-10-14T11:22:47Z</time>
      </trkpt>
      <trkpt lat="41.961868000" lon="2.445781100">
        <ele>370.20</ele>
        <time>2012-10-14T11:22:50Z</time>
      </trkpt>
      <trkpt lat="41.962021000" lon="2.445453100">
        <ele>370.70</ele>
        <time>2012-10-14T11:22:59Z</time>
      </trkpt>
      <trkpt lat="41.962189000" lon="2.445241100">
        <ele>372.20</ele>
        <time>2012-10-14T11:23:08Z</time>
      </trkpt>
      <trkpt lat="41.962223000" lon="2.445206100">
        <ele>372.60</ele>
        <time>2012-10-14T11:23:10Z</time>
      </trkpt>
      <trkpt lat="41.962448000" lon="2.445107100">
        <ele>373.10</ele>
        <time>2012-10-14T11:23:18Z</time>
      </trkpt>
      <trkpt lat="41.962673000" lon="2.445008100">
        <ele>374.10</ele>
        <time>2012-10-14T11:23:25Z</time>
      </trkpt>
      <trkpt lat="41.962807000" lon="2.444885100">
        <ele>375.50</ele>
        <time>2012-10-14T11:23:32Z</time>
      </trkpt>
      <trkpt lat="41.962994000" lon="2.444767100">
        <ele>376.50</ele>
        <time>2012-10-14T11:23:39Z</time>
      </trkpt>
      <trkpt lat="41.963135000" lon="2.444613100">
        <ele>377.00</ele>
        <time>2012-10-14T11:23:44Z</time>
      </trkpt>
      <trkpt lat="41.963261000" lon="2.444361100">
        <ele>377.90</ele>
        <time>2012-10-14T11:23:51Z</time>
      </trkpt>
      <trkpt lat="41.963322000" lon="2.444046100">
        <ele>378.90</ele>
        <time>2012-10-14T11:24:00Z</time>
      </trkpt>
      <trkpt lat="41.963352000" lon="2.443950100">
        <ele>379.40</ele>
        <time>2012-10-14T11:24:02Z</time>
      </trkpt>
      <trkpt lat="41.963459000" lon="2.443895100">
        <ele>379.90</ele>
        <time>2012-10-14T11:24:07Z</time>
      </trkpt>
      <trkpt lat="41.963737000" lon="2.443973100">
        <ele>381.30</ele>
        <time>2012-10-14T11:24:16Z</time>
      </trkpt>
      <trkpt lat="41.963917000" lon="2.443988100">
        <ele>382.30</ele>
        <time>2012-10-14T11:24:23Z</time>
      </trkpt>
      <trkpt lat="41.964146000" lon="2.444040100">
        <ele>383.20</ele>
        <time>2012-10-14T11:24:30Z</time>
      </trkpt>
      <trkpt lat="41.964283000" lon="2.443984100">
        <ele>383.70</ele>
        <time>2012-10-14T11:24:35Z</time>
      </trkpt>
      <trkpt lat="41.964268000" lon="2.443672100">
        <ele>385.60</ele>
        <time>2012-10-14T11:24:44Z</time>
      </trkpt>
      <trkpt lat="41.964161000" lon="2.443415100">
        <ele>386.60</ele>
        <time>2012-10-14T11:24:52Z</time>
      </trkpt>
      <trkpt lat="41.964069000" lon="2.443161100">
        <ele>388.00</ele>
        <time>2012-10-14T11:25:01Z</time>
      </trkpt>
      <trkpt lat="41.964005000" lon="2.442881100">
        <ele>390.00</ele>
        <time>2012-10-14T11:25:10Z</time>
      </trkpt>
      <trkpt lat="41.964005000" lon="2.442586100">
        <ele>392.40</ele>
        <time>2012-10-14T11:25:18Z</time>
      </trkpt>
      <trkpt lat="41.963982000" lon="2.442377100">
        <ele>393.30</ele>
        <time>2012-10-14T11:25:25Z</time>
      </trkpt>
      <trkpt lat="41.963974000" lon="2.442045100">
        <ele>395.70</ele>
        <time>2012-10-14T11:25:36Z</time>
      </trkpt>
      <trkpt lat="41.964001000" lon="2.441794100">
        <ele>396.70</ele>
        <time>2012-10-14T11:25:43Z</time>
      </trkpt>
      <trkpt lat="41.964046000" lon="2.441514100">
        <ele>398.10</ele>
        <time>2012-10-14T11:25:53Z</time>
      </trkpt>
      <trkpt lat="41.964081000" lon="2.441241100">
        <ele>400.00</ele>
        <time>2012-10-14T11:26:02Z</time>
      </trkpt>
      <trkpt lat="41.964054000" lon="2.441020100">
        <ele>402.00</ele>
        <time>2012-10-14T11:26:09Z</time>
      </trkpt>
      <trkpt lat="41.963936000" lon="2.440850100">
        <ele>402.50</ele>
        <time>2012-10-14T11:26:18Z</time>
      </trkpt>
      <trkpt lat="41.963913000" lon="2.440846100">
        <ele>402.90</ele>
        <time>2012-10-14T11:26:18Z</time>
      </trkpt>
      <trkpt lat="41.963745000" lon="2.440662100">
        <ele>403.40</ele>
        <time>2012-10-14T11:26:26Z</time>
      </trkpt>
      <trkpt lat="41.963783000" lon="2.440508100">
        <ele>403.90</ele>
        <time>2012-10-14T11:26:30Z</time>
      </trkpt>
      <trkpt lat="41.963902000" lon="2.440457100">
        <ele>403.90</ele>
        <time>2012-10-14T11:26:35Z</time>
      </trkpt>
      <trkpt lat="41.964153000" lon="2.440516100">
        <ele>405.30</ele>
        <time>2012-10-14T11:26:42Z</time>
      </trkpt>
      <trkpt lat="41.964375000" lon="2.440654100">
        <ele>405.80</ele>
        <time>2012-10-14T11:26:49Z</time>
      </trkpt>
      <trkpt lat="41.964520000" lon="2.441033100">
        <ele>406.30</ele>
        <time>2012-10-14T11:26:58Z</time>
      </trkpt>
      <trkpt lat="41.964664000" lon="2.441338100">
        <ele>407.30</ele>
        <time>2012-10-14T11:27:08Z</time>
      </trkpt>
      <trkpt lat="41.964775000" lon="2.441540100">
        <ele>407.70</ele>
        <time>2012-10-14T11:27:15Z</time>
      </trkpt>
      <trkpt lat="41.964878000" lon="2.441696100">
        <ele>409.20</ele>
        <time>2012-10-14T11:27:20Z</time>
      </trkpt>
      <trkpt lat="41.965019000" lon="2.441687100">
        <ele>410.10</ele>
        <time>2012-10-14T11:27:26Z</time>
      </trkpt>
      <trkpt lat="41.965088000" lon="2.441548100">
        <ele>411.10</ele>
        <time>2012-10-14T11:27:33Z</time>
      </trkpt>
      <trkpt lat="41.965145000" lon="2.441397100">
        <ele>412.10</ele>
        <time>2012-10-14T11:27:38Z</time>
      </trkpt>
      <trkpt lat="41.965206000" lon="2.441205100">
        <ele>413.50</ele>
        <time>2012-10-14T11:27:45Z</time>
      </trkpt>
      <trkpt lat="41.965191000" lon="2.441004100">
        <ele>414.50</ele>
        <time>2012-10-14T11:27:54Z</time>
      </trkpt>
      <trkpt lat="41.965191000" lon="2.440784100">
        <ele>416.40</ele>
        <time>2012-10-14T11:28:02Z</time>
      </trkpt>
      <trkpt lat="41.965225000" lon="2.440560100">
        <ele>416.90</ele>
        <time>2012-10-14T11:28:09Z</time>
      </trkpt>
      <trkpt lat="41.965290000" lon="2.440426100">
        <ele>418.30</ele>
        <time>2012-10-14T11:28:16Z</time>
      </trkpt>
      <trkpt lat="41.965366000" lon="2.440263100">
        <ele>419.80</ele>
        <time>2012-10-14T11:28:25Z</time>
      </trkpt>
      <trkpt lat="41.965343000" lon="2.440161100">
        <ele>420.70</ele>
        <time>2012-10-14T11:28:28Z</time>
      </trkpt>
      <trkpt lat="41.965298000" lon="2.439955100">
        <ele>421.70</ele>
        <time>2012-10-14T11:28:37Z</time>
      </trkpt>
      <trkpt lat="41.965332000" lon="2.439706100">
        <ele>422.60</ele>
        <time>2012-10-14T11:28:46Z</time>
      </trkpt>
      <trkpt lat="41.965366000" lon="2.439516100">
        <ele>424.60</ele>
        <time>2012-10-14T11:28:53Z</time>
      </trkpt>
      <trkpt lat="41.965389000" lon="2.439288100">
        <ele>425.50</ele>
        <time>2012-10-14T11:29:03Z</time>
      </trkpt>
      <trkpt lat="41.965340000" lon="2.439103100">
        <ele>427.00</ele>
        <time>2012-10-14T11:29:10Z</time>
      </trkpt>
      <trkpt lat="41.965309000" lon="2.438907100">
        <ele>427.90</ele>
        <time>2012-10-14T11:29:17Z</time>
      </trkpt>
      <trkpt lat="41.965282000" lon="2.438696100">
        <ele>428.90</ele>
        <time>2012-10-14T11:29:24Z</time>
      </trkpt>
      <trkpt lat="41.965202000" lon="2.438474100">
        <ele>430.30</ele>
        <time>2012-10-14T11:29:31Z</time>
      </trkpt>
      <trkpt lat="41.965202000" lon="2.438233100">
        <ele>431.80</ele>
        <time>2012-10-14T11:29:38Z</time>
      </trkpt>
      <trkpt lat="41.965221000" lon="2.437956100">
        <ele>431.80</ele>
        <time>2012-10-14T11:29:43Z</time>
      </trkpt>
      <trkpt lat="41.965218000" lon="2.437770100">
        <ele>431.80</ele>
        <time>2012-10-14T11:29:48Z</time>
      </trkpt>
      <trkpt lat="41.965225000" lon="2.437719100">
        <ele>431.80</ele>
        <time>2012-10-14T11:29:54Z</time>
      </trkpt>
      <trkpt lat="41.965225000" lon="2.437719100">
        <ele>431.80</ele>
        <time>2012-10-14T11:30:11Z</time>
      </trkpt>
      <trkpt lat="41.965225000" lon="2.437732100">
        <ele>430.30</ele>
        <time>2012-10-14T11:30:23Z</time>
      </trkpt>
      <trkpt lat="41.965225000" lon="2.437726100">
        <ele>430.30</ele>
        <time>2012-10-14T11:30:37Z</time>
      </trkpt>
      <trkpt lat="41.965225000" lon="2.437727100">
        <ele>429.90</ele>
        <time>2012-10-14T11:31:36Z</time>
      </trkpt>
      <trkpt lat="41.965187000" lon="2.437585100">
        <ele>429.90</ele>
        <time>2012-10-14T11:31:43Z</time>
      </trkpt>
      <trkpt lat="41.965199000" lon="2.437432100">
        <ele>429.40</ele>
        <time>2012-10-14T11:31:47Z</time>
      </trkpt>
      <trkpt lat="41.965313000" lon="2.437207100">
        <ele>429.40</ele>
        <time>2012-10-14T11:31:52Z</time>
      </trkpt>
      <trkpt lat="41.965450000" lon="2.437088100">
        <ele>429.40</ele>
        <time>2012-10-14T11:31:59Z</time>
      </trkpt>
      <trkpt lat="41.965469000" lon="2.436887100">
        <ele>429.40</ele>
        <time>2012-10-14T11:32:04Z</time>
      </trkpt>
      <trkpt lat="41.965546000" lon="2.436758100">
        <ele>430.80</ele>
        <time>2012-10-14T11:32:10Z</time>
      </trkpt>
      <trkpt lat="41.965633000" lon="2.436622100">
        <ele>431.80</ele>
        <time>2012-10-14T11:32:15Z</time>
      </trkpt>
      <trkpt lat="41.965633000" lon="2.436588100">
        <ele>431.80</ele>
        <time>2012-10-14T11:32:17Z</time>
      </trkpt>
      <trkpt lat="41.965542000" lon="2.436367100">
        <ele>433.20</ele>
        <time>2012-10-14T11:32:25Z</time>
      </trkpt>
      <trkpt lat="41.965553000" lon="2.436213100">
        <ele>433.70</ele>
        <time>2012-10-14T11:32:29Z</time>
      </trkpt>
      <trkpt lat="41.965565000" lon="2.436115100">
        <ele>434.20</ele>
        <time>2012-10-14T11:32:32Z</time>
      </trkpt>
      <trkpt lat="41.965664000" lon="2.435970100">
        <ele>434.60</ele>
        <time>2012-10-14T11:32:39Z</time>
      </trkpt>
      <trkpt lat="41.965725000" lon="2.435954100">
        <ele>435.10</ele>
        <time>2012-10-14T11:32:41Z</time>
      </trkpt>
      <trkpt lat="41.965778000" lon="2.435948100">
        <ele>435.10</ele>
        <time>2012-10-14T11:32:43Z</time>
      </trkpt>
      <trkpt lat="41.965832000" lon="2.435738100">
        <ele>435.60</ele>
        <time>2012-10-14T11:32:48Z</time>
      </trkpt>
      <trkpt lat="41.965893000" lon="2.435429100">
        <ele>436.10</ele>
        <time>2012-10-14T11:32:58Z</time>
      </trkpt>
      <trkpt lat="41.966026000" lon="2.435157100">
        <ele>437.50</ele>
        <time>2012-10-14T11:33:07Z</time>
      </trkpt>
      <trkpt lat="41.966148000" lon="2.435010100">
        <ele>438.50</ele>
        <time>2012-10-14T11:33:14Z</time>
      </trkpt>
      <trkpt lat="41.966312000" lon="2.435023100">
        <ele>439.50</ele>
        <time>2012-10-14T11:33:21Z</time>
      </trkpt>
      <trkpt lat="41.966526000" lon="2.435222100">
        <ele>440.40</ele>
        <time>2012-10-14T11:33:30Z</time>
      </trkpt>
      <trkpt lat="41.966557000" lon="2.435272100">
        <ele>440.40</ele>
        <time>2012-10-14T11:33:31Z</time>
      </trkpt>
      <trkpt lat="41.966747000" lon="2.435400100">
        <ele>440.40</ele>
        <time>2012-10-14T11:33:37Z</time>
      </trkpt>
      <trkpt lat="41.967010000" lon="2.435344100">
        <ele>440.40</ele>
        <time>2012-10-14T11:33:42Z</time>
      </trkpt>
      <trkpt lat="41.967236000" lon="2.435270100">
        <ele>440.40</ele>
        <time>2012-10-14T11:33:47Z</time>
      </trkpt>
      <trkpt lat="41.967384000" lon="2.435262100">
        <ele>439.50</ele>
        <time>2012-10-14T11:33:51Z</time>
      </trkpt>
      <trkpt lat="41.967587000" lon="2.435210100">
        <ele>439.50</ele>
        <time>2012-10-14T11:33:54Z</time>
      </trkpt>
      <trkpt lat="41.967850000" lon="2.435128100">
        <ele>438.00</ele>
        <time>2012-10-14T11:33:59Z</time>
      </trkpt>
      <trkpt lat="41.968079000" lon="2.435235100">
        <ele>434.60</ele>
        <time>2012-10-14T11:34:03Z</time>
      </trkpt>
      <trkpt lat="41.968262000" lon="2.435231100">
        <ele>431.80</ele>
        <time>2012-10-14T11:34:06Z</time>
      </trkpt>
      <trkpt lat="41.968403000" lon="2.435136100">
        <ele>428.90</ele>
        <time>2012-10-14T11:34:10Z</time>
      </trkpt>
      <trkpt lat="41.968521000" lon="2.435172100">
        <ele>427.90</ele>
        <time>2012-10-14T11:34:12Z</time>
      </trkpt>
      <trkpt lat="41.968571000" lon="2.435210100">
        <ele>428.40</ele>
        <time>2012-10-14T11:34:13Z</time>
      </trkpt>
      <trkpt lat="41.968781000" lon="2.435318100">
        <ele>427.90</ele>
        <time>2012-10-14T11:34:17Z</time>
      </trkpt>
      <trkpt lat="41.969215000" lon="2.435500100">
        <ele>427.40</ele>
        <time>2012-10-14T11:34:24Z</time>
      </trkpt>
      <trkpt lat="41.969265000" lon="2.435535100">
        <ele>427.40</ele>
        <time>2012-10-14T11:34:24Z</time>
      </trkpt>
      <trkpt lat="41.969448000" lon="2.435614100">
        <ele>427.40</ele>
        <time>2012-10-14T11:34:29Z</time>
      </trkpt>
      <trkpt lat="41.969658000" lon="2.435654100">
        <ele>427.00</ele>
        <time>2012-10-14T11:34:34Z</time>
      </trkpt>
      <trkpt lat="41.969753000" lon="2.435460100">
        <ele>426.50</ele>
        <time>2012-10-14T11:34:38Z</time>
      </trkpt>
      <trkpt lat="41.969761000" lon="2.435249100">
        <ele>426.50</ele>
        <time>2012-10-14T11:34:43Z</time>
      </trkpt>
      <trkpt lat="41.969700000" lon="2.435014100">
        <ele>426.50</ele>
        <time>2012-10-14T11:34:52Z</time>
      </trkpt>
      <trkpt lat="41.969639000" lon="2.434808100">
        <ele>427.40</ele>
        <time>2012-10-14T11:34:59Z</time>
      </trkpt>
      <trkpt lat="41.969574000" lon="2.434598100">
        <ele>428.40</ele>
        <time>2012-10-14T11:35:07Z</time>
      </trkpt>
      <trkpt lat="41.969486000" lon="2.434363100">
        <ele>429.90</ele>
        <time>2012-10-14T11:35:16Z</time>
      </trkpt>
      <trkpt lat="41.969402000" lon="2.434168100">
        <ele>431.80</ele>
        <time>2012-10-14T11:35:23Z</time>
      </trkpt>
      <trkpt lat="41.969337000" lon="2.433932100">
        <ele>433.20</ele>
        <time>2012-10-14T11:35:33Z</time>
      </trkpt>
      <trkpt lat="41.969303000" lon="2.433832100">
        <ele>434.20</ele>
        <time>2012-10-14T11:35:37Z</time>
      </trkpt>
      <trkpt lat="41.969250000" lon="2.433620100">
        <ele>435.10</ele>
        <time>2012-10-14T11:35:44Z</time>
      </trkpt>
      <trkpt lat="41.969128000" lon="2.433428100">
        <ele>437.10</ele>
        <time>2012-10-14T11:35:54Z</time>
      </trkpt>
      <trkpt lat="41.969097000" lon="2.433358100">
        <ele>437.50</ele>
        <time>2012-10-14T11:35:56Z</time>
      </trkpt>
      <trkpt lat="41.969070000" lon="2.433181100">
        <ele>439.50</ele>
        <time>2012-10-14T11:36:03Z</time>
      </trkpt>
      <trkpt lat="41.968903000" lon="2.433054100">
        <ele>440.40</ele>
        <time>2012-10-14T11:36:12Z</time>
      </trkpt>
      <trkpt lat="41.968754000" lon="2.432933100">
        <ele>440.90</ele>
        <time>2012-10-14T11:36:19Z</time>
      </trkpt>
      <trkpt lat="41.968708000" lon="2.432880100">
        <ele>440.90</ele>
        <time>2012-10-14T11:36:20Z</time>
      </trkpt>
      <trkpt lat="41.968498000" lon="2.432920100">
        <ele>440.90</ele>
        <time>2012-10-14T11:36:26Z</time>
      </trkpt>
      <trkpt lat="41.968445000" lon="2.432899100">
        <ele>440.90</ele>
        <time>2012-10-14T11:36:26Z</time>
      </trkpt>
      <trkpt lat="41.968334000" lon="2.432838100">
        <ele>440.90</ele>
        <time>2012-10-14T11:36:29Z</time>
      </trkpt>
      <trkpt lat="41.968147000" lon="2.432575100">
        <ele>437.10</ele>
        <time>2012-10-14T11:36:33Z</time>
      </trkpt>
      <trkpt lat="41.967972000" lon="2.432213100">
        <ele>431.80</ele>
        <time>2012-10-14T11:36:36Z</time>
      </trkpt>
      <trkpt lat="41.967808000" lon="2.432016100">
        <ele>428.40</ele>
        <time>2012-10-14T11:36:40Z</time>
      </trkpt>
      <trkpt lat="41.967735000" lon="2.431766100">
        <ele>426.00</ele>
        <time>2012-10-14T11:36:43Z</time>
      </trkpt>
      <trkpt lat="41.967571000" lon="2.431395100">
        <ele>425.00</ele>
        <time>2012-10-14T11:36:48Z</time>
      </trkpt>
      <trkpt lat="41.967453000" lon="2.431141100">
        <ele>425.00</ele>
        <time>2012-10-14T11:36:50Z</time>
      </trkpt>
      <trkpt lat="41.967461000" lon="2.430933100">
        <ele>425.00</ele>
        <time>2012-10-14T11:36:52Z</time>
      </trkpt>
      <trkpt lat="41.967472000" lon="2.430412100">
        <ele>424.10</ele>
        <time>2012-10-14T11:36:57Z</time>
      </trkpt>
      <trkpt lat="41.967449000" lon="2.430009100">
        <ele>423.60</ele>
        <time>2012-10-14T11:37:02Z</time>
      </trkpt>
      <trkpt lat="41.967361000" lon="2.429731100">
        <ele>419.80</ele>
        <time>2012-10-14T11:37:06Z</time>
      </trkpt>
      <trkpt lat="41.967232000" lon="2.429685100">
        <ele>416.40</ele>
        <time>2012-10-14T11:37:09Z</time>
      </trkpt>
      <trkpt lat="41.967079000" lon="2.429666100">
        <ele>414.00</ele>
        <time>2012-10-14T11:37:11Z</time>
      </trkpt>
      <trkpt lat="41.966930000" lon="2.429472100">
        <ele>414.50</ele>
        <time>2012-10-14T11:37:16Z</time>
      </trkpt>
      <trkpt lat="41.967010000" lon="2.429327100">
        <ele>414.50</ele>
        <time>2012-10-14T11:37:18Z</time>
      </trkpt>
      <trkpt lat="41.967075000" lon="2.429240100">
        <ele>414.50</ele>
        <time>2012-10-14T11:37:21Z</time>
      </trkpt>
      <trkpt lat="41.967197000" lon="2.428961100">
        <ele>414.50</ele>
        <time>2012-10-14T11:37:27Z</time>
      </trkpt>
      <trkpt lat="41.967304000" lon="2.428747100">
        <ele>415.40</ele>
        <time>2012-10-14T11:37:32Z</time>
      </trkpt>
      <trkpt lat="41.967289000" lon="2.428378100">
        <ele>415.90</ele>
        <time>2012-10-14T11:37:37Z</time>
      </trkpt>
      <trkpt lat="41.967281000" lon="2.428168100">
        <ele>415.40</ele>
        <time>2012-10-14T11:37:41Z</time>
      </trkpt>
      <trkpt lat="41.967289000" lon="2.427964100">
        <ele>415.40</ele>
        <time>2012-10-14T11:37:44Z</time>
      </trkpt>
      <trkpt lat="41.967346000" lon="2.427670100">
        <ele>415.40</ele>
        <time>2012-10-14T11:37:48Z</time>
      </trkpt>
      <trkpt lat="41.967411000" lon="2.427443100">
        <ele>415.40</ele>
        <time>2012-10-14T11:37:51Z</time>
      </trkpt>
      <trkpt lat="41.967381000" lon="2.427121100">
        <ele>414.50</ele>
        <time>2012-10-14T11:37:54Z</time>
      </trkpt>
      <trkpt lat="41.967335000" lon="2.426741100">
        <ele>410.10</ele>
        <time>2012-10-14T11:38:00Z</time>
      </trkpt>
      <trkpt lat="41.967484000" lon="2.426568100">
        <ele>406.80</ele>
        <time>2012-10-14T11:38:03Z</time>
      </trkpt>
      <trkpt lat="41.967667000" lon="2.426407100">
        <ele>402.90</ele>
        <time>2012-10-14T11:38:07Z</time>
      </trkpt>
      <trkpt lat="41.967682000" lon="2.426334100">
        <ele>402.90</ele>
        <time>2012-10-14T11:38:07Z</time>
      </trkpt>
      <trkpt lat="41.967674000" lon="2.425801100">
        <ele>402.50</ele>
        <time>2012-10-14T11:38:14Z</time>
      </trkpt>
      <trkpt lat="41.967705000" lon="2.425505100">
        <ele>402.50</ele>
        <time>2012-10-14T11:38:17Z</time>
      </trkpt>
      <trkpt lat="41.967648000" lon="2.425020100">
        <ele>399.10</ele>
        <time>2012-10-14T11:38:22Z</time>
      </trkpt>
      <trkpt lat="41.967609000" lon="2.424737100">
        <ele>396.20</ele>
        <time>2012-10-14T11:38:24Z</time>
      </trkpt>
      <trkpt lat="41.967556000" lon="2.424480100">
        <ele>391.90</ele>
        <time>2012-10-14T11:38:28Z</time>
      </trkpt>
      <trkpt lat="41.967548000" lon="2.424309100">
        <ele>388.50</ele>
        <time>2012-10-14T11:38:29Z</time>
      </trkpt>
      <trkpt lat="41.967503000" lon="2.423943100">
        <ele>383.70</ele>
        <time>2012-10-14T11:38:35Z</time>
      </trkpt>
      <trkpt lat="41.967445000" lon="2.423744100">
        <ele>383.70</ele>
        <time>2012-10-14T11:38:38Z</time>
      </trkpt>
      <trkpt lat="41.967426000" lon="2.423399100">
        <ele>383.70</ele>
        <time>2012-10-14T11:38:43Z</time>
      </trkpt>
      <trkpt lat="41.967297000" lon="2.423175100">
        <ele>382.70</ele>
        <time>2012-10-14T11:38:47Z</time>
      </trkpt>
      <trkpt lat="41.967167000" lon="2.423250100">
        <ele>379.90</ele>
        <time>2012-10-14T11:38:50Z</time>
      </trkpt>
      <trkpt lat="41.966988000" lon="2.423348100">
        <ele>375.50</ele>
        <time>2012-10-14T11:38:52Z</time>
      </trkpt>
      <trkpt lat="41.966782000" lon="2.423425100">
        <ele>370.20</ele>
        <time>2012-10-14T11:38:55Z</time>
      </trkpt>
      <trkpt lat="41.966633000" lon="2.423463100">
        <ele>366.90</ele>
        <time>2012-10-14T11:38:57Z</time>
      </trkpt>
      <trkpt lat="41.966370000" lon="2.423502100">
        <ele>363.00</ele>
        <time>2012-10-14T11:39:01Z</time>
      </trkpt>
      <trkpt lat="41.966179000" lon="2.423608100">
        <ele>362.10</ele>
        <time>2012-10-14T11:39:04Z</time>
      </trkpt>
      <trkpt lat="41.966061000" lon="2.423696100">
        <ele>362.50</ele>
        <time>2012-10-14T11:39:06Z</time>
      </trkpt>
      <trkpt lat="41.965847000" lon="2.423739100">
        <ele>361.60</ele>
        <time>2012-10-14T11:39:11Z</time>
      </trkpt>
      <trkpt lat="41.965725000" lon="2.423601100">
        <ele>361.10</ele>
        <time>2012-10-14T11:39:13Z</time>
      </trkpt>
      <trkpt lat="41.965717000" lon="2.423519100">
        <ele>361.10</ele>
        <time>2012-10-14T11:39:15Z</time>
      </trkpt>
      <trkpt lat="41.965698000" lon="2.423278100">
        <ele>360.60</ele>
        <time>2012-10-14T11:39:18Z</time>
      </trkpt>
      <trkpt lat="41.965740000" lon="2.423165100">
        <ele>360.10</ele>
        <time>2012-10-14T11:39:22Z</time>
      </trkpt>
      <trkpt lat="41.965740000" lon="2.423168100">
        <ele>358.70</ele>
        <time>2012-10-14T11:39:34Z</time>
      </trkpt>
      <trkpt lat="41.965740000" lon="2.423168100">
        <ele>358.70</ele>
        <time>2012-10-14T11:39:46Z</time>
      </trkpt>
      <trkpt lat="41.965740000" lon="2.423165100">
        <ele>358.20</ele>
        <time>2012-10-14T11:40:02Z</time>
      </trkpt>
      <trkpt lat="41.965752000" lon="2.423148100">
        <ele>358.20</ele>
        <time>2012-10-14T11:40:07Z</time>
      </trkpt>
      <trkpt lat="41.965878000" lon="2.423089100">
        <ele>358.20</ele>
        <time>2012-10-14T11:40:16Z</time>
      </trkpt>
      <trkpt lat="41.966007000" lon="2.423046100">
        <ele>358.20</ele>
        <time>2012-10-14T11:40:21Z</time>
      </trkpt>
      <trkpt lat="41.966194000" lon="2.422976100">
        <ele>358.20</ele>
        <time>2012-10-14T11:40:26Z</time>
      </trkpt>
      <trkpt lat="41.966358000" lon="2.422870100">
        <ele>358.20</ele>
        <time>2012-10-14T11:40:31Z</time>
      </trkpt>
      <trkpt lat="41.966446000" lon="2.422734100">
        <ele>357.80</ele>
        <time>2012-10-14T11:40:35Z</time>
      </trkpt>
      <trkpt lat="41.966652000" lon="2.422461100">
        <ele>357.80</ele>
        <time>2012-10-14T11:40:43Z</time>
      </trkpt>
      <trkpt lat="41.966801000" lon="2.422221100">
        <ele>357.30</ele>
        <time>2012-10-14T11:40:52Z</time>
      </trkpt>
      <trkpt lat="41.966869000" lon="2.421968100">
        <ele>357.30</ele>
        <time>2012-10-14T11:40:57Z</time>
      </trkpt>
      <trkpt lat="41.966808000" lon="2.421500100">
        <ele>357.30</ele>
        <time>2012-10-14T11:41:06Z</time>
      </trkpt>
      <trkpt lat="41.966743000" lon="2.421319100">
        <ele>357.30</ele>
        <time>2012-10-14T11:41:11Z</time>
      </trkpt>
      <trkpt lat="41.966717000" lon="2.421217100">
        <ele>357.30</ele>
        <time>2012-10-14T11:41:15Z</time>
      </trkpt>
      <trkpt lat="41.966660000" lon="2.420973100">
        <ele>357.30</ele>
        <time>2012-10-14T11:41:22Z</time>
      </trkpt>
      <trkpt lat="41.966610000" lon="2.420816100">
        <ele>357.30</ele>
        <time>2012-10-14T11:41:25Z</time>
      </trkpt>
      <trkpt lat="41.966576000" lon="2.420648100">
        <ele>356.80</ele>
        <time>2012-10-14T11:41:27Z</time>
      </trkpt>
      <trkpt lat="41.966530000" lon="2.420394100">
        <ele>356.80</ele>
        <time>2012-10-14T11:41:32Z</time>
      </trkpt>
      <trkpt lat="41.966457000" lon="2.420217100">
        <ele>356.80</ele>
        <time>2012-10-14T11:41:34Z</time>
      </trkpt>
      <trkpt lat="41.966408000" lon="2.419889100">
        <ele>356.80</ele>
        <time>2012-10-14T11:41:41Z</time>
      </trkpt>
      <trkpt lat="41.966526000" lon="2.419782100">
        <ele>356.80</ele>
        <time>2012-10-14T11:41:44Z</time>
      </trkpt>
      <trkpt lat="41.966984000" lon="2.419754100">
        <ele>356.80</ele>
        <time>2012-10-14T11:41:58Z</time>
      </trkpt>
      <trkpt lat="41.967117000" lon="2.419723100">
        <ele>356.80</ele>
        <time>2012-10-14T11:42:04Z</time>
      </trkpt>
      <trkpt lat="41.967201000" lon="2.419811100">
        <ele>357.80</ele>
        <time>2012-10-14T11:42:11Z</time>
      </trkpt>
      <trkpt lat="41.967255000" lon="2.419907100">
        <ele>358.70</ele>
        <time>2012-10-14T11:42:16Z</time>
      </trkpt>
      <trkpt lat="41.967331000" lon="2.420068100">
        <ele>361.10</ele>
        <time>2012-10-14T11:42:26Z</time>
      </trkpt>
      <trkpt lat="41.967377000" lon="2.420214100">
        <ele>363.00</ele>
        <time>2012-10-14T11:42:35Z</time>
      </trkpt>
      <trkpt lat="41.967381000" lon="2.420232100">
        <ele>363.00</ele>
        <time>2012-10-14T11:42:37Z</time>
      </trkpt>
      <trkpt lat="41.967430000" lon="2.420408100">
        <ele>366.90</ele>
        <time>2012-10-14T11:42:47Z</time>
      </trkpt>
      <trkpt lat="41.967464000" lon="2.420471100">
        <ele>370.20</ele>
        <time>2012-10-14T11:42:52Z</time>
      </trkpt>
      <trkpt lat="41.967560000" lon="2.420589100">
        <ele>371.20</ele>
        <time>2012-10-14T11:43:01Z</time>
      </trkpt>
      <trkpt lat="41.967602000" lon="2.420729100">
        <ele>371.20</ele>
        <time>2012-10-14T11:43:08Z</time>
      </trkpt>
      <trkpt lat="41.967678000" lon="2.420864100">
        <ele>372.20</ele>
        <time>2012-10-14T11:43:15Z</time>
      </trkpt>
      <trkpt lat="41.967735000" lon="2.420992100">
        <ele>373.60</ele>
        <time>2012-10-14T11:43:22Z</time>
      </trkpt>
      <trkpt lat="41.967796000" lon="2.421174100">
        <ele>375.00</ele>
        <time>2012-10-14T11:43:31Z</time>
      </trkpt>
      <trkpt lat="41.967827000" lon="2.421406100">
        <ele>376.50</ele>
        <time>2012-10-14T11:43:41Z</time>
      </trkpt>
      <trkpt lat="41.967876000" lon="2.421623100">
        <ele>377.50</ele>
        <time>2012-10-14T11:43:52Z</time>
      </trkpt>
      <trkpt lat="41.967983000" lon="2.421801100">
        <ele>378.40</ele>
        <time>2012-10-14T11:44:00Z</time>
      </trkpt>
      <trkpt lat="41.968128000" lon="2.422004100">
        <ele>380.30</ele>
        <time>2012-10-14T11:44:11Z</time>
      </trkpt>
      <trkpt lat="41.968258000" lon="2.422142100">
        <ele>381.30</ele>
        <time>2012-10-14T11:44:21Z</time>
      </trkpt>
      <trkpt lat="41.968376000" lon="2.422299100">
        <ele>382.30</ele>
        <time>2012-10-14T11:44:30Z</time>
      </trkpt>
      <trkpt lat="41.968491000" lon="2.422331100">
        <ele>384.20</ele>
        <time>2012-10-14T11:44:39Z</time>
      </trkpt>
      <trkpt lat="41.968643000" lon="2.422341100">
        <ele>385.60</ele>
        <time>2012-10-14T11:44:49Z</time>
      </trkpt>
      <trkpt lat="41.968803000" lon="2.422374100">
        <ele>387.10</ele>
        <time>2012-10-14T11:44:58Z</time>
      </trkpt>
      <trkpt lat="41.968872000" lon="2.422482100">
        <ele>388.00</ele>
        <time>2012-10-14T11:45:05Z</time>
      </trkpt>
      <trkpt lat="41.968891000" lon="2.422637100">
        <ele>389.00</ele>
        <time>2012-10-14T11:45:12Z</time>
      </trkpt>
      <trkpt lat="41.968952000" lon="2.422816100">
        <ele>390.00</ele>
        <time>2012-10-14T11:45:22Z</time>
      </trkpt>
      <trkpt lat="41.969067000" lon="2.422899100">
        <ele>390.90</ele>
        <time>2012-10-14T11:45:29Z</time>
      </trkpt>
      <trkpt lat="41.969185000" lon="2.422942100">
        <ele>391.90</ele>
        <time>2012-10-14T11:45:36Z</time>
      </trkpt>
      <trkpt lat="41.969303000" lon="2.422960100">
        <ele>392.80</ele>
        <time>2012-10-14T11:45:43Z</time>
      </trkpt>
      <trkpt lat="41.969460000" lon="2.422958100">
        <ele>393.30</ele>
        <time>2012-10-14T11:45:52Z</time>
      </trkpt>
      <trkpt lat="41.969475000" lon="2.422954100">
        <ele>393.80</ele>
        <time>2012-10-14T11:45:54Z</time>
      </trkpt>
      <trkpt lat="41.969593000" lon="2.422964100">
        <ele>394.30</ele>
        <time>2012-10-14T11:46:00Z</time>
      </trkpt>
      <trkpt lat="41.969707000" lon="2.422997100">
        <ele>394.30</ele>
        <time>2012-10-14T11:46:06Z</time>
      </trkpt>
      <trkpt lat="41.969749000" lon="2.423067100">
        <ele>394.30</ele>
        <time>2012-10-14T11:46:09Z</time>
      </trkpt>
      <trkpt lat="41.969776000" lon="2.423203100">
        <ele>394.30</ele>
        <time>2012-10-14T11:46:13Z</time>
      </trkpt>
      <trkpt lat="41.969894000" lon="2.423340100">
        <ele>394.30</ele>
        <time>2012-10-14T11:46:16Z</time>
      </trkpt>
      <trkpt lat="41.969971000" lon="2.423566100">
        <ele>392.80</ele>
        <time>2012-10-14T11:46:21Z</time>
      </trkpt>
      <trkpt lat="41.970074000" lon="2.423808100">
        <ele>390.90</ele>
        <time>2012-10-14T11:46:25Z</time>
      </trkpt>
      <trkpt lat="41.970192000" lon="2.423970100">
        <ele>388.00</ele>
        <time>2012-10-14T11:46:28Z</time>
      </trkpt>
      <trkpt lat="41.970276000" lon="2.424218100">
        <ele>384.20</ele>
        <time>2012-10-14T11:46:32Z</time>
      </trkpt>
      <trkpt lat="41.970211000" lon="2.424476100">
        <ele>381.30</ele>
        <time>2012-10-14T11:46:35Z</time>
      </trkpt>
      <trkpt lat="41.970119000" lon="2.424500100">
        <ele>380.30</ele>
        <time>2012-10-14T11:46:39Z</time>
      </trkpt>
      <trkpt lat="41.970089000" lon="2.424428100">
        <ele>380.80</ele>
        <time>2012-10-14T11:46:42Z</time>
      </trkpt>
      <trkpt lat="41.970062000" lon="2.424367100">
        <ele>382.30</ele>
        <time>2012-10-14T11:46:46Z</time>
      </trkpt>
      <trkpt lat="41.970001000" lon="2.424246100">
        <ele>385.60</ele>
        <time>2012-10-14T11:46:54Z</time>
      </trkpt>
      <trkpt lat="41.969944000" lon="2.424202100">
        <ele>389.50</ele>
        <time>2012-10-14T11:47:00Z</time>
      </trkpt>
      <trkpt lat="41.969917000" lon="2.424185100">
        <ele>390.00</ele>
        <time>2012-10-14T11:47:01Z</time>
      </trkpt>
      <trkpt lat="41.969864000" lon="2.424179100">
        <ele>390.40</ele>
        <time>2012-10-14T11:47:07Z</time>
      </trkpt>
      <trkpt lat="41.969746000" lon="2.424148100">
        <ele>390.90</ele>
        <time>2012-10-14T11:47:15Z</time>
      </trkpt>
      <trkpt lat="41.969730000" lon="2.424142100">
        <ele>390.90</ele>
        <time>2012-10-14T11:47:17Z</time>
      </trkpt>
      <trkpt lat="41.969654000" lon="2.424149100">
        <ele>391.40</ele>
        <time>2012-10-14T11:47:22Z</time>
      </trkpt>
      <trkpt lat="41.969513000" lon="2.424273100">
        <ele>392.40</ele>
        <time>2012-10-14T11:47:31Z</time>
      </trkpt>
      <trkpt lat="41.969379000" lon="2.424421100">
        <ele>392.80</ele>
        <time>2012-10-14T11:47:40Z</time>
      </trkpt>
      <trkpt lat="41.969265000" lon="2.424633100">
        <ele>393.80</ele>
        <time>2012-10-14T11:47:50Z</time>
      </trkpt>
      <trkpt lat="41.969246000" lon="2.424834100">
        <ele>394.80</ele>
        <time>2012-10-14T11:47:57Z</time>
      </trkpt>
      <trkpt lat="41.969284000" lon="2.425094100">
        <ele>395.20</ele>
        <time>2012-10-14T11:48:06Z</time>
      </trkpt>
      <trkpt lat="41.969296000" lon="2.425349100">
        <ele>395.20</ele>
        <time>2012-10-14T11:48:13Z</time>
      </trkpt>
      <trkpt lat="41.969307000" lon="2.425589100">
        <ele>395.70</ele>
        <time>2012-10-14T11:48:20Z</time>
      </trkpt>
      <trkpt lat="41.969368000" lon="2.425824100">
        <ele>396.20</ele>
        <time>2012-10-14T11:48:27Z</time>
      </trkpt>
      <trkpt lat="41.969414000" lon="2.426050100">
        <ele>396.70</ele>
        <time>2012-10-14T11:48:34Z</time>
      </trkpt>
      <trkpt lat="41.969418000" lon="2.426324100">
        <ele>397.60</ele>
        <time>2012-10-14T11:48:42Z</time>
      </trkpt>
      <trkpt lat="41.969440000" lon="2.426609100">
        <ele>397.60</ele>
        <time>2012-10-14T11:48:49Z</time>
      </trkpt>
      <trkpt lat="41.969395000" lon="2.426886100">
        <ele>398.10</ele>
        <time>2012-10-14T11:48:56Z</time>
      </trkpt>
      <trkpt lat="41.969330000" lon="2.427126100">
        <ele>399.60</ele>
        <time>2012-10-14T11:49:03Z</time>
      </trkpt>
      <trkpt lat="41.969406000" lon="2.427366100">
        <ele>399.60</ele>
        <time>2012-10-14T11:49:10Z</time>
      </trkpt>
      <trkpt lat="41.969460000" lon="2.427645100">
        <ele>399.60</ele>
        <time>2012-10-14T11:49:17Z</time>
      </trkpt>
      <trkpt lat="41.969521000" lon="2.427857100">
        <ele>400.50</ele>
        <time>2012-10-14T11:49:23Z</time>
      </trkpt>
      <trkpt lat="41.969585000" lon="2.428067100">
        <ele>401.00</ele>
        <time>2012-10-14T11:49:28Z</time>
      </trkpt>
      <trkpt lat="41.969578000" lon="2.428402100">
        <ele>401.50</ele>
        <time>2012-10-14T11:49:36Z</time>
      </trkpt>
      <trkpt lat="41.969604000" lon="2.428794100">
        <ele>401.50</ele>
        <time>2012-10-14T11:49:45Z</time>
      </trkpt>
      <trkpt lat="41.969662000" lon="2.429106100">
        <ele>401.50</ele>
        <time>2012-10-14T11:49:52Z</time>
      </trkpt>
      <trkpt lat="41.969620000" lon="2.429437100">
        <ele>401.50</ele>
        <time>2012-10-14T11:49:59Z</time>
      </trkpt>
      <trkpt lat="41.969685000" lon="2.429859100">
        <ele>401.50</ele>
        <time>2012-10-14T11:50:06Z</time>
      </trkpt>
      <trkpt lat="41.969872000" lon="2.430219100">
        <ele>400.50</ele>
        <time>2012-10-14T11:50:13Z</time>
      </trkpt>
      <trkpt lat="41.969997000" lon="2.430434100">
        <ele>400.00</ele>
        <time>2012-10-14T11:50:18Z</time>
      </trkpt>
      <trkpt lat="41.970257000" lon="2.430736100">
        <ele>399.60</ele>
        <time>2012-10-14T11:50:27Z</time>
      </trkpt>
      <trkpt lat="41.970451000" lon="2.430913100">
        <ele>399.60</ele>
        <time>2012-10-14T11:50:34Z</time>
      </trkpt>
      <trkpt lat="41.970634000" lon="2.431105100">
        <ele>399.10</ele>
        <time>2012-10-14T11:50:39Z</time>
      </trkpt>
      <trkpt lat="41.970951000" lon="2.431431100">
        <ele>398.10</ele>
        <time>2012-10-14T11:50:48Z</time>
      </trkpt>
      <trkpt lat="41.971237000" lon="2.431630100">
        <ele>397.20</ele>
        <time>2012-10-14T11:50:57Z</time>
      </trkpt>
      <trkpt lat="41.971462000" lon="2.431609100">
        <ele>397.60</ele>
        <time>2012-10-14T11:51:02Z</time>
      </trkpt>
      <trkpt lat="41.971577000" lon="2.431671100">
        <ele>397.60</ele>
        <time>2012-10-14T11:51:07Z</time>
      </trkpt>
      <trkpt lat="41.971615000" lon="2.431784100">
        <ele>397.60</ele>
        <time>2012-10-14T11:51:09Z</time>
      </trkpt>
      <trkpt lat="41.971790000" lon="2.431899100">
        <ele>397.60</ele>
        <time>2012-10-14T11:51:16Z</time>
      </trkpt>
      <trkpt lat="41.972031000" lon="2.431865100">
        <ele>397.60</ele>
        <time>2012-10-14T11:51:24Z</time>
      </trkpt>
      <trkpt lat="41.972290000" lon="2.431833100">
        <ele>399.60</ele>
        <time>2012-10-14T11:51:35Z</time>
      </trkpt>
      <trkpt lat="41.972443000" lon="2.431747100">
        <ele>400.50</ele>
        <time>2012-10-14T11:51:42Z</time>
      </trkpt>
      <trkpt lat="41.972645000" lon="2.431749100">
        <ele>402.00</ele>
        <time>2012-10-14T11:51:51Z</time>
      </trkpt>
      <trkpt lat="41.972729000" lon="2.431827100">
        <ele>402.00</ele>
        <time>2012-10-14T11:51:54Z</time>
      </trkpt>
      <trkpt lat="41.972713000" lon="2.432014100">
        <ele>402.00</ele>
        <time>2012-10-14T11:51:59Z</time>
      </trkpt>
      <trkpt lat="41.972702000" lon="2.432048100">
        <ele>402.00</ele>
        <time>2012-10-14T11:51:59Z</time>
      </trkpt>
      <trkpt lat="41.972691000" lon="2.432319100">
        <ele>402.50</ele>
        <time>2012-10-14T11:52:06Z</time>
      </trkpt>
      <trkpt lat="41.972820000" lon="2.432524100">
        <ele>402.50</ele>
        <time>2012-10-14T11:52:13Z</time>
      </trkpt>
      <trkpt lat="41.973080000" lon="2.432799100">
        <ele>402.50</ele>
        <time>2012-10-14T11:52:22Z</time>
      </trkpt>
      <trkpt lat="41.973122000" lon="2.432863100">
        <ele>402.50</ele>
        <time>2012-10-14T11:52:24Z</time>
      </trkpt>
      <trkpt lat="41.973095000" lon="2.433058100">
        <ele>402.50</ele>
        <time>2012-10-14T11:52:29Z</time>
      </trkpt>
      <trkpt lat="41.973099000" lon="2.433350100">
        <ele>402.50</ele>
        <time>2012-10-14T11:52:36Z</time>
      </trkpt>
      <trkpt lat="41.973240000" lon="2.433458100">
        <ele>402.50</ele>
        <time>2012-10-14T11:52:41Z</time>
      </trkpt>
      <trkpt lat="41.973370000" lon="2.433611100">
        <ele>402.90</ele>
        <time>2012-10-14T11:52:48Z</time>
      </trkpt>
      <trkpt lat="41.973515000" lon="2.433897100">
        <ele>403.40</ele>
        <time>2012-10-14T11:52:57Z</time>
      </trkpt>
      <trkpt lat="41.973499000" lon="2.434125100">
        <ele>404.40</ele>
        <time>2012-10-14T11:53:02Z</time>
      </trkpt>
      <trkpt lat="41.973408000" lon="2.434391100">
        <ele>404.40</ele>
        <time>2012-10-14T11:53:09Z</time>
      </trkpt>
      <trkpt lat="41.973408000" lon="2.434446100">
        <ele>404.40</ele>
        <time>2012-10-14T11:53:09Z</time>
      </trkpt>
      <trkpt lat="41.973530000" lon="2.434815100">
        <ele>404.40</ele>
        <time>2012-10-14T11:53:16Z</time>
      </trkpt>
      <trkpt lat="41.973618000" lon="2.435137100">
        <ele>402.50</ele>
        <time>2012-10-14T11:53:19Z</time>
      </trkpt>
      <trkpt lat="41.973732000" lon="2.435419100">
        <ele>402.00</ele>
        <time>2012-10-14T11:53:23Z</time>
      </trkpt>
      <trkpt lat="41.973797000" lon="2.435866100">
        <ele>401.00</ele>
        <time>2012-10-14T11:53:30Z</time>
      </trkpt>
      <trkpt lat="41.973881000" lon="2.436084100">
        <ele>401.00</ele>
        <time>2012-10-14T11:53:35Z</time>
      </trkpt>
      <trkpt lat="41.974037000" lon="2.436162100">
        <ele>401.00</ele>
        <time>2012-10-14T11:53:40Z</time>
      </trkpt>
      <trkpt lat="41.974239000" lon="2.436104100">
        <ele>401.00</ele>
        <time>2012-10-14T11:53:47Z</time>
      </trkpt>
      <trkpt lat="41.974430000" lon="2.436061100">
        <ele>402.00</ele>
        <time>2012-10-14T11:53:54Z</time>
      </trkpt>
      <trkpt lat="41.974609000" lon="2.435950100">
        <ele>402.90</ele>
        <time>2012-10-14T11:54:01Z</time>
      </trkpt>
      <trkpt lat="41.974804000" lon="2.435875100">
        <ele>403.40</ele>
        <time>2012-10-14T11:54:08Z</time>
      </trkpt>
      <trkpt lat="41.975124000" lon="2.435637100">
        <ele>403.40</ele>
        <time>2012-10-14T11:54:15Z</time>
      </trkpt>
      <trkpt lat="41.975243000" lon="2.435582100">
        <ele>400.50</ele>
        <time>2012-10-14T11:54:19Z</time>
      </trkpt>
      <trkpt lat="41.975449000" lon="2.435573100">
        <ele>395.70</ele>
        <time>2012-10-14T11:54:22Z</time>
      </trkpt>
      <trkpt lat="41.975517000" lon="2.435581100">
        <ele>394.80</ele>
        <time>2012-10-14T11:54:24Z</time>
      </trkpt>
      <trkpt lat="41.975651000" lon="2.435559100">
        <ele>392.80</ele>
        <time>2012-10-14T11:54:26Z</time>
      </trkpt>
      <trkpt lat="41.975876000" lon="2.435441100">
        <ele>389.50</ele>
        <time>2012-10-14T11:54:29Z</time>
      </trkpt>
      <trkpt lat="41.975929000" lon="2.435405100">
        <ele>389.00</ele>
        <time>2012-10-14T11:54:31Z</time>
      </trkpt>
      <trkpt lat="41.976078000" lon="2.435499100">
        <ele>387.50</ele>
        <time>2012-10-14T11:54:34Z</time>
      </trkpt>
      <trkpt lat="41.976093000" lon="2.435566100">
        <ele>387.10</ele>
        <time>2012-10-14T11:54:36Z</time>
      </trkpt>
      <trkpt lat="41.976109000" lon="2.435689100">
        <ele>387.10</ele>
        <time>2012-10-14T11:54:38Z</time>
      </trkpt>
      <trkpt lat="41.976055000" lon="2.436113100">
        <ele>385.10</ele>
        <time>2012-10-14T11:54:41Z</time>
      </trkpt>
      <trkpt lat="41.976070000" lon="2.436415100">
        <ele>381.30</ele>
        <time>2012-10-14T11:54:45Z</time>
      </trkpt>
      <trkpt lat="41.976074000" lon="2.436471100">
        <ele>380.80</ele>
        <time>2012-10-14T11:54:45Z</time>
      </trkpt>
      <trkpt lat="41.976089000" lon="2.436572100">
        <ele>379.40</ele>
        <time>2012-10-14T11:54:47Z</time>
      </trkpt>
      <trkpt lat="41.976158000" lon="2.436751100">
        <ele>376.50</ele>
        <time>2012-10-14T11:54:48Z</time>
      </trkpt>
      <trkpt lat="41.976192000" lon="2.436810100">
        <ele>375.50</ele>
        <time>2012-10-14T11:54:48Z</time>
      </trkpt>
      <trkpt lat="41.976337000" lon="2.436977100">
        <ele>377.00</ele>
        <time>2012-10-14T11:54:55Z</time>
      </trkpt>
      <trkpt lat="41.976357000" lon="2.437000100">
        <ele>378.40</ele>
        <time>2012-10-14T11:54:55Z</time>
      </trkpt>
      <trkpt lat="41.976410000" lon="2.437039100">
        <ele>382.30</ele>
        <time>2012-10-14T11:54:59Z</time>
      </trkpt>
      <trkpt lat="41.976479000" lon="2.437098100">
        <ele>386.10</ele>
        <time>2012-10-14T11:55:02Z</time>
      </trkpt>
      <trkpt lat="41.976578000" lon="2.437170100">
        <ele>384.20</ele>
        <time>2012-10-14T11:55:09Z</time>
      </trkpt>
      <trkpt lat="41.976727000" lon="2.437270100">
        <ele>383.20</ele>
        <time>2012-10-14T11:55:16Z</time>
      </trkpt>
      <trkpt lat="41.976826000" lon="2.437339100">
        <ele>384.70</ele>
        <time>2012-10-14T11:55:23Z</time>
      </trkpt>
      <trkpt lat="41.976959000" lon="2.437441100">
        <ele>386.60</ele>
        <time>2012-10-14T11:55:32Z</time>
      </trkpt>
      <trkpt lat="41.977043000" lon="2.437507100">
        <ele>387.50</ele>
        <time>2012-10-14T11:55:37Z</time>
      </trkpt>
      <trkpt lat="41.977055000" lon="2.437546100">
        <ele>387.50</ele>
        <time>2012-10-14T11:55:39Z</time>
      </trkpt>
      <trkpt lat="41.977055000" lon="2.437569100">
        <ele>387.50</ele>
        <time>2012-10-14T11:55:41Z</time>
      </trkpt>
      <trkpt lat="41.977043000" lon="2.437607100">
        <ele>388.00</ele>
        <time>2012-10-14T11:55:42Z</time>
      </trkpt>
      <trkpt lat="41.976944000" lon="2.437596100">
        <ele>389.50</ele>
        <time>2012-10-14T11:55:49Z</time>
      </trkpt>
      <trkpt lat="41.976818000" lon="2.437512100">
        <ele>390.40</ele>
        <time>2012-10-14T11:55:58Z</time>
      </trkpt>
      <trkpt lat="41.976704000" lon="2.437485100">
        <ele>390.90</ele>
        <time>2012-10-14T11:56:05Z</time>
      </trkpt>
      <trkpt lat="41.976585000" lon="2.437438100">
        <ele>391.40</ele>
        <time>2012-10-14T11:56:12Z</time>
      </trkpt>
      <trkpt lat="41.976429000" lon="2.437341100">
        <ele>391.90</ele>
        <time>2012-10-14T11:56:21Z</time>
      </trkpt>
      <trkpt lat="41.976315000" lon="2.437279100">
        <ele>392.80</ele>
        <time>2012-10-14T11:56:26Z</time>
      </trkpt>
      <trkpt lat="41.976219000" lon="2.437226100">
        <ele>393.80</ele>
        <time>2012-10-14T11:56:33Z</time>
      </trkpt>
      <trkpt lat="41.976109000" lon="2.437132100">
        <ele>394.80</ele>
        <time>2012-10-14T11:56:40Z</time>
      </trkpt>
      <trkpt lat="41.976021000" lon="2.437033100">
        <ele>396.20</ele>
        <time>2012-10-14T11:56:47Z</time>
      </trkpt>
      <trkpt lat="41.975933000" lon="2.436932100">
        <ele>397.20</ele>
        <time>2012-10-14T11:56:52Z</time>
      </trkpt>
      <trkpt lat="41.975925000" lon="2.436918100">
        <ele>397.20</ele>
        <time>2012-10-14T11:56:54Z</time>
      </trkpt>
      <trkpt lat="41.975811000" lon="2.436821100">
        <ele>398.10</ele>
        <time>2012-10-14T11:57:01Z</time>
      </trkpt>
      <trkpt lat="41.975643000" lon="2.436744100">
        <ele>398.60</ele>
        <time>2012-10-14T11:57:09Z</time>
      </trkpt>
      <trkpt lat="41.975510000" lon="2.436780100">
        <ele>398.60</ele>
        <time>2012-10-14T11:57:13Z</time>
      </trkpt>
      <trkpt lat="41.975307000" lon="2.436881100">
        <ele>398.60</ele>
        <time>2012-10-14T11:57:20Z</time>
      </trkpt>
      <trkpt lat="41.975208000" lon="2.437015100">
        <ele>396.70</ele>
        <time>2012-10-14T11:57:27Z</time>
      </trkpt>
      <trkpt lat="41.975101000" lon="2.437163100">
        <ele>396.20</ele>
        <time>2012-10-14T11:57:32Z</time>
      </trkpt>
      <trkpt lat="41.975006000" lon="2.437309100">
        <ele>395.70</ele>
        <time>2012-10-14T11:57:39Z</time>
      </trkpt>
      <trkpt lat="41.974911000" lon="2.437476100">
        <ele>395.70</ele>
        <time>2012-10-14T11:57:48Z</time>
      </trkpt>
      <trkpt lat="41.974895000" lon="2.437497100">
        <ele>395.70</ele>
        <time>2012-10-14T11:57:48Z</time>
      </trkpt>
      <trkpt lat="41.974804000" lon="2.437633100">
        <ele>395.70</ele>
        <time>2012-10-14T11:57:56Z</time>
      </trkpt>
      <trkpt lat="41.974785000" lon="2.437661100">
        <ele>397.20</ele>
        <time>2012-10-14T11:57:58Z</time>
      </trkpt>
      <trkpt lat="41.974720000" lon="2.437774100">
        <ele>398.10</ele>
        <time>2012-10-14T11:58:05Z</time>
      </trkpt>
      <trkpt lat="41.974735000" lon="2.437889100">
        <ele>399.10</ele>
        <time>2012-10-14T11:58:12Z</time>
      </trkpt>
      <trkpt lat="41.974846000" lon="2.437908100">
        <ele>401.00</ele>
        <time>2012-10-14T11:58:21Z</time>
      </trkpt>
      <trkpt lat="41.974869000" lon="2.437907100">
        <ele>401.50</ele>
        <time>2012-10-14T11:58:23Z</time>
      </trkpt>
      <trkpt lat="41.974949000" lon="2.437808100">
        <ele>403.40</ele>
        <time>2012-10-14T11:58:33Z</time>
      </trkpt>
      <trkpt lat="41.974953000" lon="2.437777100">
        <ele>404.40</ele>
        <time>2012-10-14T11:58:36Z</time>
      </trkpt>
      <trkpt lat="41.974991000" lon="2.437687100">
        <ele>405.80</ele>
        <time>2012-10-14T11:58:43Z</time>
      </trkpt>
      <trkpt lat="41.975048000" lon="2.437606100">
        <ele>407.30</ele>
        <time>2012-10-14T11:58:52Z</time>
      </trkpt>
      <trkpt lat="41.975117000" lon="2.437521100">
        <ele>408.70</ele>
        <time>2012-10-14T11:58:59Z</time>
      </trkpt>
      <trkpt lat="41.975124000" lon="2.437510100">
        <ele>409.20</ele>
        <time>2012-10-14T11:59:01Z</time>
      </trkpt>
      <trkpt lat="41.975147000" lon="2.437485100">
        <ele>409.70</ele>
        <time>2012-10-14T11:59:04Z</time>
      </trkpt>
      <trkpt lat="41.975227000" lon="2.437358100">
        <ele>411.60</ele>
        <time>2012-10-14T11:59:13Z</time>
      </trkpt>
      <trkpt lat="41.975250000" lon="2.437336100">
        <ele>412.10</ele>
        <time>2012-10-14T11:59:15Z</time>
      </trkpt>
      <trkpt lat="41.975346000" lon="2.437262100">
        <ele>414.00</ele>
        <time>2012-10-14T11:59:25Z</time>
      </trkpt>
      <trkpt lat="41.975426000" lon="2.437243100">
        <ele>415.40</ele>
        <time>2012-10-14T11:59:32Z</time>
      </trkpt>
      <trkpt lat="41.975498000" lon="2.437238100">
        <ele>417.80</ele>
        <time>2012-10-14T11:59:39Z</time>
      </trkpt>
      <trkpt lat="41.975544000" lon="2.437237100">
        <ele>421.20</ele>
        <time>2012-10-14T11:59:43Z</time>
      </trkpt>
      <trkpt lat="41.975597000" lon="2.437238100">
        <ele>421.70</ele>
        <time>2012-10-14T11:59:48Z</time>
      </trkpt>
      <trkpt lat="41.975620000" lon="2.437236100">
        <ele>421.70</ele>
        <time>2012-10-14T11:59:50Z</time>
      </trkpt>
      <trkpt lat="41.975731000" lon="2.437310100">
        <ele>421.70</ele>
        <time>2012-10-14T12:00:00Z</time>
      </trkpt>
      <trkpt lat="41.975769000" lon="2.437347100">
        <ele>421.70</ele>
        <time>2012-10-14T12:00:05Z</time>
      </trkpt>
      <trkpt lat="41.975891000" lon="2.437405100">
        <ele>422.20</ele>
        <time>2012-10-14T12:00:14Z</time>
      </trkpt>
      <trkpt lat="41.975967000" lon="2.437479100">
        <ele>422.20</ele>
        <time>2012-10-14T12:00:23Z</time>
      </trkpt>
      <trkpt lat="41.976055000" lon="2.437565100">
        <ele>422.60</ele>
        <time>2012-10-14T12:00:30Z</time>
      </trkpt>
      <trkpt lat="41.976162000" lon="2.437661100">
        <ele>423.60</ele>
        <time>2012-10-14T12:00:40Z</time>
      </trkpt>
      <trkpt lat="41.976173000" lon="2.437671100">
        <ele>423.60</ele>
        <time>2012-10-14T12:00:42Z</time>
      </trkpt>
      <trkpt lat="41.976212000" lon="2.437710100">
        <ele>424.10</ele>
        <time>2012-10-14T12:00:45Z</time>
      </trkpt>
      <trkpt lat="41.976303000" lon="2.437829100">
        <ele>425.50</ele>
        <time>2012-10-14T12:00:54Z</time>
      </trkpt>
      <trkpt lat="41.976379000" lon="2.437946100">
        <ele>426.50</ele>
        <time>2012-10-14T12:01:01Z</time>
      </trkpt>
      <trkpt lat="41.976440000" lon="2.438061100">
        <ele>427.00</ele>
        <time>2012-10-14T12:01:08Z</time>
      </trkpt>
      <trkpt lat="41.976509000" lon="2.438198100">
        <ele>427.40</ele>
        <time>2012-10-14T12:01:17Z</time>
      </trkpt>
      <trkpt lat="41.976597000" lon="2.438277100">
        <ele>428.40</ele>
        <time>2012-10-14T12:01:24Z</time>
      </trkpt>
      <trkpt lat="41.976715000" lon="2.438370100">
        <ele>429.90</ele>
        <time>2012-10-14T12:01:34Z</time>
      </trkpt>
      <trkpt lat="41.976807000" lon="2.438482100">
        <ele>430.80</ele>
        <time>2012-10-14T12:01:41Z</time>
      </trkpt>
      <trkpt lat="41.976906000" lon="2.438608100">
        <ele>431.80</ele>
        <time>2012-10-14T12:01:50Z</time>
      </trkpt>
      <trkpt lat="41.976994000" lon="2.438754100">
        <ele>432.70</ele>
        <time>2012-10-14T12:02:00Z</time>
      </trkpt>
      <trkpt lat="41.977032000" lon="2.438819100">
        <ele>433.20</ele>
        <time>2012-10-14T12:02:04Z</time>
      </trkpt>
      <trkpt lat="41.977077000" lon="2.438982100">
        <ele>433.20</ele>
        <time>2012-10-14T12:02:14Z</time>
      </trkpt>
      <trkpt lat="41.977104000" lon="2.439041100">
        <ele>433.20</ele>
        <time>2012-10-14T12:02:16Z</time>
      </trkpt>
      <trkpt lat="41.977150000" lon="2.439190100">
        <ele>434.20</ele>
        <time>2012-10-14T12:02:23Z</time>
      </trkpt>
      <trkpt lat="41.977211000" lon="2.439377100">
        <ele>435.10</ele>
        <time>2012-10-14T12:02:33Z</time>
      </trkpt>
      <trkpt lat="41.977280000" lon="2.439579100">
        <ele>436.10</ele>
        <time>2012-10-14T12:02:42Z</time>
      </trkpt>
      <trkpt lat="41.977306000" lon="2.439702100">
        <ele>436.60</ele>
        <time>2012-10-14T12:02:49Z</time>
      </trkpt>
      <trkpt lat="41.977333000" lon="2.439813100">
        <ele>437.50</ele>
        <time>2012-10-14T12:02:56Z</time>
      </trkpt>
      <trkpt lat="41.977348000" lon="2.439870100">
        <ele>438.00</ele>
        <time>2012-10-14T12:02:59Z</time>
      </trkpt>
      <trkpt lat="41.977406000" lon="2.440033100">
        <ele>439.50</ele>
        <time>2012-10-14T12:03:08Z</time>
      </trkpt>
      <trkpt lat="41.977444000" lon="2.440183100">
        <ele>440.40</ele>
        <time>2012-10-14T12:03:17Z</time>
      </trkpt>
      <trkpt lat="41.977489000" lon="2.440294100">
        <ele>441.40</ele>
        <time>2012-10-14T12:03:24Z</time>
      </trkpt>
      <trkpt lat="41.977573000" lon="2.440414100">
        <ele>442.30</ele>
        <time>2012-10-14T12:03:33Z</time>
      </trkpt>
      <trkpt lat="41.977695000" lon="2.440545100">
        <ele>443.80</ele>
        <time>2012-10-14T12:03:43Z</time>
      </trkpt>
      <trkpt lat="41.977806000" lon="2.440682100">
        <ele>444.80</ele>
        <time>2012-10-14T12:03:52Z</time>
      </trkpt>
      <trkpt lat="41.977898000" lon="2.440811100">
        <ele>445.70</ele>
        <time>2012-10-14T12:03:59Z</time>
      </trkpt>
      <trkpt lat="41.977974000" lon="2.440843100">
        <ele>446.20</ele>
        <time>2012-10-14T12:04:04Z</time>
      </trkpt>
      <trkpt lat="41.978107000" lon="2.440828100">
        <ele>447.10</ele>
        <time>2012-10-14T12:04:14Z</time>
      </trkpt>
      <trkpt lat="41.978123000" lon="2.440828100">
        <ele>447.10</ele>
        <time>2012-10-14T12:04:16Z</time>
      </trkpt>
      <trkpt lat="41.978256000" lon="2.440832100">
        <ele>448.60</ele>
        <time>2012-10-14T12:04:25Z</time>
      </trkpt>
      <trkpt lat="41.978355000" lon="2.440842100">
        <ele>449.50</ele>
        <time>2012-10-14T12:04:32Z</time>
      </trkpt>
      <trkpt lat="41.978455000" lon="2.440881100">
        <ele>451.50</ele>
        <time>2012-10-14T12:04:39Z</time>
      </trkpt>
      <trkpt lat="41.978542000" lon="2.441011100">
        <ele>452.00</ele>
        <time>2012-10-14T12:04:47Z</time>
      </trkpt>
      <trkpt lat="41.978607000" lon="2.441183100">
        <ele>452.90</ele>
        <time>2012-10-14T12:04:58Z</time>
      </trkpt>
      <trkpt lat="41.978661000" lon="2.441361100">
        <ele>453.90</ele>
        <time>2012-10-14T12:05:07Z</time>
      </trkpt>
      <trkpt lat="41.978703000" lon="2.441515100">
        <ele>455.30</ele>
        <time>2012-10-14T12:05:15Z</time>
      </trkpt>
      <trkpt lat="41.978760000" lon="2.441691100">
        <ele>457.20</ele>
        <time>2012-10-14T12:05:24Z</time>
      </trkpt>
      <trkpt lat="41.978851000" lon="2.441785100">
        <ele>458.20</ele>
        <time>2012-10-14T12:05:33Z</time>
      </trkpt>
      <trkpt lat="41.978924000" lon="2.441853100">
        <ele>460.10</ele>
        <time>2012-10-14T12:05:42Z</time>
      </trkpt>
      <trkpt lat="41.979008000" lon="2.441915100">
        <ele>461.10</ele>
        <time>2012-10-14T12:05:50Z</time>
      </trkpt>
      <trkpt lat="41.979084000" lon="2.441989100">
        <ele>462.00</ele>
        <time>2012-10-14T12:05:57Z</time>
      </trkpt>
      <trkpt lat="41.979099000" lon="2.442007100">
        <ele>462.00</ele>
        <time>2012-10-14T12:05:59Z</time>
      </trkpt>
      <trkpt lat="41.979156000" lon="2.442186100">
        <ele>464.00</ele>
        <time>2012-10-14T12:06:09Z</time>
      </trkpt>
      <trkpt lat="41.979198000" lon="2.442329100">
        <ele>465.90</ele>
        <time>2012-10-14T12:06:16Z</time>
      </trkpt>
      <trkpt lat="41.979237000" lon="2.442491100">
        <ele>466.90</ele>
        <time>2012-10-14T12:06:25Z</time>
      </trkpt>
      <trkpt lat="41.979233000" lon="2.442726100">
        <ele>467.30</ele>
        <time>2012-10-14T12:06:30Z</time>
      </trkpt>
      <trkpt lat="41.979206000" lon="2.442976100">
        <ele>467.30</ele>
        <time>2012-10-14T12:06:36Z</time>
      </trkpt>
      <trkpt lat="41.979225000" lon="2.443359100">
        <ele>467.30</ele>
        <time>2012-10-14T12:06:41Z</time>
      </trkpt>
      <trkpt lat="41.979252000" lon="2.443428100">
        <ele>465.90</ele>
        <time>2012-10-14T12:06:41Z</time>
      </trkpt>
      <trkpt lat="41.979286000" lon="2.443829100">
        <ele>462.00</ele>
        <time>2012-10-14T12:06:48Z</time>
      </trkpt>
      <trkpt lat="41.979305000" lon="2.444170100">
        <ele>459.60</ele>
        <time>2012-10-14T12:06:53Z</time>
      </trkpt>
      <trkpt lat="41.979416000" lon="2.444527100">
        <ele>459.60</ele>
        <time>2012-10-14T12:07:00Z</time>
      </trkpt>
      <trkpt lat="41.979443000" lon="2.444778100">
        <ele>461.10</ele>
        <time>2012-10-14T12:07:05Z</time>
      </trkpt>
      <trkpt lat="41.979401000" lon="2.444946100">
        <ele>461.10</ele>
        <time>2012-10-14T12:07:07Z</time>
      </trkpt>
      <trkpt lat="41.979385000" lon="2.445290100">
        <ele>461.10</ele>
        <time>2012-10-14T12:07:12Z</time>
      </trkpt>
      <trkpt lat="41.979443000" lon="2.445652100">
        <ele>458.70</ele>
        <time>2012-10-14T12:07:17Z</time>
      </trkpt>
      <trkpt lat="41.979496000" lon="2.445964100">
        <ele>455.80</ele>
        <time>2012-10-14T12:07:19Z</time>
      </trkpt>
      <trkpt lat="41.979511000" lon="2.446177100">
        <ele>453.40</ele>
        <time>2012-10-14T12:07:21Z</time>
      </trkpt>
      <trkpt lat="41.979622000" lon="2.446488100">
        <ele>451.00</ele>
        <time>2012-10-14T12:07:26Z</time>
      </trkpt>
      <trkpt lat="41.979794000" lon="2.446566100">
        <ele>451.50</ele>
        <time>2012-10-14T12:07:30Z</time>
      </trkpt>
      <trkpt lat="41.979847000" lon="2.446500100">
        <ele>451.50</ele>
        <time>2012-10-14T12:07:31Z</time>
      </trkpt>
      <trkpt lat="41.979874000" lon="2.446419100">
        <ele>452.40</ele>
        <time>2012-10-14T12:07:35Z</time>
      </trkpt>
      <trkpt lat="41.979858000" lon="2.446256100">
        <ele>453.40</ele>
        <time>2012-10-14T12:07:40Z</time>
      </trkpt>
      <trkpt lat="41.979851000" lon="2.446038100">
        <ele>454.80</ele>
        <time>2012-10-14T12:07:49Z</time>
      </trkpt>
      <trkpt lat="41.979847000" lon="2.445844100">
        <ele>456.80</ele>
        <time>2012-10-14T12:07:57Z</time>
      </trkpt>
      <trkpt lat="41.979813000" lon="2.445622100">
        <ele>457.70</ele>
        <time>2012-10-14T12:08:06Z</time>
      </trkpt>
      <trkpt lat="41.979820000" lon="2.445443100">
        <ele>459.20</ele>
        <time>2012-10-14T12:08:13Z</time>
      </trkpt>
      <trkpt lat="41.979874000" lon="2.445282100">
        <ele>460.10</ele>
        <time>2012-10-14T12:08:20Z</time>
      </trkpt>
      <trkpt lat="41.979984000" lon="2.445080100">
        <ele>461.10</ele>
        <time>2012-10-14T12:08:29Z</time>
      </trkpt>
      <trkpt lat="41.980034000" lon="2.444841100">
        <ele>461.60</ele>
        <time>2012-10-14T12:08:37Z</time>
      </trkpt>
      <trkpt lat="41.980068000" lon="2.444493100">
        <ele>461.60</ele>
        <time>2012-10-14T12:08:46Z</time>
      </trkpt>
      <trkpt lat="41.980003000" lon="2.444177100">
        <ele>461.60</ele>
        <time>2012-10-14T12:08:53Z</time>
      </trkpt>
      <trkpt lat="41.980015000" lon="2.444024100">
        <ele>461.60</ele>
        <time>2012-10-14T12:08:55Z</time>
      </trkpt>
      <trkpt lat="41.980106000" lon="2.443778100">
        <ele>461.60</ele>
        <time>2012-10-14T12:09:00Z</time>
      </trkpt>
      <trkpt lat="41.980282000" lon="2.443393100">
        <ele>460.10</ele>
        <time>2012-10-14T12:09:09Z</time>
      </trkpt>
      <trkpt lat="41.980316000" lon="2.443359100">
        <ele>460.10</ele>
        <time>2012-10-14T12:09:11Z</time>
      </trkpt>
      <trkpt lat="41.980427000" lon="2.443108100">
        <ele>459.20</ele>
        <time>2012-10-14T12:09:16Z</time>
      </trkpt>
      <trkpt lat="41.980423000" lon="2.443067100">
        <ele>459.20</ele>
        <time>2012-10-14T12:09:18Z</time>
      </trkpt>
      <trkpt lat="41.980457000" lon="2.442719100">
        <ele>458.70</ele>
        <time>2012-10-14T12:09:26Z</time>
      </trkpt>
      <trkpt lat="41.980465000" lon="2.442353100">
        <ele>458.70</ele>
        <time>2012-10-14T12:09:35Z</time>
      </trkpt>
      <trkpt lat="41.980442000" lon="2.442037100">
        <ele>458.70</ele>
        <time>2012-10-14T12:09:44Z</time>
      </trkpt>
      <trkpt lat="41.980427000" lon="2.441727100">
        <ele>460.10</ele>
        <time>2012-10-14T12:09:52Z</time>
      </trkpt>
      <trkpt lat="41.980423000" lon="2.441491100">
        <ele>461.60</ele>
        <time>2012-10-14T12:10:01Z</time>
      </trkpt>
      <trkpt lat="41.980419000" lon="2.441309100">
        <ele>463.00</ele>
        <time>2012-10-14T12:10:10Z</time>
      </trkpt>
      <trkpt lat="41.980408000" lon="2.441168100">
        <ele>464.50</ele>
        <time>2012-10-14T12:10:17Z</time>
      </trkpt>
      <trkpt lat="41.980404000" lon="2.441024100">
        <ele>465.90</ele>
        <time>2012-10-14T12:10:24Z</time>
      </trkpt>
      <trkpt lat="41.980396000" lon="2.440924100">
        <ele>467.30</ele>
        <time>2012-10-14T12:10:27Z</time>
      </trkpt>
      <trkpt lat="41.980404000" lon="2.440839100">
        <ele>467.80</ele>
        <time>2012-10-14T12:10:31Z</time>
      </trkpt>
      <trkpt lat="41.980465000" lon="2.440854100">
        <ele>468.80</ele>
        <time>2012-10-14T12:10:38Z</time>
      </trkpt>
      <trkpt lat="41.980476000" lon="2.440992100">
        <ele>470.20</ele>
        <time>2012-10-14T12:10:46Z</time>
      </trkpt>
      <trkpt lat="41.980515000" lon="2.441097100">
        <ele>471.70</ele>
        <time>2012-10-14T12:10:55Z</time>
      </trkpt>
      <trkpt lat="41.980541000" lon="2.441231100">
        <ele>473.60</ele>
        <time>2012-10-14T12:11:04Z</time>
      </trkpt>
      <trkpt lat="41.980587000" lon="2.441397100">
        <ele>475.00</ele>
        <time>2012-10-14T12:11:14Z</time>
      </trkpt>
      <trkpt lat="41.980610000" lon="2.441517100">
        <ele>476.00</ele>
        <time>2012-10-14T12:11:21Z</time>
      </trkpt>
      <trkpt lat="41.980644000" lon="2.441658100">
        <ele>477.40</ele>
        <time>2012-10-14T12:11:30Z</time>
      </trkpt>
      <trkpt lat="41.980682000" lon="2.441808100">
        <ele>478.90</ele>
        <time>2012-10-14T12:11:37Z</time>
      </trkpt>
      <trkpt lat="41.980732000" lon="2.441969100">
        <ele>480.30</ele>
        <time>2012-10-14T12:11:47Z</time>
      </trkpt>
      <trkpt lat="41.980766000" lon="2.442121100">
        <ele>481.80</ele>
        <time>2012-10-14T12:11:56Z</time>
      </trkpt>
      <trkpt lat="41.980793000" lon="2.442243100">
        <ele>482.70</ele>
        <time>2012-10-14T12:12:03Z</time>
      </trkpt>
      <trkpt lat="41.980816000" lon="2.442361100">
        <ele>483.70</ele>
        <time>2012-10-14T12:12:10Z</time>
      </trkpt>
      <trkpt lat="41.980827000" lon="2.442523100">
        <ele>485.10</ele>
        <time>2012-10-14T12:12:19Z</time>
      </trkpt>
      <trkpt lat="41.980839000" lon="2.442702100">
        <ele>486.60</ele>
        <time>2012-10-14T12:12:29Z</time>
      </trkpt>
      <trkpt lat="41.980839000" lon="2.442795100">
        <ele>487.50</ele>
        <time>2012-10-14T12:12:34Z</time>
      </trkpt>
      <trkpt lat="41.980869000" lon="2.442956100">
        <ele>488.50</ele>
        <time>2012-10-14T12:12:43Z</time>
      </trkpt>
      <trkpt lat="41.980904000" lon="2.443053100">
        <ele>489.90</ele>
        <time>2012-10-14T12:12:50Z</time>
      </trkpt>
      <trkpt lat="41.980911000" lon="2.443179100">
        <ele>490.90</ele>
        <time>2012-10-14T12:12:57Z</time>
      </trkpt>
      <trkpt lat="41.980885000" lon="2.443307100">
        <ele>492.30</ele>
        <time>2012-10-14T12:13:06Z</time>
      </trkpt>
      <trkpt lat="41.980892000" lon="2.443446100">
        <ele>493.30</ele>
        <time>2012-10-14T12:13:16Z</time>
      </trkpt>
      <trkpt lat="41.980892000" lon="2.443460100">
        <ele>493.30</ele>
        <time>2012-10-14T12:13:16Z</time>
      </trkpt>
      <trkpt lat="41.980900000" lon="2.443545100">
        <ele>493.80</ele>
        <time>2012-10-14T12:13:23Z</time>
      </trkpt>
      <trkpt lat="41.980885000" lon="2.443626100">
        <ele>494.70</ele>
        <time>2012-10-14T12:13:28Z</time>
      </trkpt>
      <trkpt lat="41.980858000" lon="2.443708100">
        <ele>495.20</ele>
        <time>2012-10-14T12:13:32Z</time>
      </trkpt>
      <trkpt lat="41.980820000" lon="2.443800100">
        <ele>495.70</ele>
        <time>2012-10-14T12:13:41Z</time>
      </trkpt>
      <trkpt lat="41.980778000" lon="2.443903100">
        <ele>497.10</ele>
        <time>2012-10-14T12:13:49Z</time>
      </trkpt>
      <trkpt lat="41.980721000" lon="2.443993100">
        <ele>498.10</ele>
        <time>2012-10-14T12:13:58Z</time>
      </trkpt>
      <trkpt lat="41.980675000" lon="2.444054100">
        <ele>498.60</ele>
        <time>2012-10-14T12:14:05Z</time>
      </trkpt>
      <trkpt lat="41.980652000" lon="2.444160100">
        <ele>499.10</ele>
        <time>2012-10-14T12:14:10Z</time>
      </trkpt>
      <trkpt lat="41.980663000" lon="2.444271100">
        <ele>499.50</ele>
        <time>2012-10-14T12:14:17Z</time>
      </trkpt>
      <trkpt lat="41.980724000" lon="2.444430100">
        <ele>501.50</ele>
        <time>2012-10-14T12:14:28Z</time>
      </trkpt>
      <trkpt lat="41.980728000" lon="2.444535100">
        <ele>502.00</ele>
        <time>2012-10-14T12:14:36Z</time>
      </trkpt>
      <trkpt lat="41.980721000" lon="2.444546100">
        <ele>502.00</ele>
        <time>2012-10-14T12:14:36Z</time>
      </trkpt>
      <trkpt lat="41.980675000" lon="2.444647100">
        <ele>502.40</ele>
        <time>2012-10-14T12:14:45Z</time>
      </trkpt>
      <trkpt lat="41.980644000" lon="2.444811100">
        <ele>503.40</ele>
        <time>2012-10-14T12:14:54Z</time>
      </trkpt>
      <trkpt lat="41.980629000" lon="2.444901100">
        <ele>504.80</ele>
        <time>2012-10-14T12:14:59Z</time>
      </trkpt>
      <trkpt lat="41.980602000" lon="2.445065100">
        <ele>506.30</ele>
        <time>2012-10-14T12:15:09Z</time>
      </trkpt>
      <trkpt lat="41.980587000" lon="2.445134100">
        <ele>506.80</ele>
        <time>2012-10-14T12:15:13Z</time>
      </trkpt>
      <trkpt lat="41.980579000" lon="2.445189100">
        <ele>507.20</ele>
        <time>2012-10-14T12:15:16Z</time>
      </trkpt>
      <trkpt lat="41.980572000" lon="2.445284100">
        <ele>507.70</ele>
        <time>2012-10-14T12:15:22Z</time>
      </trkpt>
      <trkpt lat="41.980576000" lon="2.445497100">
        <ele>510.10</ele>
        <time>2012-10-14T12:15:32Z</time>
      </trkpt>
      <trkpt lat="41.980576000" lon="2.445546100">
        <ele>510.60</ele>
        <time>2012-10-14T12:15:39Z</time>
      </trkpt>
      <trkpt lat="41.980583000" lon="2.445549100">
        <ele>511.60</ele>
        <time>2012-10-14T12:15:55Z</time>
      </trkpt>
      <trkpt lat="41.980583000" lon="2.445549100">
        <ele>511.60</ele>
        <time>2012-10-14T12:16:07Z</time>
      </trkpt>
      <trkpt lat="41.980583000" lon="2.445575100">
        <ele>512.00</ele>
        <time>2012-10-14T12:16:59Z</time>
      </trkpt>
      <trkpt lat="41.980644000" lon="2.445733100">
        <ele>512.50</ele>
        <time>2012-10-14T12:17:08Z</time>
      </trkpt>
      <trkpt lat="41.980717000" lon="2.445870100">
        <ele>514.00</ele>
        <time>2012-10-14T12:17:17Z</time>
      </trkpt>
      <trkpt lat="41.980808000" lon="2.446028100">
        <ele>514.90</ele>
        <time>2012-10-14T12:17:27Z</time>
      </trkpt>
      <trkpt lat="41.980873000" lon="2.446110100">
        <ele>515.40</ele>
        <time>2012-10-14T12:17:32Z</time>
      </trkpt>
      <trkpt lat="41.980949000" lon="2.446191100">
        <ele>516.40</ele>
        <time>2012-10-14T12:17:39Z</time>
      </trkpt>
      <trkpt lat="41.981068000" lon="2.446294100">
        <ele>517.30</ele>
        <time>2012-10-14T12:17:48Z</time>
      </trkpt>
      <trkpt lat="41.981190000" lon="2.446336100">
        <ele>518.30</ele>
        <time>2012-10-14T12:17:58Z</time>
      </trkpt>
      <trkpt lat="41.981274000" lon="2.446361100">
        <ele>520.20</ele>
        <time>2012-10-14T12:18:05Z</time>
      </trkpt>
      <trkpt lat="41.981289000" lon="2.446375100">
        <ele>519.70</ele>
        <time>2012-10-14T12:18:05Z</time>
      </trkpt>
      <trkpt lat="41.981327000" lon="2.446478100">
        <ele>520.70</ele>
        <time>2012-10-14T12:18:14Z</time>
      </trkpt>
      <trkpt lat="41.981327000" lon="2.446509100">
        <ele>520.70</ele>
        <time>2012-10-14T12:18:16Z</time>
      </trkpt>
      <trkpt lat="41.981319000" lon="2.446582100">
        <ele>521.70</ele>
        <time>2012-10-14T12:18:19Z</time>
      </trkpt>
      <trkpt lat="41.981342000" lon="2.446769100">
        <ele>523.10</ele>
        <time>2012-10-14T12:18:28Z</time>
      </trkpt>
      <trkpt lat="41.981380000" lon="2.446887100">
        <ele>523.60</ele>
        <time>2012-10-14T12:18:33Z</time>
      </trkpt>
      <trkpt lat="41.981430000" lon="2.447028100">
        <ele>524.10</ele>
        <time>2012-10-14T12:18:40Z</time>
      </trkpt>
      <trkpt lat="41.981411000" lon="2.447083100">
        <ele>524.10</ele>
        <time>2012-10-14T12:18:42Z</time>
      </trkpt>
      <trkpt lat="41.981293000" lon="2.447299100">
        <ele>524.50</ele>
        <time>2012-10-14T12:18:49Z</time>
      </trkpt>
      <trkpt lat="41.981224000" lon="2.447457100">
        <ele>524.50</ele>
        <time>2012-10-14T12:18:56Z</time>
      </trkpt>
      <trkpt lat="41.981224000" lon="2.447640100">
        <ele>524.50</ele>
        <time>2012-10-14T12:19:03Z</time>
      </trkpt>
      <trkpt lat="41.981285000" lon="2.447857100">
        <ele>526.50</ele>
        <time>2012-10-14T12:19:15Z</time>
      </trkpt>
      <trkpt lat="41.981331000" lon="2.447975100">
        <ele>527.40</ele>
        <time>2012-10-14T12:19:22Z</time>
      </trkpt>
      <trkpt lat="41.981400000" lon="2.448117100">
        <ele>527.90</ele>
        <time>2012-10-14T12:19:29Z</time>
      </trkpt>
      <trkpt lat="41.981461000" lon="2.448266100">
        <ele>529.80</ele>
        <time>2012-10-14T12:19:38Z</time>
      </trkpt>
      <trkpt lat="41.981544000" lon="2.448383100">
        <ele>530.80</ele>
        <time>2012-10-14T12:19:46Z</time>
      </trkpt>
      <trkpt lat="41.981586000" lon="2.448475100">
        <ele>532.20</ele>
        <time>2012-10-14T12:19:53Z</time>
      </trkpt>
      <trkpt lat="41.981625000" lon="2.448618100">
        <ele>534.20</ele>
        <time>2012-10-14T12:20:02Z</time>
      </trkpt>
      <trkpt lat="41.981651000" lon="2.448768100">
        <ele>536.10</ele>
        <time>2012-10-14T12:20:11Z</time>
      </trkpt>
      <trkpt lat="41.981743000" lon="2.448970100">
        <ele>537.50</ele>
        <time>2012-10-14T12:20:23Z</time>
      </trkpt>
      <trkpt lat="41.981861000" lon="2.449049100">
        <ele>539.00</ele>
        <time>2012-10-14T12:20:32Z</time>
      </trkpt>
      <trkpt lat="41.981972000" lon="2.449154100">
        <ele>540.90</ele>
        <time>2012-10-14T12:20:40Z</time>
      </trkpt>
      <trkpt lat="41.982105000" lon="2.449216100">
        <ele>542.30</ele>
        <time>2012-10-14T12:20:51Z</time>
      </trkpt>
      <trkpt lat="41.982204000" lon="2.449255100">
        <ele>543.30</ele>
        <time>2012-10-14T12:20:58Z</time>
      </trkpt>
      <trkpt lat="41.982277000" lon="2.449334100">
        <ele>543.80</ele>
        <time>2012-10-14T12:21:05Z</time>
      </trkpt>
      <trkpt lat="41.982254000" lon="2.449492100">
        <ele>545.20</ele>
        <time>2012-10-14T12:21:13Z</time>
      </trkpt>
      <trkpt lat="41.982193000" lon="2.449645100">
        <ele>546.20</ele>
        <time>2012-10-14T12:21:20Z</time>
      </trkpt>
      <trkpt lat="41.982159000" lon="2.449753100">
        <ele>546.70</ele>
        <time>2012-10-14T12:21:26Z</time>
      </trkpt>
      <trkpt lat="41.982155000" lon="2.449903100">
        <ele>548.10</ele>
        <time>2012-10-14T12:21:34Z</time>
      </trkpt>
      <trkpt lat="41.982182000" lon="2.450066100">
        <ele>549.00</ele>
        <time>2012-10-14T12:21:45Z</time>
      </trkpt>
      <trkpt lat="41.982212000" lon="2.450216100">
        <ele>550.50</ele>
        <time>2012-10-14T12:21:52Z</time>
      </trkpt>
      <trkpt lat="41.982258000" lon="2.450346100">
        <ele>552.40</ele>
        <time>2012-10-14T12:22:00Z</time>
      </trkpt>
      <trkpt lat="41.982273000" lon="2.450381100">
        <ele>552.40</ele>
        <time>2012-10-14T12:22:02Z</time>
      </trkpt>
      <trkpt lat="41.982334000" lon="2.450536100">
        <ele>554.30</ele>
        <time>2012-10-14T12:22:13Z</time>
      </trkpt>
      <trkpt lat="41.982380000" lon="2.450663100">
        <ele>555.30</ele>
        <time>2012-10-14T12:22:21Z</time>
      </trkpt>
      <trkpt lat="41.982441000" lon="2.450845100">
        <ele>557.20</ele>
        <time>2012-10-14T12:22:30Z</time>
      </trkpt>
      <trkpt lat="41.982471000" lon="2.450958100">
        <ele>559.10</ele>
        <time>2012-10-14T12:22:39Z</time>
      </trkpt>
      <trkpt lat="41.982487000" lon="2.451056100">
        <ele>560.10</ele>
        <time>2012-10-14T12:22:46Z</time>
      </trkpt>
      <trkpt lat="41.982525000" lon="2.451208100">
        <ele>561.50</ele>
        <time>2012-10-14T12:22:54Z</time>
      </trkpt>
      <trkpt lat="41.982567000" lon="2.451335100">
        <ele>563.00</ele>
        <time>2012-10-14T12:23:03Z</time>
      </trkpt>
      <trkpt lat="41.982613000" lon="2.451458100">
        <ele>564.00</ele>
        <time>2012-10-14T12:23:10Z</time>
      </trkpt>
      <trkpt lat="41.982700000" lon="2.451536100">
        <ele>565.90</ele>
        <time>2012-10-14T12:23:19Z</time>
      </trkpt>
      <trkpt lat="41.982803000" lon="2.451576100">
        <ele>567.30</ele>
        <time>2012-10-14T12:23:29Z</time>
      </trkpt>
      <trkpt lat="41.982903000" lon="2.451623100">
        <ele>568.30</ele>
        <time>2012-10-14T12:23:36Z</time>
      </trkpt>
      <trkpt lat="41.982994000" lon="2.451645100">
        <ele>568.80</ele>
        <time>2012-10-14T12:23:43Z</time>
      </trkpt>
      <trkpt lat="41.983124000" lon="2.451663100">
        <ele>570.70</ele>
        <time>2012-10-14T12:23:54Z</time>
      </trkpt>
      <trkpt lat="41.983219000" lon="2.451713100">
        <ele>571.60</ele>
        <time>2012-10-14T12:24:01Z</time>
      </trkpt>
      <trkpt lat="41.983288000" lon="2.451819100">
        <ele>572.60</ele>
        <time>2012-10-14T12:24:09Z</time>
      </trkpt>
      <trkpt lat="41.983364000" lon="2.451931100">
        <ele>574.50</ele>
        <time>2012-10-14T12:24:18Z</time>
      </trkpt>
      <trkpt lat="41.983433000" lon="2.451996100">
        <ele>575.50</ele>
        <time>2012-10-14T12:24:25Z</time>
      </trkpt>
      <trkpt lat="41.983471000" lon="2.452042100">
        <ele>576.50</ele>
        <time>2012-10-14T12:24:29Z</time>
      </trkpt>
      <trkpt lat="41.983532000" lon="2.452110100">
        <ele>577.90</ele>
        <time>2012-10-14T12:24:34Z</time>
      </trkpt>
      <trkpt lat="41.983593000" lon="2.452146100">
        <ele>581.70</ele>
        <time>2012-10-14T12:24:41Z</time>
      </trkpt>
      <trkpt lat="41.983658000" lon="2.452179100">
        <ele>582.70</ele>
        <time>2012-10-14T12:24:46Z</time>
      </trkpt>
      <trkpt lat="41.983742000" lon="2.452213100">
        <ele>582.70</ele>
        <time>2012-10-14T12:24:55Z</time>
      </trkpt>
      <trkpt lat="41.983772000" lon="2.452238100">
        <ele>582.70</ele>
        <time>2012-10-14T12:24:58Z</time>
      </trkpt>
      <trkpt lat="41.983837000" lon="2.452359100">
        <ele>582.70</ele>
        <time>2012-10-14T12:25:07Z</time>
      </trkpt>
      <trkpt lat="41.983894000" lon="2.452499100">
        <ele>583.70</ele>
        <time>2012-10-14T12:25:14Z</time>
      </trkpt>
      <trkpt lat="41.983944000" lon="2.452657100">
        <ele>584.60</ele>
        <time>2012-10-14T12:25:23Z</time>
      </trkpt>
      <trkpt lat="41.983963000" lon="2.452877100">
        <ele>584.60</ele>
        <time>2012-10-14T12:25:29Z</time>
      </trkpt>
      <trkpt lat="41.984013000" lon="2.453012100">
        <ele>584.60</ele>
        <time>2012-10-14T12:25:35Z</time>
      </trkpt>
      <trkpt lat="41.984024000" lon="2.453031100">
        <ele>584.60</ele>
        <time>2012-10-14T12:25:35Z</time>
      </trkpt>
      <trkpt lat="41.984081000" lon="2.453116100">
        <ele>584.60</ele>
        <time>2012-10-14T12:25:40Z</time>
      </trkpt>
      <trkpt lat="41.984196000" lon="2.453293100">
        <ele>585.60</ele>
        <time>2012-10-14T12:25:50Z</time>
      </trkpt>
      <trkpt lat="41.984264000" lon="2.453447100">
        <ele>585.60</ele>
        <time>2012-10-14T12:25:57Z</time>
      </trkpt>
      <trkpt lat="41.984295000" lon="2.453558100">
        <ele>586.10</ele>
        <time>2012-10-14T12:26:04Z</time>
      </trkpt>
      <trkpt lat="41.984337000" lon="2.453682100">
        <ele>586.50</ele>
        <time>2012-10-14T12:26:11Z</time>
      </trkpt>
      <trkpt lat="41.984364000" lon="2.453789100">
        <ele>588.00</ele>
        <time>2012-10-14T12:26:18Z</time>
      </trkpt>
      <trkpt lat="41.984421000" lon="2.453904100">
        <ele>589.00</ele>
        <time>2012-10-14T12:26:27Z</time>
      </trkpt>
      <trkpt lat="41.984531000" lon="2.454015100">
        <ele>589.90</ele>
        <time>2012-10-14T12:26:34Z</time>
      </trkpt>
      <trkpt lat="41.984589000" lon="2.454057100">
        <ele>590.40</ele>
        <time>2012-10-14T12:26:41Z</time>
      </trkpt>
      <trkpt lat="41.984684000" lon="2.454139100">
        <ele>590.90</ele>
        <time>2012-10-14T12:26:48Z</time>
      </trkpt>
      <trkpt lat="41.984722000" lon="2.454205100">
        <ele>591.30</ele>
        <time>2012-10-14T12:26:53Z</time>
      </trkpt>
      <trkpt lat="41.984749000" lon="2.454261100">
        <ele>591.80</ele>
        <time>2012-10-14T12:26:58Z</time>
      </trkpt>
      <trkpt lat="41.984840000" lon="2.454434100">
        <ele>593.30</ele>
        <time>2012-10-14T12:27:07Z</time>
      </trkpt>
      <trkpt lat="41.984913000" lon="2.454583100">
        <ele>593.80</ele>
        <time>2012-10-14T12:27:16Z</time>
      </trkpt>
      <trkpt lat="41.984947000" lon="2.454694100">
        <ele>594.70</ele>
        <time>2012-10-14T12:27:23Z</time>
      </trkpt>
      <trkpt lat="41.984955000" lon="2.454740100">
        <ele>595.20</ele>
        <time>2012-10-14T12:27:26Z</time>
      </trkpt>
      <trkpt lat="41.985012000" lon="2.454818100">
        <ele>595.70</ele>
        <time>2012-10-14T12:27:33Z</time>
      </trkpt>
      <trkpt lat="41.985023000" lon="2.454731100">
        <ele>596.20</ele>
        <time>2012-10-14T12:27:38Z</time>
      </trkpt>
      <trkpt lat="41.984982000" lon="2.454565100">
        <ele>597.10</ele>
        <time>2012-10-14T12:27:49Z</time>
      </trkpt>
      <trkpt lat="41.984974000" lon="2.454513100">
        <ele>598.10</ele>
        <time>2012-10-14T12:27:54Z</time>
      </trkpt>
      <trkpt lat="41.984951000" lon="2.454395100">
        <ele>599.50</ele>
        <time>2012-10-14T12:28:01Z</time>
      </trkpt>
      <trkpt lat="41.984943000" lon="2.454366100">
        <ele>600.00</ele>
        <time>2012-10-14T12:28:03Z</time>
      </trkpt>
      <trkpt lat="41.984898000" lon="2.454193100">
        <ele>601.00</ele>
        <time>2012-10-14T12:28:13Z</time>
      </trkpt>
      <trkpt lat="41.984814000" lon="2.454074100">
        <ele>601.90</ele>
        <time>2012-10-14T12:28:22Z</time>
      </trkpt>
      <trkpt lat="41.984726000" lon="2.453948100">
        <ele>602.90</ele>
        <time>2012-10-14T12:28:31Z</time>
      </trkpt>
      <trkpt lat="41.984680000" lon="2.453866100">
        <ele>603.40</ele>
        <time>2012-10-14T12:28:38Z</time>
      </trkpt>
      <trkpt lat="41.984673000" lon="2.453838100">
        <ele>604.30</ele>
        <time>2012-10-14T12:28:39Z</time>
      </trkpt>
      <trkpt lat="41.984676000" lon="2.453782100">
        <ele>603.80</ele>
        <time>2012-10-14T12:28:43Z</time>
      </trkpt>
      <trkpt lat="41.984657000" lon="2.453592100">
        <ele>605.80</ele>
        <time>2012-10-14T12:28:53Z</time>
      </trkpt>
      <trkpt lat="41.984653000" lon="2.453535100">
        <ele>605.80</ele>
        <time>2012-10-14T12:28:55Z</time>
      </trkpt>
      <trkpt lat="41.984650000" lon="2.453354100">
        <ele>606.70</ele>
        <time>2012-10-14T12:29:06Z</time>
      </trkpt>
      <trkpt lat="41.984642000" lon="2.453299100">
        <ele>607.20</ele>
        <time>2012-10-14T12:29:09Z</time>
      </trkpt>
      <trkpt lat="41.984642000" lon="2.453268100">
        <ele>607.20</ele>
        <time>2012-10-14T12:29:11Z</time>
      </trkpt>
      <trkpt lat="41.984623000" lon="2.453168100">
        <ele>607.70</ele>
        <time>2012-10-14T12:29:16Z</time>
      </trkpt>
      <trkpt lat="41.984566000" lon="2.453054100">
        <ele>608.70</ele>
        <time>2012-10-14T12:29:25Z</time>
      </trkpt>
      <trkpt lat="41.984501000" lon="2.452954100">
        <ele>609.60</ele>
        <time>2012-10-14T12:29:32Z</time>
      </trkpt>
      <trkpt lat="41.984455000" lon="2.452838100">
        <ele>610.10</ele>
        <time>2012-10-14T12:29:39Z</time>
      </trkpt>
      <trkpt lat="41.984451000" lon="2.452821100">
        <ele>610.10</ele>
        <time>2012-10-14T12:29:40Z</time>
      </trkpt>
      <trkpt lat="41.984436000" lon="2.452738100">
        <ele>610.60</ele>
        <time>2012-10-14T12:29:44Z</time>
      </trkpt>
      <trkpt lat="41.984428000" lon="2.452599100">
        <ele>611.10</ele>
        <time>2012-10-14T12:29:51Z</time>
      </trkpt>
      <trkpt lat="41.984421000" lon="2.452447100">
        <ele>612.00</ele>
        <time>2012-10-14T12:30:00Z</time>
      </trkpt>
      <trkpt lat="41.984417000" lon="2.452427100">
        <ele>612.00</ele>
        <time>2012-10-14T12:30:01Z</time>
      </trkpt>
      <trkpt lat="41.984386000" lon="2.452266100">
        <ele>613.00</ele>
        <time>2012-10-14T12:30:10Z</time>
      </trkpt>
      <trkpt lat="41.984386000" lon="2.452257100">
        <ele>613.00</ele>
        <time>2012-10-14T12:30:12Z</time>
      </trkpt>
      <trkpt lat="41.984375000" lon="2.452242100">
        <ele>613.00</ele>
        <time>2012-10-14T12:30:12Z</time>
      </trkpt>
      <trkpt lat="41.984291000" lon="2.452056100">
        <ele>613.90</ele>
        <time>2012-10-14T12:30:20Z</time>
      </trkpt>
      <trkpt lat="41.984249000" lon="2.451903100">
        <ele>614.90</ele>
        <time>2012-10-14T12:30:29Z</time>
      </trkpt>
      <trkpt lat="41.984184000" lon="2.451827100">
        <ele>616.30</ele>
        <time>2012-10-14T12:30:36Z</time>
      </trkpt>
      <trkpt lat="41.984085000" lon="2.451745100">
        <ele>617.30</ele>
        <time>2012-10-14T12:30:43Z</time>
      </trkpt>
      <trkpt lat="41.983955000" lon="2.451635100">
        <ele>619.20</ele>
        <time>2012-10-14T12:30:52Z</time>
      </trkpt>
      <trkpt lat="41.983875000" lon="2.451482100">
        <ele>620.20</ele>
        <time>2012-10-14T12:30:59Z</time>
      </trkpt>
      <trkpt lat="41.983822000" lon="2.451351100">
        <ele>620.20</ele>
        <time>2012-10-14T12:31:06Z</time>
      </trkpt>
      <trkpt lat="41.983753000" lon="2.451217100">
        <ele>620.20</ele>
        <time>2012-10-14T12:31:13Z</time>
      </trkpt>
      <trkpt lat="41.983707000" lon="2.451137100">
        <ele>620.70</ele>
        <time>2012-10-14T12:31:18Z</time>
      </trkpt>
      <trkpt lat="41.983662000" lon="2.451067100">
        <ele>620.70</ele>
        <time>2012-10-14T12:31:23Z</time>
      </trkpt>
      <trkpt lat="41.983551000" lon="2.450909100">
        <ele>621.60</ele>
        <time>2012-10-14T12:31:32Z</time>
      </trkpt>
      <trkpt lat="41.983440000" lon="2.450758100">
        <ele>622.60</ele>
        <time>2012-10-14T12:31:42Z</time>
      </trkpt>
      <trkpt lat="41.983395000" lon="2.450623100">
        <ele>624.00</ele>
        <time>2012-10-14T12:31:49Z</time>
      </trkpt>
      <trkpt lat="41.983387000" lon="2.450493100">
        <ele>625.00</ele>
        <time>2012-10-14T12:31:56Z</time>
      </trkpt>
      <trkpt lat="41.983364000" lon="2.450343100">
        <ele>626.00</ele>
        <time>2012-10-14T12:32:05Z</time>
      </trkpt>
      <trkpt lat="41.983360000" lon="2.450268100">
        <ele>626.40</ele>
        <time>2012-10-14T12:32:10Z</time>
      </trkpt>
      <trkpt lat="41.983383000" lon="2.450186100">
        <ele>627.40</ele>
        <time>2012-10-14T12:32:14Z</time>
      </trkpt>
      <trkpt lat="41.983421000" lon="2.449973100">
        <ele>629.30</ele>
        <time>2012-10-14T12:32:26Z</time>
      </trkpt>
      <trkpt lat="41.983475000" lon="2.449869100">
        <ele>629.80</ele>
        <time>2012-10-14T12:32:33Z</time>
      </trkpt>
      <trkpt lat="41.983562000" lon="2.449874100">
        <ele>630.30</ele>
        <time>2012-10-14T12:32:38Z</time>
      </trkpt>
      <trkpt lat="41.983631000" lon="2.449842100">
        <ele>630.80</ele>
        <time>2012-10-14T12:32:45Z</time>
      </trkpt>
      <trkpt lat="41.983658000" lon="2.449743100">
        <ele>630.80</ele>
        <time>2012-10-14T12:32:50Z</time>
      </trkpt>
      <trkpt lat="41.983658000" lon="2.449684100">
        <ele>631.20</ele>
        <time>2012-10-14T12:32:54Z</time>
      </trkpt>
      <trkpt lat="41.983685000" lon="2.449545100">
        <ele>632.20</ele>
        <time>2012-10-14T12:33:01Z</time>
      </trkpt>
      <trkpt lat="41.983723000" lon="2.449390100">
        <ele>633.20</ele>
        <time>2012-10-14T12:33:09Z</time>
      </trkpt>
      <trkpt lat="41.983734000" lon="2.449243100">
        <ele>633.70</ele>
        <time>2012-10-14T12:33:18Z</time>
      </trkpt>
      <trkpt lat="41.983753000" lon="2.449084100">
        <ele>635.10</ele>
        <time>2012-10-14T12:33:25Z</time>
      </trkpt>
      <trkpt lat="41.983761000" lon="2.448931100">
        <ele>636.00</ele>
        <time>2012-10-14T12:33:32Z</time>
      </trkpt>
      <trkpt lat="41.983772000" lon="2.448802100">
        <ele>637.00</ele>
        <time>2012-10-14T12:33:39Z</time>
      </trkpt>
      <trkpt lat="41.983784000" lon="2.448713100">
        <ele>638.00</ele>
        <time>2012-10-14T12:33:44Z</time>
      </trkpt>
      <trkpt lat="41.983807000" lon="2.448595100">
        <ele>638.50</ele>
        <time>2012-10-14T12:33:51Z</time>
      </trkpt>
      <trkpt lat="41.983822000" lon="2.448505100">
        <ele>639.40</ele>
        <time>2012-10-14T12:33:55Z</time>
      </trkpt>
      <trkpt lat="41.983826000" lon="2.448441100">
        <ele>639.40</ele>
        <time>2012-10-14T12:33:58Z</time>
      </trkpt>
      <trkpt lat="41.983818000" lon="2.448245100">
        <ele>640.90</ele>
        <time>2012-10-14T12:34:09Z</time>
      </trkpt>
      <trkpt lat="41.983837000" lon="2.448103100">
        <ele>642.80</ele>
        <time>2012-10-14T12:34:17Z</time>
      </trkpt>
      <trkpt lat="41.983784000" lon="2.447989100">
        <ele>644.20</ele>
        <time>2012-10-14T12:34:26Z</time>
      </trkpt>
      <trkpt lat="41.983757000" lon="2.447912100">
        <ele>645.20</ele>
        <time>2012-10-14T12:34:30Z</time>
      </trkpt>
      <trkpt lat="41.983772000" lon="2.447813100">
        <ele>646.10</ele>
        <time>2012-10-14T12:34:35Z</time>
      </trkpt>
      <trkpt lat="41.983810000" lon="2.447787100">
        <ele>646.60</ele>
        <time>2012-10-14T12:34:40Z</time>
      </trkpt>
      <trkpt lat="41.983891000" lon="2.447846100">
        <ele>647.60</ele>
        <time>2012-10-14T12:34:49Z</time>
      </trkpt>
      <trkpt lat="41.983948000" lon="2.447947100">
        <ele>648.50</ele>
        <time>2012-10-14T12:34:57Z</time>
      </trkpt>
      <trkpt lat="41.984032000" lon="2.448176100">
        <ele>651.40</ele>
        <time>2012-10-14T12:35:13Z</time>
      </trkpt>
      <trkpt lat="41.984074000" lon="2.448358100">
        <ele>652.40</ele>
        <time>2012-10-14T12:35:22Z</time>
      </trkpt>
      <trkpt lat="41.984100000" lon="2.448548100">
        <ele>653.80</ele>
        <time>2012-10-14T12:35:32Z</time>
      </trkpt>
      <trkpt lat="41.984131000" lon="2.448663100">
        <ele>654.30</ele>
        <time>2012-10-14T12:35:37Z</time>
      </trkpt>
      <trkpt lat="41.984131000" lon="2.448802100">
        <ele>654.80</ele>
        <time>2012-10-14T12:35:43Z</time>
      </trkpt>
      <trkpt lat="41.984127000" lon="2.449037100">
        <ele>655.30</ele>
        <time>2012-10-14T12:35:53Z</time>
      </trkpt>
      <trkpt lat="41.984119000" lon="2.449196100">
        <ele>655.80</ele>
        <time>2012-10-14T12:36:00Z</time>
      </trkpt>
      <trkpt lat="41.984154000" lon="2.449429100">
        <ele>656.70</ele>
        <time>2012-10-14T12:36:09Z</time>
      </trkpt>
      <trkpt lat="41.984158000" lon="2.449475100">
        <ele>656.70</ele>
        <time>2012-10-14T12:36:12Z</time>
      </trkpt>
      <trkpt lat="41.984180000" lon="2.449539100">
        <ele>657.20</ele>
        <time>2012-10-14T12:36:14Z</time>
      </trkpt>
      <trkpt lat="41.984234000" lon="2.449708100">
        <ele>658.20</ele>
        <time>2012-10-14T12:36:23Z</time>
      </trkpt>
      <trkpt lat="41.984257000" lon="2.449766100">
        <ele>658.20</ele>
        <time>2012-10-14T12:36:26Z</time>
      </trkpt>
      <trkpt lat="41.984341000" lon="2.449917100">
        <ele>658.60</ele>
        <time>2012-10-14T12:36:35Z</time>
      </trkpt>
      <trkpt lat="41.984406000" lon="2.450070100">
        <ele>658.60</ele>
        <time>2012-10-14T12:36:42Z</time>
      </trkpt>
      <trkpt lat="41.984459000" lon="2.450255100">
        <ele>659.60</ele>
        <time>2012-10-14T12:36:52Z</time>
      </trkpt>
      <trkpt lat="41.984512000" lon="2.450434100">
        <ele>661.00</ele>
        <time>2012-10-14T12:37:01Z</time>
      </trkpt>
      <trkpt lat="41.984554000" lon="2.450562100">
        <ele>662.50</ele>
        <time>2012-10-14T12:37:10Z</time>
      </trkpt>
      <trkpt lat="41.984577000" lon="2.450614100">
        <ele>663.00</ele>
        <time>2012-10-14T12:37:13Z</time>
      </trkpt>
      <trkpt lat="41.984657000" lon="2.450691100">
        <ele>664.90</ele>
        <time>2012-10-14T12:37:22Z</time>
      </trkpt>
      <trkpt lat="41.984776000" lon="2.450712100">
        <ele>665.80</ele>
        <time>2012-10-14T12:37:31Z</time>
      </trkpt>
      <trkpt lat="41.984867000" lon="2.450751100">
        <ele>666.30</ele>
        <time>2012-10-14T12:37:38Z</time>
      </trkpt>
      <trkpt lat="41.984966000" lon="2.450844100">
        <ele>667.30</ele>
        <time>2012-10-14T12:37:46Z</time>
      </trkpt>
      <trkpt lat="41.985016000" lon="2.450938100">
        <ele>667.80</ele>
        <time>2012-10-14T12:37:53Z</time>
      </trkpt>
      <trkpt lat="41.985073000" lon="2.451122100">
        <ele>669.20</ele>
        <time>2012-10-14T12:38:04Z</time>
      </trkpt>
      <trkpt lat="41.985100000" lon="2.451226100">
        <ele>669.70</ele>
        <time>2012-10-14T12:38:09Z</time>
      </trkpt>
      <trkpt lat="41.985153000" lon="2.451344100">
        <ele>670.70</ele>
        <time>2012-10-14T12:38:18Z</time>
      </trkpt>
      <trkpt lat="41.985222000" lon="2.451483100">
        <ele>671.60</ele>
        <time>2012-10-14T12:38:26Z</time>
      </trkpt>
      <trkpt lat="41.985283000" lon="2.451569100">
        <ele>672.10</ele>
        <time>2012-10-14T12:38:33Z</time>
      </trkpt>
      <trkpt lat="41.985336000" lon="2.451619100">
        <ele>672.60</ele>
        <time>2012-10-14T12:38:37Z</time>
      </trkpt>
      <trkpt lat="41.985474000" lon="2.451742100">
        <ele>674.00</ele>
        <time>2012-10-14T12:38:47Z</time>
      </trkpt>
      <trkpt lat="41.985565000" lon="2.451827100">
        <ele>675.00</ele>
        <time>2012-10-14T12:38:54Z</time>
      </trkpt>
      <trkpt lat="41.985649000" lon="2.451949100">
        <ele>675.90</ele>
        <time>2012-10-14T12:39:03Z</time>
      </trkpt>
      <trkpt lat="41.985691000" lon="2.451992100">
        <ele>676.40</ele>
        <time>2012-10-14T12:39:06Z</time>
      </trkpt>
      <trkpt lat="41.985748000" lon="2.452024100">
        <ele>677.40</ele>
        <time>2012-10-14T12:39:10Z</time>
      </trkpt>
      <trkpt lat="41.985806000" lon="2.452114100">
        <ele>678.30</ele>
        <time>2012-10-14T12:39:17Z</time>
      </trkpt>
      <trkpt lat="41.985859000" lon="2.452163100">
        <ele>678.80</ele>
        <time>2012-10-14T12:39:22Z</time>
      </trkpt>
      <trkpt lat="41.985985000" lon="2.452181100">
        <ele>680.30</ele>
        <time>2012-10-14T12:39:31Z</time>
      </trkpt>
      <trkpt lat="41.986019000" lon="2.452188100">
        <ele>680.80</ele>
        <time>2012-10-14T12:39:34Z</time>
      </trkpt>
      <trkpt lat="41.986046000" lon="2.452200100">
        <ele>680.80</ele>
        <time>2012-10-14T12:39:36Z</time>
      </trkpt>
      <trkpt lat="41.986092000" lon="2.452204100">
        <ele>681.20</ele>
        <time>2012-10-14T12:39:38Z</time>
      </trkpt>
      <trkpt lat="41.986217000" lon="2.452309100">
        <ele>682.20</ele>
        <time>2012-10-14T12:39:48Z</time>
      </trkpt>
      <trkpt lat="41.986252000" lon="2.452459100">
        <ele>683.60</ele>
        <time>2012-10-14T12:39:55Z</time>
      </trkpt>
      <trkpt lat="41.986229000" lon="2.452611100">
        <ele>685.10</ele>
        <time>2012-10-14T12:40:04Z</time>
      </trkpt>
      <trkpt lat="41.986221000" lon="2.452647100">
        <ele>685.60</ele>
        <time>2012-10-14T12:40:06Z</time>
      </trkpt>
      <trkpt lat="41.986267000" lon="2.452838100">
        <ele>687.50</ele>
        <time>2012-10-14T12:40:16Z</time>
      </trkpt>
      <trkpt lat="41.986332000" lon="2.452945100">
        <ele>688.90</ele>
        <time>2012-10-14T12:40:25Z</time>
      </trkpt>
      <trkpt lat="41.986408000" lon="2.453028100">
        <ele>689.90</ele>
        <time>2012-10-14T12:40:32Z</time>
      </trkpt>
      <trkpt lat="41.986496000" lon="2.453147100">
        <ele>691.30</ele>
        <time>2012-10-14T12:40:39Z</time>
      </trkpt>
      <trkpt lat="41.986576000" lon="2.453270100">
        <ele>692.30</ele>
        <time>2012-10-14T12:40:48Z</time>
      </trkpt>
      <trkpt lat="41.986599000" lon="2.453309100">
        <ele>692.80</ele>
        <time>2012-10-14T12:40:49Z</time>
      </trkpt>
      <trkpt lat="41.986652000" lon="2.453498100">
        <ele>693.70</ele>
        <time>2012-10-14T12:41:00Z</time>
      </trkpt>
      <trkpt lat="41.986660000" lon="2.453644100">
        <ele>695.20</ele>
        <time>2012-10-14T12:41:08Z</time>
      </trkpt>
      <trkpt lat="41.986664000" lon="2.453844100">
        <ele>696.60</ele>
        <time>2012-10-14T12:41:19Z</time>
      </trkpt>
      <trkpt lat="41.986694000" lon="2.453967100">
        <ele>698.00</ele>
        <time>2012-10-14T12:41:26Z</time>
      </trkpt>
      <trkpt lat="41.986694000" lon="2.453968100">
        <ele>699.00</ele>
        <time>2012-10-14T12:41:35Z</time>
      </trkpt>
      <trkpt lat="41.986694000" lon="2.453968100">
        <ele>699.00</ele>
        <time>2012-10-14T12:41:55Z</time>
      </trkpt>
      <trkpt lat="41.986698000" lon="2.453971100">
        <ele>699.50</ele>
        <time>2012-10-14T12:42:13Z</time>
      </trkpt>
      <trkpt lat="41.986721000" lon="2.454065100">
        <ele>699.50</ele>
        <time>2012-10-14T12:42:51Z</time>
      </trkpt>
      <trkpt lat="41.986778000" lon="2.454225100">
        <ele>699.50</ele>
        <time>2012-10-14T12:43:00Z</time>
      </trkpt>
      <trkpt lat="41.986801000" lon="2.454300100">
        <ele>700.00</ele>
        <time>2012-10-14T12:43:05Z</time>
      </trkpt>
      <trkpt lat="41.986809000" lon="2.454341100">
        <ele>700.50</ele>
        <time>2012-10-14T12:43:12Z</time>
      </trkpt>
      <trkpt lat="41.986809000" lon="2.454341100">
        <ele>700.50</ele>
        <time>2012-10-14T12:43:26Z</time>
      </trkpt>
      <trkpt lat="41.986809000" lon="2.454346100">
        <ele>701.40</ele>
        <time>2012-10-14T12:44:37Z</time>
      </trkpt>
      <trkpt lat="41.986809000" lon="2.454346100">
        <ele>701.40</ele>
        <time>2012-10-14T12:44:50Z</time>
      </trkpt>
      <trkpt lat="41.986809000" lon="2.454346100">
        <ele>701.40</ele>
        <time>2012-10-14T12:45:00Z</time>
      </trkpt>
      <trkpt lat="41.986805000" lon="2.454349100">
        <ele>701.90</ele>
        <time>2012-10-14T12:45:21Z</time>
      </trkpt>
      <trkpt lat="41.986805000" lon="2.454346100">
        <ele>701.90</ele>
        <time>2012-10-14T12:45:54Z</time>
      </trkpt>
      <trkpt lat="41.986809000" lon="2.454347100">
        <ele>701.90</ele>
        <time>2012-10-14T12:46:41Z</time>
      </trkpt>
      <trkpt lat="41.986942000" lon="2.454535100">
        <ele>701.90</ele>
        <time>2012-10-14T12:47:09Z</time>
      </trkpt>
      <trkpt lat="41.987061000" lon="2.454694100">
        <ele>701.90</ele>
        <time>2012-10-14T12:47:14Z</time>
      </trkpt>
      <trkpt lat="41.987221000" lon="2.454964100">
        <ele>701.90</ele>
        <time>2012-10-14T12:47:23Z</time>
      </trkpt>
      <trkpt lat="41.987335000" lon="2.455205100">
        <ele>701.90</ele>
        <time>2012-10-14T12:47:30Z</time>
      </trkpt>
      <trkpt lat="41.987507000" lon="2.455464100">
        <ele>701.90</ele>
        <time>2012-10-14T12:47:39Z</time>
      </trkpt>
      <trkpt lat="41.987610000" lon="2.455625100">
        <ele>702.40</ele>
        <time>2012-10-14T12:47:44Z</time>
      </trkpt>
      <trkpt lat="41.987732000" lon="2.455817100">
        <ele>702.90</ele>
        <time>2012-10-14T12:47:51Z</time>
      </trkpt>
      <trkpt lat="41.987919000" lon="2.456124100">
        <ele>704.30</ele>
        <time>2012-10-14T12:48:03Z</time>
      </trkpt>
      <trkpt lat="41.988049000" lon="2.456303100">
        <ele>705.80</ele>
        <time>2012-10-14T12:48:10Z</time>
      </trkpt>
      <trkpt lat="41.988174000" lon="2.456492100">
        <ele>707.20</ele>
        <time>2012-10-14T12:48:19Z</time>
      </trkpt>
      <trkpt lat="41.988270000" lon="2.456657100">
        <ele>708.20</ele>
        <time>2012-10-14T12:48:27Z</time>
      </trkpt>
      <trkpt lat="41.988400000" lon="2.456901100">
        <ele>709.60</ele>
        <time>2012-10-14T12:48:38Z</time>
      </trkpt>
      <trkpt lat="41.988499000" lon="2.457042100">
        <ele>711.00</ele>
        <time>2012-10-14T12:48:45Z</time>
      </trkpt>
      <trkpt lat="41.988590000" lon="2.457086100">
        <ele>711.50</ele>
        <time>2012-10-14T12:48:50Z</time>
      </trkpt>
      <trkpt lat="41.988724000" lon="2.457224100">
        <ele>713.00</ele>
        <time>2012-10-14T12:49:00Z</time>
      </trkpt>
      <trkpt lat="41.988815000" lon="2.457425100">
        <ele>714.40</ele>
        <time>2012-10-14T12:49:11Z</time>
      </trkpt>
      <trkpt lat="41.988838000" lon="2.457598100">
        <ele>716.30</ele>
        <time>2012-10-14T12:49:20Z</time>
      </trkpt>
      <trkpt lat="41.988827000" lon="2.457757100">
        <ele>717.80</ele>
        <time>2012-10-14T12:49:28Z</time>
      </trkpt>
      <trkpt lat="41.988823000" lon="2.457901100">
        <ele>719.20</ele>
        <time>2012-10-14T12:49:37Z</time>
      </trkpt>
      <trkpt lat="41.988907000" lon="2.458101100">
        <ele>721.10</ele>
        <time>2012-10-14T12:49:49Z</time>
      </trkpt>
      <trkpt lat="41.989014000" lon="2.458163100">
        <ele>722.10</ele>
        <time>2012-10-14T12:49:56Z</time>
      </trkpt>
      <trkpt lat="41.989143000" lon="2.458167100">
        <ele>723.50</ele>
        <time>2012-10-14T12:50:05Z</time>
      </trkpt>
      <trkpt lat="41.989155000" lon="2.458171100">
        <ele>724.00</ele>
        <time>2012-10-14T12:50:05Z</time>
      </trkpt>
      <trkpt lat="41.989227000" lon="2.458176100">
        <ele>724.50</ele>
        <time>2012-10-14T12:50:10Z</time>
      </trkpt>
      <trkpt lat="41.989311000" lon="2.458210100">
        <ele>725.50</ele>
        <time>2012-10-14T12:50:17Z</time>
      </trkpt>
      <trkpt lat="41.989353000" lon="2.458376100">
        <ele>726.90</ele>
        <time>2012-10-14T12:50:26Z</time>
      </trkpt>
      <trkpt lat="41.989433000" lon="2.458554100">
        <ele>727.90</ele>
        <time>2012-10-14T12:50:35Z</time>
      </trkpt>
      <trkpt lat="41.989529000" lon="2.458696100">
        <ele>729.30</ele>
        <time>2012-10-14T12:50:45Z</time>
      </trkpt>
      <trkpt lat="41.989536000" lon="2.458710100">
        <ele>729.30</ele>
        <time>2012-10-14T12:50:45Z</time>
      </trkpt>
      <trkpt lat="41.989624000" lon="2.458826100">
        <ele>731.20</ele>
        <time>2012-10-14T12:50:54Z</time>
      </trkpt>
      <trkpt lat="41.989681000" lon="2.459027100">
        <ele>732.70</ele>
        <time>2012-10-14T12:51:04Z</time>
      </trkpt>
      <trkpt lat="41.989704000" lon="2.459109100">
        <ele>733.10</ele>
        <time>2012-10-14T12:51:09Z</time>
      </trkpt>
      <trkpt lat="41.989723000" lon="2.459147100">
        <ele>734.10</ele>
        <time>2012-10-14T12:51:11Z</time>
      </trkpt>
      <trkpt lat="41.989792000" lon="2.459239100">
        <ele>734.10</ele>
        <time>2012-10-14T12:51:16Z</time>
      </trkpt>
      <trkpt lat="41.989929000" lon="2.459257100">
        <ele>735.50</ele>
        <time>2012-10-14T12:51:25Z</time>
      </trkpt>
      <trkpt lat="41.990013000" lon="2.459316100">
        <ele>736.00</ele>
        <time>2012-10-14T12:51:30Z</time>
      </trkpt>
      <trkpt lat="41.990028000" lon="2.459349100">
        <ele>736.50</ele>
        <time>2012-10-14T12:51:32Z</time>
      </trkpt>
      <trkpt lat="41.990128000" lon="2.459357100">
        <ele>736.50</ele>
        <time>2012-10-14T12:51:39Z</time>
      </trkpt>
      <trkpt lat="41.990181000" lon="2.459399100">
        <ele>736.50</ele>
        <time>2012-10-14T12:51:41Z</time>
      </trkpt>
      <trkpt lat="41.990253000" lon="2.459491100">
        <ele>736.50</ele>
        <time>2012-10-14T12:51:48Z</time>
      </trkpt>
      <trkpt lat="41.990402000" lon="2.459629100">
        <ele>737.00</ele>
        <time>2012-10-14T12:51:58Z</time>
      </trkpt>
      <trkpt lat="41.990505000" lon="2.459757100">
        <ele>737.00</ele>
        <time>2012-10-14T12:52:07Z</time>
      </trkpt>
      <trkpt lat="41.990570000" lon="2.459901100">
        <ele>737.00</ele>
        <time>2012-10-14T12:52:14Z</time>
      </trkpt>
      <trkpt lat="41.990639000" lon="2.460068100">
        <ele>737.50</ele>
        <time>2012-10-14T12:52:23Z</time>
      </trkpt>
      <trkpt lat="41.990730000" lon="2.460259100">
        <ele>737.50</ele>
        <time>2012-10-14T12:52:31Z</time>
      </trkpt>
      <trkpt lat="41.990749000" lon="2.460361100">
        <ele>738.00</ele>
        <time>2012-10-14T12:52:40Z</time>
      </trkpt>
      <trkpt lat="41.990772000" lon="2.460370100">
        <ele>738.00</ele>
        <time>2012-10-14T12:52:45Z</time>
      </trkpt>
      <trkpt lat="41.990742000" lon="2.460254100">
        <ele>738.00</ele>
        <time>2012-10-14T12:52:52Z</time>
      </trkpt>
      <trkpt lat="41.990669000" lon="2.460039100">
        <ele>738.00</ele>
        <time>2012-10-14T12:53:01Z</time>
      </trkpt>
      <trkpt lat="41.990562000" lon="2.459769100">
        <ele>738.00</ele>
        <time>2012-10-14T12:53:11Z</time>
      </trkpt>
      <trkpt lat="41.990456000" lon="2.459636100">
        <ele>738.00</ele>
        <time>2012-10-14T12:53:17Z</time>
      </trkpt>
      <trkpt lat="41.990211000" lon="2.459389100">
        <ele>738.00</ele>
        <time>2012-10-14T12:53:29Z</time>
      </trkpt>
      <trkpt lat="41.990192000" lon="2.459376100">
        <ele>738.00</ele>
        <time>2012-10-14T12:53:32Z</time>
      </trkpt>
      <trkpt lat="41.990105000" lon="2.459366100">
        <ele>737.00</ele>
        <time>2012-10-14T12:53:39Z</time>
      </trkpt>
      <trkpt lat="41.990028000" lon="2.459294100">
        <ele>737.00</ele>
        <time>2012-10-14T12:53:44Z</time>
      </trkpt>
      <trkpt lat="41.989983000" lon="2.459281100">
        <ele>737.00</ele>
        <time>2012-10-14T12:53:48Z</time>
      </trkpt>
      <trkpt lat="41.989925000" lon="2.459289100">
        <ele>737.00</ele>
        <time>2012-10-14T12:53:55Z</time>
      </trkpt>
      <trkpt lat="41.989925000" lon="2.459285100">
        <ele>737.00</ele>
        <time>2012-10-14T12:54:02Z</time>
      </trkpt>
      <trkpt lat="41.989937000" lon="2.459279100">
        <ele>737.00</ele>
        <time>2012-10-14T12:54:12Z</time>
      </trkpt>
      <trkpt lat="41.989960000" lon="2.459278100">
        <ele>737.00</ele>
        <time>2012-10-14T12:55:24Z</time>
      </trkpt>
      <trkpt lat="41.989956000" lon="2.459278100">
        <ele>737.00</ele>
        <time>2012-10-14T12:55:41Z</time>
      </trkpt>
      <trkpt lat="41.989952000" lon="2.459274100">
        <ele>737.00</ele>
        <time>2012-10-14T12:56:33Z</time>
      </trkpt>
      <trkpt lat="41.989952000" lon="2.459270100">
        <ele>737.00</ele>
        <time>2012-10-14T12:57:41Z</time>
      </trkpt>
      <trkpt lat="41.989990000" lon="2.459277100">
        <ele>737.00</ele>
        <time>2012-10-14T12:57:48Z</time>
      </trkpt>
      <trkpt lat="41.990067000" lon="2.459361100">
        <ele>737.00</ele>
        <time>2012-10-14T12:57:54Z</time>
      </trkpt>
      <trkpt lat="41.990120000" lon="2.459364100">
        <ele>737.00</ele>
        <time>2012-10-14T12:57:57Z</time>
      </trkpt>
      <trkpt lat="41.990292000" lon="2.459532100">
        <ele>737.00</ele>
        <time>2012-10-14T12:58:04Z</time>
      </trkpt>
      <trkpt lat="41.990448000" lon="2.459675100">
        <ele>737.00</ele>
        <time>2012-10-14T12:58:11Z</time>
      </trkpt>
      <trkpt lat="41.990559000" lon="2.459853100">
        <ele>737.00</ele>
        <time>2012-10-14T12:58:18Z</time>
      </trkpt>
      <trkpt lat="41.990631000" lon="2.460044100">
        <ele>738.40</ele>
        <time>2012-10-14T12:58:25Z</time>
      </trkpt>
      <trkpt lat="41.990707000" lon="2.460272100">
        <ele>738.40</ele>
        <time>2012-10-14T12:58:32Z</time>
      </trkpt>
      <trkpt lat="41.990784000" lon="2.460522100">
        <ele>738.40</ele>
        <time>2012-10-14T12:58:39Z</time>
      </trkpt>
      <trkpt lat="41.990795000" lon="2.460779100">
        <ele>739.90</ele>
        <time>2012-10-14T12:58:46Z</time>
      </trkpt>
      <trkpt lat="41.990761000" lon="2.461048100">
        <ele>740.80</ele>
        <time>2012-10-14T12:58:54Z</time>
      </trkpt>
      <trkpt lat="41.990776000" lon="2.461343100">
        <ele>742.30</ele>
        <time>2012-10-14T12:59:03Z</time>
      </trkpt>
      <trkpt lat="41.990906000" lon="2.461595100">
        <ele>743.70</ele>
        <time>2012-10-14T12:59:10Z</time>
      </trkpt>
      <trkpt lat="41.991062000" lon="2.461856100">
        <ele>744.70</ele>
        <time>2012-10-14T12:59:19Z</time>
      </trkpt>
      <trkpt lat="41.991192000" lon="2.462125100">
        <ele>746.60</ele>
        <time>2012-10-14T12:59:29Z</time>
      </trkpt>
      <trkpt lat="41.991276000" lon="2.462302100">
        <ele>748.00</ele>
        <time>2012-10-14T12:59:35Z</time>
      </trkpt>
      <trkpt lat="41.991333000" lon="2.462535100">
        <ele>749.00</ele>
        <time>2012-10-14T12:59:41Z</time>
      </trkpt>
      <trkpt lat="41.991352000" lon="2.462751100">
        <ele>750.90</ele>
        <time>2012-10-14T12:59:48Z</time>
      </trkpt>
      <trkpt lat="41.991436000" lon="2.462968100">
        <ele>752.80</ele>
        <time>2012-10-14T12:59:55Z</time>
      </trkpt>
      <trkpt lat="41.991581000" lon="2.463066100">
        <ele>753.80</ele>
        <time>2012-10-14T13:00:02Z</time>
      </trkpt>
      <trkpt lat="41.991730000" lon="2.463214100">
        <ele>754.80</ele>
        <time>2012-10-14T13:00:09Z</time>
      </trkpt>
      <trkpt lat="41.991829000" lon="2.463388100">
        <ele>756.20</ele>
        <time>2012-10-14T13:00:16Z</time>
      </trkpt>
      <trkpt lat="41.991959000" lon="2.463612100">
        <ele>757.70</ele>
        <time>2012-10-14T13:00:25Z</time>
      </trkpt>
      <trkpt lat="41.992092000" lon="2.463820100">
        <ele>759.60</ele>
        <time>2012-10-14T13:00:34Z</time>
      </trkpt>
      <trkpt lat="41.992226000" lon="2.464014100">
        <ele>760.50</ele>
        <time>2012-10-14T13:00:41Z</time>
      </trkpt>
      <trkpt lat="41.992374000" lon="2.464181100">
        <ele>762.50</ele>
        <time>2012-10-14T13:00:49Z</time>
      </trkpt>
      <trkpt lat="41.992516000" lon="2.464276100">
        <ele>763.40</ele>
        <time>2012-10-14T13:00:56Z</time>
      </trkpt>
      <trkpt lat="41.992722000" lon="2.464365100">
        <ele>764.90</ele>
        <time>2012-10-14T13:01:05Z</time>
      </trkpt>
      <trkpt lat="41.992870000" lon="2.464469100">
        <ele>766.30</ele>
        <time>2012-10-14T13:01:12Z</time>
      </trkpt>
      <trkpt lat="41.993015000" lon="2.464654100">
        <ele>767.80</ele>
        <time>2012-10-14T13:01:21Z</time>
      </trkpt>
      <trkpt lat="41.993137000" lon="2.464808100">
        <ele>769.20</ele>
        <time>2012-10-14T13:01:28Z</time>
      </trkpt>
      <trkpt lat="41.993313000" lon="2.464939100">
        <ele>770.60</ele>
        <time>2012-10-14T13:01:35Z</time>
      </trkpt>
      <trkpt lat="41.993488000" lon="2.465079100">
        <ele>772.60</ele>
        <time>2012-10-14T13:01:45Z</time>
      </trkpt>
      <trkpt lat="41.993637000" lon="2.465258100">
        <ele>774.00</ele>
        <time>2012-10-14T13:01:54Z</time>
      </trkpt>
      <trkpt lat="41.993771000" lon="2.465438100">
        <ele>775.40</ele>
        <time>2012-10-14T13:02:01Z</time>
      </trkpt>
      <trkpt lat="41.993912000" lon="2.465660100">
        <ele>776.90</ele>
        <time>2012-10-14T13:02:11Z</time>
      </trkpt>
      <trkpt lat="41.994049000" lon="2.465859100">
        <ele>778.80</ele>
        <time>2012-10-14T13:02:20Z</time>
      </trkpt>
      <trkpt lat="41.994164000" lon="2.466104100">
        <ele>780.20</ele>
        <time>2012-10-14T13:02:29Z</time>
      </trkpt>
      <trkpt lat="41.994259000" lon="2.466275100">
        <ele>781.20</ele>
        <time>2012-10-14T13:02:36Z</time>
      </trkpt>
      <trkpt lat="41.994370000" lon="2.466435100">
        <ele>782.20</ele>
        <time>2012-10-14T13:02:43Z</time>
      </trkpt>
      <trkpt lat="41.994465000" lon="2.466681100">
        <ele>783.10</ele>
        <time>2012-10-14T13:02:50Z</time>
      </trkpt>
      <trkpt lat="41.994595000" lon="2.466945100">
        <ele>785.00</ele>
        <time>2012-10-14T13:03:00Z</time>
      </trkpt>
      <trkpt lat="41.994724000" lon="2.467189100">
        <ele>786.50</ele>
        <time>2012-10-14T13:03:09Z</time>
      </trkpt>
      <trkpt lat="41.994854000" lon="2.467523100">
        <ele>787.00</ele>
        <time>2012-10-14T13:03:19Z</time>
      </trkpt>
      <trkpt lat="41.994968000" lon="2.467810100">
        <ele>787.90</ele>
        <time>2012-10-14T13:03:28Z</time>
      </trkpt>
      <trkpt lat="41.995132000" lon="2.467987100">
        <ele>788.40</ele>
        <time>2012-10-14T13:03:35Z</time>
      </trkpt>
      <trkpt lat="41.995346000" lon="2.467962100">
        <ele>788.40</ele>
        <time>2012-10-14T13:03:40Z</time>
      </trkpt>
      <trkpt lat="41.995411000" lon="2.467949100">
        <ele>788.40</ele>
        <time>2012-10-14T13:03:40Z</time>
      </trkpt>
      <trkpt lat="41.995689000" lon="2.467865100">
        <ele>787.50</ele>
        <time>2012-10-14T13:03:47Z</time>
      </trkpt>
      <trkpt lat="41.995735000" lon="2.467865100">
        <ele>787.50</ele>
        <time>2012-10-14T13:03:49Z</time>
      </trkpt>
      <trkpt lat="41.995808000" lon="2.467833100">
        <ele>786.50</ele>
        <time>2012-10-14T13:03:54Z</time>
      </trkpt>
      <trkpt lat="41.995934000" lon="2.467717100">
        <ele>786.00</ele>
        <time>2012-10-14T13:04:01Z</time>
      </trkpt>
      <trkpt lat="41.996105000" lon="2.467530100">
        <ele>785.50</ele>
        <time>2012-10-14T13:04:08Z</time>
      </trkpt>
      <trkpt lat="41.996300000" lon="2.467350100">
        <ele>784.60</ele>
        <time>2012-10-14T13:04:13Z</time>
      </trkpt>
      <trkpt lat="41.996510000" lon="2.467116100">
        <ele>783.10</ele>
        <time>2012-10-14T13:04:20Z</time>
      </trkpt>
      <trkpt lat="41.996727000" lon="2.466999100">
        <ele>779.30</ele>
        <time>2012-10-14T13:04:24Z</time>
      </trkpt>
      <trkpt lat="41.996956000" lon="2.466990100">
        <ele>775.90</ele>
        <time>2012-10-14T13:04:27Z</time>
      </trkpt>
      <trkpt lat="41.997250000" lon="2.466780100">
        <ele>774.00</ele>
        <time>2012-10-14T13:04:32Z</time>
      </trkpt>
      <trkpt lat="41.997387000" lon="2.466383100">
        <ele>771.10</ele>
        <time>2012-10-14T13:04:36Z</time>
      </trkpt>
      <trkpt lat="41.997444000" lon="2.466304100">
        <ele>770.60</ele>
        <time>2012-10-14T13:04:38Z</time>
      </trkpt>
      <trkpt lat="41.997978000" lon="2.465786100">
        <ele>770.20</ele>
        <time>2012-10-14T13:04:46Z</time>
      </trkpt>
      <trkpt lat="41.998123000" lon="2.465677100">
        <ele>770.20</ele>
        <time>2012-10-14T13:04:48Z</time>
      </trkpt>
      <trkpt lat="41.998447000" lon="2.465571100">
        <ele>766.80</ele>
        <time>2012-10-14T13:04:52Z</time>
      </trkpt>
      <trkpt lat="41.998783000" lon="2.465578100">
        <ele>760.10</ele>
        <time>2012-10-14T13:04:55Z</time>
      </trkpt>
      <trkpt lat="41.998966000" lon="2.465587100">
        <ele>756.70</ele>
        <time>2012-10-14T13:04:57Z</time>
      </trkpt>
      <trkpt lat="41.999058000" lon="2.465596100">
        <ele>755.20</ele>
        <time>2012-10-14T13:04:59Z</time>
      </trkpt>
      <trkpt lat="41.999546000" lon="2.465561100">
        <ele>750.90</ele>
        <time>2012-10-14T13:05:04Z</time>
      </trkpt>
      <trkpt lat="41.999641000" lon="2.465540100">
        <ele>750.90</ele>
        <time>2012-10-14T13:05:04Z</time>
      </trkpt>
      <trkpt lat="41.999886000" lon="2.465328100">
        <ele>750.90</ele>
        <time>2012-10-14T13:05:09Z</time>
      </trkpt>
      <trkpt lat="42.000084000" lon="2.465171100">
        <ele>750.90</ele>
        <time>2012-10-14T13:05:12Z</time>
      </trkpt>
      <trkpt lat="42.000141000" lon="2.465169100">
        <ele>750.90</ele>
        <time>2012-10-14T13:05:14Z</time>
      </trkpt>
      <trkpt lat="42.000626000" lon="2.465145100">
        <ele>750.00</ele>
        <time>2012-10-14T13:05:21Z</time>
      </trkpt>
      <trkpt lat="42.001053000" lon="2.464849100">
        <ele>747.10</ele>
        <time>2012-10-14T13:05:26Z</time>
      </trkpt>
      <trkpt lat="42.001408000" lon="2.464600100">
        <ele>743.20</ele>
        <time>2012-10-14T13:05:32Z</time>
      </trkpt>
      <trkpt lat="42.001926000" lon="2.464288100">
        <ele>742.30</ele>
        <time>2012-10-14T13:05:40Z</time>
      </trkpt>
      <trkpt lat="42.002285000" lon="2.464108100">
        <ele>741.80</ele>
        <time>2012-10-14T13:05:46Z</time>
      </trkpt>
      <trkpt lat="42.002495000" lon="2.463968100">
        <ele>741.80</ele>
        <time>2012-10-14T13:05:49Z</time>
      </trkpt>
      <trkpt lat="42.002914000" lon="2.463735100">
        <ele>741.80</ele>
        <time>2012-10-14T13:05:58Z</time>
      </trkpt>
      <trkpt lat="42.003029000" lon="2.463696100">
        <ele>741.80</ele>
        <time>2012-10-14T13:06:00Z</time>
      </trkpt>
      <trkpt lat="42.003254000" lon="2.463689100">
        <ele>741.80</ele>
        <time>2012-10-14T13:06:03Z</time>
      </trkpt>
      <trkpt lat="42.003632000" lon="2.463647100">
        <ele>741.80</ele>
        <time>2012-10-14T13:06:12Z</time>
      </trkpt>
      <trkpt lat="42.003944000" lon="2.463592100">
        <ele>741.80</ele>
        <time>2012-10-14T13:06:20Z</time>
      </trkpt>
      <trkpt lat="42.004166000" lon="2.463632100">
        <ele>743.20</ele>
        <time>2012-10-14T13:06:27Z</time>
      </trkpt>
      <trkpt lat="42.004471000" lon="2.463752100">
        <ele>744.20</ele>
        <time>2012-10-14T13:06:38Z</time>
      </trkpt>
      <trkpt lat="42.004650000" lon="2.463810100">
        <ele>745.60</ele>
        <time>2012-10-14T13:06:45Z</time>
      </trkpt>
      <trkpt lat="42.004799000" lon="2.463825100">
        <ele>747.10</ele>
        <time>2012-10-14T13:06:54Z</time>
      </trkpt>
      <trkpt lat="42.004974000" lon="2.463847100">
        <ele>748.50</ele>
        <time>2012-10-14T13:07:02Z</time>
      </trkpt>
      <trkpt lat="42.005154000" lon="2.463867100">
        <ele>749.50</ele>
        <time>2012-10-14T13:07:11Z</time>
      </trkpt>
      <trkpt lat="42.005337000" lon="2.463826100">
        <ele>750.50</ele>
        <time>2012-10-14T13:07:20Z</time>
      </trkpt>
      <trkpt lat="42.005497000" lon="2.463673100">
        <ele>751.40</ele>
        <time>2012-10-14T13:07:28Z</time>
      </trkpt>
      <trkpt lat="42.005646000" lon="2.463414100">
        <ele>752.80</ele>
        <time>2012-10-14T13:07:37Z</time>
      </trkpt>
      <trkpt lat="42.005772000" lon="2.463300100">
        <ele>753.30</ele>
        <time>2012-10-14T13:07:44Z</time>
      </trkpt>
      <trkpt lat="42.005920000" lon="2.463167100">
        <ele>754.30</ele>
        <time>2012-10-14T13:07:53Z</time>
      </trkpt>
      <trkpt lat="42.006111000" lon="2.463009100">
        <ele>755.20</ele>
        <time>2012-10-14T13:08:03Z</time>
      </trkpt>
      <trkpt lat="42.006199000" lon="2.462812100">
        <ele>755.70</ele>
        <time>2012-10-14T13:08:07Z</time>
      </trkpt>
      <trkpt lat="42.006268000" lon="2.462547100">
        <ele>755.70</ele>
        <time>2012-10-14T13:08:12Z</time>
      </trkpt>
      <trkpt lat="42.006462000" lon="2.462236100">
        <ele>755.70</ele>
        <time>2012-10-14T13:08:17Z</time>
      </trkpt>
      <trkpt lat="42.006649000" lon="2.462140100">
        <ele>754.30</ele>
        <time>2012-10-14T13:08:19Z</time>
      </trkpt>
      <trkpt lat="42.006882000" lon="2.462181100">
        <ele>753.80</ele>
        <time>2012-10-14T13:08:24Z</time>
      </trkpt>
      <trkpt lat="42.007088000" lon="2.462314100">
        <ele>753.30</ele>
        <time>2012-10-14T13:08:31Z</time>
      </trkpt>
      <trkpt lat="42.007278000" lon="2.462323100">
        <ele>753.30</ele>
        <time>2012-10-14T13:08:38Z</time>
      </trkpt>
      <trkpt lat="42.007393000" lon="2.462285100">
        <ele>754.80</ele>
        <time>2012-10-14T13:08:43Z</time>
      </trkpt>
      <trkpt lat="42.007576000" lon="2.462206100">
        <ele>756.20</ele>
        <time>2012-10-14T13:08:52Z</time>
      </trkpt>
      <trkpt lat="42.007801000" lon="2.462063100">
        <ele>757.20</ele>
        <time>2012-10-14T13:08:59Z</time>
      </trkpt>
      <trkpt lat="42.007839000" lon="2.462030100">
        <ele>757.20</ele>
        <time>2012-10-14T13:08:59Z</time>
      </trkpt>
      <trkpt lat="42.007999000" lon="2.461758100">
        <ele>757.20</ele>
        <time>2012-10-14T13:09:04Z</time>
      </trkpt>
      <trkpt lat="42.008221000" lon="2.461527100">
        <ele>757.20</ele>
        <time>2012-10-14T13:09:09Z</time>
      </trkpt>
      <trkpt lat="42.008335000" lon="2.461540100">
        <ele>757.20</ele>
        <time>2012-10-14T13:09:11Z</time>
      </trkpt>
      <trkpt lat="42.008442000" lon="2.461563100">
        <ele>757.20</ele>
        <time>2012-10-14T13:09:13Z</time>
      </trkpt>
      <trkpt lat="42.008690000" lon="2.461451100">
        <ele>756.20</ele>
        <time>2012-10-14T13:09:18Z</time>
      </trkpt>
      <trkpt lat="42.008770000" lon="2.461354100">
        <ele>755.70</ele>
        <time>2012-10-14T13:09:20Z</time>
      </trkpt>
      <trkpt lat="42.009018000" lon="2.461236100">
        <ele>755.20</ele>
        <time>2012-10-14T13:09:25Z</time>
      </trkpt>
      <trkpt lat="42.009254000" lon="2.461160100">
        <ele>754.30</ele>
        <time>2012-10-14T13:09:30Z</time>
      </trkpt>
      <trkpt lat="42.009464000" lon="2.460945100">
        <ele>753.30</ele>
        <time>2012-10-14T13:09:34Z</time>
      </trkpt>
      <trkpt lat="42.009697000" lon="2.460795100">
        <ele>752.80</ele>
        <time>2012-10-14T13:09:37Z</time>
      </trkpt>
      <trkpt lat="42.009838000" lon="2.460534100">
        <ele>752.80</ele>
        <time>2012-10-14T13:09:41Z</time>
      </trkpt>
      <trkpt lat="42.009869000" lon="2.460388100">
        <ele>752.40</ele>
        <time>2012-10-14T13:09:44Z</time>
      </trkpt>
      <trkpt lat="42.009983000" lon="2.460123100">
        <ele>752.40</ele>
        <time>2012-10-14T13:09:48Z</time>
      </trkpt>
      <trkpt lat="42.010040000" lon="2.459791100">
        <ele>752.40</ele>
        <time>2012-10-14T13:09:55Z</time>
      </trkpt>
      <trkpt lat="42.010124000" lon="2.459546100">
        <ele>753.30</ele>
        <time>2012-10-14T13:10:00Z</time>
      </trkpt>
      <trkpt lat="42.010277000" lon="2.459532100">
        <ele>753.30</ele>
        <time>2012-10-14T13:10:05Z</time>
      </trkpt>
      <trkpt lat="42.010639000" lon="2.459795100">
        <ele>753.30</ele>
        <time>2012-10-14T13:10:16Z</time>
      </trkpt>
      <trkpt lat="42.010738000" lon="2.459855100">
        <ele>753.30</ele>
        <time>2012-10-14T13:10:17Z</time>
      </trkpt>
      <trkpt lat="42.010914000" lon="2.459934100">
        <ele>753.30</ele>
        <time>2012-10-14T13:10:21Z</time>
      </trkpt>
      <trkpt lat="42.011059000" lon="2.460069100">
        <ele>753.30</ele>
        <time>2012-10-14T13:10:24Z</time>
      </trkpt>
      <trkpt lat="42.011349000" lon="2.460233100">
        <ele>750.00</ele>
        <time>2012-10-14T13:10:28Z</time>
      </trkpt>
      <trkpt lat="42.011398000" lon="2.460280100">
        <ele>749.00</ele>
        <time>2012-10-14T13:10:29Z</time>
      </trkpt>
      <trkpt lat="42.011490000" lon="2.460378100">
        <ele>746.10</ele>
        <time>2012-10-14T13:10:31Z</time>
      </trkpt>
      <trkpt lat="42.011780000" lon="2.460410100">
        <ele>741.80</ele>
        <time>2012-10-14T13:10:36Z</time>
      </trkpt>
      <trkpt lat="42.011837000" lon="2.460391100">
        <ele>742.30</ele>
        <time>2012-10-14T13:10:38Z</time>
      </trkpt>
      <trkpt lat="42.011948000" lon="2.460349100">
        <ele>742.30</ele>
        <time>2012-10-14T13:10:40Z</time>
      </trkpt>
      <trkpt lat="42.012142000" lon="2.460328100">
        <ele>744.70</ele>
        <time>2012-10-14T13:10:43Z</time>
      </trkpt>
      <trkpt lat="42.012390000" lon="2.460285100">
        <ele>746.10</ele>
        <time>2012-10-14T13:10:49Z</time>
      </trkpt>
      <trkpt lat="42.012585000" lon="2.460258100">
        <ele>745.60</ele>
        <time>2012-10-14T13:10:52Z</time>
      </trkpt>
      <trkpt lat="42.012764000" lon="2.460017100">
        <ele>744.70</ele>
        <time>2012-10-14T13:10:57Z</time>
      </trkpt>
      <trkpt lat="42.012894000" lon="2.459993100">
        <ele>744.70</ele>
        <time>2012-10-14T13:11:01Z</time>
      </trkpt>
      <trkpt lat="42.012970000" lon="2.460122100">
        <ele>744.70</ele>
        <time>2012-10-14T13:11:04Z</time>
      </trkpt>
      <trkpt lat="42.012997000" lon="2.460409100">
        <ele>744.70</ele>
        <time>2012-10-14T13:11:11Z</time>
      </trkpt>
      <trkpt lat="42.012886000" lon="2.460595100">
        <ele>746.10</ele>
        <time>2012-10-14T13:11:18Z</time>
      </trkpt>
      <trkpt lat="42.012695000" lon="2.460815100">
        <ele>746.60</ele>
        <time>2012-10-14T13:11:25Z</time>
      </trkpt>
      <trkpt lat="42.012478000" lon="2.461126100">
        <ele>746.60</ele>
        <time>2012-10-14T13:11:30Z</time>
      </trkpt>
      <trkpt lat="42.012295000" lon="2.461483100">
        <ele>745.20</ele>
        <time>2012-10-14T13:11:36Z</time>
      </trkpt>
      <trkpt lat="42.012272000" lon="2.461766100">
        <ele>744.20</ele>
        <time>2012-10-14T13:11:41Z</time>
      </trkpt>
      <trkpt lat="42.012173000" lon="2.461877100">
        <ele>741.30</ele>
        <time>2012-10-14T13:11:44Z</time>
      </trkpt>
      <trkpt lat="42.012028000" lon="2.462017100">
        <ele>739.90</ele>
        <time>2012-10-14T13:11:48Z</time>
      </trkpt>
      <trkpt lat="42.012054000" lon="2.462168100">
        <ele>739.40</ele>
        <time>2012-10-14T13:11:51Z</time>
      </trkpt>
      <trkpt lat="42.012077000" lon="2.462209100">
        <ele>739.40</ele>
        <time>2012-10-14T13:11:53Z</time>
      </trkpt>
      <trkpt lat="42.012127000" lon="2.462283100">
        <ele>739.40</ele>
        <time>2012-10-14T13:11:55Z</time>
      </trkpt>
      <trkpt lat="42.012089000" lon="2.462477100">
        <ele>739.40</ele>
        <time>2012-10-14T13:11:58Z</time>
      </trkpt>
      <trkpt lat="42.011921000" lon="2.462457100">
        <ele>739.40</ele>
        <time>2012-10-14T13:12:02Z</time>
      </trkpt>
      <trkpt lat="42.011776000" lon="2.462464100">
        <ele>739.40</ele>
        <time>2012-10-14T13:12:05Z</time>
      </trkpt>
      <trkpt lat="42.011497000" lon="2.462499100">
        <ele>739.40</ele>
        <time>2012-10-14T13:12:12Z</time>
      </trkpt>
      <trkpt lat="42.011257000" lon="2.462606100">
        <ele>739.40</ele>
        <time>2012-10-14T13:12:17Z</time>
      </trkpt>
      <trkpt lat="42.010967000" lon="2.462674100">
        <ele>739.40</ele>
        <time>2012-10-14T13:12:24Z</time>
      </trkpt>
      <trkpt lat="42.010868000" lon="2.462707100">
        <ele>739.40</ele>
        <time>2012-10-14T13:12:28Z</time>
      </trkpt>
      <trkpt lat="42.010700000" lon="2.462972100">
        <ele>740.80</ele>
        <time>2012-10-14T13:12:37Z</time>
      </trkpt>
      <trkpt lat="42.010498000" lon="2.463060100">
        <ele>741.80</ele>
        <time>2012-10-14T13:12:44Z</time>
      </trkpt>
      <trkpt lat="42.010269000" lon="2.463066100">
        <ele>742.80</ele>
        <time>2012-10-14T13:12:52Z</time>
      </trkpt>
      <trkpt lat="42.010181000" lon="2.463234100">
        <ele>742.80</ele>
        <time>2012-10-14T13:12:58Z</time>
      </trkpt>
      <trkpt lat="42.010159000" lon="2.463488100">
        <ele>743.20</ele>
        <time>2012-10-14T13:13:06Z</time>
      </trkpt>
      <trkpt lat="42.010105000" lon="2.463719100">
        <ele>744.20</ele>
        <time>2012-10-14T13:13:15Z</time>
      </trkpt>
      <trkpt lat="42.010067000" lon="2.463851100">
        <ele>745.20</ele>
        <time>2012-10-14T13:13:20Z</time>
      </trkpt>
      <trkpt lat="42.010010000" lon="2.463977100">
        <ele>747.10</ele>
        <time>2012-10-14T13:13:29Z</time>
      </trkpt>
      <trkpt lat="42.010002000" lon="2.463995100">
        <ele>747.10</ele>
        <time>2012-10-14T13:13:29Z</time>
      </trkpt>
      <trkpt lat="42.009926000" lon="2.464128100">
        <ele>751.40</ele>
        <time>2012-10-14T13:13:38Z</time>
      </trkpt>
      <trkpt lat="42.009884000" lon="2.464210100">
        <ele>754.80</ele>
        <time>2012-10-14T13:13:43Z</time>
      </trkpt>
      <trkpt lat="42.009804000" lon="2.464360100">
        <ele>754.80</ele>
        <time>2012-10-14T13:13:50Z</time>
      </trkpt>
      <trkpt lat="42.009800000" lon="2.464503100">
        <ele>754.80</ele>
        <time>2012-10-14T13:13:57Z</time>
      </trkpt>
      <trkpt lat="42.009869000" lon="2.464630100">
        <ele>754.80</ele>
        <time>2012-10-14T13:14:06Z</time>
      </trkpt>
      <trkpt lat="42.009953000" lon="2.464727100">
        <ele>755.20</ele>
        <time>2012-10-14T13:14:11Z</time>
      </trkpt>
      <trkpt lat="42.010029000" lon="2.464882100">
        <ele>756.20</ele>
        <time>2012-10-14T13:14:19Z</time>
      </trkpt>
      <trkpt lat="42.010109000" lon="2.465146100">
        <ele>757.70</ele>
        <time>2012-10-14T13:14:28Z</time>
      </trkpt>
      <trkpt lat="42.010185000" lon="2.465358100">
        <ele>758.10</ele>
        <time>2012-10-14T13:14:37Z</time>
      </trkpt>
      <trkpt lat="42.010284000" lon="2.465596100">
        <ele>759.10</ele>
        <time>2012-10-14T13:14:46Z</time>
      </trkpt>
      <trkpt lat="42.010372000" lon="2.465791100">
        <ele>760.10</ele>
        <time>2012-10-14T13:14:54Z</time>
      </trkpt>
      <trkpt lat="42.010395000" lon="2.466076100">
        <ele>761.50</ele>
        <time>2012-10-14T13:15:03Z</time>
      </trkpt>
      <trkpt lat="42.010342000" lon="2.466263100">
        <ele>762.00</ele>
        <time>2012-10-14T13:15:10Z</time>
      </trkpt>
      <trkpt lat="42.010239000" lon="2.466403100">
        <ele>763.40</ele>
        <time>2012-10-14T13:15:19Z</time>
      </trkpt>
      <trkpt lat="42.010147000" lon="2.466556100">
        <ele>764.90</ele>
        <time>2012-10-14T13:15:26Z</time>
      </trkpt>
      <trkpt lat="42.010056000" lon="2.466778100">
        <ele>766.80</ele>
        <time>2012-10-14T13:15:36Z</time>
      </trkpt>
      <trkpt lat="42.010006000" lon="2.467026100">
        <ele>769.20</ele>
        <time>2012-10-14T13:15:45Z</time>
      </trkpt>
      <trkpt lat="42.009933000" lon="2.467194100">
        <ele>770.20</ele>
        <time>2012-10-14T13:15:54Z</time>
      </trkpt>
      <trkpt lat="42.009922000" lon="2.467214100">
        <ele>770.60</ele>
        <time>2012-10-14T13:15:55Z</time>
      </trkpt>
      <trkpt lat="42.009789000" lon="2.467345100">
        <ele>772.60</ele>
        <time>2012-10-14T13:16:04Z</time>
      </trkpt>
      <trkpt lat="42.009686000" lon="2.467434100">
        <ele>774.00</ele>
        <time>2012-10-14T13:16:11Z</time>
      </trkpt>
      <trkpt lat="42.009613000" lon="2.467567100">
        <ele>775.00</ele>
        <time>2012-10-14T13:16:18Z</time>
      </trkpt>
      <trkpt lat="42.009609000" lon="2.467736100">
        <ele>776.40</ele>
        <time>2012-10-14T13:16:27Z</time>
      </trkpt>
      <trkpt lat="42.009624000" lon="2.467906100">
        <ele>776.90</ele>
        <time>2012-10-14T13:16:35Z</time>
      </trkpt>
      <trkpt lat="42.009632000" lon="2.468087100">
        <ele>777.40</ele>
        <time>2012-10-14T13:16:42Z</time>
      </trkpt>
      <trkpt lat="42.009628000" lon="2.468288100">
        <ele>778.80</ele>
        <time>2012-10-14T13:16:51Z</time>
      </trkpt>
      <trkpt lat="42.009552000" lon="2.468415100">
        <ele>782.20</ele>
        <time>2012-10-14T13:17:00Z</time>
      </trkpt>
      <trkpt lat="42.009487000" lon="2.468469100">
        <ele>785.00</ele>
        <time>2012-10-14T13:17:05Z</time>
      </trkpt>
      <trkpt lat="42.009338000" lon="2.468603100">
        <ele>785.50</ele>
        <time>2012-10-14T13:17:14Z</time>
      </trkpt>
      <trkpt lat="42.009197000" lon="2.468757100">
        <ele>786.00</ele>
        <time>2012-10-14T13:17:24Z</time>
      </trkpt>
      <trkpt lat="42.009121000" lon="2.468926100">
        <ele>787.00</ele>
        <time>2012-10-14T13:17:33Z</time>
      </trkpt>
      <trkpt lat="42.009087000" lon="2.469109100">
        <ele>787.90</ele>
        <time>2012-10-14T13:17:40Z</time>
      </trkpt>
      <trkpt lat="42.009060000" lon="2.469361100">
        <ele>788.40</ele>
        <time>2012-10-14T13:17:48Z</time>
      </trkpt>
      <trkpt lat="42.008987000" lon="2.469590100">
        <ele>789.40</ele>
        <time>2012-10-14T13:17:59Z</time>
      </trkpt>
      <trkpt lat="42.008923000" lon="2.469778100">
        <ele>791.30</ele>
        <time>2012-10-14T13:18:08Z</time>
      </trkpt>
      <trkpt lat="42.008858000" lon="2.470016100">
        <ele>793.70</ele>
        <time>2012-10-14T13:18:18Z</time>
      </trkpt>
      <trkpt lat="42.008801000" lon="2.470243100">
        <ele>796.60</ele>
        <time>2012-10-14T13:18:29Z</time>
      </trkpt>
      <trkpt lat="42.008816000" lon="2.470340100">
        <ele>800.40</ele>
        <time>2012-10-14T13:18:32Z</time>
      </trkpt>
      <trkpt lat="42.008850000" lon="2.470412100">
        <ele>802.40</ele>
        <time>2012-10-14T13:18:37Z</time>
      </trkpt>
      <trkpt lat="42.008877000" lon="2.470442100">
        <ele>802.80</ele>
        <time>2012-10-14T13:18:39Z</time>
      </trkpt>
      <trkpt lat="42.009003000" lon="2.470544100">
        <ele>803.30</ele>
        <time>2012-10-14T13:18:48Z</time>
      </trkpt>
      <trkpt lat="42.009102000" lon="2.470671100">
        <ele>804.30</ele>
        <time>2012-10-14T13:18:55Z</time>
      </trkpt>
      <trkpt lat="42.009151000" lon="2.470766100">
        <ele>804.80</ele>
        <time>2012-10-14T13:19:00Z</time>
      </trkpt>
      <trkpt lat="42.009216000" lon="2.470951100">
        <ele>805.70</ele>
        <time>2012-10-14T13:19:10Z</time>
      </trkpt>
      <trkpt lat="42.009266000" lon="2.471035100">
        <ele>805.70</ele>
        <time>2012-10-14T13:19:17Z</time>
      </trkpt>
      <trkpt lat="42.009270000" lon="2.471033100">
        <ele>805.70</ele>
        <time>2012-10-14T13:19:26Z</time>
      </trkpt>
      <trkpt lat="42.009281000" lon="2.471045100">
        <ele>806.20</ele>
        <time>2012-10-14T13:19:38Z</time>
      </trkpt>
      <trkpt lat="42.009315000" lon="2.471041100">
        <ele>806.20</ele>
        <time>2012-10-14T13:19:45Z</time>
      </trkpt>
      <trkpt lat="42.009312000" lon="2.471041100">
        <ele>806.20</ele>
        <time>2012-10-14T13:19:56Z</time>
      </trkpt>
      <trkpt lat="42.009315000" lon="2.471041100">
        <ele>807.20</ele>
        <time>2012-10-14T13:20:15Z</time>
      </trkpt>
      <trkpt lat="42.009323000" lon="2.471051100">
        <ele>807.20</ele>
        <time>2012-10-14T13:20:25Z</time>
      </trkpt>
      <trkpt lat="42.009418000" lon="2.471064100">
        <ele>807.20</ele>
        <time>2012-10-14T13:20:32Z</time>
      </trkpt>
      <trkpt lat="42.009579000" lon="2.471065100">
        <ele>807.20</ele>
        <time>2012-10-14T13:20:39Z</time>
      </trkpt>
      <trkpt lat="42.009743000" lon="2.471043100">
        <ele>807.20</ele>
        <time>2012-10-14T13:20:46Z</time>
      </trkpt>
      <trkpt lat="42.009850000" lon="2.470916100">
        <ele>807.60</ele>
        <time>2012-10-14T13:20:53Z</time>
      </trkpt>
      <trkpt lat="42.009815000" lon="2.470708100">
        <ele>810.50</ele>
        <time>2012-10-14T13:21:02Z</time>
      </trkpt>
      <trkpt lat="42.009781000" lon="2.470608100">
        <ele>813.90</ele>
        <time>2012-10-14T13:21:05Z</time>
      </trkpt>
      <trkpt lat="42.009758000" lon="2.470528100">
        <ele>815.30</ele>
        <time>2012-10-14T13:21:09Z</time>
      </trkpt>
      <trkpt lat="42.009773000" lon="2.470417100">
        <ele>816.30</ele>
        <time>2012-10-14T13:21:12Z</time>
      </trkpt>
      <trkpt lat="42.009903000" lon="2.470265100">
        <ele>815.80</ele>
        <time>2012-10-14T13:21:23Z</time>
      </trkpt>
      <trkpt lat="42.010052000" lon="2.470276100">
        <ele>817.30</ele>
        <time>2012-10-14T13:21:33Z</time>
      </trkpt>
      <trkpt lat="42.010147000" lon="2.470315100">
        <ele>820.60</ele>
        <time>2012-10-14T13:21:40Z</time>
      </trkpt>
      <trkpt lat="42.010178000" lon="2.470330100">
        <ele>820.10</ele>
        <time>2012-10-14T13:21:42Z</time>
      </trkpt>
      <trkpt lat="42.010231000" lon="2.470359100">
        <ele>820.10</ele>
        <time>2012-10-14T13:21:45Z</time>
      </trkpt>
      <trkpt lat="42.010368000" lon="2.470444100">
        <ele>820.10</ele>
        <time>2012-10-14T13:21:56Z</time>
      </trkpt>
      <trkpt lat="42.010494000" lon="2.470508100">
        <ele>820.10</ele>
        <time>2012-10-14T13:22:05Z</time>
      </trkpt>
      <trkpt lat="42.010601000" lon="2.470570100">
        <ele>821.10</ele>
        <time>2012-10-14T13:22:13Z</time>
      </trkpt>
      <trkpt lat="42.010708000" lon="2.470618100">
        <ele>822.50</ele>
        <time>2012-10-14T13:22:20Z</time>
      </trkpt>
      <trkpt lat="42.010864000" lon="2.470704100">
        <ele>823.00</ele>
        <time>2012-10-14T13:22:29Z</time>
      </trkpt>
      <trkpt lat="42.011063000" lon="2.470782100">
        <ele>823.50</ele>
        <time>2012-10-14T13:22:38Z</time>
      </trkpt>
      <trkpt lat="42.011158000" lon="2.470819100">
        <ele>823.50</ele>
        <time>2012-10-14T13:22:43Z</time>
      </trkpt>
      <trkpt lat="42.011253000" lon="2.470843100">
        <ele>823.50</ele>
        <time>2012-10-14T13:22:52Z</time>
      </trkpt>
      <trkpt lat="42.011257000" lon="2.470840100">
        <ele>823.50</ele>
        <time>2012-10-14T13:23:00Z</time>
      </trkpt>
      <trkpt lat="42.011257000" lon="2.470840100">
        <ele>823.50</ele>
        <time>2012-10-14T13:23:25Z</time>
      </trkpt>
      <trkpt lat="42.011257000" lon="2.470845100">
        <ele>827.30</ele>
        <time>2012-10-14T13:23:35Z</time>
      </trkpt>
      <trkpt lat="42.011250000" lon="2.470842100">
        <ele>826.90</ele>
        <time>2012-10-14T13:23:42Z</time>
      </trkpt>
      <trkpt lat="42.011261000" lon="2.470837100">
        <ele>825.40</ele>
        <time>2012-10-14T13:23:51Z</time>
      </trkpt>
      <trkpt lat="42.011265000" lon="2.470835100">
        <ele>825.40</ele>
        <time>2012-10-14T13:24:27Z</time>
      </trkpt>
      <trkpt lat="42.011250000" lon="2.470797100">
        <ele>825.40</ele>
        <time>2012-10-14T13:24:34Z</time>
      </trkpt>
      <trkpt lat="42.011234000" lon="2.470818100">
        <ele>825.40</ele>
        <time>2012-10-14T13:24:41Z</time>
      </trkpt>
      <trkpt lat="42.011242000" lon="2.470827100">
        <ele>825.40</ele>
        <time>2012-10-14T13:25:13Z</time>
      </trkpt>
      <trkpt lat="42.011253000" lon="2.470826100">
        <ele>825.40</ele>
        <time>2012-10-14T13:25:16Z</time>
      </trkpt>
      <trkpt lat="42.011314000" lon="2.470813100">
        <ele>825.40</ele>
        <time>2012-10-14T13:25:21Z</time>
      </trkpt>
      <trkpt lat="42.011482000" lon="2.470748100">
        <ele>825.40</ele>
        <time>2012-10-14T13:25:30Z</time>
      </trkpt>
      <trkpt lat="42.011639000" lon="2.470690100">
        <ele>825.40</ele>
        <time>2012-10-14T13:25:37Z</time>
      </trkpt>
      <trkpt lat="42.011803000" lon="2.470603100">
        <ele>827.30</ele>
        <time>2012-10-14T13:25:48Z</time>
      </trkpt>
      <trkpt lat="42.011902000" lon="2.470574100">
        <ele>828.80</ele>
        <time>2012-10-14T13:25:56Z</time>
      </trkpt>
      <trkpt lat="42.011902000" lon="2.470574100">
        <ele>828.80</ele>
        <time>2012-10-14T13:26:45Z</time>
      </trkpt>
      <trkpt lat="42.011902000" lon="2.470578100">
        <ele>831.20</ele>
        <time>2012-10-14T13:26:54Z</time>
      </trkpt>
      <trkpt lat="42.012009000" lon="2.470523100">
        <ele>831.20</ele>
        <time>2012-10-14T13:27:02Z</time>
      </trkpt>
      <trkpt lat="42.012150000" lon="2.470459100">
        <ele>832.20</ele>
        <time>2012-10-14T13:27:11Z</time>
      </trkpt>
      <trkpt lat="42.012321000" lon="2.470370100">
        <ele>833.60</ele>
        <time>2012-10-14T13:27:20Z</time>
      </trkpt>
      <trkpt lat="42.012508000" lon="2.470318100">
        <ele>834.10</ele>
        <time>2012-10-14T13:27:30Z</time>
      </trkpt>
      <trkpt lat="42.012676000" lon="2.470229100">
        <ele>834.60</ele>
        <time>2012-10-14T13:27:37Z</time>
      </trkpt>
      <trkpt lat="42.012867000" lon="2.470068100">
        <ele>835.00</ele>
        <time>2012-10-14T13:27:48Z</time>
      </trkpt>
      <trkpt lat="42.012985000" lon="2.469959100">
        <ele>835.50</ele>
        <time>2012-10-14T13:27:55Z</time>
      </trkpt>
      <trkpt lat="42.013138000" lon="2.469908100">
        <ele>836.00</ele>
        <time>2012-10-14T13:28:02Z</time>
      </trkpt>
      <trkpt lat="42.013332000" lon="2.470034100">
        <ele>837.00</ele>
        <time>2012-10-14T13:28:12Z</time>
      </trkpt>
      <trkpt lat="42.013474000" lon="2.470167100">
        <ele>837.50</ele>
        <time>2012-10-14T13:28:17Z</time>
      </trkpt>
      <trkpt lat="42.013741000" lon="2.470369100">
        <ele>837.50</ele>
        <time>2012-10-14T13:28:26Z</time>
      </trkpt>
      <trkpt lat="42.014034000" lon="2.470632100">
        <ele>837.50</ele>
        <time>2012-10-14T13:28:35Z</time>
      </trkpt>
      <trkpt lat="42.014256000" lon="2.470670100">
        <ele>837.50</ele>
        <time>2012-10-14T13:28:42Z</time>
      </trkpt>
      <trkpt lat="42.014511000" lon="2.470658100">
        <ele>837.50</ele>
        <time>2012-10-14T13:28:49Z</time>
      </trkpt>
      <trkpt lat="42.014847000" lon="2.470580100">
        <ele>837.90</ele>
        <time>2012-10-14T13:28:59Z</time>
      </trkpt>
      <trkpt lat="42.015141000" lon="2.470431100">
        <ele>837.90</ele>
        <time>2012-10-14T13:29:08Z</time>
      </trkpt>
      <trkpt lat="42.015316000" lon="2.470268100">
        <ele>838.40</ele>
        <time>2012-10-14T13:29:15Z</time>
      </trkpt>
      <trkpt lat="42.015507000" lon="2.470110100">
        <ele>839.40</ele>
        <time>2012-10-14T13:29:24Z</time>
      </trkpt>
      <trkpt lat="42.015720000" lon="2.469897100">
        <ele>840.80</ele>
        <time>2012-10-14T13:29:32Z</time>
      </trkpt>
      <trkpt lat="42.015915000" lon="2.469687100">
        <ele>841.30</ele>
        <time>2012-10-14T13:29:41Z</time>
      </trkpt>
      <trkpt lat="42.016178000" lon="2.469435100">
        <ele>841.80</ele>
        <time>2012-10-14T13:29:50Z</time>
      </trkpt>
      <trkpt lat="42.016407000" lon="2.469265100">
        <ele>842.70</ele>
        <time>2012-10-14T13:30:00Z</time>
      </trkpt>
      <trkpt lat="42.016701000" lon="2.469041100">
        <ele>842.70</ele>
        <time>2012-10-14T13:30:09Z</time>
      </trkpt>
      <trkpt lat="42.016998000" lon="2.468921100">
        <ele>842.70</ele>
        <time>2012-10-14T13:30:16Z</time>
      </trkpt>
      <trkpt lat="42.017555000" lon="2.468763100">
        <ele>842.70</ele>
        <time>2012-10-14T13:30:23Z</time>
      </trkpt>
      <trkpt lat="42.017998000" lon="2.468723100">
        <ele>841.30</ele>
        <time>2012-10-14T13:30:30Z</time>
      </trkpt>
      <trkpt lat="42.018093000" lon="2.468734100">
        <ele>841.30</ele>
        <time>2012-10-14T13:30:33Z</time>
      </trkpt>
      <trkpt lat="42.018440000" lon="2.468747100">
        <ele>840.30</ele>
        <time>2012-10-14T13:30:42Z</time>
      </trkpt>
      <trkpt lat="42.018776000" lon="2.468733100">
        <ele>840.30</ele>
        <time>2012-10-14T13:30:52Z</time>
      </trkpt>
      <trkpt lat="42.018806000" lon="2.468706100">
        <ele>840.30</ele>
        <time>2012-10-14T13:30:52Z</time>
      </trkpt>
      <trkpt lat="42.018944000" lon="2.468529100">
        <ele>839.40</ele>
        <time>2012-10-14T13:30:58Z</time>
      </trkpt>
      <trkpt lat="42.019012000" lon="2.468325100">
        <ele>834.60</ele>
        <time>2012-10-14T13:31:01Z</time>
      </trkpt>
      <trkpt lat="42.019001000" lon="2.468269100">
        <ele>834.10</ele>
        <time>2012-10-14T13:31:03Z</time>
      </trkpt>
      <trkpt lat="42.018856000" lon="2.468010100">
        <ele>833.60</ele>
        <time>2012-10-14T13:31:10Z</time>
      </trkpt>
      <trkpt lat="42.018761000" lon="2.467850100">
        <ele>837.50</ele>
        <time>2012-10-14T13:31:15Z</time>
      </trkpt>
      <trkpt lat="42.018684000" lon="2.467694100">
        <ele>840.80</ele>
        <time>2012-10-14T13:31:20Z</time>
      </trkpt>
      <trkpt lat="42.018604000" lon="2.467473100">
        <ele>840.80</ele>
        <time>2012-10-14T13:31:27Z</time>
      </trkpt>
      <trkpt lat="42.018539000" lon="2.467178100">
        <ele>840.80</ele>
        <time>2012-10-14T13:31:36Z</time>
      </trkpt>
      <trkpt lat="42.018456000" lon="2.467015100">
        <ele>841.30</ele>
        <time>2012-10-14T13:31:41Z</time>
      </trkpt>
      <trkpt lat="42.018463000" lon="2.466797100">
        <ele>842.70</ele>
        <time>2012-10-14T13:31:48Z</time>
      </trkpt>
      <trkpt lat="42.018528000" lon="2.466486100">
        <ele>845.10</ele>
        <time>2012-10-14T13:31:57Z</time>
      </trkpt>
      <trkpt lat="42.018589000" lon="2.466276100">
        <ele>849.00</ele>
        <time>2012-10-14T13:32:04Z</time>
      </trkpt>
      <trkpt lat="42.018654000" lon="2.466102100">
        <ele>852.30</ele>
        <time>2012-10-14T13:32:09Z</time>
      </trkpt>
      <trkpt lat="42.018719000" lon="2.465936100">
        <ele>852.30</ele>
        <time>2012-10-14T13:32:16Z</time>
      </trkpt>
      <trkpt lat="42.018726000" lon="2.465891100">
        <ele>852.30</ele>
        <time>2012-10-14T13:32:18Z</time>
      </trkpt>
      <trkpt lat="42.018757000" lon="2.465722100">
        <ele>852.80</ele>
        <time>2012-10-14T13:32:26Z</time>
      </trkpt>
      <trkpt lat="42.018757000" lon="2.465662100">
        <ele>852.80</ele>
        <time>2012-10-14T13:32:30Z</time>
      </trkpt>
      <trkpt lat="42.018707000" lon="2.465487100">
        <ele>853.30</ele>
        <time>2012-10-14T13:32:37Z</time>
      </trkpt>
      <trkpt lat="42.018616000" lon="2.465248100">
        <ele>853.80</ele>
        <time>2012-10-14T13:32:47Z</time>
      </trkpt>
      <trkpt lat="42.018570000" lon="2.465046100">
        <ele>854.30</ele>
        <time>2012-10-14T13:32:54Z</time>
      </trkpt>
      <trkpt lat="42.018505000" lon="2.464748100">
        <ele>854.30</ele>
        <time>2012-10-14T13:33:01Z</time>
      </trkpt>
      <trkpt lat="42.018440000" lon="2.464432100">
        <ele>854.30</ele>
        <time>2012-10-14T13:33:08Z</time>
      </trkpt>
      <trkpt lat="42.018314000" lon="2.464116100">
        <ele>854.30</ele>
        <time>2012-10-14T13:33:15Z</time>
      </trkpt>
      <trkpt lat="42.018185000" lon="2.463861100">
        <ele>855.20</ele>
        <time>2012-10-14T13:33:24Z</time>
      </trkpt>
      <trkpt lat="42.018154000" lon="2.463617100">
        <ele>855.70</ele>
        <time>2012-10-14T13:33:29Z</time>
      </trkpt>
      <trkpt lat="42.018219000" lon="2.463264100">
        <ele>855.70</ele>
        <time>2012-10-14T13:33:36Z</time>
      </trkpt>
      <trkpt lat="42.018299000" lon="2.463002100">
        <ele>856.20</ele>
        <time>2012-10-14T13:33:43Z</time>
      </trkpt>
      <trkpt lat="42.018398000" lon="2.462907100">
        <ele>857.60</ele>
        <time>2012-10-14T13:33:50Z</time>
      </trkpt>
      <trkpt lat="42.018551000" lon="2.462749100">
        <ele>859.60</ele>
        <time>2012-10-14T13:33:57Z</time>
      </trkpt>
      <trkpt lat="42.018650000" lon="2.462717100">
        <ele>859.60</ele>
        <time>2012-10-14T13:34:00Z</time>
      </trkpt>
      <trkpt lat="42.018990000" lon="2.462648100">
        <ele>859.60</ele>
        <time>2012-10-14T13:34:06Z</time>
      </trkpt>
      <trkpt lat="42.019054000" lon="2.462626100">
        <ele>859.60</ele>
        <time>2012-10-14T13:34:07Z</time>
      </trkpt>
      <trkpt lat="42.019207000" lon="2.462719100">
        <ele>859.60</ele>
        <time>2012-10-14T13:34:11Z</time>
      </trkpt>
      <trkpt lat="42.019207000" lon="2.462863100">
        <ele>859.60</ele>
        <time>2012-10-14T13:34:16Z</time>
      </trkpt>
      <trkpt lat="42.019199000" lon="2.462886100">
        <ele>859.60</ele>
        <time>2012-10-14T13:34:18Z</time>
      </trkpt>
      <trkpt lat="42.019135000" lon="2.463124100">
        <ele>860.00</ele>
        <time>2012-10-14T13:34:28Z</time>
      </trkpt>
      <trkpt lat="42.019138000" lon="2.463349100">
        <ele>860.50</ele>
        <time>2012-10-14T13:34:37Z</time>
      </trkpt>
      <trkpt lat="42.019234000" lon="2.463532100">
        <ele>861.50</ele>
        <time>2012-10-14T13:34:46Z</time>
      </trkpt>
      <trkpt lat="42.019329000" lon="2.463673100">
        <ele>862.90</ele>
        <time>2012-10-14T13:34:53Z</time>
      </trkpt>
      <trkpt lat="42.019463000" lon="2.463861100">
        <ele>863.90</ele>
        <time>2012-10-14T13:35:00Z</time>
      </trkpt>
      <trkpt lat="42.019547000" lon="2.464099100">
        <ele>864.80</ele>
        <time>2012-10-14T13:35:07Z</time>
      </trkpt>
      <trkpt lat="42.019680000" lon="2.464293100">
        <ele>865.80</ele>
        <time>2012-10-14T13:35:14Z</time>
      </trkpt>
      <trkpt lat="42.019836000" lon="2.464405100">
        <ele>866.30</ele>
        <time>2012-10-14T13:35:22Z</time>
      </trkpt>
      <trkpt lat="42.019958000" lon="2.464545100">
        <ele>866.30</ele>
        <time>2012-10-14T13:35:26Z</time>
      </trkpt>
      <trkpt lat="42.020241000" lon="2.464719100">
        <ele>866.30</ele>
        <time>2012-10-14T13:35:33Z</time>
      </trkpt>
      <trkpt lat="42.020287000" lon="2.464728100">
        <ele>866.30</ele>
        <time>2012-10-14T13:35:35Z</time>
      </trkpt>
      <trkpt lat="42.020374000" lon="2.464756100">
        <ele>866.80</ele>
        <time>2012-10-14T13:35:36Z</time>
      </trkpt>
      <trkpt lat="42.020546000" lon="2.464953100">
        <ele>866.80</ele>
        <time>2012-10-14T13:35:43Z</time>
      </trkpt>
      <trkpt lat="42.020557000" lon="2.465002100">
        <ele>866.80</ele>
        <time>2012-10-14T13:35:43Z</time>
      </trkpt>
      <trkpt lat="42.020592000" lon="2.465255100">
        <ele>866.80</ele>
        <time>2012-10-14T13:35:47Z</time>
      </trkpt>
      <trkpt lat="42.020695000" lon="2.465529100">
        <ele>866.80</ele>
        <time>2012-10-14T13:35:52Z</time>
      </trkpt>
      <trkpt lat="42.020878000" lon="2.465693100">
        <ele>866.80</ele>
        <time>2012-10-14T13:35:57Z</time>
      </trkpt>
      <trkpt lat="42.021126000" lon="2.465672100">
        <ele>866.80</ele>
        <time>2012-10-14T13:36:04Z</time>
      </trkpt>
      <trkpt lat="42.021133000" lon="2.465680100">
        <ele>865.30</ele>
        <time>2012-10-14T13:36:08Z</time>
      </trkpt>
      <trkpt lat="42.021118000" lon="2.465684100">
        <ele>864.40</ele>
        <time>2012-10-14T13:36:16Z</time>
      </trkpt>
      <trkpt lat="42.021103000" lon="2.465687100">
        <ele>864.40</ele>
        <time>2012-10-14T13:36:53Z</time>
      </trkpt>
      <trkpt lat="42.021103000" lon="2.465673100">
        <ele>864.40</ele>
        <time>2012-10-14T13:37:17Z</time>
      </trkpt>
      <trkpt lat="42.021168000" lon="2.465645100">
        <ele>864.40</ele>
        <time>2012-10-14T13:37:38Z</time>
      </trkpt>
      <trkpt lat="42.021393000" lon="2.465558100">
        <ele>864.40</ele>
        <time>2012-10-14T13:37:47Z</time>
      </trkpt>
      <trkpt lat="42.021492000" lon="2.465499100">
        <ele>863.40</ele>
        <time>2012-10-14T13:37:49Z</time>
      </trkpt>
      <trkpt lat="42.021614000" lon="2.465202100">
        <ele>862.90</ele>
        <time>2012-10-14T13:37:56Z</time>
      </trkpt>
      <trkpt lat="42.021618000" lon="2.464853100">
        <ele>859.60</ele>
        <time>2012-10-14T13:38:01Z</time>
      </trkpt>
      <trkpt lat="42.021626000" lon="2.464622100">
        <ele>856.20</ele>
        <time>2012-10-14T13:38:04Z</time>
      </trkpt>
      <trkpt lat="42.021709000" lon="2.464244100">
        <ele>852.30</ele>
        <time>2012-10-14T13:38:08Z</time>
      </trkpt>
      <trkpt lat="42.021866000" lon="2.463885100">
        <ele>848.50</ele>
        <time>2012-10-14T13:38:13Z</time>
      </trkpt>
      <trkpt lat="42.022072000" lon="2.463592100">
        <ele>846.60</ele>
        <time>2012-10-14T13:38:18Z</time>
      </trkpt>
      <trkpt lat="42.022213000" lon="2.463398100">
        <ele>845.10</ele>
        <time>2012-10-14T13:38:22Z</time>
      </trkpt>
      <trkpt lat="42.022507000" lon="2.463106100">
        <ele>842.20</ele>
        <time>2012-10-14T13:38:27Z</time>
      </trkpt>
      <trkpt lat="42.022732000" lon="2.462920100">
        <ele>838.90</ele>
        <time>2012-10-14T13:38:32Z</time>
      </trkpt>
      <trkpt lat="42.022850000" lon="2.463081100">
        <ele>837.90</ele>
        <time>2012-10-14T13:38:36Z</time>
      </trkpt>
      <trkpt lat="42.022957000" lon="2.463157100">
        <ele>837.90</ele>
        <time>2012-10-14T13:38:39Z</time>
      </trkpt>
      <trkpt lat="42.023266000" lon="2.463244100">
        <ele>839.40</ele>
        <time>2012-10-14T13:38:48Z</time>
      </trkpt>
      <trkpt lat="42.023540000" lon="2.463352100">
        <ele>840.30</ele>
        <time>2012-10-14T13:38:55Z</time>
      </trkpt>
      <trkpt lat="42.023724000" lon="2.463514100">
        <ele>840.30</ele>
        <time>2012-10-14T13:39:02Z</time>
      </trkpt>
      <trkpt lat="42.023861000" lon="2.463707100">
        <ele>840.80</ele>
        <time>2012-10-14T13:39:07Z</time>
      </trkpt>
      <trkpt lat="42.024025000" lon="2.463889100">
        <ele>842.20</ele>
        <time>2012-10-14T13:39:16Z</time>
      </trkpt>
      <trkpt lat="42.024239000" lon="2.464009100">
        <ele>843.20</ele>
        <time>2012-10-14T13:39:23Z</time>
      </trkpt>
      <trkpt lat="42.024590000" lon="2.464227100">
        <ele>843.20</ele>
        <time>2012-10-14T13:39:30Z</time>
      </trkpt>
      <trkpt lat="42.024742000" lon="2.464297100">
        <ele>843.20</ele>
        <time>2012-10-14T13:39:37Z</time>
      </trkpt>
      <trkpt lat="42.024754000" lon="2.464297100">
        <ele>843.20</ele>
        <time>2012-10-14T13:39:42Z</time>
      </trkpt>
      <trkpt lat="42.024754000" lon="2.464299100">
        <ele>841.80</ele>
        <time>2012-10-14T13:39:54Z</time>
      </trkpt>
      <trkpt lat="42.024780000" lon="2.464343100">
        <ele>841.80</ele>
        <time>2012-10-14T13:40:06Z</time>
      </trkpt>
      <trkpt lat="42.024933000" lon="2.464500100">
        <ele>841.80</ele>
        <time>2012-10-14T13:40:15Z</time>
      </trkpt>
      <trkpt lat="42.025082000" lon="2.464673100">
        <ele>841.80</ele>
        <time>2012-10-14T13:40:24Z</time>
      </trkpt>
      <trkpt lat="42.025230000" lon="2.464792100">
        <ele>842.70</ele>
        <time>2012-10-14T13:40:31Z</time>
      </trkpt>
      <trkpt lat="42.025383000" lon="2.464835100">
        <ele>843.20</ele>
        <time>2012-10-14T13:40:38Z</time>
      </trkpt>
      <trkpt lat="42.025433000" lon="2.464853100">
        <ele>843.20</ele>
        <time>2012-10-14T13:40:45Z</time>
      </trkpt>
      <trkpt lat="42.025631000" lon="2.464908100">
        <ele>843.20</ele>
        <time>2012-10-14T13:40:57Z</time>
      </trkpt>
      <trkpt lat="42.025906000" lon="2.465039100">
        <ele>843.20</ele>
        <time>2012-10-14T13:41:04Z</time>
      </trkpt>
      <trkpt lat="42.025928000" lon="2.465056100">
        <ele>843.20</ele>
        <time>2012-10-14T13:41:04Z</time>
      </trkpt>
      <trkpt lat="42.026020000" lon="2.465124100">
        <ele>844.70</ele>
        <time>2012-10-14T13:41:11Z</time>
      </trkpt>
      <trkpt lat="42.026016000" lon="2.465157100">
        <ele>844.70</ele>
        <time>2012-10-14T13:41:11Z</time>
      </trkpt>
      <trkpt lat="42.025978000" lon="2.465318100">
        <ele>844.70</ele>
        <time>2012-10-14T13:41:16Z</time>
      </trkpt>
      <trkpt lat="42.025887000" lon="2.465770100">
        <ele>844.70</ele>
        <time>2012-10-14T13:41:28Z</time>
      </trkpt>
      <trkpt lat="42.025814000" lon="2.466059100">
        <ele>844.70</ele>
        <time>2012-10-14T13:41:37Z</time>
      </trkpt>
      <trkpt lat="42.025764000" lon="2.466270100">
        <ele>844.70</ele>
        <time>2012-10-14T13:41:44Z</time>
      </trkpt>
      <trkpt lat="42.025734000" lon="2.466371100">
        <ele>845.10</ele>
        <time>2012-10-14T13:41:47Z</time>
      </trkpt>
      <trkpt lat="42.025650000" lon="2.466452100">
        <ele>845.60</ele>
        <time>2012-10-14T13:41:53Z</time>
      </trkpt>
      <trkpt lat="42.025467000" lon="2.466535100">
        <ele>846.60</ele>
        <time>2012-10-14T13:42:01Z</time>
      </trkpt>
      <trkpt lat="42.025406000" lon="2.466560100">
        <ele>847.10</ele>
        <time>2012-10-14T13:42:05Z</time>
      </trkpt>
      <trkpt lat="42.025219000" lon="2.466506100">
        <ele>847.50</ele>
        <time>2012-10-14T13:42:12Z</time>
      </trkpt>
      <trkpt lat="42.025005000" lon="2.466308100">
        <ele>848.00</ele>
        <time>2012-10-14T13:42:19Z</time>
      </trkpt>
      <trkpt lat="42.024872000" lon="2.465990100">
        <ele>848.00</ele>
        <time>2012-10-14T13:42:26Z</time>
      </trkpt>
      <trkpt lat="42.024788000" lon="2.465734100">
        <ele>847.10</ele>
        <time>2012-10-14T13:42:34Z</time>
      </trkpt>
      <trkpt lat="42.024689000" lon="2.465462100">
        <ele>846.10</ele>
        <time>2012-10-14T13:42:41Z</time>
      </trkpt>
      <trkpt lat="42.024673000" lon="2.465416100">
        <ele>846.10</ele>
        <time>2012-10-14T13:42:43Z</time>
      </trkpt>
      <trkpt lat="42.024548000" lon="2.465232100">
        <ele>845.60</ele>
        <time>2012-10-14T13:42:48Z</time>
      </trkpt>
      <trkpt lat="42.024456000" lon="2.465162100">
        <ele>845.10</ele>
        <time>2012-10-14T13:42:50Z</time>
      </trkpt>
      <trkpt lat="42.024414000" lon="2.465067100">
        <ele>844.20</ele>
        <time>2012-10-14T13:42:57Z</time>
      </trkpt>
      <trkpt lat="42.024403000" lon="2.465063100">
        <ele>843.20</ele>
        <time>2012-10-14T13:43:04Z</time>
      </trkpt>
      <trkpt lat="42.024399000" lon="2.465057100">
        <ele>842.70</ele>
        <time>2012-10-14T13:43:14Z</time>
      </trkpt>
      <trkpt lat="42.024399000" lon="2.465058100">
        <ele>841.80</ele>
        <time>2012-10-14T13:43:30Z</time>
      </trkpt>
      <trkpt lat="42.024384000" lon="2.465063100">
        <ele>841.80</ele>
        <time>2012-10-14T13:43:35Z</time>
      </trkpt>
      <trkpt lat="42.024384000" lon="2.464900100">
        <ele>863.90</ele>
        <time>2012-10-14T15:55:43Z</time>
      </trkpt>
      <trkpt lat="42.024387000" lon="2.464902100">
        <ele>863.90</ele>
        <time>2012-10-14T15:55:43Z</time>
      </trkpt>
      <trkpt lat="42.024380000" lon="2.464931100">
        <ele>862.90</ele>
        <time>2012-10-14T15:55:45Z</time>
      </trkpt>
      <trkpt lat="42.024406000" lon="2.464997100">
        <ele>859.60</ele>
        <time>2012-10-14T15:55:48Z</time>
      </trkpt>
      <trkpt lat="42.024406000" lon="2.465054100">
        <ele>858.60</ele>
        <time>2012-10-14T15:55:53Z</time>
      </trkpt>
      <trkpt lat="42.024437000" lon="2.465090100">
        <ele>857.60</ele>
        <time>2012-10-14T15:55:55Z</time>
      </trkpt>
      <trkpt lat="42.024509000" lon="2.465144100">
        <ele>853.80</ele>
        <time>2012-10-14T15:56:02Z</time>
      </trkpt>
      <trkpt lat="42.024601000" lon="2.465224100">
        <ele>850.90</ele>
        <time>2012-10-14T15:56:09Z</time>
      </trkpt>
      <trkpt lat="42.024696000" lon="2.465414100">
        <ele>848.50</ele>
        <time>2012-10-14T15:56:18Z</time>
      </trkpt>
      <trkpt lat="42.024776000" lon="2.465599100">
        <ele>845.10</ele>
        <time>2012-10-14T15:56:26Z</time>
      </trkpt>
      <trkpt lat="42.024811000" lon="2.465751100">
        <ele>843.70</ele>
        <time>2012-10-14T15:56:33Z</time>
      </trkpt>
      <trkpt lat="42.024864000" lon="2.465956100">
        <ele>842.70</ele>
        <time>2012-10-14T15:56:40Z</time>
      </trkpt>
      <trkpt lat="42.024925000" lon="2.466178100">
        <ele>842.20</ele>
        <time>2012-10-14T15:56:47Z</time>
      </trkpt>
      <trkpt lat="42.025070000" lon="2.466385100">
        <ele>843.20</ele>
        <time>2012-10-14T15:56:58Z</time>
      </trkpt>
      <trkpt lat="42.025101000" lon="2.466415100">
        <ele>845.10</ele>
        <time>2012-10-14T15:57:00Z</time>
      </trkpt>
      <trkpt lat="42.025219000" lon="2.466505100">
        <ele>845.10</ele>
        <time>2012-10-14T15:57:08Z</time>
      </trkpt>
      <trkpt lat="42.025314000" lon="2.466565100">
        <ele>845.10</ele>
        <time>2012-10-14T15:57:15Z</time>
      </trkpt>
      <trkpt lat="42.025314000" lon="2.466572100">
        <ele>845.10</ele>
        <time>2012-10-14T15:59:17Z</time>
      </trkpt>
      <trkpt lat="42.025314000" lon="2.466572100">
        <ele>845.10</ele>
        <time>2012-10-14T15:59:33Z</time>
      </trkpt>
      <trkpt lat="42.025314000" lon="2.466580100">
        <ele>844.20</ele>
        <time>2012-10-14T16:00:51Z</time>
      </trkpt>
      <trkpt lat="42.025318000" lon="2.466586100">
        <ele>844.20</ele>
        <time>2012-10-14T16:01:28Z</time>
      </trkpt>
      <trkpt lat="42.025314000" lon="2.466586100">
        <ele>844.20</ele>
        <time>2012-10-14T16:01:59Z</time>
      </trkpt>
      <trkpt lat="42.025318000" lon="2.466586100">
        <ele>844.20</ele>
        <time>2012-10-14T16:02:50Z</time>
      </trkpt>
      <trkpt lat="42.025318000" lon="2.466583100">
        <ele>844.20</ele>
        <time>2012-10-14T16:03:05Z</time>
      </trkpt>
      <trkpt lat="42.025318000" lon="2.466586100">
        <ele>844.20</ele>
        <time>2012-10-14T16:03:07Z</time>
      </trkpt>
      <trkpt lat="42.025421000" lon="2.466516100">
        <ele>844.20</ele>
        <time>2012-10-14T16:03:14Z</time>
      </trkpt>
      <trkpt lat="42.025570000" lon="2.466444100">
        <ele>843.70</ele>
        <time>2012-10-14T16:03:18Z</time>
      </trkpt>
      <trkpt lat="42.025711000" lon="2.466229100">
        <ele>843.20</ele>
        <time>2012-10-14T16:03:21Z</time>
      </trkpt>
      <trkpt lat="42.025898000" lon="2.465513100">
        <ele>842.20</ele>
        <time>2012-10-14T16:03:30Z</time>
      </trkpt>
      <trkpt lat="42.026020000" lon="2.465056100">
        <ele>840.80</ele>
        <time>2012-10-14T16:03:35Z</time>
      </trkpt>
      <trkpt lat="42.025898000" lon="2.464976100">
        <ele>840.30</ele>
        <time>2012-10-14T16:03:40Z</time>
      </trkpt>
      <trkpt lat="42.025730000" lon="2.464953100">
        <ele>839.80</ele>
        <time>2012-10-14T16:03:42Z</time>
      </trkpt>
      <trkpt lat="42.025600000" lon="2.464896100">
        <ele>839.40</ele>
        <time>2012-10-14T16:03:47Z</time>
      </trkpt>
      <trkpt lat="42.025448000" lon="2.464862100">
        <ele>839.40</ele>
        <time>2012-10-14T16:03:56Z</time>
      </trkpt>
      <trkpt lat="42.025230000" lon="2.464817100">
        <ele>839.40</ele>
        <time>2012-10-14T16:04:03Z</time>
      </trkpt>
      <trkpt lat="42.025089000" lon="2.464736100">
        <ele>839.40</ele>
        <time>2012-10-14T16:04:08Z</time>
      </trkpt>
      <trkpt lat="42.024841000" lon="2.464442100">
        <ele>839.40</ele>
        <time>2012-10-14T16:04:17Z</time>
      </trkpt>
      <trkpt lat="42.024666000" lon="2.464273100">
        <ele>839.40</ele>
        <time>2012-10-14T16:04:24Z</time>
      </trkpt>
      <trkpt lat="42.024437000" lon="2.464170100">
        <ele>838.90</ele>
        <time>2012-10-14T16:04:31Z</time>
      </trkpt>
      <trkpt lat="42.024239000" lon="2.464051100">
        <ele>838.40</ele>
        <time>2012-10-14T16:04:41Z</time>
      </trkpt>
      <trkpt lat="42.024075000" lon="2.463960100">
        <ele>838.40</ele>
        <time>2012-10-14T16:04:50Z</time>
      </trkpt>
      <trkpt lat="42.023903000" lon="2.463829100">
        <ele>839.40</ele>
        <time>2012-10-14T16:04:57Z</time>
      </trkpt>
      <trkpt lat="42.023815000" lon="2.463727100">
        <ele>839.40</ele>
        <time>2012-10-14T16:05:00Z</time>
      </trkpt>
      <trkpt lat="42.023670000" lon="2.463515100">
        <ele>839.40</ele>
        <time>2012-10-14T16:05:04Z</time>
      </trkpt>
      <trkpt lat="42.023560000" lon="2.463415100">
        <ele>839.40</ele>
        <time>2012-10-14T16:05:07Z</time>
      </trkpt>
      <trkpt lat="42.023335000" lon="2.463253100">
        <ele>838.40</ele>
        <time>2012-10-14T16:05:14Z</time>
      </trkpt>
      <trkpt lat="42.023098000" lon="2.463201100">
        <ele>837.90</ele>
        <time>2012-10-14T16:05:21Z</time>
      </trkpt>
      <trkpt lat="42.022968000" lon="2.463175100">
        <ele>837.90</ele>
        <time>2012-10-14T16:05:25Z</time>
      </trkpt>
      <trkpt lat="42.022808000" lon="2.463043100">
        <ele>837.50</ele>
        <time>2012-10-14T16:05:28Z</time>
      </trkpt>
      <trkpt lat="42.022617000" lon="2.462970100">
        <ele>837.00</ele>
        <time>2012-10-14T16:05:35Z</time>
      </trkpt>
      <trkpt lat="42.022476000" lon="2.463173100">
        <ele>837.00</ele>
        <time>2012-10-14T16:05:42Z</time>
      </trkpt>
      <trkpt lat="42.022308000" lon="2.463318100">
        <ele>837.00</ele>
        <time>2012-10-14T16:05:49Z</time>
      </trkpt>
      <trkpt lat="42.022141000" lon="2.463471100">
        <ele>838.40</ele>
        <time>2012-10-14T16:05:58Z</time>
      </trkpt>
      <trkpt lat="42.022015000" lon="2.463652100">
        <ele>840.30</ele>
        <time>2012-10-14T16:06:06Z</time>
      </trkpt>
      <trkpt lat="42.021889000" lon="2.463793100">
        <ele>841.80</ele>
        <time>2012-10-14T16:06:15Z</time>
      </trkpt>
      <trkpt lat="42.021790000" lon="2.463923100">
        <ele>843.20</ele>
        <time>2012-10-14T16:06:24Z</time>
      </trkpt>
      <trkpt lat="42.021698000" lon="2.464088100">
        <ele>845.60</ele>
        <time>2012-10-14T16:06:33Z</time>
      </trkpt>
      <trkpt lat="42.021626000" lon="2.464233100">
        <ele>847.50</ele>
        <time>2012-10-14T16:06:41Z</time>
      </trkpt>
      <trkpt lat="42.021576000" lon="2.464339100">
        <ele>849.50</ele>
        <time>2012-10-14T16:06:47Z</time>
      </trkpt>
      <trkpt lat="42.021553000" lon="2.464468100">
        <ele>853.80</ele>
        <time>2012-10-14T16:06:52Z</time>
      </trkpt>
      <trkpt lat="42.021542000" lon="2.464695100">
        <ele>853.80</ele>
        <time>2012-10-14T16:07:02Z</time>
      </trkpt>
      <trkpt lat="42.021526000" lon="2.464906100">
        <ele>854.30</ele>
        <time>2012-10-14T16:07:13Z</time>
      </trkpt>
      <trkpt lat="42.021526000" lon="2.465091100">
        <ele>855.20</ele>
        <time>2012-10-14T16:07:21Z</time>
      </trkpt>
      <trkpt lat="42.021534000" lon="2.465303100">
        <ele>857.20</ele>
        <time>2012-10-14T16:07:30Z</time>
      </trkpt>
      <trkpt lat="42.021454000" lon="2.465476100">
        <ele>858.10</ele>
        <time>2012-10-14T16:07:39Z</time>
      </trkpt>
      <trkpt lat="42.021305000" lon="2.465579100">
        <ele>859.10</ele>
        <time>2012-10-14T16:07:49Z</time>
      </trkpt>
      <trkpt lat="42.021095000" lon="2.465650100">
        <ele>860.00</ele>
        <time>2012-10-14T16:08:00Z</time>
      </trkpt>
      <trkpt lat="42.020947000" lon="2.465688100">
        <ele>861.50</ele>
        <time>2012-10-14T16:08:08Z</time>
      </trkpt>
      <trkpt lat="42.020782000" lon="2.465648100">
        <ele>862.40</ele>
        <time>2012-10-14T16:08:17Z</time>
      </trkpt>
      <trkpt lat="42.020657000" lon="2.465515100">
        <ele>862.90</ele>
        <time>2012-10-14T16:08:22Z</time>
      </trkpt>
      <trkpt lat="42.020573000" lon="2.465286100">
        <ele>862.90</ele>
        <time>2012-10-14T16:08:26Z</time>
      </trkpt>
      <trkpt lat="42.020554000" lon="2.464966100">
        <ele>863.40</ele>
        <time>2012-10-14T16:08:33Z</time>
      </trkpt>
      <trkpt lat="42.020435000" lon="2.464791100">
        <ele>863.40</ele>
        <time>2012-10-14T16:08:38Z</time>
      </trkpt>
      <trkpt lat="42.020149000" lon="2.464682100">
        <ele>863.90</ele>
        <time>2012-10-14T16:08:45Z</time>
      </trkpt>
      <trkpt lat="42.019901000" lon="2.464459100">
        <ele>863.90</ele>
        <time>2012-10-14T16:08:54Z</time>
      </trkpt>
      <trkpt lat="42.019684000" lon="2.464278100">
        <ele>864.80</ele>
        <time>2012-10-14T16:09:01Z</time>
      </trkpt>
      <trkpt lat="42.019650000" lon="2.464246100">
        <ele>864.80</ele>
        <time>2012-10-14T16:09:02Z</time>
      </trkpt>
      <trkpt lat="42.019520000" lon="2.464020100">
        <ele>864.80</ele>
        <time>2012-10-14T16:09:08Z</time>
      </trkpt>
      <trkpt lat="42.019482000" lon="2.463917100">
        <ele>864.80</ele>
        <time>2012-10-14T16:09:09Z</time>
      </trkpt>
      <trkpt lat="42.019253000" lon="2.463609100">
        <ele>864.80</ele>
        <time>2012-10-14T16:09:16Z</time>
      </trkpt>
      <trkpt lat="42.019215000" lon="2.463564100">
        <ele>864.80</ele>
        <time>2012-10-14T16:09:18Z</time>
      </trkpt>
      <trkpt lat="42.019104000" lon="2.463210100">
        <ele>863.90</ele>
        <time>2012-10-14T16:09:23Z</time>
      </trkpt>
      <trkpt lat="42.019154000" lon="2.462950100">
        <ele>861.50</ele>
        <time>2012-10-14T16:09:25Z</time>
      </trkpt>
      <trkpt lat="42.019207000" lon="2.462689100">
        <ele>854.80</ele>
        <time>2012-10-14T16:09:30Z</time>
      </trkpt>
      <trkpt lat="42.019142000" lon="2.462596100">
        <ele>851.40</ele>
        <time>2012-10-14T16:09:32Z</time>
      </trkpt>
      <trkpt lat="42.018974000" lon="2.462613100">
        <ele>849.90</ele>
        <time>2012-10-14T16:09:34Z</time>
      </trkpt>
      <trkpt lat="42.018890000" lon="2.462651100">
        <ele>849.90</ele>
        <time>2012-10-14T16:09:37Z</time>
      </trkpt>
      <trkpt lat="42.018745000" lon="2.462663100">
        <ele>853.30</ele>
        <time>2012-10-14T16:09:41Z</time>
      </trkpt>
      <trkpt lat="42.018654000" lon="2.462660100">
        <ele>856.70</ele>
        <time>2012-10-14T16:09:44Z</time>
      </trkpt>
      <trkpt lat="42.018539000" lon="2.462672100">
        <ele>860.00</ele>
        <time>2012-10-14T16:09:48Z</time>
      </trkpt>
      <trkpt lat="42.018326000" lon="2.462831100">
        <ele>859.60</ele>
        <time>2012-10-14T16:09:55Z</time>
      </trkpt>
      <trkpt lat="42.018234000" lon="2.462916100">
        <ele>859.60</ele>
        <time>2012-10-14T16:09:56Z</time>
      </trkpt>
      <trkpt lat="42.018085000" lon="2.463233100">
        <ele>855.20</ele>
        <time>2012-10-14T16:10:00Z</time>
      </trkpt>
      <trkpt lat="42.018070000" lon="2.463433100">
        <ele>852.80</ele>
        <time>2012-10-14T16:10:02Z</time>
      </trkpt>
      <trkpt lat="42.018108000" lon="2.463831100">
        <ele>851.40</ele>
        <time>2012-10-14T16:10:07Z</time>
      </trkpt>
      <trkpt lat="42.018143000" lon="2.463893100">
        <ele>851.40</ele>
        <time>2012-10-14T16:10:09Z</time>
      </trkpt>
      <trkpt lat="42.018234000" lon="2.464080100">
        <ele>853.30</ele>
        <time>2012-10-14T16:10:12Z</time>
      </trkpt>
      <trkpt lat="42.018394000" lon="2.464642100">
        <ele>855.20</ele>
        <time>2012-10-14T16:10:19Z</time>
      </trkpt>
      <trkpt lat="42.018471000" lon="2.465016100">
        <ele>855.20</ele>
        <time>2012-10-14T16:10:24Z</time>
      </trkpt>
      <trkpt lat="42.018639000" lon="2.465510100">
        <ele>855.20</ele>
        <time>2012-10-14T16:10:31Z</time>
      </trkpt>
      <trkpt lat="42.018654000" lon="2.465855100">
        <ele>853.80</ele>
        <time>2012-10-14T16:10:35Z</time>
      </trkpt>
      <trkpt lat="42.018623000" lon="2.465945100">
        <ele>853.80</ele>
        <time>2012-10-14T16:10:35Z</time>
      </trkpt>
      <trkpt lat="42.018539000" lon="2.466154100">
        <ele>852.30</ele>
        <time>2012-10-14T16:10:38Z</time>
      </trkpt>
      <trkpt lat="42.018391000" lon="2.466667100">
        <ele>848.00</ele>
        <time>2012-10-14T16:10:42Z</time>
      </trkpt>
      <trkpt lat="42.018364000" lon="2.466790100">
        <ele>846.10</ele>
        <time>2012-10-14T16:10:42Z</time>
      </trkpt>
      <trkpt lat="42.018402000" lon="2.467052100">
        <ele>841.30</ele>
        <time>2012-10-14T16:10:45Z</time>
      </trkpt>
      <trkpt lat="42.018513000" lon="2.467319100">
        <ele>837.90</ele>
        <time>2012-10-14T16:10:49Z</time>
      </trkpt>
      <trkpt lat="42.018864000" lon="2.468079100">
        <ele>837.50</ele>
        <time>2012-10-14T16:10:56Z</time>
      </trkpt>
      <trkpt lat="42.018951000" lon="2.468420100">
        <ele>836.00</ele>
        <time>2012-10-14T16:10:59Z</time>
      </trkpt>
      <trkpt lat="42.018860000" lon="2.468522100">
        <ele>833.60</ele>
        <time>2012-10-14T16:11:03Z</time>
      </trkpt>
      <trkpt lat="42.018833000" lon="2.468552100">
        <ele>834.10</ele>
        <time>2012-10-14T16:11:04Z</time>
      </trkpt>
      <trkpt lat="42.018654000" lon="2.468723100">
        <ele>836.50</ele>
        <time>2012-10-14T16:11:11Z</time>
      </trkpt>
      <trkpt lat="42.018230000" lon="2.468699100">
        <ele>838.90</ele>
        <time>2012-10-14T16:11:18Z</time>
      </trkpt>
      <trkpt lat="42.017567000" lon="2.468721100">
        <ele>837.50</ele>
        <time>2012-10-14T16:11:29Z</time>
      </trkpt>
      <trkpt lat="42.017307000" lon="2.468805100">
        <ele>837.50</ele>
        <time>2012-10-14T16:11:34Z</time>
      </trkpt>
      <trkpt lat="42.017132000" lon="2.468851100">
        <ele>837.50</ele>
        <time>2012-10-14T16:11:37Z</time>
      </trkpt>
      <trkpt lat="42.016834000" lon="2.468904100">
        <ele>837.50</ele>
        <time>2012-10-14T16:11:46Z</time>
      </trkpt>
      <trkpt lat="42.016617000" lon="2.469028100">
        <ele>838.90</ele>
        <time>2012-10-14T16:11:53Z</time>
      </trkpt>
      <trkpt lat="42.016365000" lon="2.469223100">
        <ele>839.80</ele>
        <time>2012-10-14T16:12:00Z</time>
      </trkpt>
      <trkpt lat="42.016060000" lon="2.469469100">
        <ele>840.30</ele>
        <time>2012-10-14T16:12:07Z</time>
      </trkpt>
      <trkpt lat="42.015652000" lon="2.469857100">
        <ele>840.30</ele>
        <time>2012-10-14T16:12:16Z</time>
      </trkpt>
      <trkpt lat="42.015217000" lon="2.470257100">
        <ele>840.30</ele>
        <time>2012-10-14T16:12:23Z</time>
      </trkpt>
      <trkpt lat="42.015003000" lon="2.470427100">
        <ele>840.30</ele>
        <time>2012-10-14T16:12:26Z</time>
      </trkpt>
      <trkpt lat="42.014854000" lon="2.470501100">
        <ele>838.90</ele>
        <time>2012-10-14T16:12:28Z</time>
      </trkpt>
      <trkpt lat="42.014324000" lon="2.470631100">
        <ele>838.40</ele>
        <time>2012-10-14T16:12:35Z</time>
      </trkpt>
      <trkpt lat="42.014099000" lon="2.470621100">
        <ele>837.90</ele>
        <time>2012-10-14T16:12:38Z</time>
      </trkpt>
      <trkpt lat="42.013767000" lon="2.470403100">
        <ele>836.50</ele>
        <time>2012-10-14T16:12:44Z</time>
      </trkpt>
      <trkpt lat="42.013489000" lon="2.470184100">
        <ele>836.50</ele>
        <time>2012-10-14T16:12:49Z</time>
      </trkpt>
      <trkpt lat="42.013153000" lon="2.469887100">
        <ele>836.50</ele>
        <time>2012-10-14T16:12:56Z</time>
      </trkpt>
      <trkpt lat="42.012959000" lon="2.469905100">
        <ele>836.50</ele>
        <time>2012-10-14T16:13:01Z</time>
      </trkpt>
      <trkpt lat="42.012909000" lon="2.469950100">
        <ele>836.50</ele>
        <time>2012-10-14T16:13:01Z</time>
      </trkpt>
      <trkpt lat="42.012604000" lon="2.470206100">
        <ele>836.00</ele>
        <time>2012-10-14T16:13:06Z</time>
      </trkpt>
      <trkpt lat="42.012272000" lon="2.470335100">
        <ele>835.50</ele>
        <time>2012-10-14T16:13:12Z</time>
      </trkpt>
      <trkpt lat="42.011738000" lon="2.470602100">
        <ele>832.60</ele>
        <time>2012-10-14T16:13:18Z</time>
      </trkpt>
      <trkpt lat="42.011368000" lon="2.470768100">
        <ele>828.30</ele>
        <time>2012-10-14T16:13:22Z</time>
      </trkpt>
      <trkpt lat="42.011276000" lon="2.470798100">
        <ele>827.30</ele>
        <time>2012-10-14T16:13:24Z</time>
      </trkpt>
      <trkpt lat="42.011009000" lon="2.470792100">
        <ele>825.90</ele>
        <time>2012-10-14T16:13:27Z</time>
      </trkpt>
      <trkpt lat="42.010864000" lon="2.470728100">
        <ele>825.40</ele>
        <time>2012-10-14T16:13:29Z</time>
      </trkpt>
      <trkpt lat="42.010445000" lon="2.470509100">
        <ele>824.50</ele>
        <time>2012-10-14T16:13:36Z</time>
      </trkpt>
      <trkpt lat="42.010109000" lon="2.470315100">
        <ele>821.10</ele>
        <time>2012-10-14T16:13:41Z</time>
      </trkpt>
      <trkpt lat="42.009876000" lon="2.470270100">
        <ele>815.80</ele>
        <time>2012-10-14T16:13:43Z</time>
      </trkpt>
      <trkpt lat="42.009754000" lon="2.470360100">
        <ele>812.90</ele>
        <time>2012-10-14T16:13:46Z</time>
      </trkpt>
      <trkpt lat="42.009716000" lon="2.470536100">
        <ele>809.60</ele>
        <time>2012-10-14T16:13:48Z</time>
      </trkpt>
      <trkpt lat="42.009758000" lon="2.470713100">
        <ele>807.60</ele>
        <time>2012-10-14T16:13:50Z</time>
      </trkpt>
      <trkpt lat="42.009727000" lon="2.471045100">
        <ele>805.70</ele>
        <time>2012-10-14T16:13:55Z</time>
      </trkpt>
      <trkpt lat="42.009670000" lon="2.471059100">
        <ele>806.20</ele>
        <time>2012-10-14T16:13:55Z</time>
      </trkpt>
      <trkpt lat="42.009480000" lon="2.471077100">
        <ele>806.20</ele>
        <time>2012-10-14T16:13:59Z</time>
      </trkpt>
      <trkpt lat="42.009186000" lon="2.470916100">
        <ele>805.70</ele>
        <time>2012-10-14T16:14:04Z</time>
      </trkpt>
      <trkpt lat="42.009003000" lon="2.470608100">
        <ele>805.70</ele>
        <time>2012-10-14T16:14:07Z</time>
      </trkpt>
      <trkpt lat="42.008823000" lon="2.470422100">
        <ele>805.70</ele>
        <time>2012-10-14T16:14:11Z</time>
      </trkpt>
      <trkpt lat="42.008736000" lon="2.470165100">
        <ele>800.90</ele>
        <time>2012-10-14T16:14:14Z</time>
      </trkpt>
      <trkpt lat="42.008759000" lon="2.470091100">
        <ele>799.50</ele>
        <time>2012-10-14T16:14:16Z</time>
      </trkpt>
      <trkpt lat="42.008835000" lon="2.469823100">
        <ele>793.70</ele>
        <time>2012-10-14T16:14:18Z</time>
      </trkpt>
      <trkpt lat="42.008919000" lon="2.469615100">
        <ele>790.80</ele>
        <time>2012-10-14T16:14:21Z</time>
      </trkpt>
      <trkpt lat="42.008961000" lon="2.469499100">
        <ele>789.40</ele>
        <time>2012-10-14T16:14:21Z</time>
      </trkpt>
      <trkpt lat="42.009087000" lon="2.468939100">
        <ele>786.00</ele>
        <time>2012-10-14T16:14:26Z</time>
      </trkpt>
      <trkpt lat="42.009174000" lon="2.468777100">
        <ele>785.50</ele>
        <time>2012-10-14T16:14:28Z</time>
      </trkpt>
      <trkpt lat="42.009293000" lon="2.468615100">
        <ele>786.00</ele>
        <time>2012-10-14T16:14:30Z</time>
      </trkpt>
      <trkpt lat="42.009560000" lon="2.468339100">
        <ele>785.50</ele>
        <time>2012-10-14T16:14:35Z</time>
      </trkpt>
      <trkpt lat="42.009590000" lon="2.468023100">
        <ele>782.70</ele>
        <time>2012-10-14T16:14:37Z</time>
      </trkpt>
      <trkpt lat="42.009556000" lon="2.467674100">
        <ele>778.80</ele>
        <time>2012-10-14T16:14:40Z</time>
      </trkpt>
      <trkpt lat="42.009617000" lon="2.467449100">
        <ele>774.00</ele>
        <time>2012-10-14T16:14:44Z</time>
      </trkpt>
      <trkpt lat="42.009674000" lon="2.467390100">
        <ele>772.60</ele>
        <time>2012-10-14T16:14:44Z</time>
      </trkpt>
      <trkpt lat="42.009972000" lon="2.466931100">
        <ele>768.20</ele>
        <time>2012-10-14T16:14:49Z</time>
      </trkpt>
      <trkpt lat="42.010303000" lon="2.466308100">
        <ele>766.30</ele>
        <time>2012-10-14T16:14:56Z</time>
      </trkpt>
      <trkpt lat="42.010368000" lon="2.465878100">
        <ele>762.90</ele>
        <time>2012-10-14T16:15:00Z</time>
      </trkpt>
      <trkpt lat="42.010250000" lon="2.465518100">
        <ele>761.00</ele>
        <time>2012-10-14T16:15:03Z</time>
      </trkpt>
      <trkpt lat="42.010071000" lon="2.465003100">
        <ele>760.10</ele>
        <time>2012-10-14T16:15:06Z</time>
      </trkpt>
      <trkpt lat="42.009838000" lon="2.464595100">
        <ele>757.20</ele>
        <time>2012-10-14T16:15:10Z</time>
      </trkpt>
      <trkpt lat="42.009766000" lon="2.464328100">
        <ele>755.20</ele>
        <time>2012-10-14T16:15:13Z</time>
      </trkpt>
      <trkpt lat="42.009811000" lon="2.464199100">
        <ele>753.80</ele>
        <time>2012-10-14T16:15:15Z</time>
      </trkpt>
      <trkpt lat="42.009804000" lon="2.464056100">
        <ele>749.50</ele>
        <time>2012-10-14T16:15:22Z</time>
      </trkpt>
      <trkpt lat="42.009758000" lon="2.464036100">
        <ele>749.00</ele>
        <time>2012-10-14T16:15:26Z</time>
      </trkpt>
      <trkpt lat="42.009621000" lon="2.464126100">
        <ele>749.00</ele>
        <time>2012-10-14T16:15:31Z</time>
      </trkpt>
      <trkpt lat="42.009556000" lon="2.464403100">
        <ele>749.00</ele>
        <time>2012-10-14T16:15:36Z</time>
      </trkpt>
      <trkpt lat="42.009621000" lon="2.464596100">
        <ele>749.00</ele>
        <time>2012-10-14T16:15:40Z</time>
      </trkpt>
      <trkpt lat="42.009670000" lon="2.464687100">
        <ele>748.50</ele>
        <time>2012-10-14T16:15:41Z</time>
      </trkpt>
      <trkpt lat="42.009827000" lon="2.464898100">
        <ele>748.50</ele>
        <time>2012-10-14T16:15:47Z</time>
      </trkpt>
      <trkpt lat="42.009918000" lon="2.465086100">
        <ele>748.50</ele>
        <time>2012-10-14T16:15:50Z</time>
      </trkpt>
      <trkpt lat="42.010056000" lon="2.465465100">
        <ele>748.50</ele>
        <time>2012-10-14T16:15:59Z</time>
      </trkpt>
      <trkpt lat="42.010094000" lon="2.465598100">
        <ele>748.50</ele>
        <time>2012-10-14T16:16:00Z</time>
      </trkpt>
      <trkpt lat="42.010113000" lon="2.465757100">
        <ele>748.50</ele>
        <time>2012-10-14T16:16:04Z</time>
      </trkpt>
      <trkpt lat="42.010094000" lon="2.465997100">
        <ele>748.50</ele>
        <time>2012-10-14T16:16:07Z</time>
      </trkpt>
      <trkpt lat="42.009968000" lon="2.466240100">
        <ele>748.50</ele>
        <time>2012-10-14T16:16:13Z</time>
      </trkpt>
      <trkpt lat="42.009697000" lon="2.466645100">
        <ele>748.50</ele>
        <time>2012-10-14T16:16:23Z</time>
      </trkpt>
      <trkpt lat="42.009502000" lon="2.466936100">
        <ele>750.00</ele>
        <time>2012-10-14T16:16:30Z</time>
      </trkpt>
      <trkpt lat="42.009247000" lon="2.467237100">
        <ele>750.50</ele>
        <time>2012-10-14T16:16:39Z</time>
      </trkpt>
      <trkpt lat="42.009193000" lon="2.467483100">
        <ele>751.40</ele>
        <time>2012-10-14T16:16:44Z</time>
      </trkpt>
      <trkpt lat="42.009201000" lon="2.467636100">
        <ele>751.40</ele>
        <time>2012-10-14T16:16:48Z</time>
      </trkpt>
      <trkpt lat="42.009148000" lon="2.467843100">
        <ele>751.90</ele>
        <time>2012-10-14T16:16:51Z</time>
      </trkpt>
      <trkpt lat="42.009075000" lon="2.467976100">
        <ele>751.90</ele>
        <time>2012-10-14T16:16:54Z</time>
      </trkpt>
      <trkpt lat="42.008999000" lon="2.468045100">
        <ele>751.90</ele>
        <time>2012-10-14T16:16:56Z</time>
      </trkpt>
      <trkpt lat="42.008965000" lon="2.468055100">
        <ele>751.90</ele>
        <time>2012-10-14T16:16:58Z</time>
      </trkpt>
      <trkpt lat="42.008778000" lon="2.468085100">
        <ele>751.90</ele>
        <time>2012-10-14T16:17:01Z</time>
      </trkpt>
      <trkpt lat="42.008633000" lon="2.468147100">
        <ele>750.90</ele>
        <time>2012-10-14T16:17:05Z</time>
      </trkpt>
      <trkpt lat="42.008389000" lon="2.468333100">
        <ele>750.90</ele>
        <time>2012-10-14T16:17:10Z</time>
      </trkpt>
      <trkpt lat="42.008270000" lon="2.468588100">
        <ele>750.00</ele>
        <time>2012-10-14T16:17:14Z</time>
      </trkpt>
      <trkpt lat="42.008282000" lon="2.468645100">
        <ele>750.00</ele>
        <time>2012-10-14T16:17:15Z</time>
      </trkpt>
      <trkpt lat="42.008358000" lon="2.468931100">
        <ele>749.50</ele>
        <time>2012-10-14T16:17:21Z</time>
      </trkpt>
      <trkpt lat="42.008297000" lon="2.469337100">
        <ele>750.00</ele>
        <time>2012-10-14T16:17:29Z</time>
      </trkpt>
      <trkpt lat="42.008175000" lon="2.469661100">
        <ele>750.00</ele>
        <time>2012-10-14T16:17:36Z</time>
      </trkpt>
      <trkpt lat="42.008198000" lon="2.469952100">
        <ele>750.90</ele>
        <time>2012-10-14T16:17:43Z</time>
      </trkpt>
      <trkpt lat="42.008236000" lon="2.470262100">
        <ele>751.90</ele>
        <time>2012-10-14T16:17:50Z</time>
      </trkpt>
      <trkpt lat="42.008247000" lon="2.470529100">
        <ele>752.80</ele>
        <time>2012-10-14T16:17:57Z</time>
      </trkpt>
      <trkpt lat="42.008217000" lon="2.470754100">
        <ele>754.30</ele>
        <time>2012-10-14T16:18:04Z</time>
      </trkpt>
      <trkpt lat="42.008148000" lon="2.470931100">
        <ele>755.20</ele>
        <time>2012-10-14T16:18:09Z</time>
      </trkpt>
      <trkpt lat="42.008068000" lon="2.471040100">
        <ele>756.70</ele>
        <time>2012-10-14T16:18:16Z</time>
      </trkpt>
      <trkpt lat="42.007946000" lon="2.471140100">
        <ele>757.70</ele>
        <time>2012-10-14T16:18:22Z</time>
      </trkpt>
      <trkpt lat="42.007790000" lon="2.471212100">
        <ele>758.60</ele>
        <time>2012-10-14T16:18:29Z</time>
      </trkpt>
      <trkpt lat="42.007587000" lon="2.471241100">
        <ele>759.60</ele>
        <time>2012-10-14T16:18:34Z</time>
      </trkpt>
      <trkpt lat="42.007381000" lon="2.471369100">
        <ele>759.60</ele>
        <time>2012-10-14T16:18:39Z</time>
      </trkpt>
      <trkpt lat="42.007267000" lon="2.471446100">
        <ele>759.60</ele>
        <time>2012-10-14T16:18:42Z</time>
      </trkpt>
      <trkpt lat="42.007092000" lon="2.471510100">
        <ele>759.60</ele>
        <time>2012-10-14T16:18:46Z</time>
      </trkpt>
      <trkpt lat="42.006908000" lon="2.471566100">
        <ele>759.60</ele>
        <time>2012-10-14T16:18:51Z</time>
      </trkpt>
      <trkpt lat="42.006538000" lon="2.471751100">
        <ele>759.60</ele>
        <time>2012-10-14T16:19:00Z</time>
      </trkpt>
      <trkpt lat="42.006386000" lon="2.471842100">
        <ele>758.10</ele>
        <time>2012-10-14T16:19:03Z</time>
      </trkpt>
      <trkpt lat="42.006046000" lon="2.471920100">
        <ele>757.70</ele>
        <time>2012-10-14T16:19:12Z</time>
      </trkpt>
      <trkpt lat="42.005779000" lon="2.471933100">
        <ele>757.70</ele>
        <time>2012-10-14T16:19:21Z</time>
      </trkpt>
      <trkpt lat="42.005581000" lon="2.471873100">
        <ele>757.70</ele>
        <time>2012-10-14T16:19:28Z</time>
      </trkpt>
      <trkpt lat="42.005409000" lon="2.471851100">
        <ele>759.10</ele>
        <time>2012-10-14T16:19:35Z</time>
      </trkpt>
      <trkpt lat="42.005131000" lon="2.471940100">
        <ele>759.60</ele>
        <time>2012-10-14T16:19:42Z</time>
      </trkpt>
      <trkpt lat="42.005005000" lon="2.472042100">
        <ele>760.10</ele>
        <time>2012-10-14T16:19:47Z</time>
      </trkpt>
      <trkpt lat="42.004940000" lon="2.472053100">
        <ele>760.10</ele>
        <time>2012-10-14T16:19:52Z</time>
      </trkpt>
      <trkpt lat="42.004887000" lon="2.472096100">
        <ele>761.00</ele>
        <time>2012-10-14T16:19:59Z</time>
      </trkpt>
      <trkpt lat="42.004887000" lon="2.472096100">
        <ele>761.00</ele>
        <time>2012-10-14T16:20:36Z</time>
      </trkpt>
      <trkpt lat="42.004814000" lon="2.472211100">
        <ele>761.50</ele>
        <time>2012-10-14T16:20:41Z</time>
      </trkpt>
      <trkpt lat="42.004803000" lon="2.472231100">
        <ele>761.50</ele>
        <time>2012-10-14T16:20:43Z</time>
      </trkpt>
      <trkpt lat="42.004784000" lon="2.472246100">
        <ele>761.50</ele>
        <time>2012-10-14T16:20:46Z</time>
      </trkpt>
      <trkpt lat="42.004772000" lon="2.472262100">
        <ele>761.50</ele>
        <time>2012-10-14T16:20:53Z</time>
      </trkpt>
      <trkpt lat="42.004772000" lon="2.472263100">
        <ele>760.50</ele>
        <time>2012-10-14T16:21:05Z</time>
      </trkpt>
      <trkpt lat="42.004772000" lon="2.472262100">
        <ele>760.50</ele>
        <time>2012-10-14T16:21:19Z</time>
      </trkpt>
      <trkpt lat="42.004650000" lon="2.472403100">
        <ele>760.50</ele>
        <time>2012-10-14T16:21:30Z</time>
      </trkpt>
      <trkpt lat="42.004349000" lon="2.472706100">
        <ele>760.10</ele>
        <time>2012-10-14T16:21:38Z</time>
      </trkpt>
      <trkpt lat="42.004303000" lon="2.472741100">
        <ele>760.10</ele>
        <time>2012-10-14T16:21:40Z</time>
      </trkpt>
      <trkpt lat="42.003902000" lon="2.472886100">
        <ele>758.10</ele>
        <time>2012-10-14T16:21:47Z</time>
      </trkpt>
      <trkpt lat="42.003723000" lon="2.472906100">
        <ele>756.70</ele>
        <time>2012-10-14T16:21:49Z</time>
      </trkpt>
      <trkpt lat="42.003426000" lon="2.473068100">
        <ele>752.40</ele>
        <time>2012-10-14T16:21:54Z</time>
      </trkpt>
      <trkpt lat="42.003307000" lon="2.473150100">
        <ele>750.00</ele>
        <time>2012-10-14T16:21:56Z</time>
      </trkpt>
      <trkpt lat="42.003033000" lon="2.473300100">
        <ele>746.10</ele>
        <time>2012-10-14T16:22:03Z</time>
      </trkpt>
      <trkpt lat="42.002899000" lon="2.473457100">
        <ele>745.60</ele>
        <time>2012-10-14T16:22:08Z</time>
      </trkpt>
      <trkpt lat="42.002853000" lon="2.473511100">
        <ele>745.60</ele>
        <time>2012-10-14T16:22:10Z</time>
      </trkpt>
      <trkpt lat="42.002659000" lon="2.473722100">
        <ele>744.70</ele>
        <time>2012-10-14T16:22:17Z</time>
      </trkpt>
      <trkpt lat="42.002628000" lon="2.473757100">
        <ele>743.70</ele>
        <time>2012-10-14T16:22:17Z</time>
      </trkpt>
      <trkpt lat="42.002518000" lon="2.473970100">
        <ele>739.90</ele>
        <time>2012-10-14T16:22:22Z</time>
      </trkpt>
      <trkpt lat="42.002472000" lon="2.474216100">
        <ele>734.60</ele>
        <time>2012-10-14T16:22:25Z</time>
      </trkpt>
      <trkpt lat="42.002453000" lon="2.474368100">
        <ele>731.70</ele>
        <time>2012-10-14T16:22:29Z</time>
      </trkpt>
      <trkpt lat="42.002392000" lon="2.474700100">
        <ele>729.30</ele>
        <time>2012-10-14T16:22:36Z</time>
      </trkpt>
      <trkpt lat="42.002342000" lon="2.474895100">
        <ele>727.90</ele>
        <time>2012-10-14T16:22:39Z</time>
      </trkpt>
      <trkpt lat="42.002312000" lon="2.475097100">
        <ele>724.50</ele>
        <time>2012-10-14T16:22:45Z</time>
      </trkpt>
      <trkpt lat="42.002285000" lon="2.475284100">
        <ele>721.60</ele>
        <time>2012-10-14T16:22:48Z</time>
      </trkpt>
      <trkpt lat="42.002262000" lon="2.475496100">
        <ele>719.70</ele>
        <time>2012-10-14T16:22:53Z</time>
      </trkpt>
      <trkpt lat="42.002300000" lon="2.475782100">
        <ele>716.30</ele>
        <time>2012-10-14T16:22:59Z</time>
      </trkpt>
      <trkpt lat="42.002369000" lon="2.476024100">
        <ele>713.40</ele>
        <time>2012-10-14T16:23:04Z</time>
      </trkpt>
      <trkpt lat="42.002388000" lon="2.476424100">
        <ele>711.00</ele>
        <time>2012-10-14T16:23:11Z</time>
      </trkpt>
      <trkpt lat="42.002361000" lon="2.476585100">
        <ele>710.50</ele>
        <time>2012-10-14T16:23:14Z</time>
      </trkpt>
      <trkpt lat="42.002346000" lon="2.476706100">
        <ele>710.50</ele>
        <time>2012-10-14T16:23:16Z</time>
      </trkpt>
      <trkpt lat="42.002251000" lon="2.477090100">
        <ele>710.10</ele>
        <time>2012-10-14T16:23:23Z</time>
      </trkpt>
      <trkpt lat="42.002186000" lon="2.477222100">
        <ele>709.60</ele>
        <time>2012-10-14T16:23:30Z</time>
      </trkpt>
      <trkpt lat="42.002151000" lon="2.477341100">
        <ele>711.00</ele>
        <time>2012-10-14T16:23:35Z</time>
      </trkpt>
      <trkpt lat="42.002159000" lon="2.477520100">
        <ele>712.00</ele>
        <time>2012-10-14T16:23:40Z</time>
      </trkpt>
      <trkpt lat="42.002201000" lon="2.477705100">
        <ele>711.50</ele>
        <time>2012-10-14T16:23:46Z</time>
      </trkpt>
      <trkpt lat="42.002209000" lon="2.477957100">
        <ele>711.50</ele>
        <time>2012-10-14T16:23:51Z</time>
      </trkpt>
      <trkpt lat="42.002205000" lon="2.478003100">
        <ele>711.50</ele>
        <time>2012-10-14T16:23:53Z</time>
      </trkpt>
      <trkpt lat="42.002171000" lon="2.478122100">
        <ele>710.10</ele>
        <time>2012-10-14T16:23:56Z</time>
      </trkpt>
      <trkpt lat="42.002140000" lon="2.478279100">
        <ele>706.20</ele>
        <time>2012-10-14T16:24:01Z</time>
      </trkpt>
      <trkpt lat="42.002087000" lon="2.478456100">
        <ele>703.30</ele>
        <time>2012-10-14T16:24:05Z</time>
      </trkpt>
      <trkpt lat="42.002098000" lon="2.478685100">
        <ele>702.40</ele>
        <time>2012-10-14T16:24:10Z</time>
      </trkpt>
      <trkpt lat="42.002087000" lon="2.478721100">
        <ele>703.80</ele>
        <time>2012-10-14T16:24:17Z</time>
      </trkpt>
      <trkpt lat="42.002090000" lon="2.478726100">
        <ele>703.80</ele>
        <time>2012-10-14T16:24:22Z</time>
      </trkpt>
      <trkpt lat="42.002090000" lon="2.478721100">
        <ele>703.80</ele>
        <time>2012-10-14T16:24:34Z</time>
      </trkpt>
      <trkpt lat="42.002090000" lon="2.478723100">
        <ele>703.80</ele>
        <time>2012-10-14T16:24:59Z</time>
      </trkpt>
      <trkpt lat="42.002098000" lon="2.478721100">
        <ele>703.80</ele>
        <time>2012-10-14T16:25:37Z</time>
      </trkpt>
      <trkpt lat="42.002190000" lon="2.478773100">
        <ele>703.80</ele>
        <time>2012-10-14T16:25:42Z</time>
      </trkpt>
      <trkpt lat="42.002270000" lon="2.478863100">
        <ele>703.80</ele>
        <time>2012-10-14T16:25:48Z</time>
      </trkpt>
      <trkpt lat="42.002453000" lon="2.479158100">
        <ele>703.80</ele>
        <time>2012-10-14T16:25:56Z</time>
      </trkpt>
      <trkpt lat="42.002518000" lon="2.479375100">
        <ele>703.80</ele>
        <time>2012-10-14T16:26:00Z</time>
      </trkpt>
      <trkpt lat="42.002586000" lon="2.479589100">
        <ele>703.80</ele>
        <time>2012-10-14T16:26:05Z</time>
      </trkpt>
      <trkpt lat="42.002567000" lon="2.479908100">
        <ele>702.40</ele>
        <time>2012-10-14T16:26:10Z</time>
      </trkpt>
      <trkpt lat="42.002533000" lon="2.480135100">
        <ele>701.40</ele>
        <time>2012-10-14T16:26:17Z</time>
      </trkpt>
      <trkpt lat="42.002522000" lon="2.480340100">
        <ele>701.90</ele>
        <time>2012-10-14T16:26:22Z</time>
      </trkpt>
      <trkpt lat="42.002544000" lon="2.480594100">
        <ele>701.90</ele>
        <time>2012-10-14T16:26:29Z</time>
      </trkpt>
      <trkpt lat="42.002487000" lon="2.480758100">
        <ele>702.90</ele>
        <time>2012-10-14T16:26:33Z</time>
      </trkpt>
      <trkpt lat="42.002342000" lon="2.481119100">
        <ele>702.90</ele>
        <time>2012-10-14T16:26:40Z</time>
      </trkpt>
      <trkpt lat="42.002243000" lon="2.481228100">
        <ele>702.90</ele>
        <time>2012-10-14T16:26:43Z</time>
      </trkpt>
      <trkpt lat="42.002159000" lon="2.481337100">
        <ele>701.40</ele>
        <time>2012-10-14T16:26:47Z</time>
      </trkpt>
      <trkpt lat="42.002190000" lon="2.481483100">
        <ele>700.90</ele>
        <time>2012-10-14T16:26:52Z</time>
      </trkpt>
      <trkpt lat="42.002327000" lon="2.481728100">
        <ele>699.00</ele>
        <time>2012-10-14T16:26:59Z</time>
      </trkpt>
      <trkpt lat="42.002380000" lon="2.481791100">
        <ele>699.00</ele>
        <time>2012-10-14T16:27:01Z</time>
      </trkpt>
      <trkpt lat="42.002422000" lon="2.482008100">
        <ele>696.60</ele>
        <time>2012-10-14T16:27:04Z</time>
      </trkpt>
      <trkpt lat="42.002419000" lon="2.482370100">
        <ele>691.30</ele>
        <time>2012-10-14T16:27:09Z</time>
      </trkpt>
      <trkpt lat="42.002430000" lon="2.482613100">
        <ele>688.00</ele>
        <time>2012-10-14T16:27:13Z</time>
      </trkpt>
      <trkpt lat="42.002453000" lon="2.482836100">
        <ele>688.00</ele>
        <time>2012-10-14T16:27:16Z</time>
      </trkpt>
      <trkpt lat="42.002407000" lon="2.483145100">
        <ele>687.50</ele>
        <time>2012-10-14T16:27:20Z</time>
      </trkpt>
      <trkpt lat="42.002251000" lon="2.483435100">
        <ele>688.90</ele>
        <time>2012-10-14T16:27:27Z</time>
      </trkpt>
      <trkpt lat="42.002129000" lon="2.483577100">
        <ele>690.40</ele>
        <time>2012-10-14T16:27:30Z</time>
      </trkpt>
      <trkpt lat="42.002117000" lon="2.483800100">
        <ele>693.20</ele>
        <time>2012-10-14T16:27:34Z</time>
      </trkpt>
      <trkpt lat="42.002163000" lon="2.483921100">
        <ele>694.20</ele>
        <time>2012-10-14T16:27:37Z</time>
      </trkpt>
      <trkpt lat="42.002235000" lon="2.484161100">
        <ele>694.70</ele>
        <time>2012-10-14T16:27:41Z</time>
      </trkpt>
      <trkpt lat="42.002277000" lon="2.484569100">
        <ele>693.20</ele>
        <time>2012-10-14T16:27:48Z</time>
      </trkpt>
      <trkpt lat="42.002285000" lon="2.484627100">
        <ele>693.20</ele>
        <time>2012-10-14T16:27:48Z</time>
      </trkpt>
      <trkpt lat="42.002319000" lon="2.484847100">
        <ele>692.30</ele>
        <time>2012-10-14T16:27:53Z</time>
      </trkpt>
      <trkpt lat="42.002247000" lon="2.485085100">
        <ele>691.80</ele>
        <time>2012-10-14T16:27:58Z</time>
      </trkpt>
      <trkpt lat="42.002048000" lon="2.485292100">
        <ele>690.80</ele>
        <time>2012-10-14T16:28:03Z</time>
      </trkpt>
      <trkpt lat="42.002041000" lon="2.485478100">
        <ele>690.80</ele>
        <time>2012-10-14T16:28:07Z</time>
      </trkpt>
      <trkpt lat="42.002064000" lon="2.485593100">
        <ele>690.40</ele>
        <time>2012-10-14T16:28:09Z</time>
      </trkpt>
      <trkpt lat="42.002075000" lon="2.485714100">
        <ele>690.40</ele>
        <time>2012-10-14T16:28:10Z</time>
      </trkpt>
      <trkpt lat="42.002090000" lon="2.485910100">
        <ele>690.40</ele>
        <time>2012-10-14T16:28:14Z</time>
      </trkpt>
      <trkpt lat="42.002140000" lon="2.486122100">
        <ele>689.90</ele>
        <time>2012-10-14T16:28:17Z</time>
      </trkpt>
      <trkpt lat="42.002312000" lon="2.486359100">
        <ele>689.40</ele>
        <time>2012-10-14T16:28:21Z</time>
      </trkpt>
      <trkpt lat="42.002453000" lon="2.486436100">
        <ele>688.40</ele>
        <time>2012-10-14T16:28:24Z</time>
      </trkpt>
      <trkpt lat="42.002560000" lon="2.486483100">
        <ele>688.40</ele>
        <time>2012-10-14T16:28:26Z</time>
      </trkpt>
      <trkpt lat="42.002716000" lon="2.486582100">
        <ele>688.00</ele>
        <time>2012-10-14T16:28:30Z</time>
      </trkpt>
      <trkpt lat="42.002834000" lon="2.486633100">
        <ele>687.50</ele>
        <time>2012-10-14T16:28:31Z</time>
      </trkpt>
      <trkpt lat="42.003078000" lon="2.486856100">
        <ele>687.00</ele>
        <time>2012-10-14T16:28:36Z</time>
      </trkpt>
      <trkpt lat="42.003105000" lon="2.486914100">
        <ele>686.00</ele>
        <time>2012-10-14T16:28:38Z</time>
      </trkpt>
      <trkpt lat="42.003265000" lon="2.487279100">
        <ele>686.50</ele>
        <time>2012-10-14T16:28:45Z</time>
      </trkpt>
      <trkpt lat="42.003338000" lon="2.487398100">
        <ele>686.50</ele>
        <time>2012-10-14T16:28:52Z</time>
      </trkpt>
      <trkpt lat="42.003357000" lon="2.487410100">
        <ele>687.50</ele>
        <time>2012-10-14T16:28:57Z</time>
      </trkpt>
      <trkpt lat="42.003361000" lon="2.487409100">
        <ele>687.50</ele>
        <time>2012-10-14T16:29:15Z</time>
      </trkpt>
      <trkpt lat="42.003357000" lon="2.487407100">
        <ele>687.50</ele>
        <time>2012-10-14T16:29:25Z</time>
      </trkpt>
      <trkpt lat="42.003452000" lon="2.487401100">
        <ele>687.50</ele>
        <time>2012-10-14T16:29:58Z</time>
      </trkpt>
      <trkpt lat="42.003651000" lon="2.487232100">
        <ele>688.00</ele>
        <time>2012-10-14T16:30:07Z</time>
      </trkpt>
      <trkpt lat="42.003841000" lon="2.487148100">
        <ele>688.00</ele>
        <time>2012-10-14T16:30:12Z</time>
      </trkpt>
      <trkpt lat="42.003963000" lon="2.487012100">
        <ele>688.00</ele>
        <time>2012-10-14T16:30:16Z</time>
      </trkpt>
      <trkpt lat="42.004112000" lon="2.486928100">
        <ele>688.00</ele>
        <time>2012-10-14T16:30:21Z</time>
      </trkpt>
      <trkpt lat="42.004360000" lon="2.486781100">
        <ele>688.00</ele>
        <time>2012-10-14T16:30:28Z</time>
      </trkpt>
      <trkpt lat="42.004581000" lon="2.486777100">
        <ele>688.00</ele>
        <time>2012-10-14T16:30:33Z</time>
      </trkpt>
      <trkpt lat="42.004803000" lon="2.486788100">
        <ele>688.90</ele>
        <time>2012-10-14T16:30:40Z</time>
      </trkpt>
      <trkpt lat="42.004971000" lon="2.486608100">
        <ele>689.40</ele>
        <time>2012-10-14T16:30:47Z</time>
      </trkpt>
      <trkpt lat="42.005108000" lon="2.486449100">
        <ele>690.40</ele>
        <time>2012-10-14T16:30:52Z</time>
      </trkpt>
      <trkpt lat="42.005337000" lon="2.486382100">
        <ele>690.40</ele>
        <time>2012-10-14T16:30:59Z</time>
      </trkpt>
      <trkpt lat="42.005516000" lon="2.486334100">
        <ele>690.40</ele>
        <time>2012-10-14T16:31:03Z</time>
      </trkpt>
      <trkpt lat="42.005749000" lon="2.486364100">
        <ele>689.40</ele>
        <time>2012-10-14T16:31:08Z</time>
      </trkpt>
      <trkpt lat="42.006031000" lon="2.486322100">
        <ele>688.40</ele>
        <time>2012-10-14T16:31:13Z</time>
      </trkpt>
      <trkpt lat="42.006100000" lon="2.486135100">
        <ele>687.00</ele>
        <time>2012-10-14T16:31:17Z</time>
      </trkpt>
      <trkpt lat="42.006096000" lon="2.485996100">
        <ele>685.60</ele>
        <time>2012-10-14T16:31:18Z</time>
      </trkpt>
      <trkpt lat="42.006119000" lon="2.485726100">
        <ele>681.70</ele>
        <time>2012-10-14T16:31:22Z</time>
      </trkpt>
      <trkpt lat="42.006130000" lon="2.485664100">
        <ele>680.80</ele>
        <time>2012-10-14T16:31:24Z</time>
      </trkpt>
      <trkpt lat="42.006245000" lon="2.485364100">
        <ele>679.80</ele>
        <time>2012-10-14T16:31:29Z</time>
      </trkpt>
      <trkpt lat="42.006302000" lon="2.485281100">
        <ele>679.80</ele>
        <time>2012-10-14T16:31:31Z</time>
      </trkpt>
      <trkpt lat="42.006435000" lon="2.485088100">
        <ele>681.20</ele>
        <time>2012-10-14T16:31:38Z</time>
      </trkpt>
      <trkpt lat="42.006542000" lon="2.484891100">
        <ele>683.20</ele>
        <time>2012-10-14T16:31:45Z</time>
      </trkpt>
      <trkpt lat="42.006721000" lon="2.484714100">
        <ele>684.10</ele>
        <time>2012-10-14T16:31:52Z</time>
      </trkpt>
      <trkpt lat="42.006889000" lon="2.484441100">
        <ele>684.60</ele>
        <time>2012-10-14T16:31:59Z</time>
      </trkpt>
      <trkpt lat="42.007030000" lon="2.484260100">
        <ele>684.60</ele>
        <time>2012-10-14T16:32:04Z</time>
      </trkpt>
      <trkpt lat="42.007114000" lon="2.484116100">
        <ele>684.60</ele>
        <time>2012-10-14T16:32:07Z</time>
      </trkpt>
      <trkpt lat="42.007191000" lon="2.483942100">
        <ele>684.60</ele>
        <time>2012-10-14T16:32:09Z</time>
      </trkpt>
      <trkpt lat="42.007370000" lon="2.483581100">
        <ele>684.60</ele>
        <time>2012-10-14T16:32:16Z</time>
      </trkpt>
      <trkpt lat="42.007454000" lon="2.483380100">
        <ele>683.60</ele>
        <time>2012-10-14T16:32:21Z</time>
      </trkpt>
      <trkpt lat="42.007580000" lon="2.483180100">
        <ele>683.20</ele>
        <time>2012-10-14T16:32:25Z</time>
      </trkpt>
      <trkpt lat="42.007675000" lon="2.482981100">
        <ele>678.80</ele>
        <time>2012-10-14T16:32:30Z</time>
      </trkpt>
      <trkpt lat="42.007755000" lon="2.482792100">
        <ele>675.00</ele>
        <time>2012-10-14T16:32:33Z</time>
      </trkpt>
      <trkpt lat="42.007832000" lon="2.482570100">
        <ele>673.50</ele>
        <time>2012-10-14T16:32:39Z</time>
      </trkpt>
      <trkpt lat="42.007843000" lon="2.482531100">
        <ele>673.50</ele>
        <time>2012-10-14T16:32:40Z</time>
      </trkpt>
      <trkpt lat="42.008034000" lon="2.482363100">
        <ele>674.00</ele>
        <time>2012-10-14T16:32:46Z</time>
      </trkpt>
      <trkpt lat="42.008118000" lon="2.482280100">
        <ele>674.00</ele>
        <time>2012-10-14T16:32:47Z</time>
      </trkpt>
      <trkpt lat="42.008160000" lon="2.482070100">
        <ele>674.00</ele>
        <time>2012-10-14T16:32:51Z</time>
      </trkpt>
      <trkpt lat="42.007996000" lon="2.481704100">
        <ele>672.60</ele>
        <time>2012-10-14T16:32:59Z</time>
      </trkpt>
      <trkpt lat="42.007969000" lon="2.481514100">
        <ele>671.60</ele>
        <time>2012-10-14T16:33:03Z</time>
      </trkpt>
      <trkpt lat="42.007935000" lon="2.481250100">
        <ele>668.20</ele>
        <time>2012-10-14T16:33:08Z</time>
      </trkpt>
      <trkpt lat="42.008057000" lon="2.481169100">
        <ele>665.80</ele>
        <time>2012-10-14T16:33:12Z</time>
      </trkpt>
      <trkpt lat="42.008198000" lon="2.481045100">
        <ele>665.40</ele>
        <time>2012-10-14T16:33:15Z</time>
      </trkpt>
      <trkpt lat="42.008316000" lon="2.480918100">
        <ele>663.90</ele>
        <time>2012-10-14T16:33:19Z</time>
      </trkpt>
      <trkpt lat="42.008492000" lon="2.480744100">
        <ele>661.50</ele>
        <time>2012-10-14T16:33:26Z</time>
      </trkpt>
      <trkpt lat="42.008606000" lon="2.480701100">
        <ele>659.10</ele>
        <time>2012-10-14T16:33:29Z</time>
      </trkpt>
      <trkpt lat="42.008797000" lon="2.480594100">
        <ele>655.80</ele>
        <time>2012-10-14T16:33:34Z</time>
      </trkpt>
      <trkpt lat="42.008835000" lon="2.480559100">
        <ele>655.30</ele>
        <time>2012-10-14T16:33:34Z</time>
      </trkpt>
      <trkpt lat="42.009037000" lon="2.480402100">
        <ele>652.40</ele>
        <time>2012-10-14T16:33:41Z</time>
      </trkpt>
      <trkpt lat="42.009064000" lon="2.480347100">
        <ele>652.40</ele>
        <time>2012-10-14T16:33:41Z</time>
      </trkpt>
      <trkpt lat="42.009171000" lon="2.479991100">
        <ele>651.00</ele>
        <time>2012-10-14T16:33:48Z</time>
      </trkpt>
      <trkpt lat="42.009197000" lon="2.479884100">
        <ele>650.00</ele>
        <time>2012-10-14T16:33:50Z</time>
      </trkpt>
      <trkpt lat="42.009281000" lon="2.479576100">
        <ele>648.10</ele>
        <time>2012-10-14T16:33:55Z</time>
      </trkpt>
      <trkpt lat="42.009380000" lon="2.479577100">
        <ele>646.10</ele>
        <time>2012-10-14T16:33:59Z</time>
      </trkpt>
      <trkpt lat="42.009399000" lon="2.479650100">
        <ele>644.70</ele>
        <time>2012-10-14T16:34:02Z</time>
      </trkpt>
      <trkpt lat="42.009342000" lon="2.479779100">
        <ele>644.20</ele>
        <time>2012-10-14T16:34:06Z</time>
      </trkpt>
      <trkpt lat="42.009293000" lon="2.479937100">
        <ele>644.20</ele>
        <time>2012-10-14T16:34:09Z</time>
      </trkpt>
      <trkpt lat="42.009277000" lon="2.480227100">
        <ele>643.30</ele>
        <time>2012-10-14T16:34:16Z</time>
      </trkpt>
      <trkpt lat="42.009212000" lon="2.480493100">
        <ele>639.90</ele>
        <time>2012-10-14T16:34:21Z</time>
      </trkpt>
      <trkpt lat="42.009090000" lon="2.480640100">
        <ele>636.00</ele>
        <time>2012-10-14T16:34:25Z</time>
      </trkpt>
      <trkpt lat="42.008888000" lon="2.480890100">
        <ele>632.70</ele>
        <time>2012-10-14T16:34:32Z</time>
      </trkpt>
      <trkpt lat="42.008694000" lon="2.481100100">
        <ele>632.70</ele>
        <time>2012-10-14T16:34:37Z</time>
      </trkpt>
      <trkpt lat="42.008530000" lon="2.481447100">
        <ele>632.20</ele>
        <time>2012-10-14T16:34:42Z</time>
      </trkpt>
      <trkpt lat="42.008617000" lon="2.481612100">
        <ele>631.20</ele>
        <time>2012-10-14T16:34:46Z</time>
      </trkpt>
      <trkpt lat="42.008736000" lon="2.481823100">
        <ele>630.80</ele>
        <time>2012-10-14T16:34:51Z</time>
      </trkpt>
      <trkpt lat="42.008984000" lon="2.482230100">
        <ele>629.30</ele>
        <time>2012-10-14T16:34:58Z</time>
      </trkpt>
      <trkpt lat="42.008991000" lon="2.482402100">
        <ele>628.80</ele>
        <time>2012-10-14T16:35:03Z</time>
      </trkpt>
      <trkpt lat="42.008869000" lon="2.482672100">
        <ele>627.90</ele>
        <time>2012-10-14T16:35:07Z</time>
      </trkpt>
      <trkpt lat="42.008755000" lon="2.482886100">
        <ele>626.40</ele>
        <time>2012-10-14T16:35:12Z</time>
      </trkpt>
      <trkpt lat="42.008656000" lon="2.483064100">
        <ele>623.10</ele>
        <time>2012-10-14T16:35:15Z</time>
      </trkpt>
      <trkpt lat="42.008591000" lon="2.483390100">
        <ele>620.20</ele>
        <time>2012-10-14T16:35:21Z</time>
      </trkpt>
      <trkpt lat="42.008461000" lon="2.483664100">
        <ele>618.80</ele>
        <time>2012-10-14T16:35:26Z</time>
      </trkpt>
      <trkpt lat="42.008366000" lon="2.484045100">
        <ele>618.30</ele>
        <time>2012-10-14T16:35:31Z</time>
      </trkpt>
      <trkpt lat="42.008369000" lon="2.484267100">
        <ele>616.30</ele>
        <time>2012-10-14T16:35:35Z</time>
      </trkpt>
      <trkpt lat="42.008408000" lon="2.484416100">
        <ele>614.40</ele>
        <time>2012-10-14T16:35:36Z</time>
      </trkpt>
      <trkpt lat="42.008427000" lon="2.484668100">
        <ele>611.10</ele>
        <time>2012-10-14T16:35:40Z</time>
      </trkpt>
      <trkpt lat="42.008270000" lon="2.484926100">
        <ele>608.70</ele>
        <time>2012-10-14T16:35:47Z</time>
      </trkpt>
      <trkpt lat="42.008179000" lon="2.485228100">
        <ele>608.70</ele>
        <time>2012-10-14T16:35:52Z</time>
      </trkpt>
      <trkpt lat="42.008171000" lon="2.485459100">
        <ele>607.70</ele>
        <time>2012-10-14T16:35:55Z</time>
      </trkpt>
      <trkpt lat="42.008236000" lon="2.485852100">
        <ele>604.30</ele>
        <time>2012-10-14T16:36:01Z</time>
      </trkpt>
      <trkpt lat="42.008266000" lon="2.486178100">
        <ele>600.00</ele>
        <time>2012-10-14T16:36:04Z</time>
      </trkpt>
      <trkpt lat="42.008408000" lon="2.486340100">
        <ele>597.60</ele>
        <time>2012-10-14T16:36:09Z</time>
      </trkpt>
      <trkpt lat="42.008446000" lon="2.486350100">
        <ele>596.60</ele>
        <time>2012-10-14T16:36:09Z</time>
      </trkpt>
      <trkpt lat="42.008785000" lon="2.486459100">
        <ele>595.70</ele>
        <time>2012-10-14T16:36:18Z</time>
      </trkpt>
      <trkpt lat="42.008823000" lon="2.486465100">
        <ele>595.70</ele>
        <time>2012-10-14T16:36:18Z</time>
      </trkpt>
      <trkpt lat="42.008999000" lon="2.486405100">
        <ele>594.70</ele>
        <time>2012-10-14T16:36:23Z</time>
      </trkpt>
      <trkpt lat="42.009251000" lon="2.486349100">
        <ele>592.30</ele>
        <time>2012-10-14T16:36:29Z</time>
      </trkpt>
      <trkpt lat="42.009296000" lon="2.486528100">
        <ele>589.00</ele>
        <time>2012-10-14T16:36:32Z</time>
      </trkpt>
      <trkpt lat="42.009315000" lon="2.486751100">
        <ele>586.10</ele>
        <time>2012-10-14T16:36:34Z</time>
      </trkpt>
      <trkpt lat="42.009308000" lon="2.487089100">
        <ele>582.20</ele>
        <time>2012-10-14T16:36:39Z</time>
      </trkpt>
      <trkpt lat="42.009254000" lon="2.487286100">
        <ele>580.30</ele>
        <time>2012-10-14T16:36:41Z</time>
      </trkpt>
      <trkpt lat="42.009293000" lon="2.487497100">
        <ele>578.40</ele>
        <time>2012-10-14T16:36:46Z</time>
      </trkpt>
      <trkpt lat="42.009418000" lon="2.487453100">
        <ele>577.40</ele>
        <time>2012-10-14T16:36:48Z</time>
      </trkpt>
      <trkpt lat="42.009476000" lon="2.487234100">
        <ele>576.50</ele>
        <time>2012-10-14T16:36:51Z</time>
      </trkpt>
      <trkpt lat="42.009533000" lon="2.486755100">
        <ele>573.60</ele>
        <time>2012-10-14T16:36:58Z</time>
      </trkpt>
      <trkpt lat="42.009605000" lon="2.486403100">
        <ele>570.70</ele>
        <time>2012-10-14T16:37:02Z</time>
      </trkpt>
      <trkpt lat="42.009636000" lon="2.486074100">
        <ele>567.80</ele>
        <time>2012-10-14T16:37:05Z</time>
      </trkpt>
      <trkpt lat="42.009632000" lon="2.485624100">
        <ele>565.40</ele>
        <time>2012-10-14T16:37:10Z</time>
      </trkpt>
      <trkpt lat="42.009594000" lon="2.485354100">
        <ele>564.90</ele>
        <time>2012-10-14T16:37:14Z</time>
      </trkpt>
      <trkpt lat="42.009567000" lon="2.485249100">
        <ele>564.40</ele>
        <time>2012-10-14T16:37:17Z</time>
      </trkpt>
      <trkpt lat="42.009529000" lon="2.485142100">
        <ele>564.00</ele>
        <time>2012-10-14T16:37:19Z</time>
      </trkpt>
      <trkpt lat="42.009506000" lon="2.484848100">
        <ele>560.10</ele>
        <time>2012-10-14T16:37:24Z</time>
      </trkpt>
      <trkpt lat="42.009521000" lon="2.484794100">
        <ele>560.10</ele>
        <time>2012-10-14T16:37:24Z</time>
      </trkpt>
      <trkpt lat="42.009583000" lon="2.484427100">
        <ele>558.20</ele>
        <time>2012-10-14T16:37:31Z</time>
      </trkpt>
      <trkpt lat="42.009678000" lon="2.484171100">
        <ele>557.70</ele>
        <time>2012-10-14T16:37:36Z</time>
      </trkpt>
      <trkpt lat="42.009758000" lon="2.484083100">
        <ele>556.70</ele>
        <time>2012-10-14T16:37:40Z</time>
      </trkpt>
      <trkpt lat="42.009995000" lon="2.483983100">
        <ele>555.80</ele>
        <time>2012-10-14T16:37:45Z</time>
      </trkpt>
      <trkpt lat="42.010067000" lon="2.483976100">
        <ele>553.40</ele>
        <time>2012-10-14T16:37:47Z</time>
      </trkpt>
      <trkpt lat="42.010181000" lon="2.483945100">
        <ele>551.00</ele>
        <time>2012-10-14T16:37:50Z</time>
      </trkpt>
      <trkpt lat="42.010498000" lon="2.483763100">
        <ele>549.50</ele>
        <time>2012-10-14T16:37:59Z</time>
      </trkpt>
      <trkpt lat="42.010586000" lon="2.483526100">
        <ele>549.50</ele>
        <time>2012-10-14T16:38:04Z</time>
      </trkpt>
      <trkpt lat="42.010593000" lon="2.483297100">
        <ele>549.50</ele>
        <time>2012-10-14T16:38:10Z</time>
      </trkpt>
      <trkpt lat="42.010712000" lon="2.483146100">
        <ele>549.00</ele>
        <time>2012-10-14T16:38:15Z</time>
      </trkpt>
      <trkpt lat="42.010830000" lon="2.482910100">
        <ele>547.60</ele>
        <time>2012-10-14T16:38:20Z</time>
      </trkpt>
      <trkpt lat="42.010849000" lon="2.482655100">
        <ele>544.20</ele>
        <time>2012-10-14T16:38:25Z</time>
      </trkpt>
      <trkpt lat="42.010780000" lon="2.482487100">
        <ele>540.90</ele>
        <time>2012-10-14T16:38:29Z</time>
      </trkpt>
      <trkpt lat="42.010754000" lon="2.482262100">
        <ele>539.90</ele>
        <time>2012-10-14T16:38:32Z</time>
      </trkpt>
      <trkpt lat="42.010796000" lon="2.482062100">
        <ele>539.90</ele>
        <time>2012-10-14T16:38:36Z</time>
      </trkpt>
      <trkpt lat="42.010826000" lon="2.481972100">
        <ele>539.90</ele>
        <time>2012-10-14T16:38:39Z</time>
      </trkpt>
      <trkpt lat="42.010880000" lon="2.481871100">
        <ele>539.90</ele>
        <time>2012-10-14T16:38:41Z</time>
      </trkpt>
      <trkpt lat="42.011143000" lon="2.481535100">
        <ele>539.40</ele>
        <time>2012-10-14T16:38:48Z</time>
      </trkpt>
      <trkpt lat="42.011272000" lon="2.481363100">
        <ele>539.40</ele>
        <time>2012-10-14T16:38:50Z</time>
      </trkpt>
      <trkpt lat="42.011345000" lon="2.481238100">
        <ele>539.00</ele>
        <time>2012-10-14T16:38:53Z</time>
      </trkpt>
      <trkpt lat="42.011486000" lon="2.481007100">
        <ele>534.60</ele>
        <time>2012-10-14T16:38:58Z</time>
      </trkpt>
      <trkpt lat="42.011490000" lon="2.480837100">
        <ele>530.80</ele>
        <time>2012-10-14T16:39:02Z</time>
      </trkpt>
      <trkpt lat="42.011559000" lon="2.480818100">
        <ele>529.30</ele>
        <time>2012-10-14T16:39:05Z</time>
      </trkpt>
      <trkpt lat="42.011570000" lon="2.480837100">
        <ele>529.80</ele>
        <time>2012-10-14T16:39:07Z</time>
      </trkpt>
      <trkpt lat="42.011574000" lon="2.481100100">
        <ele>529.30</ele>
        <time>2012-10-14T16:39:14Z</time>
      </trkpt>
      <trkpt lat="42.011463000" lon="2.481334100">
        <ele>526.50</ele>
        <time>2012-10-14T16:39:19Z</time>
      </trkpt>
      <trkpt lat="42.011417000" lon="2.481519100">
        <ele>523.10</ele>
        <time>2012-10-14T16:39:23Z</time>
      </trkpt>
      <trkpt lat="42.011414000" lon="2.481776100">
        <ele>518.80</ele>
        <time>2012-10-14T16:39:26Z</time>
      </trkpt>
      <trkpt lat="42.011452000" lon="2.481978100">
        <ele>515.40</ele>
        <time>2012-10-14T16:39:30Z</time>
      </trkpt>
      <trkpt lat="42.011612000" lon="2.482266100">
        <ele>513.50</ele>
        <time>2012-10-14T16:39:37Z</time>
      </trkpt>
      <trkpt lat="42.011696000" lon="2.482372100">
        <ele>511.60</ele>
        <time>2012-10-14T16:39:40Z</time>
      </trkpt>
      <trkpt lat="42.011665000" lon="2.482515100">
        <ele>509.20</ele>
        <time>2012-10-14T16:39:45Z</time>
      </trkpt>
      <trkpt lat="42.011623000" lon="2.482572100">
        <ele>507.70</ele>
        <time>2012-10-14T16:39:47Z</time>
      </trkpt>
      <trkpt lat="42.011631000" lon="2.482659100">
        <ele>505.30</ele>
        <time>2012-10-14T16:39:51Z</time>
      </trkpt>
      <trkpt lat="42.011742000" lon="2.482911100">
        <ele>505.80</ele>
        <time>2012-10-14T16:39:59Z</time>
      </trkpt>
      <trkpt lat="42.011761000" lon="2.482958100">
        <ele>505.80</ele>
        <time>2012-10-14T16:39:59Z</time>
      </trkpt>
      <trkpt lat="42.011875000" lon="2.483302100">
        <ele>505.80</ele>
        <time>2012-10-14T16:40:06Z</time>
      </trkpt>
      <trkpt lat="42.011795000" lon="2.483566100">
        <ele>503.90</ele>
        <time>2012-10-14T16:40:12Z</time>
      </trkpt>
      <trkpt lat="42.011715000" lon="2.483885100">
        <ele>500.00</ele>
        <time>2012-10-14T16:40:15Z</time>
      </trkpt>
      <trkpt lat="42.011620000" lon="2.484206100">
        <ele>496.20</ele>
        <time>2012-10-14T16:40:20Z</time>
      </trkpt>
      <trkpt lat="42.011604000" lon="2.484273100">
        <ele>496.20</ele>
        <time>2012-10-14T16:40:20Z</time>
      </trkpt>
      <trkpt lat="42.011669000" lon="2.484372100">
        <ele>496.20</ele>
        <time>2012-10-14T16:40:24Z</time>
      </trkpt>
      <trkpt lat="42.011726000" lon="2.484241100">
        <ele>496.20</ele>
        <time>2012-10-14T16:40:29Z</time>
      </trkpt>
      <trkpt lat="42.011742000" lon="2.484194100">
        <ele>495.70</ele>
        <time>2012-10-14T16:40:29Z</time>
      </trkpt>
      <trkpt lat="42.011810000" lon="2.484022100">
        <ele>495.20</ele>
        <time>2012-10-14T16:40:34Z</time>
      </trkpt>
      <trkpt lat="42.011997000" lon="2.483809100">
        <ele>491.90</ele>
        <time>2012-10-14T16:40:39Z</time>
      </trkpt>
      <trkpt lat="42.012074000" lon="2.483721100">
        <ele>489.90</ele>
        <time>2012-10-14T16:40:41Z</time>
      </trkpt>
      <trkpt lat="42.012173000" lon="2.483433100">
        <ele>486.60</ele>
        <time>2012-10-14T16:40:48Z</time>
      </trkpt>
      <trkpt lat="42.012135000" lon="2.483333100">
        <ele>487.00</ele>
        <time>2012-10-14T16:40:50Z</time>
      </trkpt>
      <trkpt lat="42.012032000" lon="2.483132100">
        <ele>487.00</ele>
        <time>2012-10-14T16:40:55Z</time>
      </trkpt>
      <trkpt lat="42.012001000" lon="2.482884100">
        <ele>489.00</ele>
        <time>2012-10-14T16:41:02Z</time>
      </trkpt>
      <trkpt lat="42.012005000" lon="2.482593100">
        <ele>489.90</ele>
        <time>2012-10-14T16:41:09Z</time>
      </trkpt>
      <trkpt lat="42.012012000" lon="2.482421100">
        <ele>490.40</ele>
        <time>2012-10-14T16:41:14Z</time>
      </trkpt>
      <trkpt lat="42.012115000" lon="2.482274100">
        <ele>489.90</ele>
        <time>2012-10-14T16:41:21Z</time>
      </trkpt>
      <trkpt lat="42.012138000" lon="2.482211100">
        <ele>489.90</ele>
        <time>2012-10-14T16:41:23Z</time>
      </trkpt>
      <trkpt lat="42.012173000" lon="2.482160100">
        <ele>488.50</ele>
        <time>2012-10-14T16:41:26Z</time>
      </trkpt>
      <trkpt lat="42.012283000" lon="2.482122100">
        <ele>488.00</ele>
        <time>2012-10-14T16:41:33Z</time>
      </trkpt>
      <trkpt lat="42.012371000" lon="2.482155100">
        <ele>487.00</ele>
        <time>2012-10-14T16:41:37Z</time>
      </trkpt>
      <trkpt lat="42.012405000" lon="2.482167100">
        <ele>487.00</ele>
        <time>2012-10-14T16:41:39Z</time>
      </trkpt>
      <trkpt lat="42.012489000" lon="2.482270100">
        <ele>486.60</ele>
        <time>2012-10-14T16:41:46Z</time>
      </trkpt>
      <trkpt lat="42.012501000" lon="2.482439100">
        <ele>486.60</ele>
        <time>2012-10-14T16:41:54Z</time>
      </trkpt>
      <trkpt lat="42.012508000" lon="2.482642100">
        <ele>486.60</ele>
        <time>2012-10-14T16:42:01Z</time>
      </trkpt>
      <trkpt lat="42.012589000" lon="2.482879100">
        <ele>486.60</ele>
        <time>2012-10-14T16:42:10Z</time>
      </trkpt>
      <trkpt lat="42.012611000" lon="2.482951100">
        <ele>486.60</ele>
        <time>2012-10-14T16:42:12Z</time>
      </trkpt>
      <trkpt lat="42.012722000" lon="2.483103100">
        <ele>487.50</ele>
        <time>2012-10-14T16:42:19Z</time>
      </trkpt>
      <trkpt lat="42.012756000" lon="2.483265100">
        <ele>487.50</ele>
        <time>2012-10-14T16:42:24Z</time>
      </trkpt>
      <trkpt lat="42.012764000" lon="2.483452100">
        <ele>488.00</ele>
        <time>2012-10-14T16:42:31Z</time>
      </trkpt>
      <trkpt lat="42.012783000" lon="2.483576100">
        <ele>489.00</ele>
        <time>2012-10-14T16:42:38Z</time>
      </trkpt>
      <trkpt lat="42.012783000" lon="2.483600100">
        <ele>489.50</ele>
        <time>2012-10-14T16:42:38Z</time>
      </trkpt>
      <trkpt lat="42.012745000" lon="2.483718100">
        <ele>489.90</ele>
        <time>2012-10-14T16:42:43Z</time>
      </trkpt>
      <trkpt lat="42.012711000" lon="2.483986100">
        <ele>490.90</ele>
        <time>2012-10-14T16:42:54Z</time>
      </trkpt>
      <trkpt lat="42.012711000" lon="2.484009100">
        <ele>490.90</ele>
        <time>2012-10-14T16:42:55Z</time>
      </trkpt>
      <trkpt lat="42.012661000" lon="2.484217100">
        <ele>493.30</ele>
        <time>2012-10-14T16:43:04Z</time>
      </trkpt>
      <trkpt lat="42.012657000" lon="2.484251100">
        <ele>493.30</ele>
        <time>2012-10-14T16:43:04Z</time>
      </trkpt>
      <trkpt lat="42.012634000" lon="2.484412100">
        <ele>496.70</ele>
        <time>2012-10-14T16:43:09Z</time>
      </trkpt>
      <trkpt lat="42.012627000" lon="2.484489100">
        <ele>499.10</ele>
        <time>2012-10-14T16:43:13Z</time>
      </trkpt>
      <trkpt lat="42.012611000" lon="2.484618100">
        <ele>500.00</ele>
        <time>2012-10-14T16:43:18Z</time>
      </trkpt>
      <trkpt lat="42.012589000" lon="2.484806100">
        <ele>499.50</ele>
        <time>2012-10-14T16:43:27Z</time>
      </trkpt>
      <trkpt lat="42.012600000" lon="2.485026100">
        <ele>499.50</ele>
        <time>2012-10-14T16:43:32Z</time>
      </trkpt>
      <trkpt lat="42.012730000" lon="2.485193100">
        <ele>499.50</ele>
        <time>2012-10-14T16:43:37Z</time>
      </trkpt>
      <trkpt lat="42.012764000" lon="2.485216100">
        <ele>499.50</ele>
        <time>2012-10-14T16:43:39Z</time>
      </trkpt>
      <trkpt lat="42.012867000" lon="2.485321100">
        <ele>499.50</ele>
        <time>2012-10-14T16:43:42Z</time>
      </trkpt>
      <trkpt lat="42.013023000" lon="2.485426100">
        <ele>498.10</ele>
        <time>2012-10-14T16:43:46Z</time>
      </trkpt>
      <trkpt lat="42.013096000" lon="2.485557100">
        <ele>495.20</ele>
        <time>2012-10-14T16:43:49Z</time>
      </trkpt>
      <trkpt lat="42.013008000" lon="2.485633100">
        <ele>492.30</ele>
        <time>2012-10-14T16:43:53Z</time>
      </trkpt>
      <trkpt lat="42.012989000" lon="2.485647100">
        <ele>492.30</ele>
        <time>2012-10-14T16:43:54Z</time>
      </trkpt>
      <trkpt lat="42.012856000" lon="2.485725100">
        <ele>495.20</ele>
        <time>2012-10-14T16:44:01Z</time>
      </trkpt>
      <trkpt lat="42.012779000" lon="2.485817100">
        <ele>498.60</ele>
        <time>2012-10-14T16:44:07Z</time>
      </trkpt>
      <trkpt lat="42.012699000" lon="2.485934100">
        <ele>498.60</ele>
        <time>2012-10-14T16:44:14Z</time>
      </trkpt>
      <trkpt lat="42.012634000" lon="2.486010100">
        <ele>498.60</ele>
        <time>2012-10-14T16:44:19Z</time>
      </trkpt>
      <trkpt lat="42.012638000" lon="2.486170100">
        <ele>498.60</ele>
        <time>2012-10-14T16:44:24Z</time>
      </trkpt>
      <trkpt lat="42.012657000" lon="2.486435100">
        <ele>498.60</ele>
        <time>2012-10-14T16:44:31Z</time>
      </trkpt>
      <trkpt lat="42.012707000" lon="2.486722100">
        <ele>498.60</ele>
        <time>2012-10-14T16:44:40Z</time>
      </trkpt>
      <trkpt lat="42.012684000" lon="2.487064100">
        <ele>498.60</ele>
        <time>2012-10-14T16:44:52Z</time>
      </trkpt>
      <trkpt lat="42.012665000" lon="2.487309100">
        <ele>499.10</ele>
        <time>2012-10-14T16:44:59Z</time>
      </trkpt>
      <trkpt lat="42.012657000" lon="2.487474100">
        <ele>499.50</ele>
        <time>2012-10-14T16:45:06Z</time>
      </trkpt>
      <trkpt lat="42.012672000" lon="2.487566100">
        <ele>500.50</ele>
        <time>2012-10-14T16:45:09Z</time>
      </trkpt>
      <trkpt lat="42.012669000" lon="2.487698100">
        <ele>502.00</ele>
        <time>2012-10-14T16:45:16Z</time>
      </trkpt>
      <trkpt lat="42.012684000" lon="2.487744100">
        <ele>502.90</ele>
        <time>2012-10-14T16:45:25Z</time>
      </trkpt>
      <trkpt lat="42.012684000" lon="2.487746100">
        <ele>503.90</ele>
        <time>2012-10-14T16:45:41Z</time>
      </trkpt>
      <trkpt lat="42.012684000" lon="2.487744100">
        <ele>503.90</ele>
        <time>2012-10-14T16:45:56Z</time>
      </trkpt>
      <trkpt lat="42.012688000" lon="2.487752100">
        <ele>503.90</ele>
        <time>2012-10-14T16:46:07Z</time>
      </trkpt>
      <trkpt lat="42.012688000" lon="2.487750100">
        <ele>503.90</ele>
        <time>2012-10-14T16:46:17Z</time>
      </trkpt>
      <trkpt lat="42.012695000" lon="2.487755100">
        <ele>503.90</ele>
        <time>2012-10-14T16:46:36Z</time>
      </trkpt>
      <trkpt lat="42.012695000" lon="2.487755100">
        <ele>503.90</ele>
        <time>2012-10-14T16:46:52Z</time>
      </trkpt>
      <trkpt lat="42.012703000" lon="2.487767100">
        <ele>504.40</ele>
        <time>2012-10-14T16:47:08Z</time>
      </trkpt>
      <trkpt lat="42.012775000" lon="2.487939100">
        <ele>504.40</ele>
        <time>2012-10-14T16:47:18Z</time>
      </trkpt>
      <trkpt lat="42.012833000" lon="2.488096100">
        <ele>504.80</ele>
        <time>2012-10-14T16:47:25Z</time>
      </trkpt>
      <trkpt lat="42.012913000" lon="2.488243100">
        <ele>506.80</ele>
        <time>2012-10-14T16:47:34Z</time>
      </trkpt>
      <trkpt lat="42.013012000" lon="2.488348100">
        <ele>508.70</ele>
        <time>2012-10-14T16:47:43Z</time>
      </trkpt>
      <trkpt lat="42.013046000" lon="2.488395100">
        <ele>510.10</ele>
        <time>2012-10-14T16:47:48Z</time>
      </trkpt>
      <trkpt lat="42.013111000" lon="2.488480100">
        <ele>511.10</ele>
        <time>2012-10-14T16:47:57Z</time>
      </trkpt>
      <trkpt lat="42.013176000" lon="2.488600100">
        <ele>511.60</ele>
        <time>2012-10-14T16:48:05Z</time>
      </trkpt>
      <trkpt lat="42.013229000" lon="2.488750100">
        <ele>512.00</ele>
        <time>2012-10-14T16:48:12Z</time>
      </trkpt>
      <trkpt lat="42.013268000" lon="2.488893100">
        <ele>512.00</ele>
        <time>2012-10-14T16:48:18Z</time>
      </trkpt>
      <trkpt lat="42.013275000" lon="2.488913100">
        <ele>512.00</ele>
        <time>2012-10-14T16:48:19Z</time>
      </trkpt>
      <trkpt lat="42.013325000" lon="2.489102100">
        <ele>512.50</ele>
        <time>2012-10-14T16:48:26Z</time>
      </trkpt>
      <trkpt lat="42.013332000" lon="2.489192100">
        <ele>512.50</ele>
        <time>2012-10-14T16:48:30Z</time>
      </trkpt>
      <trkpt lat="42.013393000" lon="2.489305100">
        <ele>512.50</ele>
        <time>2012-10-14T16:48:35Z</time>
      </trkpt>
      <trkpt lat="42.013401000" lon="2.489329100">
        <ele>512.50</ele>
        <time>2012-10-14T16:48:42Z</time>
      </trkpt>
      <trkpt lat="42.013412000" lon="2.489353100">
        <ele>512.50</ele>
        <time>2012-10-14T16:49:27Z</time>
      </trkpt>
      <trkpt lat="42.013439000" lon="2.489518100">
        <ele>511.60</ele>
        <time>2012-10-14T16:49:31Z</time>
      </trkpt>
      <trkpt lat="42.013397000" lon="2.489658100">
        <ele>510.60</ele>
        <time>2012-10-14T16:49:34Z</time>
      </trkpt>
      <trkpt lat="42.013233000" lon="2.489840100">
        <ele>509.60</ele>
        <time>2012-10-14T16:49:43Z</time>
      </trkpt>
      <trkpt lat="42.013069000" lon="2.489984100">
        <ele>509.60</ele>
        <time>2012-10-14T16:49:50Z</time>
      </trkpt>
      <trkpt lat="42.013000000" lon="2.490132100">
        <ele>509.20</ele>
        <time>2012-10-14T16:49:55Z</time>
      </trkpt>
      <trkpt lat="42.013023000" lon="2.490360100">
        <ele>509.20</ele>
        <time>2012-10-14T16:50:02Z</time>
      </trkpt>
      <trkpt lat="42.013161000" lon="2.490625100">
        <ele>510.10</ele>
        <time>2012-10-14T16:50:09Z</time>
      </trkpt>
      <trkpt lat="42.013184000" lon="2.490656100">
        <ele>510.10</ele>
        <time>2012-10-14T16:50:11Z</time>
      </trkpt>
      <trkpt lat="42.013340000" lon="2.490933100">
        <ele>511.10</ele>
        <time>2012-10-14T16:50:18Z</time>
      </trkpt>
      <trkpt lat="42.013432000" lon="2.491198100">
        <ele>512.00</ele>
        <time>2012-10-14T16:50:25Z</time>
      </trkpt>
      <trkpt lat="42.013481000" lon="2.491408100">
        <ele>512.50</ele>
        <time>2012-10-14T16:50:32Z</time>
      </trkpt>
      <trkpt lat="42.013367000" lon="2.491647100">
        <ele>513.00</ele>
        <time>2012-10-14T16:50:42Z</time>
      </trkpt>
      <trkpt lat="42.013329000" lon="2.491714100">
        <ele>516.80</ele>
        <time>2012-10-14T16:50:46Z</time>
      </trkpt>
      <trkpt lat="42.013306000" lon="2.491766100">
        <ele>519.70</ele>
        <time>2012-10-14T16:50:49Z</time>
      </trkpt>
      <trkpt lat="42.013287000" lon="2.491819100">
        <ele>521.70</ele>
        <time>2012-10-14T16:50:51Z</time>
      </trkpt>
      <trkpt lat="42.013256000" lon="2.491899100">
        <ele>521.20</ele>
        <time>2012-10-14T16:50:56Z</time>
      </trkpt>
      <trkpt lat="42.013229000" lon="2.491976100">
        <ele>521.20</ele>
        <time>2012-10-14T16:51:01Z</time>
      </trkpt>
      <trkpt lat="42.013206000" lon="2.492056100">
        <ele>521.20</ele>
        <time>2012-10-14T16:51:05Z</time>
      </trkpt>
      <trkpt lat="42.013271000" lon="2.492246100">
        <ele>522.60</ele>
        <time>2012-10-14T16:51:17Z</time>
      </trkpt>
      <trkpt lat="42.013351000" lon="2.492363100">
        <ele>526.00</ele>
        <time>2012-10-14T16:51:26Z</time>
      </trkpt>
      <trkpt lat="42.013367000" lon="2.492387100">
        <ele>527.40</ele>
        <time>2012-10-14T16:51:29Z</time>
      </trkpt>
      <trkpt lat="42.013393000" lon="2.492483100">
        <ele>529.80</ele>
        <time>2012-10-14T16:51:34Z</time>
      </trkpt>
      <trkpt lat="42.013397000" lon="2.492606100">
        <ele>531.30</ele>
        <time>2012-10-14T16:51:41Z</time>
      </trkpt>
      <trkpt lat="42.013412000" lon="2.492819100">
        <ele>531.80</ele>
        <time>2012-10-14T16:51:50Z</time>
      </trkpt>
      <trkpt lat="42.013428000" lon="2.492995100">
        <ele>531.80</ele>
        <time>2012-10-14T16:51:57Z</time>
      </trkpt>
      <trkpt lat="42.013512000" lon="2.493150100">
        <ele>531.80</ele>
        <time>2012-10-14T16:52:04Z</time>
      </trkpt>
      <trkpt lat="42.013657000" lon="2.493266100">
        <ele>531.80</ele>
        <time>2012-10-14T16:52:13Z</time>
      </trkpt>
      <trkpt lat="42.013866000" lon="2.493315100">
        <ele>531.80</ele>
        <time>2012-10-14T16:52:20Z</time>
      </trkpt>
      <trkpt lat="42.013905000" lon="2.493325100">
        <ele>530.80</ele>
        <time>2012-10-14T16:52:21Z</time>
      </trkpt>
      <trkpt lat="42.014080000" lon="2.493426100">
        <ele>527.90</ele>
        <time>2012-10-14T16:52:25Z</time>
      </trkpt>
      <trkpt lat="42.014275000" lon="2.493597100">
        <ele>524.10</ele>
        <time>2012-10-14T16:52:30Z</time>
      </trkpt>
      <trkpt lat="42.014523000" lon="2.493738100">
        <ele>524.10</ele>
        <time>2012-10-14T16:52:37Z</time>
      </trkpt>
      <trkpt lat="42.014648000" lon="2.493830100">
        <ele>525.50</ele>
        <time>2012-10-14T16:52:42Z</time>
      </trkpt>
      <trkpt lat="42.014771000" lon="2.493966100">
        <ele>526.50</ele>
        <time>2012-10-14T16:52:49Z</time>
      </trkpt>
      <trkpt lat="42.014889000" lon="2.494099100">
        <ele>526.90</ele>
        <time>2012-10-14T16:52:56Z</time>
      </trkpt>
      <trkpt lat="42.015003000" lon="2.494180100">
        <ele>527.40</ele>
        <time>2012-10-14T16:53:01Z</time>
      </trkpt>
      <trkpt lat="42.015182000" lon="2.494299100">
        <ele>527.40</ele>
        <time>2012-10-14T16:53:08Z</time>
      </trkpt>
      <trkpt lat="42.015377000" lon="2.494442100">
        <ele>527.40</ele>
        <time>2012-10-14T16:53:15Z</time>
      </trkpt>
      <trkpt lat="42.015419000" lon="2.494464100">
        <ele>527.40</ele>
        <time>2012-10-14T16:53:17Z</time>
      </trkpt>
      <trkpt lat="42.015549000" lon="2.494542100">
        <ele>526.50</ele>
        <time>2012-10-14T16:53:24Z</time>
      </trkpt>
      <trkpt lat="42.015572000" lon="2.494563100">
        <ele>526.00</ele>
        <time>2012-10-14T16:53:24Z</time>
      </trkpt>
      <trkpt lat="42.015614000" lon="2.494605100">
        <ele>526.00</ele>
        <time>2012-10-14T16:53:26Z</time>
      </trkpt>
      <trkpt lat="42.015659000" lon="2.494686100">
        <ele>525.00</ele>
        <time>2012-10-14T16:53:31Z</time>
      </trkpt>
      <trkpt lat="42.015678000" lon="2.494721100">
        <ele>524.50</ele>
        <time>2012-10-14T16:53:38Z</time>
      </trkpt>
      <trkpt lat="42.015697000" lon="2.494800100">
        <ele>524.10</ele>
        <time>2012-10-14T16:53:47Z</time>
      </trkpt>
      <trkpt lat="42.015739000" lon="2.494847100">
        <ele>524.10</ele>
        <time>2012-10-14T16:53:52Z</time>
      </trkpt>
      <trkpt lat="42.015804000" lon="2.494870100">
        <ele>524.10</ele>
        <time>2012-10-14T16:54:01Z</time>
      </trkpt>
      <trkpt lat="42.015919000" lon="2.494896100">
        <ele>525.00</ele>
        <time>2012-10-14T16:54:09Z</time>
      </trkpt>
      <trkpt lat="42.015972000" lon="2.494920100">
        <ele>526.00</ele>
        <time>2012-10-14T16:54:11Z</time>
      </trkpt>
      <trkpt lat="42.016125000" lon="2.495015100">
        <ele>526.90</ele>
        <time>2012-10-14T16:54:20Z</time>
      </trkpt>
      <trkpt lat="42.016270000" lon="2.495131100">
        <ele>526.90</ele>
        <time>2012-10-14T16:54:27Z</time>
      </trkpt>
      <trkpt lat="42.016411000" lon="2.495212100">
        <ele>526.90</ele>
        <time>2012-10-14T16:54:34Z</time>
      </trkpt>
      <trkpt lat="42.016457000" lon="2.495252100">
        <ele>526.90</ele>
        <time>2012-10-14T16:54:37Z</time>
      </trkpt>
      <trkpt lat="42.016560000" lon="2.495293100">
        <ele>526.90</ele>
        <time>2012-10-14T16:54:44Z</time>
      </trkpt>
      <trkpt lat="42.016640000" lon="2.495336100">
        <ele>526.90</ele>
        <time>2012-10-14T16:54:48Z</time>
      </trkpt>
      <trkpt lat="42.016670000" lon="2.495422100">
        <ele>526.00</ele>
        <time>2012-10-14T16:54:55Z</time>
      </trkpt>
      <trkpt lat="42.016655000" lon="2.495471100">
        <ele>525.50</ele>
        <time>2012-10-14T16:55:02Z</time>
      </trkpt>
      <trkpt lat="42.016647000" lon="2.495542100">
        <ele>525.50</ele>
        <time>2012-10-14T16:55:09Z</time>
      </trkpt>
      <trkpt lat="42.016617000" lon="2.495628100">
        <ele>526.90</ele>
        <time>2012-10-14T16:55:17Z</time>
      </trkpt>
      <trkpt lat="42.016586000" lon="2.495696100">
        <ele>528.90</ele>
        <time>2012-10-14T16:55:24Z</time>
      </trkpt>
      <trkpt lat="42.016582000" lon="2.495703100">
        <ele>528.90</ele>
        <time>2012-10-14T16:55:24Z</time>
      </trkpt>
      <trkpt lat="42.016499000" lon="2.495762100">
        <ele>530.30</ele>
        <time>2012-10-14T16:55:35Z</time>
      </trkpt>
      <trkpt lat="42.016483000" lon="2.495786100">
        <ele>530.80</ele>
        <time>2012-10-14T16:55:38Z</time>
      </trkpt>
      <trkpt lat="42.016376000" lon="2.495958100">
        <ele>530.80</ele>
        <time>2012-10-14T16:55:47Z</time>
      </trkpt>
      <trkpt lat="42.016315000" lon="2.496059100">
        <ele>531.30</ele>
        <time>2012-10-14T16:55:52Z</time>
      </trkpt>
      <trkpt lat="42.016289000" lon="2.496102100">
        <ele>531.30</ele>
        <time>2012-10-14T16:55:54Z</time>
      </trkpt>
      <trkpt lat="42.016220000" lon="2.496184100">
        <ele>531.80</ele>
        <time>2012-10-14T16:56:01Z</time>
      </trkpt>
      <trkpt lat="42.016140000" lon="2.496316100">
        <ele>532.20</ele>
        <time>2012-10-14T16:56:10Z</time>
      </trkpt>
      <trkpt lat="42.016022000" lon="2.496436100">
        <ele>532.20</ele>
        <time>2012-10-14T16:56:17Z</time>
      </trkpt>
      <trkpt lat="42.015907000" lon="2.496574100">
        <ele>532.20</ele>
        <time>2012-10-14T16:56:25Z</time>
      </trkpt>
      <trkpt lat="42.015793000" lon="2.496694100">
        <ele>532.20</ele>
        <time>2012-10-14T16:56:32Z</time>
      </trkpt>
      <trkpt lat="42.015659000" lon="2.496841100">
        <ele>533.70</ele>
        <time>2012-10-14T16:56:41Z</time>
      </trkpt>
      <trkpt lat="42.015545000" lon="2.496938100">
        <ele>534.20</ele>
        <time>2012-10-14T16:56:48Z</time>
      </trkpt>
      <trkpt lat="42.015461000" lon="2.497005100">
        <ele>535.10</ele>
        <time>2012-10-14T16:56:55Z</time>
      </trkpt>
      <trkpt lat="42.015339000" lon="2.497114100">
        <ele>537.50</ele>
        <time>2012-10-14T16:57:02Z</time>
      </trkpt>
      <trkpt lat="42.015251000" lon="2.497215100">
        <ele>540.90</ele>
        <time>2012-10-14T16:57:09Z</time>
      </trkpt>
      <trkpt lat="42.015152000" lon="2.497282100">
        <ele>543.80</ele>
        <time>2012-10-14T16:57:14Z</time>
      </trkpt>
      <trkpt lat="42.015026000" lon="2.497375100">
        <ele>543.80</ele>
        <time>2012-10-14T16:57:23Z</time>
      </trkpt>
      <trkpt lat="42.014893000" lon="2.497607100">
        <ele>543.80</ele>
        <time>2012-10-14T16:57:33Z</time>
      </trkpt>
      <trkpt lat="42.014885000" lon="2.497674100">
        <ele>543.80</ele>
        <time>2012-10-14T16:57:35Z</time>
      </trkpt>
      <trkpt lat="42.015018000" lon="2.497897100">
        <ele>543.80</ele>
        <time>2012-10-14T16:57:42Z</time>
      </trkpt>
      <trkpt lat="42.015072000" lon="2.497926100">
        <ele>543.80</ele>
        <time>2012-10-14T16:57:44Z</time>
      </trkpt>
      <trkpt lat="42.015171000" lon="2.497996100">
        <ele>543.80</ele>
        <time>2012-10-14T16:57:47Z</time>
      </trkpt>
      <trkpt lat="42.015411000" lon="2.498280100">
        <ele>542.30</ele>
        <time>2012-10-14T16:57:54Z</time>
      </trkpt>
      <trkpt lat="42.015533000" lon="2.498430100">
        <ele>542.30</ele>
        <time>2012-10-14T16:57:58Z</time>
      </trkpt>
      <trkpt lat="42.015598000" lon="2.498582100">
        <ele>541.40</ele>
        <time>2012-10-14T16:58:03Z</time>
      </trkpt>
      <trkpt lat="42.015602000" lon="2.498610100">
        <ele>541.40</ele>
        <time>2012-10-14T16:58:08Z</time>
      </trkpt>
      <trkpt lat="42.015614000" lon="2.498655100">
        <ele>540.40</ele>
        <time>2012-10-14T16:58:15Z</time>
      </trkpt>
      <trkpt lat="42.015614000" lon="2.498655100">
        <ele>540.40</ele>
        <time>2012-10-14T16:58:24Z</time>
      </trkpt>
      <trkpt lat="42.015621000" lon="2.498737100">
        <ele>539.40</ele>
        <time>2012-10-14T16:58:29Z</time>
      </trkpt>
      <trkpt lat="42.015633000" lon="2.498789100">
        <ele>539.40</ele>
        <time>2012-10-14T16:58:34Z</time>
      </trkpt>
      <trkpt lat="42.015594000" lon="2.498834100">
        <ele>539.90</ele>
        <time>2012-10-14T16:58:38Z</time>
      </trkpt>
      <trkpt lat="42.015533000" lon="2.498985100">
        <ele>541.40</ele>
        <time>2012-10-14T16:58:46Z</time>
      </trkpt>
      <trkpt lat="42.015461000" lon="2.499146100">
        <ele>541.80</ele>
        <time>2012-10-14T16:58:55Z</time>
      </trkpt>
      <trkpt lat="42.015453000" lon="2.499156100">
        <ele>541.80</ele>
        <time>2012-10-14T16:58:55Z</time>
      </trkpt>
      <trkpt lat="42.015373000" lon="2.499276100">
        <ele>542.30</ele>
        <time>2012-10-14T16:59:04Z</time>
      </trkpt>
      <trkpt lat="42.015259000" lon="2.499381100">
        <ele>542.30</ele>
        <time>2012-10-14T16:59:09Z</time>
      </trkpt>
      <trkpt lat="42.015171000" lon="2.499481100">
        <ele>542.30</ele>
        <time>2012-10-14T16:59:14Z</time>
      </trkpt>
      <trkpt lat="42.015091000" lon="2.499666100">
        <ele>542.30</ele>
        <time>2012-10-14T16:59:21Z</time>
      </trkpt>
      <trkpt lat="42.015011000" lon="2.499783100">
        <ele>542.30</ele>
        <time>2012-10-14T16:59:28Z</time>
      </trkpt>
      <trkpt lat="42.014935000" lon="2.499921100">
        <ele>543.80</ele>
        <time>2012-10-14T16:59:35Z</time>
      </trkpt>
      <trkpt lat="42.014847000" lon="2.500070100">
        <ele>545.70</ele>
        <time>2012-10-14T16:59:42Z</time>
      </trkpt>
      <trkpt lat="42.014774000" lon="2.500230100">
        <ele>546.70</ele>
        <time>2012-10-14T16:59:49Z</time>
      </trkpt>
      <trkpt lat="42.014729000" lon="2.500438100">
        <ele>547.60</ele>
        <time>2012-10-14T16:59:56Z</time>
      </trkpt>
      <trkpt lat="42.014675000" lon="2.500554100">
        <ele>547.60</ele>
        <time>2012-10-14T17:00:00Z</time>
      </trkpt>
      <trkpt lat="42.014671000" lon="2.500678100">
        <ele>547.60</ele>
        <time>2012-10-14T17:00:03Z</time>
      </trkpt>
      <trkpt lat="42.014809000" lon="2.500881100">
        <ele>547.60</ele>
        <time>2012-10-14T17:00:08Z</time>
      </trkpt>
      <trkpt lat="42.015038000" lon="2.501132100">
        <ele>547.60</ele>
        <time>2012-10-14T17:00:15Z</time>
      </trkpt>
      <trkpt lat="42.015064000" lon="2.501153100">
        <ele>547.60</ele>
        <time>2012-10-14T17:00:17Z</time>
      </trkpt>
      <trkpt lat="42.015125000" lon="2.501196100">
        <ele>547.60</ele>
        <time>2012-10-14T17:00:19Z</time>
      </trkpt>
      <trkpt lat="42.015163000" lon="2.501353100">
        <ele>546.20</ele>
        <time>2012-10-14T17:00:26Z</time>
      </trkpt>
      <trkpt lat="42.015133000" lon="2.501494100">
        <ele>546.20</ele>
        <time>2012-10-14T17:00:31Z</time>
      </trkpt>
      <trkpt lat="42.015125000" lon="2.501622100">
        <ele>546.20</ele>
        <time>2012-10-14T17:00:36Z</time>
      </trkpt>
      <trkpt lat="42.015110000" lon="2.501664100">
        <ele>546.20</ele>
        <time>2012-10-14T17:00:38Z</time>
      </trkpt>
      <trkpt lat="42.015102000" lon="2.501903100">
        <ele>546.20</ele>
        <time>2012-10-14T17:00:48Z</time>
      </trkpt>
      <trkpt lat="42.015087000" lon="2.502074100">
        <ele>547.10</ele>
        <time>2012-10-14T17:00:55Z</time>
      </trkpt>
      <trkpt lat="42.015026000" lon="2.502261100">
        <ele>548.60</ele>
        <time>2012-10-14T17:01:02Z</time>
      </trkpt>
      <trkpt lat="42.014946000" lon="2.502433100">
        <ele>549.00</ele>
        <time>2012-10-14T17:01:09Z</time>
      </trkpt>
      <trkpt lat="42.014828000" lon="2.502515100">
        <ele>549.50</ele>
        <time>2012-10-14T17:01:13Z</time>
      </trkpt>
      <trkpt lat="42.014706000" lon="2.502560100">
        <ele>551.00</ele>
        <time>2012-10-14T17:01:21Z</time>
      </trkpt>
      <trkpt lat="42.014576000" lon="2.502643100">
        <ele>551.90</ele>
        <time>2012-10-14T17:01:28Z</time>
      </trkpt>
      <trkpt lat="42.014416000" lon="2.502735100">
        <ele>552.90</ele>
        <time>2012-10-14T17:01:37Z</time>
      </trkpt>
      <trkpt lat="42.014301000" lon="2.502842100">
        <ele>554.80</ele>
        <time>2012-10-14T17:01:44Z</time>
      </trkpt>
      <trkpt lat="42.014206000" lon="2.502976100">
        <ele>558.70</ele>
        <time>2012-10-14T17:01:53Z</time>
      </trkpt>
      <trkpt lat="42.014191000" lon="2.502990100">
        <ele>558.70</ele>
        <time>2012-10-14T17:01:53Z</time>
      </trkpt>
      <trkpt lat="42.014076000" lon="2.503090100">
        <ele>560.60</ele>
        <time>2012-10-14T17:02:01Z</time>
      </trkpt>
      <trkpt lat="42.013962000" lon="2.503289100">
        <ele>560.60</ele>
        <time>2012-10-14T17:02:10Z</time>
      </trkpt>
      <trkpt lat="42.013988000" lon="2.503393100">
        <ele>560.60</ele>
        <time>2012-10-14T17:02:17Z</time>
      </trkpt>
      <trkpt lat="42.014042000" lon="2.503497100">
        <ele>561.10</ele>
        <time>2012-10-14T17:02:22Z</time>
      </trkpt>
      <trkpt lat="42.014053000" lon="2.503624100">
        <ele>561.50</ele>
        <time>2012-10-14T17:02:28Z</time>
      </trkpt>
      <trkpt lat="42.014004000" lon="2.503855100">
        <ele>562.50</ele>
        <time>2012-10-14T17:02:36Z</time>
      </trkpt>
      <trkpt lat="42.014038000" lon="2.504110100">
        <ele>563.00</ele>
        <time>2012-10-14T17:02:45Z</time>
      </trkpt>
      <trkpt lat="42.014114000" lon="2.504331100">
        <ele>564.40</ele>
        <time>2012-10-14T17:02:52Z</time>
      </trkpt>
      <trkpt lat="42.014133000" lon="2.504459100">
        <ele>564.90</ele>
        <time>2012-10-14T17:02:59Z</time>
      </trkpt>
      <trkpt lat="42.014145000" lon="2.504619100">
        <ele>565.90</ele>
        <time>2012-10-14T17:03:06Z</time>
      </trkpt>
      <trkpt lat="42.014172000" lon="2.504826100">
        <ele>566.30</ele>
        <time>2012-10-14T17:03:13Z</time>
      </trkpt>
      <trkpt lat="42.014259000" lon="2.505047100">
        <ele>568.30</ele>
        <time>2012-10-14T17:03:22Z</time>
      </trkpt>
      <trkpt lat="42.014347000" lon="2.505091100">
        <ele>569.20</ele>
        <time>2012-10-14T17:03:27Z</time>
      </trkpt>
      <trkpt lat="42.014454000" lon="2.505121100">
        <ele>570.20</ele>
        <time>2012-10-14T17:03:34Z</time>
      </trkpt>
      <trkpt lat="42.014595000" lon="2.505183100">
        <ele>572.10</ele>
        <time>2012-10-14T17:03:41Z</time>
      </trkpt>
      <trkpt lat="42.014729000" lon="2.505290100">
        <ele>573.10</ele>
        <time>2012-10-14T17:03:49Z</time>
      </trkpt>
      <trkpt lat="42.014870000" lon="2.505406100">
        <ele>574.00</ele>
        <time>2012-10-14T17:03:58Z</time>
      </trkpt>
      <trkpt lat="42.014965000" lon="2.505564100">
        <ele>574.50</ele>
        <time>2012-10-14T17:04:05Z</time>
      </trkpt>
      <trkpt lat="42.015076000" lon="2.505772100">
        <ele>574.50</ele>
        <time>2012-10-14T17:04:10Z</time>
      </trkpt>
      <trkpt lat="42.015255000" lon="2.505960100">
        <ele>574.50</ele>
        <time>2012-10-14T17:04:19Z</time>
      </trkpt>
      <trkpt lat="42.015335000" lon="2.506140100">
        <ele>574.50</ele>
        <time>2012-10-14T17:04:24Z</time>
      </trkpt>
      <trkpt lat="42.015495000" lon="2.506310100">
        <ele>574.50</ele>
        <time>2012-10-14T17:04:31Z</time>
      </trkpt>
      <trkpt lat="42.015633000" lon="2.506398100">
        <ele>573.10</ele>
        <time>2012-10-14T17:04:36Z</time>
      </trkpt>
      <trkpt lat="42.015781000" lon="2.506526100">
        <ele>572.60</ele>
        <time>2012-10-14T17:04:43Z</time>
      </trkpt>
      <trkpt lat="42.015926000" lon="2.506644100">
        <ele>572.10</ele>
        <time>2012-10-14T17:04:49Z</time>
      </trkpt>
      <trkpt lat="42.016037000" lon="2.506762100">
        <ele>571.60</ele>
        <time>2012-10-14T17:04:54Z</time>
      </trkpt>
      <trkpt lat="42.016201000" lon="2.506781100">
        <ele>571.20</ele>
        <time>2012-10-14T17:04:59Z</time>
      </trkpt>
      <trkpt lat="42.016289000" lon="2.506761100">
        <ele>570.70</ele>
        <time>2012-10-14T17:05:01Z</time>
      </trkpt>
      <trkpt lat="42.016510000" lon="2.506695100">
        <ele>569.70</ele>
        <time>2012-10-14T17:05:08Z</time>
      </trkpt>
      <trkpt lat="42.016708000" lon="2.506723100">
        <ele>569.20</ele>
        <time>2012-10-14T17:05:13Z</time>
      </trkpt>
      <trkpt lat="42.016911000" lon="2.506751100">
        <ele>569.20</ele>
        <time>2012-10-14T17:05:20Z</time>
      </trkpt>
      <trkpt lat="42.016994000" lon="2.506790100">
        <ele>569.20</ele>
        <time>2012-10-14T17:05:25Z</time>
      </trkpt>
      <trkpt lat="42.017136000" lon="2.506788100">
        <ele>569.20</ele>
        <time>2012-10-14T17:05:30Z</time>
      </trkpt>
      <trkpt lat="42.017292000" lon="2.506742100">
        <ele>571.60</ele>
        <time>2012-10-14T17:05:39Z</time>
      </trkpt>
      <trkpt lat="42.017448000" lon="2.506739100">
        <ele>572.60</ele>
        <time>2012-10-14T17:05:46Z</time>
      </trkpt>
      <trkpt lat="42.017578000" lon="2.506804100">
        <ele>573.10</ele>
        <time>2012-10-14T17:05:53Z</time>
      </trkpt>
      <trkpt lat="42.017727000" lon="2.506876100">
        <ele>573.60</ele>
        <time>2012-10-14T17:06:00Z</time>
      </trkpt>
      <trkpt lat="42.017876000" lon="2.507036100">
        <ele>573.60</ele>
        <time>2012-10-14T17:06:07Z</time>
      </trkpt>
      <trkpt lat="42.017895000" lon="2.507065100">
        <ele>573.60</ele>
        <time>2012-10-14T17:06:07Z</time>
      </trkpt>
      <trkpt lat="42.018074000" lon="2.507131100">
        <ele>573.60</ele>
        <time>2012-10-14T17:06:14Z</time>
      </trkpt>
      <trkpt lat="42.018124000" lon="2.507145100">
        <ele>573.60</ele>
        <time>2012-10-14T17:06:17Z</time>
      </trkpt>
      <trkpt lat="42.018173000" lon="2.507221100">
        <ele>573.60</ele>
        <time>2012-10-14T17:06:23Z</time>
      </trkpt>
      <trkpt lat="42.018173000" lon="2.507235100">
        <ele>573.60</ele>
        <time>2012-10-14T17:06:31Z</time>
      </trkpt>
      <trkpt lat="42.018158000" lon="2.507267100">
        <ele>572.60</ele>
        <time>2012-10-14T17:06:40Z</time>
      </trkpt>
      <trkpt lat="42.018166000" lon="2.507282100">
        <ele>572.60</ele>
        <time>2012-10-14T17:06:45Z</time>
      </trkpt>
      <trkpt lat="42.018143000" lon="2.507416100">
        <ele>572.60</ele>
        <time>2012-10-14T17:06:56Z</time>
      </trkpt>
      <trkpt lat="42.018143000" lon="2.507414100">
        <ele>574.00</ele>
        <time>2012-10-14T17:07:01Z</time>
      </trkpt>
      <trkpt lat="42.018108000" lon="2.507575100">
        <ele>574.00</ele>
        <time>2012-10-14T17:07:10Z</time>
      </trkpt>
      <trkpt lat="42.018085000" lon="2.507625100">
        <ele>574.00</ele>
        <time>2012-10-14T17:07:11Z</time>
      </trkpt>
      <trkpt lat="42.017944000" lon="2.507783100">
        <ele>574.00</ele>
        <time>2012-10-14T17:07:18Z</time>
      </trkpt>
      <trkpt lat="42.017826000" lon="2.507950100">
        <ele>574.00</ele>
        <time>2012-10-14T17:07:25Z</time>
      </trkpt>
      <trkpt lat="42.017681000" lon="2.508175100">
        <ele>575.00</ele>
        <time>2012-10-14T17:07:34Z</time>
      </trkpt>
      <trkpt lat="42.017563000" lon="2.508373100">
        <ele>576.00</ele>
        <time>2012-10-14T17:07:43Z</time>
      </trkpt>
      <trkpt lat="42.017475000" lon="2.508567100">
        <ele>576.00</ele>
        <time>2012-10-14T17:07:50Z</time>
      </trkpt>
      <trkpt lat="42.017441000" lon="2.508758100">
        <ele>576.50</ele>
        <time>2012-10-14T17:07:57Z</time>
      </trkpt>
      <trkpt lat="42.017441000" lon="2.508837100">
        <ele>576.50</ele>
        <time>2012-10-14T17:08:00Z</time>
      </trkpt>
      <trkpt lat="42.017403000" lon="2.509032100">
        <ele>577.40</ele>
        <time>2012-10-14T17:08:09Z</time>
      </trkpt>
      <trkpt lat="42.017464000" lon="2.509099100">
        <ele>580.30</ele>
        <time>2012-10-14T17:08:14Z</time>
      </trkpt>
      <trkpt lat="42.017540000" lon="2.509110100">
        <ele>582.70</ele>
        <time>2012-10-14T17:08:18Z</time>
      </trkpt>
      <trkpt lat="42.017666000" lon="2.509215100">
        <ele>582.70</ele>
        <time>2012-10-14T17:08:25Z</time>
      </trkpt>
      <trkpt lat="42.017784000" lon="2.509357100">
        <ele>582.70</ele>
        <time>2012-10-14T17:08:33Z</time>
      </trkpt>
      <trkpt lat="42.017937000" lon="2.509536100">
        <ele>583.20</ele>
        <time>2012-10-14T17:08:42Z</time>
      </trkpt>
      <trkpt lat="42.018066000" lon="2.509662100">
        <ele>583.20</ele>
        <time>2012-10-14T17:08:49Z</time>
      </trkpt>
      <trkpt lat="42.018219000" lon="2.509805100">
        <ele>583.70</ele>
        <time>2012-10-14T17:08:56Z</time>
      </trkpt>
      <trkpt lat="42.018364000" lon="2.509933100">
        <ele>583.70</ele>
        <time>2012-10-14T17:09:03Z</time>
      </trkpt>
      <trkpt lat="42.018497000" lon="2.510002100">
        <ele>583.70</ele>
        <time>2012-10-14T17:09:10Z</time>
      </trkpt>
      <trkpt lat="42.018650000" lon="2.510008100">
        <ele>582.20</ele>
        <time>2012-10-14T17:09:17Z</time>
      </trkpt>
      <trkpt lat="42.018791000" lon="2.510028100">
        <ele>581.20</ele>
        <time>2012-10-14T17:09:24Z</time>
      </trkpt>
      <trkpt lat="42.018959000" lon="2.510101100">
        <ele>579.80</ele>
        <time>2012-10-14T17:09:31Z</time>
      </trkpt>
      <trkpt lat="42.019096000" lon="2.510234100">
        <ele>578.80</ele>
        <time>2012-10-14T17:09:40Z</time>
      </trkpt>
      <trkpt lat="42.019249000" lon="2.510375100">
        <ele>578.40</ele>
        <time>2012-10-14T17:09:45Z</time>
      </trkpt>
      <trkpt lat="42.019333000" lon="2.510524100">
        <ele>576.90</ele>
        <time>2012-10-14T17:09:52Z</time>
      </trkpt>
      <trkpt lat="42.019524000" lon="2.510871100">
        <ele>575.00</ele>
        <time>2012-10-14T17:10:04Z</time>
      </trkpt>
      <trkpt lat="42.019531000" lon="2.510938100">
        <ele>574.00</ele>
        <time>2012-10-14T17:10:06Z</time>
      </trkpt>
      <trkpt lat="42.019547000" lon="2.511076100">
        <ele>574.00</ele>
        <time>2012-10-14T17:10:11Z</time>
      </trkpt>
      <trkpt lat="42.019672000" lon="2.511117100">
        <ele>573.60</ele>
        <time>2012-10-14T17:10:16Z</time>
      </trkpt>
      <trkpt lat="42.019753000" lon="2.511181100">
        <ele>573.60</ele>
        <time>2012-10-14T17:10:18Z</time>
      </trkpt>
      <trkpt lat="42.019909000" lon="2.511241100">
        <ele>573.10</ele>
        <time>2012-10-14T17:10:25Z</time>
      </trkpt>
      <trkpt lat="42.020004000" lon="2.511290100">
        <ele>573.10</ele>
        <time>2012-10-14T17:10:28Z</time>
      </trkpt>
      <trkpt lat="42.020164000" lon="2.511377100">
        <ele>572.10</ele>
        <time>2012-10-14T17:10:35Z</time>
      </trkpt>
      <trkpt lat="42.020306000" lon="2.511569100">
        <ele>571.60</ele>
        <time>2012-10-14T17:10:42Z</time>
      </trkpt>
      <trkpt lat="42.020485000" lon="2.511658100">
        <ele>570.20</ele>
        <time>2012-10-14T17:10:46Z</time>
      </trkpt>
      <trkpt lat="42.020706000" lon="2.511683100">
        <ele>569.70</ele>
        <time>2012-10-14T17:10:53Z</time>
      </trkpt>
      <trkpt lat="42.020874000" lon="2.511751100">
        <ele>568.80</ele>
        <time>2012-10-14T17:10:58Z</time>
      </trkpt>
      <trkpt lat="42.021038000" lon="2.511853100">
        <ele>568.30</ele>
        <time>2012-10-14T17:11:05Z</time>
      </trkpt>
      <trkpt lat="42.021210000" lon="2.511887100">
        <ele>568.30</ele>
        <time>2012-10-14T17:11:12Z</time>
      </trkpt>
      <trkpt lat="42.021366000" lon="2.511801100">
        <ele>566.80</ele>
        <time>2012-10-14T17:11:19Z</time>
      </trkpt>
      <trkpt lat="42.021461000" lon="2.511750100">
        <ele>566.30</ele>
        <time>2012-10-14T17:11:24Z</time>
      </trkpt>
      <trkpt lat="42.021603000" lon="2.511651100">
        <ele>564.90</ele>
        <time>2012-10-14T17:11:29Z</time>
      </trkpt>
      <trkpt lat="42.021778000" lon="2.511479100">
        <ele>562.50</ele>
        <time>2012-10-14T17:11:35Z</time>
      </trkpt>
      <trkpt lat="42.021915000" lon="2.511405100">
        <ele>559.10</ele>
        <time>2012-10-14T17:11:38Z</time>
      </trkpt>
      <trkpt lat="42.022102000" lon="2.511308100">
        <ele>558.20</ele>
        <time>2012-10-14T17:11:43Z</time>
      </trkpt>
      <trkpt lat="42.022175000" lon="2.511303100">
        <ele>558.20</ele>
        <time>2012-10-14T17:11:45Z</time>
      </trkpt>
      <trkpt lat="42.022266000" lon="2.511268100">
        <ele>558.20</ele>
        <time>2012-10-14T17:11:50Z</time>
      </trkpt>
      <trkpt lat="42.022366000" lon="2.511240100">
        <ele>558.20</ele>
        <time>2012-10-14T17:11:54Z</time>
      </trkpt>
      <trkpt lat="42.022461000" lon="2.511254100">
        <ele>559.10</ele>
        <time>2012-10-14T17:11:59Z</time>
      </trkpt>
      <trkpt lat="42.022667000" lon="2.511238100">
        <ele>559.60</ele>
        <time>2012-10-14T17:12:06Z</time>
      </trkpt>
      <trkpt lat="42.022820000" lon="2.511302100">
        <ele>559.60</ele>
        <time>2012-10-14T17:12:11Z</time>
      </trkpt>
      <trkpt lat="42.022846000" lon="2.511314100">
        <ele>559.60</ele>
        <time>2012-10-14T17:12:11Z</time>
      </trkpt>
      <trkpt lat="42.023022000" lon="2.511399100">
        <ele>558.20</ele>
        <time>2012-10-14T17:12:18Z</time>
      </trkpt>
      <trkpt lat="42.023045000" lon="2.511406100">
        <ele>557.20</ele>
        <time>2012-10-14T17:12:20Z</time>
      </trkpt>
      <trkpt lat="42.023254000" lon="2.511458100">
        <ele>556.30</ele>
        <time>2012-10-14T17:12:27Z</time>
      </trkpt>
      <trkpt lat="42.023312000" lon="2.511478100">
        <ele>555.80</ele>
        <time>2012-10-14T17:12:30Z</time>
      </trkpt>
      <trkpt lat="42.023304000" lon="2.511565100">
        <ele>554.30</ele>
        <time>2012-10-14T17:12:36Z</time>
      </trkpt>
      <trkpt lat="42.023220000" lon="2.511588100">
        <ele>551.50</ele>
        <time>2012-10-14T17:12:41Z</time>
      </trkpt>
      <trkpt lat="42.023117000" lon="2.511593100">
        <ele>549.50</ele>
        <time>2012-10-14T17:12:46Z</time>
      </trkpt>
      <trkpt lat="42.022915000" lon="2.511544100">
        <ele>549.50</ele>
        <time>2012-10-14T17:12:53Z</time>
      </trkpt>
      <trkpt lat="42.022831000" lon="2.511544100">
        <ele>549.50</ele>
        <time>2012-10-14T17:12:55Z</time>
      </trkpt>
      <trkpt lat="42.022785000" lon="2.511614100">
        <ele>549.50</ele>
        <time>2012-10-14T17:13:00Z</time>
      </trkpt>
      <trkpt lat="42.022831000" lon="2.511701100">
        <ele>549.50</ele>
        <time>2012-10-14T17:13:09Z</time>
      </trkpt>
      <trkpt lat="42.022839000" lon="2.511733100">
        <ele>548.10</ele>
        <time>2012-10-14T17:13:16Z</time>
      </trkpt>
      <trkpt lat="42.022842000" lon="2.511738100">
        <ele>548.60</ele>
        <time>2012-10-14T17:13:28Z</time>
      </trkpt>
      <trkpt lat="42.022839000" lon="2.511742100">
        <ele>548.10</ele>
        <time>2012-10-14T17:13:38Z</time>
      </trkpt>
      <trkpt lat="42.022846000" lon="2.511757100">
        <ele>548.10</ele>
        <time>2012-10-14T17:13:49Z</time>
      </trkpt>
      <trkpt lat="42.022865000" lon="2.511780100">
        <ele>547.10</ele>
        <time>2012-10-14T17:13:59Z</time>
      </trkpt>
      <trkpt lat="42.022892000" lon="2.511850100">
        <ele>547.10</ele>
        <time>2012-10-14T17:14:15Z</time>
      </trkpt>
      <trkpt lat="42.022938000" lon="2.511872100">
        <ele>547.10</ele>
        <time>2012-10-14T17:14:32Z</time>
      </trkpt>
      <trkpt lat="42.023060000" lon="2.511850100">
        <ele>547.10</ele>
        <time>2012-10-14T17:14:41Z</time>
      </trkpt>
      <trkpt lat="42.023148000" lon="2.511869100">
        <ele>548.60</ele>
        <time>2012-10-14T17:14:48Z</time>
      </trkpt>
      <trkpt lat="42.023216000" lon="2.511882100">
        <ele>548.60</ele>
        <time>2012-10-14T17:14:53Z</time>
      </trkpt>
      <trkpt lat="42.023243000" lon="2.511899100">
        <ele>549.50</ele>
        <time>2012-10-14T17:14:55Z</time>
      </trkpt>
      <trkpt lat="42.023209000" lon="2.511987100">
        <ele>550.50</ele>
        <time>2012-10-14T17:15:02Z</time>
      </trkpt>
      <trkpt lat="42.023201000" lon="2.512001100">
        <ele>551.00</ele>
        <time>2012-10-14T17:15:07Z</time>
      </trkpt>
      <trkpt lat="42.023182000" lon="2.512007100">
        <ele>551.00</ele>
        <time>2012-10-14T17:15:09Z</time>
      </trkpt>
      <trkpt lat="42.023140000" lon="2.512081100">
        <ele>551.50</ele>
        <time>2012-10-14T17:15:18Z</time>
      </trkpt>
      <trkpt lat="42.023075000" lon="2.512094100">
        <ele>552.40</ele>
        <time>2012-10-14T17:15:26Z</time>
      </trkpt>
      <trkpt lat="42.023006000" lon="2.512104100">
        <ele>553.90</ele>
        <time>2012-10-14T17:15:35Z</time>
      </trkpt>
      <trkpt lat="42.022961000" lon="2.512121100">
        <ele>554.30</ele>
        <time>2012-10-14T17:15:42Z</time>
      </trkpt>
      <trkpt lat="42.022911000" lon="2.512137100">
        <ele>554.30</ele>
        <time>2012-10-14T17:15:51Z</time>
      </trkpt>
      <trkpt lat="42.022869000" lon="2.512135100">
        <ele>554.80</ele>
        <time>2012-10-14T17:15:58Z</time>
      </trkpt>
      <trkpt lat="42.022846000" lon="2.512117100">
        <ele>555.30</ele>
        <time>2012-10-14T17:16:05Z</time>
      </trkpt>
      <trkpt lat="42.022846000" lon="2.512117100">
        <ele>555.30</ele>
        <time>2012-10-14T17:16:13Z</time>
      </trkpt>
      <trkpt lat="42.022846000" lon="2.512116100">
        <ele>555.80</ele>
        <time>2012-10-14T17:16:17Z</time>
      </trkpt>
      <trkpt lat="42.022781000" lon="2.512093100">
        <ele>556.30</ele>
        <time>2012-10-14T17:16:25Z</time>
      </trkpt>
      <trkpt lat="42.022659000" lon="2.512138100">
        <ele>556.30</ele>
        <time>2012-10-14T17:16:34Z</time>
      </trkpt>
      <trkpt lat="42.022480000" lon="2.512306100">
        <ele>556.30</ele>
        <time>2012-10-14T17:16:43Z</time>
      </trkpt>
      <trkpt lat="42.022366000" lon="2.512438100">
        <ele>556.30</ele>
        <time>2012-10-14T17:16:50Z</time>
      </trkpt>
      <trkpt lat="42.022285000" lon="2.512514100">
        <ele>556.30</ele>
        <time>2012-10-14T17:16:55Z</time>
      </trkpt>
      <trkpt lat="42.022278000" lon="2.512537100">
        <ele>556.30</ele>
        <time>2012-10-14T17:16:55Z</time>
      </trkpt>
      <trkpt lat="42.022278000" lon="2.512739100">
        <ele>556.30</ele>
        <time>2012-10-14T17:17:02Z</time>
      </trkpt>
      <trkpt lat="42.022274000" lon="2.512780100">
        <ele>556.30</ele>
        <time>2012-10-14T17:17:04Z</time>
      </trkpt>
      <trkpt lat="42.022263000" lon="2.512858100">
        <ele>556.30</ele>
        <time>2012-10-14T17:17:05Z</time>
      </trkpt>
      <trkpt lat="42.022186000" lon="2.512964100">
        <ele>556.30</ele>
        <time>2012-10-14T17:17:11Z</time>
      </trkpt>
      <trkpt lat="42.022018000" lon="2.513167100">
        <ele>556.30</ele>
        <time>2012-10-14T17:17:21Z</time>
      </trkpt>
      <trkpt lat="42.021904000" lon="2.513249100">
        <ele>556.30</ele>
        <time>2012-10-14T17:17:28Z</time>
      </trkpt>
      <trkpt lat="42.021809000" lon="2.513320100">
        <ele>556.30</ele>
        <time>2012-10-14T17:17:35Z</time>
      </trkpt>
      <trkpt lat="42.021721000" lon="2.513457100">
        <ele>556.30</ele>
        <time>2012-10-14T17:17:42Z</time>
      </trkpt>
      <trkpt lat="42.021709000" lon="2.513472100">
        <ele>556.70</ele>
        <time>2012-10-14T17:17:49Z</time>
      </trkpt>
      <trkpt lat="42.021679000" lon="2.513503100">
        <ele>557.70</ele>
        <time>2012-10-14T17:17:56Z</time>
      </trkpt>
      <trkpt lat="42.021614000" lon="2.513570100">
        <ele>558.20</ele>
        <time>2012-10-14T17:18:03Z</time>
      </trkpt>
      <trkpt lat="42.021553000" lon="2.513611100">
        <ele>559.10</ele>
        <time>2012-10-14T17:18:10Z</time>
      </trkpt>
      <trkpt lat="42.021542000" lon="2.513610100">
        <ele>559.10</ele>
        <time>2012-10-14T17:18:17Z</time>
      </trkpt>
      <trkpt lat="42.021473000" lon="2.513673100">
        <ele>559.60</ele>
        <time>2012-10-14T17:18:24Z</time>
      </trkpt>
      <trkpt lat="42.021408000" lon="2.513756100">
        <ele>560.10</ele>
        <time>2012-10-14T17:18:31Z</time>
      </trkpt>
      <trkpt lat="42.021355000" lon="2.513862100">
        <ele>560.60</ele>
        <time>2012-10-14T17:18:38Z</time>
      </trkpt>
      <trkpt lat="42.021317000" lon="2.513921100">
        <ele>561.10</ele>
        <time>2012-10-14T17:18:48Z</time>
      </trkpt>
      <trkpt lat="42.021255000" lon="2.513997100">
        <ele>562.00</ele>
        <time>2012-10-14T17:18:55Z</time>
      </trkpt>
      <trkpt lat="42.021244000" lon="2.514007100">
        <ele>562.00</ele>
        <time>2012-10-14T17:19:02Z</time>
      </trkpt>
      <trkpt lat="42.021191000" lon="2.514141100">
        <ele>563.50</ele>
        <time>2012-10-14T17:19:09Z</time>
      </trkpt>
      <trkpt lat="42.021156000" lon="2.514205100">
        <ele>563.50</ele>
        <time>2012-10-14T17:19:11Z</time>
      </trkpt>
      <trkpt lat="42.021141000" lon="2.514408100">
        <ele>564.90</ele>
        <time>2012-10-14T17:19:21Z</time>
      </trkpt>
      <trkpt lat="42.021210000" lon="2.514532100">
        <ele>566.30</ele>
        <time>2012-10-14T17:19:30Z</time>
      </trkpt>
      <trkpt lat="42.021236000" lon="2.514577100">
        <ele>566.80</ele>
        <time>2012-10-14T17:19:32Z</time>
      </trkpt>
      <trkpt lat="42.021255000" lon="2.514727100">
        <ele>567.80</ele>
        <time>2012-10-14T17:19:41Z</time>
      </trkpt>
      <trkpt lat="42.021271000" lon="2.514833100">
        <ele>568.30</ele>
        <time>2012-10-14T17:19:46Z</time>
      </trkpt>
      <trkpt lat="42.021275000" lon="2.514952100">
        <ele>569.20</ele>
        <time>2012-10-14T17:19:51Z</time>
      </trkpt>
      <trkpt lat="42.021282000" lon="2.515152100">
        <ele>570.70</ele>
        <time>2012-10-14T17:19:58Z</time>
      </trkpt>
      <trkpt lat="42.021297000" lon="2.515368100">
        <ele>571.20</ele>
        <time>2012-10-14T17:20:07Z</time>
      </trkpt>
      <trkpt lat="42.021362000" lon="2.515760100">
        <ele>573.60</ele>
        <time>2012-10-14T17:20:24Z</time>
      </trkpt>
      <trkpt lat="42.021347000" lon="2.515976100">
        <ele>575.00</ele>
        <time>2012-10-14T17:20:33Z</time>
      </trkpt>
      <trkpt lat="42.021290000" lon="2.516099100">
        <ele>576.50</ele>
        <time>2012-10-14T17:20:40Z</time>
      </trkpt>
      <trkpt lat="42.021221000" lon="2.516201100">
        <ele>580.30</ele>
        <time>2012-10-14T17:20:45Z</time>
      </trkpt>
      <trkpt lat="42.021168000" lon="2.516297100">
        <ele>583.70</ele>
        <time>2012-10-14T17:20:50Z</time>
      </trkpt>
      <trkpt lat="42.021160000" lon="2.516314100">
        <ele>583.70</ele>
        <time>2012-10-14T17:20:52Z</time>
      </trkpt>
      <trkpt lat="42.021141000" lon="2.516401100">
        <ele>584.10</ele>
        <time>2012-10-14T17:20:55Z</time>
      </trkpt>
      <trkpt lat="42.021122000" lon="2.516461100">
        <ele>584.10</ele>
        <time>2012-10-14T17:20:59Z</time>
      </trkpt>
      <trkpt lat="42.021080000" lon="2.516728100">
        <ele>584.10</ele>
        <time>2012-10-14T17:21:11Z</time>
      </trkpt>
      <trkpt lat="42.021072000" lon="2.516933100">
        <ele>584.10</ele>
        <time>2012-10-14T17:21:20Z</time>
      </trkpt>
      <trkpt lat="42.021053000" lon="2.517159100">
        <ele>585.10</ele>
        <time>2012-10-14T17:21:30Z</time>
      </trkpt>
      <trkpt lat="42.021069000" lon="2.517343100">
        <ele>586.10</ele>
        <time>2012-10-14T17:21:37Z</time>
      </trkpt>
      <trkpt lat="42.021072000" lon="2.517517100">
        <ele>586.50</ele>
        <time>2012-10-14T17:21:46Z</time>
      </trkpt>
      <trkpt lat="42.021091000" lon="2.517687100">
        <ele>588.50</ele>
        <time>2012-10-14T17:21:53Z</time>
      </trkpt>
      <trkpt lat="42.021141000" lon="2.517850100">
        <ele>590.90</ele>
        <time>2012-10-14T17:22:02Z</time>
      </trkpt>
      <trkpt lat="42.021160000" lon="2.517940100">
        <ele>593.80</ele>
        <time>2012-10-14T17:22:07Z</time>
      </trkpt>
      <trkpt lat="42.021214000" lon="2.518098100">
        <ele>596.20</ele>
        <time>2012-10-14T17:22:14Z</time>
      </trkpt>
      <trkpt lat="42.021248000" lon="2.518155100">
        <ele>594.70</ele>
        <time>2012-10-14T17:22:19Z</time>
      </trkpt>
      <trkpt lat="42.021332000" lon="2.518318100">
        <ele>595.20</ele>
        <time>2012-10-14T17:22:28Z</time>
      </trkpt>
      <trkpt lat="42.021442000" lon="2.518450100">
        <ele>595.20</ele>
        <time>2012-10-14T17:22:38Z</time>
      </trkpt>
      <trkpt lat="42.021526000" lon="2.518539100">
        <ele>595.20</ele>
        <time>2012-10-14T17:22:45Z</time>
      </trkpt>
      <trkpt lat="42.021595000" lon="2.518606100">
        <ele>596.60</ele>
        <time>2012-10-14T17:22:50Z</time>
      </trkpt>
      <trkpt lat="42.021648000" lon="2.518690100">
        <ele>597.60</ele>
        <time>2012-10-14T17:22:57Z</time>
      </trkpt>
      <trkpt lat="42.021694000" lon="2.518766100">
        <ele>598.60</ele>
        <time>2012-10-14T17:23:01Z</time>
      </trkpt>
      <trkpt lat="42.021759000" lon="2.518859100">
        <ele>599.50</ele>
        <time>2012-10-14T17:23:08Z</time>
      </trkpt>
      <trkpt lat="42.021770000" lon="2.518873100">
        <ele>599.50</ele>
        <time>2012-10-14T17:23:10Z</time>
      </trkpt>
      <trkpt lat="42.021835000" lon="2.519087100">
        <ele>601.00</ele>
        <time>2012-10-14T17:23:18Z</time>
      </trkpt>
      <trkpt lat="42.021835000" lon="2.519169100">
        <ele>601.00</ele>
        <time>2012-10-14T17:23:22Z</time>
      </trkpt>
      <trkpt lat="42.021770000" lon="2.519220100">
        <ele>601.40</ele>
        <time>2012-10-14T17:23:27Z</time>
      </trkpt>
      <trkpt lat="42.021713000" lon="2.519243100">
        <ele>601.40</ele>
        <time>2012-10-14T17:23:30Z</time>
      </trkpt>
      <trkpt lat="42.021568000" lon="2.519241100">
        <ele>602.90</ele>
        <time>2012-10-14T17:23:39Z</time>
      </trkpt>
      <trkpt lat="42.021461000" lon="2.519342100">
        <ele>603.40</ele>
        <time>2012-10-14T17:23:46Z</time>
      </trkpt>
      <trkpt lat="42.021435000" lon="2.519373100">
        <ele>604.30</ele>
        <time>2012-10-14T17:23:48Z</time>
      </trkpt>
      <trkpt lat="42.021374000" lon="2.519397100">
        <ele>604.30</ele>
        <time>2012-10-14T17:23:53Z</time>
      </trkpt>
      <trkpt lat="42.021229000" lon="2.519413100">
        <ele>605.30</ele>
        <time>2012-10-14T17:24:00Z</time>
      </trkpt>
      <trkpt lat="42.021126000" lon="2.519488100">
        <ele>607.20</ele>
        <time>2012-10-14T17:24:07Z</time>
      </trkpt>
      <trkpt lat="42.021069000" lon="2.519667100">
        <ele>607.70</ele>
        <time>2012-10-14T17:24:14Z</time>
      </trkpt>
      <trkpt lat="42.021069000" lon="2.519838100">
        <ele>608.20</ele>
        <time>2012-10-14T17:24:21Z</time>
      </trkpt>
      <trkpt lat="42.021034000" lon="2.520007100">
        <ele>609.10</ele>
        <time>2012-10-14T17:24:28Z</time>
      </trkpt>
      <trkpt lat="42.021023000" lon="2.520071100">
        <ele>609.10</ele>
        <time>2012-10-14T17:24:31Z</time>
      </trkpt>
      <trkpt lat="42.021008000" lon="2.520243100">
        <ele>610.10</ele>
        <time>2012-10-14T17:24:40Z</time>
      </trkpt>
      <trkpt lat="42.020973000" lon="2.520385100">
        <ele>611.50</ele>
        <time>2012-10-14T17:24:47Z</time>
      </trkpt>
      <trkpt lat="42.020977000" lon="2.520525100">
        <ele>612.50</ele>
        <time>2012-10-14T17:24:54Z</time>
      </trkpt>
      <trkpt lat="42.020981000" lon="2.520690100">
        <ele>614.40</ele>
        <time>2012-10-14T17:25:03Z</time>
      </trkpt>
      <trkpt lat="42.020981000" lon="2.520714100">
        <ele>614.40</ele>
        <time>2012-10-14T17:25:05Z</time>
      </trkpt>
      <trkpt lat="42.021000000" lon="2.520848100">
        <ele>615.40</ele>
        <time>2012-10-14T17:25:12Z</time>
      </trkpt>
      <trkpt lat="42.020996000" lon="2.520916100">
        <ele>616.30</ele>
        <time>2012-10-14T17:25:15Z</time>
      </trkpt>
      <trkpt lat="42.020943000" lon="2.521094100">
        <ele>616.30</ele>
        <time>2012-10-14T17:25:22Z</time>
      </trkpt>
      <trkpt lat="42.020885000" lon="2.521155100">
        <ele>616.80</ele>
        <time>2012-10-14T17:25:25Z</time>
      </trkpt>
      <trkpt lat="42.020805000" lon="2.521092100">
        <ele>617.80</ele>
        <time>2012-10-14T17:25:32Z</time>
      </trkpt>
      <trkpt lat="42.020725000" lon="2.521015100">
        <ele>618.30</ele>
        <time>2012-10-14T17:25:39Z</time>
      </trkpt>
      <trkpt lat="42.020668000" lon="2.520930100">
        <ele>618.80</ele>
        <time>2012-10-14T17:25:46Z</time>
      </trkpt>
      <trkpt lat="42.020607000" lon="2.520821100">
        <ele>619.20</ele>
        <time>2012-10-14T17:25:50Z</time>
      </trkpt>
      <trkpt lat="42.020504000" lon="2.520753100">
        <ele>620.20</ele>
        <time>2012-10-14T17:25:57Z</time>
      </trkpt>
      <trkpt lat="42.020382000" lon="2.520745100">
        <ele>621.20</ele>
        <time>2012-10-14T17:26:04Z</time>
      </trkpt>
      <trkpt lat="42.020245000" lon="2.520771100">
        <ele>622.60</ele>
        <time>2012-10-14T17:26:12Z</time>
      </trkpt>
      <trkpt lat="42.020168000" lon="2.520718100">
        <ele>623.50</ele>
        <time>2012-10-14T17:26:18Z</time>
      </trkpt>
      <trkpt lat="42.019989000" lon="2.520646100">
        <ele>624.50</ele>
        <time>2012-10-14T17:26:28Z</time>
      </trkpt>
      <trkpt lat="42.019875000" lon="2.520614100">
        <ele>625.50</ele>
        <time>2012-10-14T17:26:35Z</time>
      </trkpt>
      <trkpt lat="42.019745000" lon="2.520634100">
        <ele>626.40</ele>
        <time>2012-10-14T17:26:42Z</time>
      </trkpt>
      <trkpt lat="42.019638000" lon="2.520646100">
        <ele>627.40</ele>
        <time>2012-10-14T17:26:49Z</time>
      </trkpt>
      <trkpt lat="42.019520000" lon="2.520623100">
        <ele>628.40</ele>
        <time>2012-10-14T17:26:56Z</time>
      </trkpt>
      <trkpt lat="42.019382000" lon="2.520590100">
        <ele>629.80</ele>
        <time>2012-10-14T17:27:03Z</time>
      </trkpt>
      <trkpt lat="42.019230000" lon="2.520538100">
        <ele>630.80</ele>
        <time>2012-10-14T17:27:12Z</time>
      </trkpt>
      <trkpt lat="42.019070000" lon="2.520432100">
        <ele>631.20</ele>
        <time>2012-10-14T17:27:20Z</time>
      </trkpt>
      <trkpt lat="42.018898000" lon="2.520333100">
        <ele>632.20</ele>
        <time>2012-10-14T17:27:29Z</time>
      </trkpt>
      <trkpt lat="42.018723000" lon="2.520237100">
        <ele>633.70</ele>
        <time>2012-10-14T17:27:38Z</time>
      </trkpt>
      <trkpt lat="42.018559000" lon="2.520092100">
        <ele>633.70</ele>
        <time>2012-10-14T17:27:45Z</time>
      </trkpt>
      <trkpt lat="42.018356000" lon="2.519961100">
        <ele>634.10</ele>
        <time>2012-10-14T17:27:55Z</time>
      </trkpt>
      <trkpt lat="42.018211000" lon="2.519893100">
        <ele>634.10</ele>
        <time>2012-10-14T17:28:02Z</time>
      </trkpt>
      <trkpt lat="42.018131000" lon="2.519864100">
        <ele>634.10</ele>
        <time>2012-10-14T17:28:06Z</time>
      </trkpt>
      <trkpt lat="42.018013000" lon="2.519803100">
        <ele>634.60</ele>
        <time>2012-10-14T17:28:13Z</time>
      </trkpt>
      <trkpt lat="42.017906000" lon="2.519700100">
        <ele>635.60</ele>
        <time>2012-10-14T17:28:21Z</time>
      </trkpt>
      <trkpt lat="42.017731000" lon="2.519655100">
        <ele>636.00</ele>
        <time>2012-10-14T17:28:28Z</time>
      </trkpt>
      <trkpt lat="42.017563000" lon="2.519623100">
        <ele>636.50</ele>
        <time>2012-10-14T17:28:37Z</time>
      </trkpt>
      <trkpt lat="42.017403000" lon="2.519593100">
        <ele>637.00</ele>
        <time>2012-10-14T17:28:44Z</time>
      </trkpt>
      <trkpt lat="42.017292000" lon="2.519572100">
        <ele>638.50</ele>
        <time>2012-10-14T17:28:51Z</time>
      </trkpt>
      <trkpt lat="42.017109000" lon="2.519517100">
        <ele>639.40</ele>
        <time>2012-10-14T17:28:58Z</time>
      </trkpt>
      <trkpt lat="42.016937000" lon="2.519437100">
        <ele>639.90</ele>
        <time>2012-10-14T17:29:07Z</time>
      </trkpt>
      <trkpt lat="42.016781000" lon="2.519410100">
        <ele>640.40</ele>
        <time>2012-10-14T17:29:14Z</time>
      </trkpt>
      <trkpt lat="42.016624000" lon="2.519419100">
        <ele>641.30</ele>
        <time>2012-10-14T17:29:22Z</time>
      </trkpt>
      <trkpt lat="42.016457000" lon="2.519494100">
        <ele>642.80</ele>
        <time>2012-10-14T17:29:31Z</time>
      </trkpt>
      <trkpt lat="42.016342000" lon="2.519540100">
        <ele>644.20</ele>
        <time>2012-10-14T17:29:38Z</time>
      </trkpt>
      <trkpt lat="42.016243000" lon="2.519602100">
        <ele>647.10</ele>
        <time>2012-10-14T17:29:43Z</time>
      </trkpt>
      <trkpt lat="42.016224000" lon="2.519622100">
        <ele>648.10</ele>
        <time>2012-10-14T17:29:45Z</time>
      </trkpt>
      <trkpt lat="42.016186000" lon="2.519730100">
        <ele>650.50</ele>
        <time>2012-10-14T17:29:52Z</time>
      </trkpt>
      <trkpt lat="42.016190000" lon="2.519728100">
        <ele>650.50</ele>
        <time>2012-10-14T17:30:01Z</time>
      </trkpt>
      <trkpt lat="42.016190000" lon="2.519728100">
        <ele>650.50</ele>
        <time>2012-10-14T17:30:13Z</time>
      </trkpt>
      <trkpt lat="42.016190000" lon="2.519731100">
        <ele>649.00</ele>
        <time>2012-10-14T17:31:00Z</time>
      </trkpt>
      <trkpt lat="42.016193000" lon="2.519733100">
        <ele>649.00</ele>
        <time>2012-10-14T17:31:07Z</time>
      </trkpt>
      <trkpt lat="42.016190000" lon="2.519732100">
        <ele>649.00</ele>
        <time>2012-10-14T17:31:21Z</time>
      </trkpt>
      <trkpt lat="42.016193000" lon="2.519733100">
        <ele>649.00</ele>
        <time>2012-10-14T17:31:36Z</time>
      </trkpt>
      <trkpt lat="42.016193000" lon="2.519734100">
        <ele>649.00</ele>
        <time>2012-10-14T17:31:50Z</time>
      </trkpt>
      <trkpt lat="42.016193000" lon="2.519734100">
        <ele>649.00</ele>
        <time>2012-10-14T17:32:01Z</time>
      </trkpt>
      <trkpt lat="42.016190000" lon="2.519741100">
        <ele>650.50</ele>
        <time>2012-10-14T17:32:37Z</time>
      </trkpt>
      <trkpt lat="42.016190000" lon="2.519744100">
        <ele>650.50</ele>
        <time>2012-10-14T17:33:07Z</time>
      </trkpt>
      <trkpt lat="42.016193000" lon="2.519748100">
        <ele>650.50</ele>
        <time>2012-10-14T17:33:16Z</time>
      </trkpt>
      <trkpt lat="42.016190000" lon="2.519757100">
        <ele>650.50</ele>
        <time>2012-10-14T17:33:35Z</time>
      </trkpt>
      <trkpt lat="42.016186000" lon="2.519759100">
        <ele>650.50</ele>
        <time>2012-10-14T17:33:45Z</time>
      </trkpt>
      <trkpt lat="42.016190000" lon="2.519769100">
        <ele>650.50</ele>
        <time>2012-10-14T17:33:51Z</time>
      </trkpt>
      <trkpt lat="42.016205000" lon="2.519839100">
        <ele>650.50</ele>
        <time>2012-10-14T17:33:54Z</time>
      </trkpt>
      <trkpt lat="42.016216000" lon="2.519880100">
        <ele>650.50</ele>
        <time>2012-10-14T17:33:56Z</time>
      </trkpt>
      <trkpt lat="42.016235000" lon="2.520009100">
        <ele>650.50</ele>
        <time>2012-10-14T17:34:06Z</time>
      </trkpt>
      <trkpt lat="42.016273000" lon="2.520136100">
        <ele>651.00</ele>
        <time>2012-10-14T17:34:13Z</time>
      </trkpt>
      <trkpt lat="42.016327000" lon="2.520300100">
        <ele>651.40</ele>
        <time>2012-10-14T17:34:22Z</time>
      </trkpt>
      <trkpt lat="42.016376000" lon="2.520492100">
        <ele>651.90</ele>
        <time>2012-10-14T17:34:29Z</time>
      </trkpt>
      <trkpt lat="42.016479000" lon="2.520824100">
        <ele>651.90</ele>
        <time>2012-10-14T17:34:38Z</time>
      </trkpt>
      <trkpt lat="42.016609000" lon="2.521152100">
        <ele>651.90</ele>
        <time>2012-10-14T17:34:46Z</time>
      </trkpt>
      <trkpt lat="42.016796000" lon="2.521481100">
        <ele>651.90</ele>
        <time>2012-10-14T17:34:55Z</time>
      </trkpt>
      <trkpt lat="42.016945000" lon="2.521672100">
        <ele>651.90</ele>
        <time>2012-10-14T17:35:02Z</time>
      </trkpt>
      <trkpt lat="42.017128000" lon="2.521875100">
        <ele>651.90</ele>
        <time>2012-10-14T17:35:09Z</time>
      </trkpt>
      <trkpt lat="42.017334000" lon="2.522161100">
        <ele>651.90</ele>
        <time>2012-10-14T17:35:18Z</time>
      </trkpt>
      <trkpt lat="42.017399000" lon="2.522285100">
        <ele>651.00</ele>
        <time>2012-10-14T17:35:21Z</time>
      </trkpt>
      <trkpt lat="42.017555000" lon="2.522794100">
        <ele>650.50</ele>
        <time>2012-10-14T17:35:30Z</time>
      </trkpt>
      <trkpt lat="42.017704000" lon="2.523154100">
        <ele>650.00</ele>
        <time>2012-10-14T17:35:37Z</time>
      </trkpt>
      <trkpt lat="42.017719000" lon="2.523206100">
        <ele>650.00</ele>
        <time>2012-10-14T17:35:37Z</time>
      </trkpt>
      <trkpt lat="42.017757000" lon="2.523436100">
        <ele>649.50</ele>
        <time>2012-10-14T17:35:42Z</time>
      </trkpt>
      <trkpt lat="42.017757000" lon="2.523813100">
        <ele>649.50</ele>
        <time>2012-10-14T17:35:49Z</time>
      </trkpt>
      <trkpt lat="42.017738000" lon="2.524055100">
        <ele>649.50</ele>
        <time>2012-10-14T17:35:56Z</time>
      </trkpt>
      <trkpt lat="42.017727000" lon="2.524415100">
        <ele>651.00</ele>
        <time>2012-10-14T17:36:05Z</time>
      </trkpt>
      <trkpt lat="42.017731000" lon="2.524570100">
        <ele>651.40</ele>
        <time>2012-10-14T17:36:08Z</time>
      </trkpt>
      <trkpt lat="42.017651000" lon="2.524823100">
        <ele>651.40</ele>
        <time>2012-10-14T17:36:12Z</time>
      </trkpt>
      <trkpt lat="42.017513000" lon="2.524805100">
        <ele>651.40</ele>
        <time>2012-10-14T17:36:17Z</time>
      </trkpt>
      <trkpt lat="42.017460000" lon="2.524752100">
        <ele>651.40</ele>
        <time>2012-10-14T17:36:19Z</time>
      </trkpt>
      <trkpt lat="42.017330000" lon="2.524493100">
        <ele>652.40</ele>
        <time>2012-10-14T17:36:26Z</time>
      </trkpt>
      <trkpt lat="42.017147000" lon="2.524262100">
        <ele>653.30</ele>
        <time>2012-10-14T17:36:36Z</time>
      </trkpt>
      <trkpt lat="42.017002000" lon="2.524234100">
        <ele>654.80</ele>
        <time>2012-10-14T17:36:43Z</time>
      </trkpt>
      <trkpt lat="42.016853000" lon="2.524253100">
        <ele>656.20</ele>
        <time>2012-10-14T17:36:50Z</time>
      </trkpt>
      <trkpt lat="42.016701000" lon="2.524256100">
        <ele>658.20</ele>
        <time>2012-10-14T17:37:00Z</time>
      </trkpt>
      <trkpt lat="42.016575000" lon="2.524268100">
        <ele>660.10</ele>
        <time>2012-10-14T17:37:09Z</time>
      </trkpt>
      <trkpt lat="42.016407000" lon="2.524245100">
        <ele>661.00</ele>
        <time>2012-10-14T17:37:16Z</time>
      </trkpt>
      <trkpt lat="42.016235000" lon="2.524235100">
        <ele>663.00</ele>
        <time>2012-10-14T17:37:25Z</time>
      </trkpt>
      <trkpt lat="42.016052000" lon="2.524267100">
        <ele>663.90</ele>
        <time>2012-10-14T17:37:34Z</time>
      </trkpt>
      <trkpt lat="42.015865000" lon="2.524337100">
        <ele>665.40</ele>
        <time>2012-10-14T17:37:44Z</time>
      </trkpt>
      <trkpt lat="42.015663000" lon="2.524412100">
        <ele>666.80</ele>
        <time>2012-10-14T17:37:53Z</time>
      </trkpt>
      <trkpt lat="42.015488000" lon="2.524458100">
        <ele>667.80</ele>
        <time>2012-10-14T17:38:03Z</time>
      </trkpt>
      <trkpt lat="42.015347000" lon="2.524505100">
        <ele>668.70</ele>
        <time>2012-10-14T17:38:10Z</time>
      </trkpt>
      <trkpt lat="42.015144000" lon="2.524585100">
        <ele>671.10</ele>
        <time>2012-10-14T17:38:22Z</time>
      </trkpt>
      <trkpt lat="42.015026000" lon="2.524718100">
        <ele>673.10</ele>
        <time>2012-10-14T17:38:31Z</time>
      </trkpt>
      <trkpt lat="42.015030000" lon="2.524884100">
        <ele>675.00</ele>
        <time>2012-10-14T17:38:40Z</time>
      </trkpt>
      <trkpt lat="42.015099000" lon="2.525091100">
        <ele>676.40</ele>
        <time>2012-10-14T17:38:48Z</time>
      </trkpt>
      <trkpt lat="42.015148000" lon="2.525321100">
        <ele>678.30</ele>
        <time>2012-10-14T17:38:59Z</time>
      </trkpt>
      <trkpt lat="42.015148000" lon="2.525505100">
        <ele>679.80</ele>
        <time>2012-10-14T17:39:06Z</time>
      </trkpt>
      <trkpt lat="42.015121000" lon="2.525690100">
        <ele>681.70</ele>
        <time>2012-10-14T17:39:16Z</time>
      </trkpt>
      <trkpt lat="42.015095000" lon="2.525844100">
        <ele>682.70</ele>
        <time>2012-10-14T17:39:23Z</time>
      </trkpt>
      <trkpt lat="42.015110000" lon="2.526087100">
        <ele>684.10</ele>
        <time>2012-10-14T17:39:34Z</time>
      </trkpt>
      <trkpt lat="42.015137000" lon="2.526332100">
        <ele>685.60</ele>
        <time>2012-10-14T17:39:44Z</time>
      </trkpt>
      <trkpt lat="42.015144000" lon="2.526579100">
        <ele>687.00</ele>
        <time>2012-10-14T17:39:55Z</time>
      </trkpt>
      <trkpt lat="42.015118000" lon="2.526837100">
        <ele>688.00</ele>
        <time>2012-10-14T17:40:05Z</time>
      </trkpt>
      <trkpt lat="42.015034000" lon="2.527072100">
        <ele>689.40</ele>
        <time>2012-10-14T17:40:14Z</time>
      </trkpt>
      <trkpt lat="42.014973000" lon="2.527270100">
        <ele>690.80</ele>
        <time>2012-10-14T17:40:24Z</time>
      </trkpt>
      <trkpt lat="42.014935000" lon="2.527405100">
        <ele>694.20</ele>
        <time>2012-10-14T17:40:29Z</time>
      </trkpt>
      <trkpt lat="42.014904000" lon="2.527494100">
        <ele>697.60</ele>
        <time>2012-10-14T17:40:33Z</time>
      </trkpt>
      <trkpt lat="42.014763000" lon="2.527706100">
        <ele>698.00</ele>
        <time>2012-10-14T17:40:45Z</time>
      </trkpt>
      <trkpt lat="42.014626000" lon="2.527731100">
        <ele>698.00</ele>
        <time>2012-10-14T17:40:54Z</time>
      </trkpt>
      <trkpt lat="42.014454000" lon="2.527743100">
        <ele>700.50</ele>
        <time>2012-10-14T17:41:04Z</time>
      </trkpt>
      <trkpt lat="42.014297000" lon="2.527838100">
        <ele>702.40</ele>
        <time>2012-10-14T17:41:11Z</time>
      </trkpt>
      <trkpt lat="42.013969000" lon="2.527884100">
        <ele>702.40</ele>
        <time>2012-10-14T17:41:25Z</time>
      </trkpt>
      <trkpt lat="42.013828000" lon="2.527902100">
        <ele>702.40</ele>
        <time>2012-10-14T17:41:32Z</time>
      </trkpt>
      <trkpt lat="42.013664000" lon="2.528007100">
        <ele>702.40</ele>
        <time>2012-10-14T17:41:41Z</time>
      </trkpt>
      <trkpt lat="42.013554000" lon="2.528214100">
        <ele>702.40</ele>
        <time>2012-10-14T17:41:48Z</time>
      </trkpt>
      <trkpt lat="42.013538000" lon="2.528425100">
        <ele>704.30</ele>
        <time>2012-10-14T17:41:57Z</time>
      </trkpt>
      <trkpt lat="42.013622000" lon="2.528598100">
        <ele>705.30</ele>
        <time>2012-10-14T17:42:05Z</time>
      </trkpt>
      <trkpt lat="42.013756000" lon="2.528644100">
        <ele>706.20</ele>
        <time>2012-10-14T17:42:11Z</time>
      </trkpt>
      <trkpt lat="42.013893000" lon="2.528618100">
        <ele>707.70</ele>
        <time>2012-10-14T17:42:17Z</time>
      </trkpt>
      <trkpt lat="42.013985000" lon="2.528603100">
        <ele>708.60</ele>
        <time>2012-10-14T17:42:24Z</time>
      </trkpt>
      <trkpt lat="42.014137000" lon="2.528549100">
        <ele>711.00</ele>
        <time>2012-10-14T17:42:35Z</time>
      </trkpt>
      <trkpt lat="42.014278000" lon="2.528477100">
        <ele>712.50</ele>
        <time>2012-10-14T17:42:44Z</time>
      </trkpt>
      <trkpt lat="42.014416000" lon="2.528393100">
        <ele>714.40</ele>
        <time>2012-10-14T17:42:52Z</time>
      </trkpt>
      <trkpt lat="42.014542000" lon="2.528342100">
        <ele>715.80</ele>
        <time>2012-10-14T17:43:01Z</time>
      </trkpt>
      <trkpt lat="42.014683000" lon="2.528433100">
        <ele>717.30</ele>
        <time>2012-10-14T17:43:10Z</time>
      </trkpt>
      <trkpt lat="42.014797000" lon="2.528523100">
        <ele>718.70</ele>
        <time>2012-10-14T17:43:18Z</time>
      </trkpt>
      <trkpt lat="42.014957000" lon="2.528607100">
        <ele>720.20</ele>
        <time>2012-10-14T17:43:29Z</time>
      </trkpt>
      <trkpt lat="42.015091000" lon="2.528627100">
        <ele>723.50</ele>
        <time>2012-10-14T17:43:38Z</time>
      </trkpt>
      <trkpt lat="42.015156000" lon="2.528645100">
        <ele>726.40</ele>
        <time>2012-10-14T17:43:43Z</time>
      </trkpt>
      <trkpt lat="42.015278000" lon="2.528682100">
        <ele>727.90</ele>
        <time>2012-10-14T17:43:53Z</time>
      </trkpt>
      <trkpt lat="42.015415000" lon="2.528702100">
        <ele>727.90</ele>
        <time>2012-10-14T17:44:02Z</time>
      </trkpt>
      <trkpt lat="42.015583000" lon="2.528651100">
        <ele>728.30</ele>
        <time>2012-10-14T17:44:12Z</time>
      </trkpt>
      <trkpt lat="42.015644000" lon="2.528620100">
        <ele>728.80</ele>
        <time>2012-10-14T17:44:16Z</time>
      </trkpt>
      <trkpt lat="42.015862000" lon="2.528640100">
        <ele>729.80</ele>
        <time>2012-10-14T17:44:30Z</time>
      </trkpt>
      <trkpt lat="42.016022000" lon="2.528731100">
        <ele>730.30</ele>
        <time>2012-10-14T17:44:39Z</time>
      </trkpt>
      <trkpt lat="42.016136000" lon="2.528867100">
        <ele>731.20</ele>
        <time>2012-10-14T17:44:47Z</time>
      </trkpt>
      <trkpt lat="42.016224000" lon="2.529088100">
        <ele>732.70</ele>
        <time>2012-10-14T17:44:56Z</time>
      </trkpt>
      <trkpt lat="42.016266000" lon="2.529333100">
        <ele>733.60</ele>
        <time>2012-10-14T17:45:06Z</time>
      </trkpt>
      <trkpt lat="42.016281000" lon="2.529669100">
        <ele>734.10</ele>
        <time>2012-10-14T17:45:17Z</time>
      </trkpt>
      <trkpt lat="42.016468000" lon="2.529910100">
        <ele>734.10</ele>
        <time>2012-10-14T17:45:24Z</time>
      </trkpt>
      <trkpt lat="42.016666000" lon="2.530216100">
        <ele>734.60</ele>
        <time>2012-10-14T17:45:33Z</time>
      </trkpt>
      <trkpt lat="42.016903000" lon="2.530548100">
        <ele>734.60</ele>
        <time>2012-10-14T17:45:43Z</time>
      </trkpt>
      <trkpt lat="42.016945000" lon="2.530822100">
        <ele>734.60</ele>
        <time>2012-10-14T17:45:48Z</time>
      </trkpt>
      <trkpt lat="42.016834000" lon="2.531091100">
        <ele>734.60</ele>
        <time>2012-10-14T17:45:55Z</time>
      </trkpt>
      <trkpt lat="42.016644000" lon="2.531187100">
        <ele>734.60</ele>
        <time>2012-10-14T17:46:00Z</time>
      </trkpt>
      <trkpt lat="42.016422000" lon="2.531220100">
        <ele>734.60</ele>
        <time>2012-10-14T17:46:07Z</time>
      </trkpt>
      <trkpt lat="42.016197000" lon="2.531353100">
        <ele>735.50</ele>
        <time>2012-10-14T17:46:16Z</time>
      </trkpt>
      <trkpt lat="42.016056000" lon="2.531557100">
        <ele>736.50</ele>
        <time>2012-10-14T17:46:23Z</time>
      </trkpt>
      <trkpt lat="42.015892000" lon="2.531625100">
        <ele>737.00</ele>
        <time>2012-10-14T17:46:30Z</time>
      </trkpt>
      <trkpt lat="42.015697000" lon="2.531577100">
        <ele>737.50</ele>
        <time>2012-10-14T17:46:37Z</time>
      </trkpt>
      <trkpt lat="42.015480000" lon="2.531585100">
        <ele>739.40</ele>
        <time>2012-10-14T17:46:46Z</time>
      </trkpt>
      <trkpt lat="42.015411000" lon="2.531651100">
        <ele>740.30</ele>
        <time>2012-10-14T17:46:49Z</time>
      </trkpt>
      <trkpt lat="42.015430000" lon="2.531824100">
        <ele>741.80</ele>
        <time>2012-10-14T17:46:56Z</time>
      </trkpt>
      <trkpt lat="42.015453000" lon="2.532093100">
        <ele>743.70</ele>
        <time>2012-10-14T17:47:05Z</time>
      </trkpt>
      <trkpt lat="42.015388000" lon="2.532347100">
        <ele>747.10</ele>
        <time>2012-10-14T17:47:14Z</time>
      </trkpt>
      <trkpt lat="42.015339000" lon="2.532501100">
        <ele>750.50</ele>
        <time>2012-10-14T17:47:19Z</time>
      </trkpt>
      <trkpt lat="42.015240000" lon="2.532742100">
        <ele>750.50</ele>
        <time>2012-10-14T17:47:29Z</time>
      </trkpt>
      <trkpt lat="42.015041000" lon="2.532867100">
        <ele>750.50</ele>
        <time>2012-10-14T17:47:38Z</time>
      </trkpt>
      <trkpt lat="42.014843000" lon="2.532872100">
        <ele>750.50</ele>
        <time>2012-10-14T17:47:47Z</time>
      </trkpt>
      <trkpt lat="42.014641000" lon="2.532923100">
        <ele>751.90</ele>
        <time>2012-10-14T17:47:55Z</time>
      </trkpt>
      <trkpt lat="42.014458000" lon="2.533033100">
        <ele>753.30</ele>
        <time>2012-10-14T17:48:04Z</time>
      </trkpt>
      <trkpt lat="42.014301000" lon="2.533146100">
        <ele>754.80</ele>
        <time>2012-10-14T17:48:13Z</time>
      </trkpt>
      <trkpt lat="42.014202000" lon="2.533292100">
        <ele>756.20</ele>
        <time>2012-10-14T17:48:20Z</time>
      </trkpt>
      <trkpt lat="42.014080000" lon="2.533503100">
        <ele>757.70</ele>
        <time>2012-10-14T17:48:29Z</time>
      </trkpt>
      <trkpt lat="42.014030000" lon="2.533613100">
        <ele>761.50</ele>
        <time>2012-10-14T17:48:34Z</time>
      </trkpt>
      <trkpt lat="42.013973000" lon="2.533724100">
        <ele>764.40</ele>
        <time>2012-10-14T17:48:39Z</time>
      </trkpt>
      <trkpt lat="42.013863000" lon="2.533979100">
        <ele>764.40</ele>
        <time>2012-10-14T17:48:48Z</time>
      </trkpt>
      <trkpt lat="42.013821000" lon="2.534184100">
        <ele>764.90</ele>
        <time>2012-10-14T17:48:56Z</time>
      </trkpt>
      <trkpt lat="42.013794000" lon="2.534512100">
        <ele>766.30</ele>
        <time>2012-10-14T17:49:09Z</time>
      </trkpt>
      <trkpt lat="42.013756000" lon="2.534781100">
        <ele>768.70</ele>
        <time>2012-10-14T17:49:19Z</time>
      </trkpt>
      <trkpt lat="42.013737000" lon="2.535120100">
        <ele>770.60</ele>
        <time>2012-10-14T17:49:31Z</time>
      </trkpt>
      <trkpt lat="42.013729000" lon="2.535357100">
        <ele>772.10</ele>
        <time>2012-10-14T17:49:38Z</time>
      </trkpt>
      <trkpt lat="42.013752000" lon="2.535649100">
        <ele>774.00</ele>
        <time>2012-10-14T17:49:49Z</time>
      </trkpt>
      <trkpt lat="42.013748000" lon="2.535916100">
        <ele>775.40</ele>
        <time>2012-10-14T17:49:57Z</time>
      </trkpt>
      <trkpt lat="42.013760000" lon="2.536155100">
        <ele>776.90</ele>
        <time>2012-10-14T17:50:06Z</time>
      </trkpt>
      <trkpt lat="42.013821000" lon="2.536407100">
        <ele>778.30</ele>
        <time>2012-10-14T17:50:15Z</time>
      </trkpt>
      <trkpt lat="42.013981000" lon="2.536601100">
        <ele>778.80</ele>
        <time>2012-10-14T17:50:22Z</time>
      </trkpt>
      <trkpt lat="42.014278000" lon="2.536832100">
        <ele>779.30</ele>
        <time>2012-10-14T17:50:30Z</time>
      </trkpt>
      <trkpt lat="42.014538000" lon="2.536967100">
        <ele>779.30</ele>
        <time>2012-10-14T17:50:37Z</time>
      </trkpt>
      <trkpt lat="42.014679000" lon="2.537048100">
        <ele>779.30</ele>
        <time>2012-10-14T17:50:41Z</time>
      </trkpt>
      <trkpt lat="42.015003000" lon="2.537165100">
        <ele>778.30</ele>
        <time>2012-10-14T17:50:46Z</time>
      </trkpt>
      <trkpt lat="42.015224000" lon="2.537220100">
        <ele>776.90</ele>
        <time>2012-10-14T17:50:48Z</time>
      </trkpt>
      <trkpt lat="42.015495000" lon="2.537461100">
        <ele>773.00</ele>
        <time>2012-10-14T17:50:53Z</time>
      </trkpt>
      <trkpt lat="42.015480000" lon="2.537581100">
        <ele>772.10</ele>
        <time>2012-10-14T17:50:55Z</time>
      </trkpt>
      <trkpt lat="42.015411000" lon="2.537884100">
        <ele>773.50</ele>
        <time>2012-10-14T17:51:04Z</time>
      </trkpt>
      <trkpt lat="42.015408000" lon="2.537916100">
        <ele>773.50</ele>
        <time>2012-10-14T17:51:05Z</time>
      </trkpt>
      <trkpt lat="42.015358000" lon="2.538141100">
        <ele>776.40</ele>
        <time>2012-10-14T17:51:12Z</time>
      </trkpt>
      <trkpt lat="42.015335000" lon="2.538308100">
        <ele>779.80</ele>
        <time>2012-10-14T17:51:16Z</time>
      </trkpt>
      <trkpt lat="42.015347000" lon="2.538564100">
        <ele>780.20</ele>
        <time>2012-10-14T17:51:24Z</time>
      </trkpt>
      <trkpt lat="42.015289000" lon="2.538814100">
        <ele>780.70</ele>
        <time>2012-10-14T17:51:33Z</time>
      </trkpt>
      <trkpt lat="42.015114000" lon="2.539015100">
        <ele>781.20</ele>
        <time>2012-10-14T17:51:42Z</time>
      </trkpt>
      <trkpt lat="42.014992000" lon="2.539277100">
        <ele>782.70</ele>
        <time>2012-10-14T17:51:52Z</time>
      </trkpt>
      <trkpt lat="42.014999000" lon="2.539465100">
        <ele>784.10</ele>
        <time>2012-10-14T17:51:58Z</time>
      </trkpt>
      <trkpt lat="42.015007000" lon="2.539783100">
        <ele>786.00</ele>
        <time>2012-10-14T17:52:08Z</time>
      </trkpt>
      <trkpt lat="42.015079000" lon="2.540008100">
        <ele>787.00</ele>
        <time>2012-10-14T17:52:15Z</time>
      </trkpt>
      <trkpt lat="42.015205000" lon="2.540215100">
        <ele>787.90</ele>
        <time>2012-10-14T17:52:24Z</time>
      </trkpt>
      <trkpt lat="42.015404000" lon="2.540414100">
        <ele>788.40</ele>
        <time>2012-10-14T17:52:31Z</time>
      </trkpt>
      <trkpt lat="42.015690000" lon="2.540742100">
        <ele>788.40</ele>
        <time>2012-10-14T17:52:41Z</time>
      </trkpt>
      <trkpt lat="42.015938000" lon="2.541101100">
        <ele>788.90</ele>
        <time>2012-10-14T17:52:52Z</time>
      </trkpt>
      <trkpt lat="42.016140000" lon="2.541329100">
        <ele>789.90</ele>
        <time>2012-10-14T17:53:00Z</time>
      </trkpt>
      <trkpt lat="42.016209000" lon="2.541378100">
        <ele>789.90</ele>
        <time>2012-10-14T17:53:02Z</time>
      </trkpt>
      <trkpt lat="42.016392000" lon="2.541395100">
        <ele>789.90</ele>
        <time>2012-10-14T17:53:05Z</time>
      </trkpt>
      <trkpt lat="42.016598000" lon="2.541537100">
        <ele>789.90</ele>
        <time>2012-10-14T17:53:09Z</time>
      </trkpt>
      <trkpt lat="42.016842000" lon="2.541791100">
        <ele>789.90</ele>
        <time>2012-10-14T17:53:18Z</time>
      </trkpt>
      <trkpt lat="42.017006000" lon="2.541985100">
        <ele>789.90</ele>
        <time>2012-10-14T17:53:23Z</time>
      </trkpt>
      <trkpt lat="42.017014000" lon="2.542037100">
        <ele>789.90</ele>
        <time>2012-10-14T17:53:25Z</time>
      </trkpt>
      <trkpt lat="42.016918000" lon="2.542256100">
        <ele>789.90</ele>
        <time>2012-10-14T17:53:30Z</time>
      </trkpt>
      <trkpt lat="42.016800000" lon="2.542445100">
        <ele>789.90</ele>
        <time>2012-10-14T17:53:37Z</time>
      </trkpt>
      <trkpt lat="42.016815000" lon="2.542629100">
        <ele>791.80</ele>
        <time>2012-10-14T17:53:44Z</time>
      </trkpt>
      <trkpt lat="42.016918000" lon="2.542871100">
        <ele>792.70</ele>
        <time>2012-10-14T17:53:53Z</time>
      </trkpt>
      <trkpt lat="42.017002000" lon="2.543067100">
        <ele>796.10</ele>
        <time>2012-10-14T17:54:01Z</time>
      </trkpt>
      <trkpt lat="42.017075000" lon="2.543287100">
        <ele>799.00</ele>
        <time>2012-10-14T17:54:08Z</time>
      </trkpt>
      <trkpt lat="42.017090000" lon="2.543589100">
        <ele>799.00</ele>
        <time>2012-10-14T17:54:19Z</time>
      </trkpt>
      <trkpt lat="42.017025000" lon="2.543840100">
        <ele>800.00</ele>
        <time>2012-10-14T17:54:26Z</time>
      </trkpt>
      <trkpt lat="42.016857000" lon="2.544008100">
        <ele>800.40</ele>
        <time>2012-10-14T17:54:34Z</time>
      </trkpt>
      <trkpt lat="42.016697000" lon="2.544123100">
        <ele>800.90</ele>
        <time>2012-10-14T17:54:43Z</time>
      </trkpt>
      <trkpt lat="42.016605000" lon="2.544198100">
        <ele>801.40</ele>
        <time>2012-10-14T17:54:50Z</time>
      </trkpt>
      <trkpt lat="42.016521000" lon="2.544244100">
        <ele>801.90</ele>
        <time>2012-10-14T17:54:57Z</time>
      </trkpt>
      <trkpt lat="42.016438000" lon="2.544302100">
        <ele>802.40</ele>
        <time>2012-10-14T17:55:04Z</time>
      </trkpt>
      <trkpt lat="42.016273000" lon="2.544419100">
        <ele>802.40</ele>
        <time>2012-10-14T17:55:13Z</time>
      </trkpt>
      <trkpt lat="42.016045000" lon="2.544569100">
        <ele>802.80</ele>
        <time>2012-10-14T17:55:25Z</time>
      </trkpt>
      <trkpt lat="42.015854000" lon="2.544676100">
        <ele>803.30</ele>
        <time>2012-10-14T17:55:34Z</time>
      </trkpt>
      <trkpt lat="42.015644000" lon="2.544800100">
        <ele>804.30</ele>
        <time>2012-10-14T17:55:44Z</time>
      </trkpt>
      <trkpt lat="42.015495000" lon="2.544977100">
        <ele>804.80</ele>
        <time>2012-10-14T17:55:51Z</time>
      </trkpt>
      <trkpt lat="42.015396000" lon="2.545270100">
        <ele>805.20</ele>
        <time>2012-10-14T17:56:01Z</time>
      </trkpt>
      <trkpt lat="42.015366000" lon="2.545573100">
        <ele>806.20</ele>
        <time>2012-10-14T17:56:12Z</time>
      </trkpt>
      <trkpt lat="42.015316000" lon="2.545922100">
        <ele>806.70</ele>
        <time>2012-10-14T17:56:21Z</time>
      </trkpt>
      <trkpt lat="42.015289000" lon="2.546252100">
        <ele>806.70</ele>
        <time>2012-10-14T17:56:29Z</time>
      </trkpt>
      <trkpt lat="42.015244000" lon="2.546548100">
        <ele>806.70</ele>
        <time>2012-10-14T17:56:38Z</time>
      </trkpt>
      <trkpt lat="42.015141000" lon="2.546814100">
        <ele>807.20</ele>
        <time>2012-10-14T17:56:47Z</time>
      </trkpt>
      <trkpt lat="42.015030000" lon="2.547046100">
        <ele>807.20</ele>
        <time>2012-10-14T17:56:55Z</time>
      </trkpt>
      <trkpt lat="42.014927000" lon="2.547286100">
        <ele>807.20</ele>
        <time>2012-10-14T17:57:09Z</time>
      </trkpt>
      <trkpt lat="42.014915000" lon="2.547306100">
        <ele>807.20</ele>
        <time>2012-10-14T17:57:11Z</time>
      </trkpt>
      <trkpt lat="42.014877000" lon="2.547355100">
        <ele>807.20</ele>
        <time>2012-10-14T17:57:13Z</time>
      </trkpt>
      <trkpt lat="42.014881000" lon="2.547392100">
        <ele>807.20</ele>
        <time>2012-10-14T17:57:16Z</time>
      </trkpt>
      <trkpt lat="42.014824000" lon="2.547436100">
        <ele>807.20</ele>
        <time>2012-10-14T17:57:22Z</time>
      </trkpt>
      <trkpt lat="42.014812000" lon="2.547454100">
        <ele>807.60</ele>
        <time>2012-10-14T17:57:29Z</time>
      </trkpt>
      <trkpt lat="42.014797000" lon="2.547481100">
        <ele>807.60</ele>
        <time>2012-10-14T17:57:49Z</time>
      </trkpt>
      <trkpt lat="42.014786000" lon="2.547494100">
        <ele>807.60</ele>
        <time>2012-10-14T17:57:56Z</time>
      </trkpt>
      <trkpt lat="42.014786000" lon="2.547494100">
        <ele>807.60</ele>
        <time>2012-10-14T17:58:14Z</time>
      </trkpt>
      <trkpt lat="42.014786000" lon="2.547494100">
        <ele>807.60</ele>
        <time>2012-10-14T17:58:26Z</time>
      </trkpt>
      <trkpt lat="42.014782000" lon="2.547496100">
        <ele>808.10</ele>
        <time>2012-10-14T17:59:24Z</time>
      </trkpt>
      <trkpt lat="42.014782000" lon="2.547500100">
        <ele>808.10</ele>
        <time>2012-10-14T18:00:37Z</time>
      </trkpt>
      <trkpt lat="42.014786000" lon="2.547500100">
        <ele>808.10</ele>
        <time>2012-10-14T18:00:49Z</time>
      </trkpt>
      <trkpt lat="42.014774000" lon="2.547497100">
        <ele>808.10</ele>
        <time>2012-10-14T18:02:02Z</time>
      </trkpt>
      <trkpt lat="42.014664000" lon="2.547505100">
        <ele>808.10</ele>
        <time>2012-10-14T18:02:11Z</time>
      </trkpt>
      <trkpt lat="42.014538000" lon="2.547518100">
        <ele>809.60</ele>
        <time>2012-10-14T18:02:18Z</time>
      </trkpt>
      <trkpt lat="42.014374000" lon="2.547528100">
        <ele>810.50</ele>
        <time>2012-10-14T18:02:26Z</time>
      </trkpt>
      <trkpt lat="42.014236000" lon="2.547526100">
        <ele>813.90</ele>
        <time>2012-10-14T18:02:33Z</time>
      </trkpt>
      <trkpt lat="42.014198000" lon="2.547513100">
        <ele>815.80</ele>
        <time>2012-10-14T18:02:35Z</time>
      </trkpt>
      <trkpt lat="42.014099000" lon="2.547423100">
        <ele>817.70</ele>
        <time>2012-10-14T18:02:44Z</time>
      </trkpt>
      <trkpt lat="42.014038000" lon="2.547377100">
        <ele>817.70</ele>
        <time>2012-10-14T18:02:47Z</time>
      </trkpt>
      <trkpt lat="42.013935000" lon="2.547289100">
        <ele>816.30</ele>
        <time>2012-10-14T18:02:53Z</time>
      </trkpt>
      <trkpt lat="42.013779000" lon="2.547308100">
        <ele>815.30</ele>
        <time>2012-10-14T18:02:59Z</time>
      </trkpt>
      <trkpt lat="42.013630000" lon="2.547364100">
        <ele>814.80</ele>
        <time>2012-10-14T18:03:05Z</time>
      </trkpt>
      <trkpt lat="42.013451000" lon="2.547459100">
        <ele>813.90</ele>
        <time>2012-10-14T18:03:12Z</time>
      </trkpt>
      <trkpt lat="42.013199000" lon="2.547612100">
        <ele>812.50</ele>
        <time>2012-10-14T18:03:19Z</time>
      </trkpt>
      <trkpt lat="42.012970000" lon="2.547755100">
        <ele>809.10</ele>
        <time>2012-10-14T18:03:24Z</time>
      </trkpt>
      <trkpt lat="42.012688000" lon="2.547887100">
        <ele>807.60</ele>
        <time>2012-10-14T18:03:31Z</time>
      </trkpt>
      <trkpt lat="42.012508000" lon="2.547888100">
        <ele>808.10</ele>
        <time>2012-10-14T18:03:38Z</time>
      </trkpt>
      <trkpt lat="42.012360000" lon="2.547803100">
        <ele>809.10</ele>
        <time>2012-10-14T18:03:43Z</time>
      </trkpt>
      <trkpt lat="42.012196000" lon="2.547648100">
        <ele>810.50</ele>
        <time>2012-10-14T18:03:52Z</time>
      </trkpt>
      <trkpt lat="42.012012000" lon="2.547463100">
        <ele>812.00</ele>
        <time>2012-10-14T18:04:00Z</time>
      </trkpt>
      <trkpt lat="42.011864000" lon="2.547321100">
        <ele>813.40</ele>
        <time>2012-10-14T18:04:09Z</time>
      </trkpt>
      <trkpt lat="42.011757000" lon="2.547233100">
        <ele>813.90</ele>
        <time>2012-10-14T18:04:14Z</time>
      </trkpt>
      <trkpt lat="42.011612000" lon="2.547157100">
        <ele>815.30</ele>
        <time>2012-10-14T18:04:21Z</time>
      </trkpt>
      <trkpt lat="42.011391000" lon="2.547065100">
        <ele>816.30</ele>
        <time>2012-10-14T18:04:32Z</time>
      </trkpt>
      <trkpt lat="42.011242000" lon="2.547030100">
        <ele>817.30</ele>
        <time>2012-10-14T18:04:39Z</time>
      </trkpt>
      <trkpt lat="42.011127000" lon="2.547033100">
        <ele>818.20</ele>
        <time>2012-10-14T18:04:44Z</time>
      </trkpt>
      <trkpt lat="42.010971000" lon="2.547157100">
        <ele>818.70</ele>
        <time>2012-10-14T18:04:51Z</time>
      </trkpt>
      <trkpt lat="42.010757000" lon="2.547340100">
        <ele>819.20</ele>
        <time>2012-10-14T18:05:00Z</time>
      </trkpt>
      <trkpt lat="42.010525000" lon="2.547620100">
        <ele>819.20</ele>
        <time>2012-10-14T18:05:08Z</time>
      </trkpt>
      <trkpt lat="42.010468000" lon="2.547721100">
        <ele>819.20</ele>
        <time>2012-10-14T18:05:10Z</time>
      </trkpt>
      <trkpt lat="42.010242000" lon="2.547899100">
        <ele>818.20</ele>
        <time>2012-10-14T18:05:15Z</time>
      </trkpt>
      <trkpt lat="42.010151000" lon="2.547792100">
        <ele>817.70</ele>
        <time>2012-10-14T18:05:19Z</time>
      </trkpt>
      <trkpt lat="42.010105000" lon="2.547469100">
        <ele>817.70</ele>
        <time>2012-10-14T18:05:26Z</time>
      </trkpt>
      <trkpt lat="42.010040000" lon="2.547141100">
        <ele>817.70</ele>
        <time>2012-10-14T18:05:36Z</time>
      </trkpt>
      <trkpt lat="42.009953000" lon="2.546801100">
        <ele>819.20</ele>
        <time>2012-10-14T18:05:45Z</time>
      </trkpt>
      <trkpt lat="42.009811000" lon="2.546505100">
        <ele>820.10</ele>
        <time>2012-10-14T18:05:54Z</time>
      </trkpt>
      <trkpt lat="42.009647000" lon="2.546362100">
        <ele>820.60</ele>
        <time>2012-10-14T18:06:01Z</time>
      </trkpt>
      <trkpt lat="42.009449000" lon="2.546217100">
        <ele>820.60</ele>
        <time>2012-10-14T18:06:06Z</time>
      </trkpt>
      <trkpt lat="42.009201000" lon="2.545989100">
        <ele>820.60</ele>
        <time>2012-10-14T18:06:13Z</time>
      </trkpt>
      <trkpt lat="42.008995000" lon="2.545887100">
        <ele>820.60</ele>
        <time>2012-10-14T18:06:20Z</time>
      </trkpt>
      <trkpt lat="42.008911000" lon="2.545943100">
        <ele>820.60</ele>
        <time>2012-10-14T18:06:23Z</time>
      </trkpt>
      <trkpt lat="42.008907000" lon="2.545964100">
        <ele>820.60</ele>
        <time>2012-10-14T18:06:25Z</time>
      </trkpt>
      <trkpt lat="42.008923000" lon="2.545974100">
        <ele>821.10</ele>
        <time>2012-10-14T18:06:32Z</time>
      </trkpt>
      <trkpt lat="42.008923000" lon="2.545971100">
        <ele>821.10</ele>
        <time>2012-10-14T18:07:10Z</time>
      </trkpt>
      <trkpt lat="42.008938000" lon="2.546003100">
        <ele>821.10</ele>
        <time>2012-10-14T18:07:17Z</time>
      </trkpt>
      <trkpt lat="42.008980000" lon="2.546172100">
        <ele>821.10</ele>
        <time>2012-10-14T18:07:23Z</time>
      </trkpt>
      <trkpt lat="42.009106000" lon="2.546457100">
        <ele>822.10</ele>
        <time>2012-10-14T18:07:31Z</time>
      </trkpt>
      <trkpt lat="42.009254000" lon="2.546784100">
        <ele>824.00</ele>
        <time>2012-10-14T18:07:42Z</time>
      </trkpt>
      <trkpt lat="42.009315000" lon="2.546948100">
        <ele>825.00</ele>
        <time>2012-10-14T18:07:47Z</time>
      </trkpt>
      <trkpt lat="42.009369000" lon="2.547171100">
        <ele>826.40</ele>
        <time>2012-10-14T18:07:56Z</time>
      </trkpt>
      <trkpt lat="42.009422000" lon="2.547434100">
        <ele>829.30</ele>
        <time>2012-10-14T18:08:04Z</time>
      </trkpt>
      <trkpt lat="42.009453000" lon="2.547578100">
        <ele>832.20</ele>
        <time>2012-10-14T18:08:10Z</time>
      </trkpt>
      <trkpt lat="42.009506000" lon="2.547843100">
        <ele>833.10</ele>
        <time>2012-10-14T18:08:18Z</time>
      </trkpt>
      <trkpt lat="42.009560000" lon="2.548145100">
        <ele>833.10</ele>
        <time>2012-10-14T18:08:29Z</time>
      </trkpt>
      <trkpt lat="42.009590000" lon="2.548349100">
        <ele>833.10</ele>
        <time>2012-10-14T18:08:36Z</time>
      </trkpt>
      <trkpt lat="42.009644000" lon="2.548577100">
        <ele>834.10</ele>
        <time>2012-10-14T18:08:43Z</time>
      </trkpt>
      <trkpt lat="42.009697000" lon="2.548840100">
        <ele>836.00</ele>
        <time>2012-10-14T18:08:53Z</time>
      </trkpt>
      <trkpt lat="42.009758000" lon="2.549151100">
        <ele>837.50</ele>
        <time>2012-10-14T18:09:04Z</time>
      </trkpt>
      <trkpt lat="42.009804000" lon="2.549397100">
        <ele>838.90</ele>
        <time>2012-10-14T18:09:12Z</time>
      </trkpt>
      <trkpt lat="42.009853000" lon="2.549678100">
        <ele>840.80</ele>
        <time>2012-10-14T18:09:23Z</time>
      </trkpt>
      <trkpt lat="42.009903000" lon="2.549947100">
        <ele>842.20</ele>
        <time>2012-10-14T18:09:33Z</time>
      </trkpt>
      <trkpt lat="42.009945000" lon="2.550147100">
        <ele>844.20</ele>
        <time>2012-10-14T18:09:40Z</time>
      </trkpt>
      <trkpt lat="42.009991000" lon="2.550313100">
        <ele>845.10</ele>
        <time>2012-10-14T18:09:47Z</time>
      </trkpt>
      <trkpt lat="42.010071000" lon="2.550528100">
        <ele>847.10</ele>
        <time>2012-10-14T18:09:56Z</time>
      </trkpt>
      <trkpt lat="42.010155000" lon="2.550710100">
        <ele>848.00</ele>
        <time>2012-10-14T18:10:05Z</time>
      </trkpt>
      <trkpt lat="42.010284000" lon="2.550970100">
        <ele>849.00</ele>
        <time>2012-10-14T18:10:15Z</time>
      </trkpt>
      <trkpt lat="42.010395000" lon="2.551139100">
        <ele>849.50</ele>
        <time>2012-10-14T18:10:20Z</time>
      </trkpt>
      <trkpt lat="42.010521000" lon="2.551366100">
        <ele>849.90</ele>
        <time>2012-10-14T18:10:29Z</time>
      </trkpt>
      <trkpt lat="42.010658000" lon="2.551623100">
        <ele>850.40</ele>
        <time>2012-10-14T18:10:38Z</time>
      </trkpt>
      <trkpt lat="42.010769000" lon="2.551888100">
        <ele>851.40</ele>
        <time>2012-10-14T18:10:46Z</time>
      </trkpt>
      <trkpt lat="42.010883000" lon="2.552184100">
        <ele>851.90</ele>
        <time>2012-10-14T18:10:57Z</time>
      </trkpt>
      <trkpt lat="42.010990000" lon="2.552464100">
        <ele>853.80</ele>
        <time>2012-10-14T18:11:06Z</time>
      </trkpt>
      <trkpt lat="42.011078000" lon="2.552770100">
        <ele>854.30</ele>
        <time>2012-10-14T18:11:14Z</time>
      </trkpt>
      <trkpt lat="42.011192000" lon="2.553107100">
        <ele>854.80</ele>
        <time>2012-10-14T18:11:23Z</time>
      </trkpt>
      <trkpt lat="42.011265000" lon="2.553204100">
        <ele>854.80</ele>
        <time>2012-10-14T18:11:28Z</time>
      </trkpt>
      <trkpt lat="42.011322000" lon="2.553220100">
        <ele>854.80</ele>
        <time>2012-10-14T18:11:35Z</time>
      </trkpt>
      <trkpt lat="42.011414000" lon="2.553305100">
        <ele>854.80</ele>
        <time>2012-10-14T18:11:49Z</time>
      </trkpt>
      <trkpt lat="42.011436000" lon="2.553429100">
        <ele>854.80</ele>
        <time>2012-10-14T18:11:56Z</time>
      </trkpt>
      <trkpt lat="42.011440000" lon="2.553589100">
        <ele>854.80</ele>
        <time>2012-10-14T18:12:01Z</time>
      </trkpt>
      <trkpt lat="42.011467000" lon="2.553776100">
        <ele>855.20</ele>
        <time>2012-10-14T18:12:08Z</time>
      </trkpt>
      <trkpt lat="42.011539000" lon="2.554026100">
        <ele>857.20</ele>
        <time>2012-10-14T18:12:17Z</time>
      </trkpt>
      <trkpt lat="42.011589000" lon="2.554243100">
        <ele>858.60</ele>
        <time>2012-10-14T18:12:24Z</time>
      </trkpt>
      <trkpt lat="42.011608000" lon="2.554518100">
        <ele>860.00</ele>
        <time>2012-10-14T18:12:33Z</time>
      </trkpt>
      <trkpt lat="42.011627000" lon="2.554721100">
        <ele>860.50</ele>
        <time>2012-10-14T18:12:40Z</time>
      </trkpt>
      <trkpt lat="42.011635000" lon="2.555005100">
        <ele>861.50</ele>
        <time>2012-10-14T18:12:48Z</time>
      </trkpt>
      <trkpt lat="42.011623000" lon="2.555214100">
        <ele>862.00</ele>
        <time>2012-10-14T18:12:54Z</time>
      </trkpt>
      <trkpt lat="42.011593000" lon="2.555379100">
        <ele>862.00</ele>
        <time>2012-10-14T18:12:57Z</time>
      </trkpt>
      <trkpt lat="42.011650000" lon="2.555655100">
        <ele>862.00</ele>
        <time>2012-10-14T18:13:02Z</time>
      </trkpt>
      <trkpt lat="42.011700000" lon="2.555782100">
        <ele>862.00</ele>
        <time>2012-10-14T18:13:04Z</time>
      </trkpt>
      <trkpt lat="42.011810000" lon="2.556006100">
        <ele>862.00</ele>
        <time>2012-10-14T18:13:11Z</time>
      </trkpt>
      <trkpt lat="42.012085000" lon="2.556290100">
        <ele>862.40</ele>
        <time>2012-10-14T18:13:18Z</time>
      </trkpt>
      <trkpt lat="42.012482000" lon="2.556696100">
        <ele>861.50</ele>
        <time>2012-10-14T18:13:25Z</time>
      </trkpt>
      <trkpt lat="42.012600000" lon="2.557001100">
        <ele>861.00</ele>
        <time>2012-10-14T18:13:30Z</time>
      </trkpt>
      <trkpt lat="42.012615000" lon="2.557059100">
        <ele>861.00</ele>
        <time>2012-10-14T18:13:32Z</time>
      </trkpt>
      <trkpt lat="42.012646000" lon="2.557243100">
        <ele>861.00</ele>
        <time>2012-10-14T18:13:35Z</time>
      </trkpt>
      <trkpt lat="42.012653000" lon="2.557809100">
        <ele>860.50</ele>
        <time>2012-10-14T18:13:44Z</time>
      </trkpt>
      <trkpt lat="42.012653000" lon="2.557935100">
        <ele>860.50</ele>
        <time>2012-10-14T18:13:47Z</time>
      </trkpt>
      <trkpt lat="42.012695000" lon="2.557997100">
        <ele>860.50</ele>
        <time>2012-10-14T18:13:51Z</time>
      </trkpt>
      <trkpt lat="42.012768000" lon="2.558007100">
        <ele>860.50</ele>
        <time>2012-10-14T18:13:56Z</time>
      </trkpt>
      <trkpt lat="42.012905000" lon="2.557929100">
        <ele>859.60</ele>
        <time>2012-10-14T18:14:03Z</time>
      </trkpt>
      <trkpt lat="42.012955000" lon="2.557904100">
        <ele>859.10</ele>
        <time>2012-10-14T18:14:05Z</time>
      </trkpt>
      <trkpt lat="42.013004000" lon="2.558053100">
        <ele>858.60</ele>
        <time>2012-10-14T18:14:10Z</time>
      </trkpt>
      <trkpt lat="42.013004000" lon="2.558126100">
        <ele>858.10</ele>
        <time>2012-10-14T18:14:12Z</time>
      </trkpt>
      <trkpt lat="42.013000000" lon="2.558213100">
        <ele>858.10</ele>
        <time>2012-10-14T18:14:14Z</time>
      </trkpt>
      <trkpt lat="42.012905000" lon="2.558501100">
        <ele>856.70</ele>
        <time>2012-10-14T18:14:21Z</time>
      </trkpt>
      <trkpt lat="42.012859000" lon="2.558611100">
        <ele>853.30</ele>
        <time>2012-10-14T18:14:26Z</time>
      </trkpt>
      <trkpt lat="42.012772000" lon="2.558749100">
        <ele>852.80</ele>
        <time>2012-10-14T18:14:31Z</time>
      </trkpt>
      <trkpt lat="42.012520000" lon="2.558935100">
        <ele>853.80</ele>
        <time>2012-10-14T18:14:40Z</time>
      </trkpt>
      <trkpt lat="42.012390000" lon="2.559018100">
        <ele>854.30</ele>
        <time>2012-10-14T18:14:43Z</time>
      </trkpt>
      <trkpt lat="42.012329000" lon="2.559232100">
        <ele>854.30</ele>
        <time>2012-10-14T18:14:50Z</time>
      </trkpt>
      <trkpt lat="42.012299000" lon="2.559350100">
        <ele>854.30</ele>
        <time>2012-10-14T18:14:59Z</time>
      </trkpt>
      <trkpt lat="42.012234000" lon="2.559431100">
        <ele>854.30</ele>
        <time>2012-10-14T18:15:06Z</time>
      </trkpt>
      <trkpt lat="42.012070000" lon="2.559520100">
        <ele>854.30</ele>
        <time>2012-10-14T18:15:13Z</time>
      </trkpt>
      <trkpt lat="42.011871000" lon="2.559696100">
        <ele>854.30</ele>
        <time>2012-10-14T18:15:20Z</time>
      </trkpt>
      <trkpt lat="42.011745000" lon="2.559819100">
        <ele>854.30</ele>
        <time>2012-10-14T18:15:25Z</time>
      </trkpt>
      <trkpt lat="42.011684000" lon="2.559902100">
        <ele>854.30</ele>
        <time>2012-10-14T18:15:27Z</time>
      </trkpt>
      <trkpt lat="42.011452000" lon="2.560152100">
        <ele>854.30</ele>
        <time>2012-10-14T18:15:34Z</time>
      </trkpt>
      <trkpt lat="42.011196000" lon="2.560385100">
        <ele>854.80</ele>
        <time>2012-10-14T18:15:44Z</time>
      </trkpt>
      <trkpt lat="42.010983000" lon="2.560550100">
        <ele>855.70</ele>
        <time>2012-10-14T18:15:51Z</time>
      </trkpt>
      <trkpt lat="42.010799000" lon="2.560686100">
        <ele>855.70</ele>
        <time>2012-10-14T18:15:58Z</time>
      </trkpt>
      <trkpt lat="42.010586000" lon="2.560871100">
        <ele>856.20</ele>
        <time>2012-10-14T18:16:07Z</time>
      </trkpt>
      <trkpt lat="42.010414000" lon="2.561118100">
        <ele>856.20</ele>
        <time>2012-10-14T18:16:14Z</time>
      </trkpt>
      <trkpt lat="42.010319000" lon="2.561302100">
        <ele>856.20</ele>
        <time>2012-10-14T18:16:17Z</time>
      </trkpt>
      <trkpt lat="42.010162000" lon="2.561600100">
        <ele>856.20</ele>
        <time>2012-10-14T18:16:24Z</time>
      </trkpt>
      <trkpt lat="42.010029000" lon="2.561948100">
        <ele>856.20</ele>
        <time>2012-10-14T18:16:33Z</time>
      </trkpt>
      <trkpt lat="42.009838000" lon="2.562302100">
        <ele>856.20</ele>
        <time>2012-10-14T18:16:40Z</time>
      </trkpt>
      <trkpt lat="42.009708000" lon="2.562642100">
        <ele>855.20</ele>
        <time>2012-10-14T18:16:47Z</time>
      </trkpt>
      <trkpt lat="42.009640000" lon="2.562822100">
        <ele>855.20</ele>
        <time>2012-10-14T18:16:50Z</time>
      </trkpt>
      <trkpt lat="42.009563000" lon="2.563190100">
        <ele>854.30</ele>
        <time>2012-10-14T18:16:57Z</time>
      </trkpt>
      <trkpt lat="42.009514000" lon="2.563426100">
        <ele>853.30</ele>
        <time>2012-10-14T18:16:59Z</time>
      </trkpt>
      <trkpt lat="42.009495000" lon="2.563590100">
        <ele>853.30</ele>
        <time>2012-10-14T18:17:01Z</time>
      </trkpt>
      <trkpt lat="42.009514000" lon="2.564042100">
        <ele>852.30</ele>
        <time>2012-10-14T18:17:08Z</time>
      </trkpt>
      <trkpt lat="42.009491000" lon="2.564215100">
        <ele>849.00</ele>
        <time>2012-10-14T18:17:11Z</time>
      </trkpt>
      <trkpt lat="42.009533000" lon="2.564289100">
        <ele>844.20</ele>
        <time>2012-10-14T18:17:15Z</time>
      </trkpt>
      <trkpt lat="42.009586000" lon="2.564246100">
        <ele>841.30</ele>
        <time>2012-10-14T18:17:18Z</time>
      </trkpt>
      <trkpt lat="42.009716000" lon="2.563926100">
        <ele>840.80</ele>
        <time>2012-10-14T18:17:25Z</time>
      </trkpt>
      <trkpt lat="42.009743000" lon="2.563859100">
        <ele>840.30</ele>
        <time>2012-10-14T18:17:25Z</time>
      </trkpt>
      <trkpt lat="42.009899000" lon="2.563619100">
        <ele>839.80</ele>
        <time>2012-10-14T18:17:29Z</time>
      </trkpt>
      <trkpt lat="42.009937000" lon="2.563581100">
        <ele>839.40</ele>
        <time>2012-10-14T18:17:30Z</time>
      </trkpt>
      <trkpt lat="42.010147000" lon="2.563377100">
        <ele>834.10</ele>
        <time>2012-10-14T18:17:34Z</time>
      </trkpt>
      <trkpt lat="42.010246000" lon="2.563304100">
        <ele>830.70</ele>
        <time>2012-10-14T18:17:36Z</time>
      </trkpt>
      <trkpt lat="42.010315000" lon="2.563250100">
        <ele>826.90</ele>
        <time>2012-10-14T18:17:39Z</time>
      </trkpt>
      <trkpt lat="42.010395000" lon="2.563160100">
        <ele>823.00</ele>
        <time>2012-10-14T18:17:41Z</time>
      </trkpt>
      <trkpt lat="42.010506000" lon="2.563024100">
        <ele>822.50</ele>
        <time>2012-10-14T18:17:46Z</time>
      </trkpt>
      <trkpt lat="42.010555000" lon="2.562967100">
        <ele>823.00</ele>
        <time>2012-10-14T18:17:48Z</time>
      </trkpt>
      <trkpt lat="42.010731000" lon="2.562699100">
        <ele>822.10</ele>
        <time>2012-10-14T18:17:55Z</time>
      </trkpt>
      <trkpt lat="42.010796000" lon="2.562474100">
        <ele>818.70</ele>
        <time>2012-10-14T18:18:00Z</time>
      </trkpt>
      <trkpt lat="42.010845000" lon="2.562276100">
        <ele>818.20</ele>
        <time>2012-10-14T18:18:04Z</time>
      </trkpt>
      <trkpt lat="42.010929000" lon="2.562032100">
        <ele>818.20</ele>
        <time>2012-10-14T18:18:07Z</time>
      </trkpt>
      <trkpt lat="42.010986000" lon="2.561914100">
        <ele>818.20</ele>
        <time>2012-10-14T18:18:09Z</time>
      </trkpt>
      <trkpt lat="42.011166000" lon="2.561808100">
        <ele>817.30</ele>
        <time>2012-10-14T18:18:14Z</time>
      </trkpt>
      <trkpt lat="42.011196000" lon="2.561878100">
        <ele>815.30</ele>
        <time>2012-10-14T18:18:16Z</time>
      </trkpt>
      <trkpt lat="42.011234000" lon="2.562093100">
        <ele>810.50</ele>
        <time>2012-10-14T18:18:21Z</time>
      </trkpt>
      <trkpt lat="42.011238000" lon="2.562145100">
        <ele>809.60</ele>
        <time>2012-10-14T18:18:21Z</time>
      </trkpt>
      <trkpt lat="42.011192000" lon="2.562361100">
        <ele>807.20</ele>
        <time>2012-10-14T18:18:26Z</time>
      </trkpt>
      <trkpt lat="42.011185000" lon="2.562482100">
        <ele>806.70</ele>
        <time>2012-10-14T18:18:28Z</time>
      </trkpt>
      <trkpt lat="42.011261000" lon="2.562766100">
        <ele>805.70</ele>
        <time>2012-10-14T18:18:33Z</time>
      </trkpt>
      <trkpt lat="42.011337000" lon="2.563016100">
        <ele>802.80</ele>
        <time>2012-10-14T18:18:40Z</time>
      </trkpt>
      <trkpt lat="42.011311000" lon="2.563140100">
        <ele>799.50</ele>
        <time>2012-10-14T18:18:42Z</time>
      </trkpt>
      <trkpt lat="42.011280000" lon="2.563273100">
        <ele>796.60</ele>
        <time>2012-10-14T18:18:45Z</time>
      </trkpt>
      <trkpt lat="42.011253000" lon="2.563447100">
        <ele>793.20</ele>
        <time>2012-10-14T18:18:49Z</time>
      </trkpt>
      <trkpt lat="42.011223000" lon="2.563721100">
        <ele>790.30</ele>
        <time>2012-10-14T18:18:54Z</time>
      </trkpt>
      <trkpt lat="42.011166000" lon="2.563976100">
        <ele>788.40</ele>
        <time>2012-10-14T18:18:59Z</time>
      </trkpt>
      <trkpt lat="42.011147000" lon="2.564290100">
        <ele>785.00</ele>
        <time>2012-10-14T18:19:05Z</time>
      </trkpt>
      <trkpt lat="42.011116000" lon="2.564463100">
        <ele>783.60</ele>
        <time>2012-10-14T18:19:08Z</time>
      </trkpt>
      <trkpt lat="42.011032000" lon="2.564695100">
        <ele>781.20</ele>
        <time>2012-10-14T18:19:12Z</time>
      </trkpt>
      <trkpt lat="42.011032000" lon="2.565010100">
        <ele>778.30</ele>
        <time>2012-10-14T18:19:17Z</time>
      </trkpt>
      <trkpt lat="42.011051000" lon="2.565244100">
        <ele>775.00</ele>
        <time>2012-10-14T18:19:22Z</time>
      </trkpt>
      <trkpt lat="42.011131000" lon="2.565450100">
        <ele>770.60</ele>
        <time>2012-10-14T18:19:25Z</time>
      </trkpt>
      <trkpt lat="42.011185000" lon="2.565652100">
        <ele>767.30</ele>
        <time>2012-10-14T18:19:31Z</time>
      </trkpt>
      <trkpt lat="42.011131000" lon="2.565946100">
        <ele>766.30</ele>
        <time>2012-10-14T18:19:36Z</time>
      </trkpt>
      <trkpt lat="42.011093000" lon="2.566233100">
        <ele>762.90</ele>
        <time>2012-10-14T18:19:41Z</time>
      </trkpt>
      <trkpt lat="42.011036000" lon="2.566390100">
        <ele>759.60</ele>
        <time>2012-10-14T18:19:45Z</time>
      </trkpt>
      <trkpt lat="42.010967000" lon="2.566535100">
        <ele>756.20</ele>
        <time>2012-10-14T18:19:48Z</time>
      </trkpt>
      <trkpt lat="42.010960000" lon="2.566780100">
        <ele>754.80</ele>
        <time>2012-10-14T18:19:53Z</time>
      </trkpt>
      <trkpt lat="42.010971000" lon="2.566839100">
        <ele>754.30</ele>
        <time>2012-10-14T18:19:55Z</time>
      </trkpt>
      <trkpt lat="42.011063000" lon="2.567102100">
        <ele>754.30</ele>
        <time>2012-10-14T18:19:59Z</time>
      </trkpt>
      <trkpt lat="42.011189000" lon="2.567504100">
        <ele>753.80</ele>
        <time>2012-10-14T18:20:04Z</time>
      </trkpt>
      <trkpt lat="42.011253000" lon="2.567826100">
        <ele>749.00</ele>
        <time>2012-10-14T18:20:09Z</time>
      </trkpt>
      <trkpt lat="42.011265000" lon="2.567989100">
        <ele>744.70</ele>
        <time>2012-10-14T18:20:11Z</time>
      </trkpt>
      <trkpt lat="42.011227000" lon="2.568367100">
        <ele>740.30</ele>
        <time>2012-10-14T18:20:16Z</time>
      </trkpt>
      <trkpt lat="42.011215000" lon="2.568614100">
        <ele>740.80</ele>
        <time>2012-10-14T18:20:19Z</time>
      </trkpt>
      <trkpt lat="42.011196000" lon="2.569054100">
        <ele>740.80</ele>
        <time>2012-10-14T18:20:25Z</time>
      </trkpt>
      <trkpt lat="42.011097000" lon="2.569443100">
        <ele>740.80</ele>
        <time>2012-10-14T18:20:32Z</time>
      </trkpt>
      <trkpt lat="42.011059000" lon="2.569681100">
        <ele>740.80</ele>
        <time>2012-10-14T18:20:35Z</time>
      </trkpt>
      <trkpt lat="42.011059000" lon="2.570372100">
        <ele>740.30</ele>
        <time>2012-10-14T18:20:44Z</time>
      </trkpt>
      <trkpt lat="42.011066000" lon="2.570536100">
        <ele>740.30</ele>
        <time>2012-10-14T18:20:46Z</time>
      </trkpt>
      <trkpt lat="42.011070000" lon="2.570920100">
        <ele>739.40</ele>
        <time>2012-10-14T18:20:51Z</time>
      </trkpt>
      <trkpt lat="42.010998000" lon="2.571316100">
        <ele>734.10</ele>
        <time>2012-10-14T18:20:56Z</time>
      </trkpt>
      <trkpt lat="42.010918000" lon="2.571724100">
        <ele>730.30</ele>
        <time>2012-10-14T18:21:01Z</time>
      </trkpt>
      <trkpt lat="42.010761000" lon="2.572273100">
        <ele>729.80</ele>
        <time>2012-10-14T18:21:08Z</time>
      </trkpt>
      <trkpt lat="42.010666000" lon="2.572635100">
        <ele>729.80</ele>
        <time>2012-10-14T18:21:12Z</time>
      </trkpt>
      <trkpt lat="42.010559000" lon="2.572919100">
        <ele>729.30</ele>
        <time>2012-10-14T18:21:17Z</time>
      </trkpt>
      <trkpt lat="42.010502000" lon="2.573112100">
        <ele>729.30</ele>
        <time>2012-10-14T18:21:19Z</time>
      </trkpt>
      <trkpt lat="42.010242000" lon="2.573513100">
        <ele>727.90</ele>
        <time>2012-10-14T18:21:26Z</time>
      </trkpt>
      <trkpt lat="42.010090000" lon="2.573722100">
        <ele>727.40</ele>
        <time>2012-10-14T18:21:29Z</time>
      </trkpt>
      <trkpt lat="42.009903000" lon="2.574069100">
        <ele>725.50</ele>
        <time>2012-10-14T18:21:34Z</time>
      </trkpt>
      <trkpt lat="42.009727000" lon="2.574334100">
        <ele>720.70</ele>
        <time>2012-10-14T18:21:38Z</time>
      </trkpt>
      <trkpt lat="42.009548000" lon="2.574582100">
        <ele>715.80</ele>
        <time>2012-10-14T18:21:41Z</time>
      </trkpt>
      <trkpt lat="42.009499000" lon="2.574662100">
        <ele>716.30</ele>
        <time>2012-10-14T18:21:43Z</time>
      </trkpt>
      <trkpt lat="42.009262000" lon="2.575035100">
        <ele>715.40</ele>
        <time>2012-10-14T18:21:48Z</time>
      </trkpt>
      <trkpt lat="42.008873000" lon="2.575678100">
        <ele>714.90</ele>
        <time>2012-10-14T18:21:55Z</time>
      </trkpt>
      <trkpt lat="42.008820000" lon="2.575749100">
        <ele>714.90</ele>
        <time>2012-10-14T18:21:57Z</time>
      </trkpt>
      <trkpt lat="42.008678000" lon="2.575932100">
        <ele>714.40</ele>
        <time>2012-10-14T18:21:59Z</time>
      </trkpt>
      <trkpt lat="42.008602000" lon="2.576155100">
        <ele>710.10</ele>
        <time>2012-10-14T18:22:04Z</time>
      </trkpt>
      <trkpt lat="42.008591000" lon="2.576305100">
        <ele>706.70</ele>
        <time>2012-10-14T18:22:06Z</time>
      </trkpt>
      <trkpt lat="42.008568000" lon="2.576469100">
        <ele>703.30</ele>
        <time>2012-10-14T18:22:07Z</time>
      </trkpt>
      <trkpt lat="42.008507000" lon="2.576705100">
        <ele>700.00</ele>
        <time>2012-10-14T18:22:11Z</time>
      </trkpt>
      <trkpt lat="42.008434000" lon="2.576992100">
        <ele>696.10</ele>
        <time>2012-10-14T18:22:16Z</time>
      </trkpt>
      <trkpt lat="42.008347000" lon="2.577356100">
        <ele>693.20</ele>
        <time>2012-10-14T18:22:21Z</time>
      </trkpt>
      <trkpt lat="42.008274000" lon="2.577573100">
        <ele>689.90</ele>
        <time>2012-10-14T18:22:25Z</time>
      </trkpt>
      <trkpt lat="42.008190000" lon="2.577703100">
        <ele>686.50</ele>
        <time>2012-10-14T18:22:28Z</time>
      </trkpt>
      <trkpt lat="42.008125000" lon="2.577974100">
        <ele>682.20</ele>
        <time>2012-10-14T18:22:34Z</time>
      </trkpt>
      <trkpt lat="42.007961000" lon="2.578346100">
        <ele>678.30</ele>
        <time>2012-10-14T18:22:39Z</time>
      </trkpt>
      <trkpt lat="42.007805000" lon="2.578766100">
        <ele>675.00</ele>
        <time>2012-10-14T18:22:46Z</time>
      </trkpt>
      <trkpt lat="42.007759000" lon="2.578942100">
        <ele>674.50</ele>
        <time>2012-10-14T18:22:48Z</time>
      </trkpt>
      <trkpt lat="42.007572000" lon="2.579486100">
        <ele>670.20</ele>
        <time>2012-10-14T18:22:54Z</time>
      </trkpt>
      <trkpt lat="42.007534000" lon="2.579619100">
        <ele>668.70</ele>
        <time>2012-10-14T18:22:56Z</time>
      </trkpt>
      <trkpt lat="42.007412000" lon="2.579860100">
        <ele>664.90</ele>
        <time>2012-10-14T18:23:00Z</time>
      </trkpt>
      <trkpt lat="42.007301000" lon="2.580200100">
        <ele>661.00</ele>
        <time>2012-10-14T18:23:07Z</time>
      </trkpt>
      <trkpt lat="42.007271000" lon="2.580366100">
        <ele>659.60</ele>
        <time>2012-10-14T18:23:10Z</time>
      </trkpt>
      <trkpt lat="42.007130000" lon="2.580651100">
        <ele>655.80</ele>
        <time>2012-10-14T18:23:14Z</time>
      </trkpt>
      <trkpt lat="42.007034000" lon="2.580817100">
        <ele>652.90</ele>
        <time>2012-10-14T18:23:17Z</time>
      </trkpt>
      <trkpt lat="42.006981000" lon="2.580922100">
        <ele>651.90</ele>
        <time>2012-10-14T18:23:19Z</time>
      </trkpt>
      <trkpt lat="42.006927000" lon="2.581022100">
        <ele>650.50</ele>
        <time>2012-10-14T18:23:22Z</time>
      </trkpt>
      <trkpt lat="42.006859000" lon="2.581142100">
        <ele>649.50</ele>
        <time>2012-10-14T18:23:24Z</time>
      </trkpt>
      <trkpt lat="42.006535000" lon="2.581622100">
        <ele>647.10</ele>
        <time>2012-10-14T18:23:31Z</time>
      </trkpt>
      <trkpt lat="42.006397000" lon="2.581828100">
        <ele>645.70</ele>
        <time>2012-10-14T18:23:33Z</time>
      </trkpt>
      <trkpt lat="42.006081000" lon="2.582128100">
        <ele>645.20</ele>
        <time>2012-10-14T18:23:40Z</time>
      </trkpt>
      <trkpt lat="42.006023000" lon="2.582167100">
        <ele>645.20</ele>
        <time>2012-10-14T18:23:40Z</time>
      </trkpt>
      <trkpt lat="42.005669000" lon="2.582487100">
        <ele>641.80</ele>
        <time>2012-10-14T18:23:47Z</time>
      </trkpt>
      <trkpt lat="42.005482000" lon="2.582695100">
        <ele>638.00</ele>
        <time>2012-10-14T18:23:50Z</time>
      </trkpt>
      <trkpt lat="42.005428000" lon="2.582761100">
        <ele>636.50</ele>
        <time>2012-10-14T18:23:50Z</time>
      </trkpt>
      <trkpt lat="42.005264000" lon="2.582988100">
        <ele>632.70</ele>
        <time>2012-10-14T18:23:54Z</time>
      </trkpt>
      <trkpt lat="42.005131000" lon="2.583194100">
        <ele>629.30</ele>
        <time>2012-10-14T18:23:59Z</time>
      </trkpt>
      <trkpt lat="42.005074000" lon="2.583299100">
        <ele>627.40</ele>
        <time>2012-10-14T18:24:01Z</time>
      </trkpt>
      <trkpt lat="42.004959000" lon="2.583496100">
        <ele>624.00</ele>
        <time>2012-10-14T18:24:04Z</time>
      </trkpt>
      <trkpt lat="42.004780000" lon="2.583755100">
        <ele>620.20</ele>
        <time>2012-10-14T18:24:09Z</time>
      </trkpt>
      <trkpt lat="42.004662000" lon="2.583913100">
        <ele>615.90</ele>
        <time>2012-10-14T18:24:13Z</time>
      </trkpt>
      <trkpt lat="42.004574000" lon="2.583990100">
        <ele>612.50</ele>
        <time>2012-10-14T18:24:16Z</time>
      </trkpt>
      <trkpt lat="42.004494000" lon="2.584052100">
        <ele>612.00</ele>
        <time>2012-10-14T18:24:18Z</time>
      </trkpt>
      <trkpt lat="42.004421000" lon="2.584146100">
        <ele>611.50</ele>
        <time>2012-10-14T18:24:20Z</time>
      </trkpt>
      <trkpt lat="42.004372000" lon="2.584239100">
        <ele>610.10</ele>
        <time>2012-10-14T18:24:23Z</time>
      </trkpt>
      <trkpt lat="42.004292000" lon="2.584520100">
        <ele>607.20</ele>
        <time>2012-10-14T18:24:27Z</time>
      </trkpt>
      <trkpt lat="42.004257000" lon="2.584627100">
        <ele>604.80</ele>
        <time>2012-10-14T18:24:30Z</time>
      </trkpt>
      <trkpt lat="42.004105000" lon="2.584847100">
        <ele>600.00</ele>
        <time>2012-10-14T18:24:34Z</time>
      </trkpt>
      <trkpt lat="42.003895000" lon="2.585097100">
        <ele>598.10</ele>
        <time>2012-10-14T18:24:39Z</time>
      </trkpt>
      <trkpt lat="42.003750000" lon="2.585357100">
        <ele>598.10</ele>
        <time>2012-10-14T18:24:42Z</time>
      </trkpt>
      <trkpt lat="42.003548000" lon="2.585516100">
        <ele>598.10</ele>
        <time>2012-10-14T18:24:46Z</time>
      </trkpt>
      <trkpt lat="42.003433000" lon="2.585566100">
        <ele>598.10</ele>
        <time>2012-10-14T18:24:48Z</time>
      </trkpt>
      <trkpt lat="42.003193000" lon="2.585799100">
        <ele>597.10</ele>
        <time>2012-10-14T18:24:53Z</time>
      </trkpt>
      <trkpt lat="42.002987000" lon="2.585954100">
        <ele>592.30</ele>
        <time>2012-10-14T18:24:58Z</time>
      </trkpt>
      <trkpt lat="42.002872000" lon="2.586011100">
        <ele>589.40</ele>
        <time>2012-10-14T18:25:00Z</time>
      </trkpt>
      <trkpt lat="42.002808000" lon="2.586038100">
        <ele>588.50</ele>
        <time>2012-10-14T18:25:00Z</time>
      </trkpt>
      <trkpt lat="42.002632000" lon="2.586062100">
        <ele>585.10</ele>
        <time>2012-10-14T18:25:03Z</time>
      </trkpt>
      <trkpt lat="42.002483000" lon="2.586025100">
        <ele>586.10</ele>
        <time>2012-10-14T18:25:07Z</time>
      </trkpt>
      <trkpt lat="42.002388000" lon="2.585997100">
        <ele>586.50</ele>
        <time>2012-10-14T18:25:09Z</time>
      </trkpt>
      <trkpt lat="42.002296000" lon="2.585991100">
        <ele>588.50</ele>
        <time>2012-10-14T18:25:10Z</time>
      </trkpt>
      <trkpt lat="42.002132000" lon="2.586116100">
        <ele>589.90</ele>
        <time>2012-10-14T18:25:14Z</time>
      </trkpt>
      <trkpt lat="42.001827000" lon="2.586510100">
        <ele>587.50</ele>
        <time>2012-10-14T18:25:23Z</time>
      </trkpt>
      <trkpt lat="42.001514000" lon="2.586862100">
        <ele>583.20</ele>
        <time>2012-10-14T18:25:29Z</time>
      </trkpt>
      <trkpt lat="42.001431000" lon="2.586960100">
        <ele>582.20</ele>
        <time>2012-10-14T18:25:33Z</time>
      </trkpt>
      <trkpt lat="42.001453000" lon="2.587131100">
        <ele>581.20</ele>
        <time>2012-10-14T18:25:38Z</time>
      </trkpt>
      <trkpt lat="42.001472000" lon="2.587236100">
        <ele>578.40</ele>
        <time>2012-10-14T18:25:42Z</time>
      </trkpt>
      <trkpt lat="42.001427000" lon="2.587282100">
        <ele>577.40</ele>
        <time>2012-10-14T18:25:43Z</time>
      </trkpt>
      <trkpt lat="42.001331000" lon="2.587501100">
        <ele>576.50</ele>
        <time>2012-10-14T18:25:47Z</time>
      </trkpt>
      <trkpt lat="42.001236000" lon="2.587672100">
        <ele>576.00</ele>
        <time>2012-10-14T18:25:50Z</time>
      </trkpt>
      <trkpt lat="42.001175000" lon="2.587868100">
        <ele>575.00</ele>
        <time>2012-10-14T18:25:54Z</time>
      </trkpt>
      <trkpt lat="42.001152000" lon="2.588305100">
        <ele>573.60</ele>
        <time>2012-10-14T18:26:03Z</time>
      </trkpt>
      <trkpt lat="42.001171000" lon="2.588463100">
        <ele>570.20</ele>
        <time>2012-10-14T18:26:06Z</time>
      </trkpt>
      <trkpt lat="42.001179000" lon="2.588589100">
        <ele>567.30</ele>
        <time>2012-10-14T18:26:08Z</time>
      </trkpt>
      <trkpt lat="42.001148000" lon="2.588842100">
        <ele>562.50</ele>
        <time>2012-10-14T18:26:11Z</time>
      </trkpt>
      <trkpt lat="42.001064000" lon="2.588974100">
        <ele>559.60</ele>
        <time>2012-10-14T18:26:15Z</time>
      </trkpt>
      <trkpt lat="42.000984000" lon="2.589059100">
        <ele>558.20</ele>
        <time>2012-10-14T18:26:17Z</time>
      </trkpt>
      <trkpt lat="42.000854000" lon="2.589240100">
        <ele>557.20</ele>
        <time>2012-10-14T18:26:22Z</time>
      </trkpt>
      <trkpt lat="42.000999000" lon="2.589241100">
        <ele>557.20</ele>
        <time>2012-10-14T18:26:25Z</time>
      </trkpt>
      <trkpt lat="42.001133000" lon="2.589256100">
        <ele>556.70</ele>
        <time>2012-10-14T18:26:29Z</time>
      </trkpt>
      <trkpt lat="42.001312000" lon="2.589334100">
        <ele>552.90</ele>
        <time>2012-10-14T18:26:32Z</time>
      </trkpt>
      <trkpt lat="42.001415000" lon="2.589438100">
        <ele>548.10</ele>
        <time>2012-10-14T18:26:36Z</time>
      </trkpt>
      <trkpt lat="42.001419000" lon="2.589549100">
        <ele>545.20</ele>
        <time>2012-10-14T18:26:37Z</time>
      </trkpt>
      <trkpt lat="42.001335000" lon="2.589661100">
        <ele>541.40</ele>
        <time>2012-10-14T18:26:41Z</time>
      </trkpt>
      <trkpt lat="42.001301000" lon="2.589683100">
        <ele>540.40</ele>
        <time>2012-10-14T18:26:41Z</time>
      </trkpt>
      <trkpt lat="42.001194000" lon="2.589736100">
        <ele>540.40</ele>
        <time>2012-10-14T18:26:43Z</time>
      </trkpt>
      <trkpt lat="42.001011000" lon="2.589794100">
        <ele>539.90</ele>
        <time>2012-10-14T18:26:48Z</time>
      </trkpt>
      <trkpt lat="42.000778000" lon="2.589855100">
        <ele>537.00</ele>
        <time>2012-10-14T18:26:55Z</time>
      </trkpt>
      <trkpt lat="42.000805000" lon="2.590025100">
        <ele>533.20</ele>
        <time>2012-10-14T18:26:58Z</time>
      </trkpt>
      <trkpt lat="42.000786000" lon="2.590178100">
        <ele>531.30</ele>
        <time>2012-10-14T18:27:02Z</time>
      </trkpt>
      <trkpt lat="42.000755000" lon="2.590195100">
        <ele>532.20</ele>
        <time>2012-10-14T18:27:02Z</time>
      </trkpt>
      <trkpt lat="42.000484000" lon="2.590392100">
        <ele>530.30</ele>
        <time>2012-10-14T18:27:11Z</time>
      </trkpt>
      <trkpt lat="42.000443000" lon="2.590531100">
        <ele>528.40</ele>
        <time>2012-10-14T18:27:14Z</time>
      </trkpt>
      <trkpt lat="42.000385000" lon="2.590759100">
        <ele>523.60</ele>
        <time>2012-10-14T18:27:17Z</time>
      </trkpt>
      <trkpt lat="42.000355000" lon="2.590918100">
        <ele>519.70</ele>
        <time>2012-10-14T18:27:21Z</time>
      </trkpt>
      <trkpt lat="42.000286000" lon="2.591031100">
        <ele>516.40</ele>
        <time>2012-10-14T18:27:23Z</time>
      </trkpt>
      <trkpt lat="42.000256000" lon="2.591071100">
        <ele>515.90</ele>
        <time>2012-10-14T18:27:24Z</time>
      </trkpt>
      <trkpt lat="42.000114000" lon="2.591322100">
        <ele>513.50</ele>
        <time>2012-10-14T18:27:30Z</time>
      </trkpt>
      <trkpt lat="41.999962000" lon="2.591515100">
        <ele>511.10</ele>
        <time>2012-10-14T18:27:35Z</time>
      </trkpt>
      <trkpt lat="41.999840000" lon="2.591611100">
        <ele>509.20</ele>
        <time>2012-10-14T18:27:38Z</time>
      </trkpt>
      <trkpt lat="41.999603000" lon="2.591945100">
        <ele>504.80</ele>
        <time>2012-10-14T18:27:45Z</time>
      </trkpt>
      <trkpt lat="41.999573000" lon="2.592016100">
        <ele>504.40</ele>
        <time>2012-10-14T18:27:45Z</time>
      </trkpt>
      <trkpt lat="41.999489000" lon="2.592273100">
        <ele>502.40</ele>
        <time>2012-10-14T18:27:49Z</time>
      </trkpt>
      <trkpt lat="41.999382000" lon="2.592464100">
        <ele>498.60</ele>
        <time>2012-10-14T18:27:54Z</time>
      </trkpt>
      <trkpt lat="41.999348000" lon="2.592505100">
        <ele>497.10</ele>
        <time>2012-10-14T18:27:54Z</time>
      </trkpt>
      <trkpt lat="41.999153000" lon="2.592602100">
        <ele>493.80</ele>
        <time>2012-10-14T18:27:59Z</time>
      </trkpt>
      <trkpt lat="41.998959000" lon="2.592700100">
        <ele>493.30</ele>
        <time>2012-10-14T18:28:03Z</time>
      </trkpt>
      <trkpt lat="41.998711000" lon="2.592725100">
        <ele>496.20</ele>
        <time>2012-10-14T18:28:08Z</time>
      </trkpt>
      <trkpt lat="41.998547000" lon="2.592723100">
        <ele>496.70</ele>
        <time>2012-10-14T18:28:10Z</time>
      </trkpt>
      <trkpt lat="41.998249000" lon="2.592765100">
        <ele>496.70</ele>
        <time>2012-10-14T18:28:17Z</time>
      </trkpt>
      <trkpt lat="41.998070000" lon="2.592854100">
        <ele>495.20</ele>
        <time>2012-10-14T18:28:22Z</time>
      </trkpt>
      <trkpt lat="41.998009000" lon="2.593057100">
        <ele>491.40</ele>
        <time>2012-10-14T18:28:27Z</time>
      </trkpt>
      <trkpt lat="41.997978000" lon="2.593143100">
        <ele>488.50</ele>
        <time>2012-10-14T18:28:31Z</time>
      </trkpt>
      <trkpt lat="41.997932000" lon="2.593281100">
        <ele>484.60</ele>
        <time>2012-10-14T18:28:34Z</time>
      </trkpt>
      <trkpt lat="41.997856000" lon="2.593486100">
        <ele>481.80</ele>
        <time>2012-10-14T18:28:41Z</time>
      </trkpt>
      <trkpt lat="41.997772000" lon="2.593721100">
        <ele>478.40</ele>
        <time>2012-10-14T18:28:46Z</time>
      </trkpt>
      <trkpt lat="41.997757000" lon="2.593837100">
        <ele>474.50</ele>
        <time>2012-10-14T18:28:50Z</time>
      </trkpt>
      <trkpt lat="41.997669000" lon="2.593928100">
        <ele>469.70</ele>
        <time>2012-10-14T18:28:53Z</time>
      </trkpt>
      <trkpt lat="41.997562000" lon="2.594001100">
        <ele>468.30</ele>
        <time>2012-10-14T18:28:57Z</time>
      </trkpt>
      <trkpt lat="41.997536000" lon="2.594032100">
        <ele>467.30</ele>
        <time>2012-10-14T18:28:57Z</time>
      </trkpt>
      <trkpt lat="41.997551000" lon="2.594267100">
        <ele>463.50</ele>
        <time>2012-10-14T18:29:02Z</time>
      </trkpt>
      <trkpt lat="41.997692000" lon="2.594496100">
        <ele>460.10</ele>
        <time>2012-10-14T18:29:09Z</time>
      </trkpt>
      <trkpt lat="41.997929000" lon="2.594554100">
        <ele>455.80</ele>
        <time>2012-10-14T18:29:14Z</time>
      </trkpt>
      <trkpt lat="41.998192000" lon="2.594524100">
        <ele>452.40</ele>
        <time>2012-10-14T18:29:21Z</time>
      </trkpt>
      <trkpt lat="41.998283000" lon="2.594461100">
        <ele>451.00</ele>
        <time>2012-10-14T18:29:25Z</time>
      </trkpt>
      <trkpt lat="41.998299000" lon="2.594462100">
        <ele>451.00</ele>
        <time>2012-10-14T18:29:26Z</time>
      </trkpt>
      <trkpt lat="41.998333000" lon="2.594473100">
        <ele>450.50</ele>
        <time>2012-10-14T18:29:28Z</time>
      </trkpt>
      <trkpt lat="41.998360000" lon="2.594507100">
        <ele>450.00</ele>
        <time>2012-10-14T18:29:35Z</time>
      </trkpt>
      <trkpt lat="41.998371000" lon="2.594529100">
        <ele>450.00</ele>
        <time>2012-10-14T18:29:58Z</time>
      </trkpt>
      <trkpt lat="41.998405000" lon="2.594617100">
        <ele>450.00</ele>
        <time>2012-10-14T18:30:01Z</time>
      </trkpt>
      <trkpt lat="41.998650000" lon="2.595128100">
        <ele>446.70</ele>
        <time>2012-10-14T18:30:08Z</time>
      </trkpt>
      <trkpt lat="41.998718000" lon="2.595426100">
        <ele>441.90</ele>
        <time>2012-10-14T18:30:12Z</time>
      </trkpt>
      <trkpt lat="41.998795000" lon="2.595640100">
        <ele>437.50</ele>
        <time>2012-10-14T18:30:15Z</time>
      </trkpt>
      <trkpt lat="41.998837000" lon="2.595780100">
        <ele>434.20</ele>
        <time>2012-10-14T18:30:17Z</time>
      </trkpt>
      <trkpt lat="41.998878000" lon="2.595900100">
        <ele>431.30</ele>
        <time>2012-10-14T18:30:19Z</time>
      </trkpt>
      <trkpt lat="41.998825000" lon="2.596009100">
        <ele>427.40</ele>
        <time>2012-10-14T18:30:22Z</time>
      </trkpt>
      <trkpt lat="41.998600000" lon="2.596164100">
        <ele>426.50</ele>
        <time>2012-10-14T18:30:27Z</time>
      </trkpt>
      <trkpt lat="41.998402000" lon="2.596425100">
        <ele>426.50</ele>
        <time>2012-10-14T18:30:33Z</time>
      </trkpt>
      <trkpt lat="41.998398000" lon="2.596611100">
        <ele>423.10</ele>
        <time>2012-10-14T18:30:36Z</time>
      </trkpt>
      <trkpt lat="41.998478000" lon="2.596625100">
        <ele>419.80</ele>
        <time>2012-10-14T18:30:38Z</time>
      </trkpt>
      <trkpt lat="41.998577000" lon="2.596629100">
        <ele>415.90</ele>
        <time>2012-10-14T18:30:41Z</time>
      </trkpt>
      <trkpt lat="41.998669000" lon="2.596607100">
        <ele>413.50</ele>
        <time>2012-10-14T18:30:43Z</time>
      </trkpt>
      <trkpt lat="41.998756000" lon="2.596580100">
        <ele>411.10</ele>
        <time>2012-10-14T18:30:45Z</time>
      </trkpt>
      <trkpt lat="41.998852000" lon="2.596694100">
        <ele>406.30</ele>
        <time>2012-10-14T18:30:48Z</time>
      </trkpt>
      <trkpt lat="41.998821000" lon="2.596791100">
        <ele>404.90</ele>
        <time>2012-10-14T18:30:50Z</time>
      </trkpt>
      <trkpt lat="41.998711000" lon="2.597090100">
        <ele>403.90</ele>
        <time>2012-10-14T18:30:55Z</time>
      </trkpt>
      <trkpt lat="41.998550000" lon="2.597306100">
        <ele>400.50</ele>
        <time>2012-10-14T18:30:59Z</time>
      </trkpt>
      <trkpt lat="41.998516000" lon="2.597420100">
        <ele>395.70</ele>
        <time>2012-10-14T18:31:04Z</time>
      </trkpt>
      <trkpt lat="41.998516000" lon="2.597421100">
        <ele>393.80</ele>
        <time>2012-10-14T18:31:06Z</time>
      </trkpt>
      <trkpt lat="41.998516000" lon="2.597422100">
        <ele>396.70</ele>
        <time>2012-10-14T18:31:16Z</time>
      </trkpt>
      <trkpt lat="41.998604000" lon="2.597546100">
        <ele>394.80</ele>
        <time>2012-10-14T18:31:23Z</time>
      </trkpt>
      <trkpt lat="41.998604000" lon="2.597546100">
        <ele>394.80</ele>
        <time>2012-10-14T18:31:37Z</time>
      </trkpt>
      <trkpt lat="41.998604000" lon="2.597546100">
        <ele>394.80</ele>
        <time>2012-10-14T18:31:48Z</time>
      </trkpt>
      <trkpt lat="41.998604000" lon="2.597554100">
        <ele>392.40</ele>
        <time>2012-10-14T18:32:10Z</time>
      </trkpt>
      <trkpt lat="41.998608000" lon="2.597561100">
        <ele>392.40</ele>
        <time>2012-10-14T18:32:45Z</time>
      </trkpt>
      <trkpt lat="41.998615000" lon="2.597566100">
        <ele>392.40</ele>
        <time>2012-10-14T18:33:55Z</time>
      </trkpt>
      <trkpt lat="41.998615000" lon="2.597569100">
        <ele>392.40</ele>
        <time>2012-10-14T18:34:07Z</time>
      </trkpt>
      <trkpt lat="41.998623000" lon="2.597582100">
        <ele>392.40</ele>
        <time>2012-10-14T18:34:10Z</time>
      </trkpt>
      <trkpt lat="41.998760000" lon="2.597574100">
        <ele>392.40</ele>
        <time>2012-10-14T18:34:14Z</time>
      </trkpt>
      <trkpt lat="41.998970000" lon="2.597459100">
        <ele>387.50</ele>
        <time>2012-10-14T18:34:21Z</time>
      </trkpt>
      <trkpt lat="41.999149000" lon="2.597373100">
        <ele>382.70</ele>
        <time>2012-10-14T18:34:26Z</time>
      </trkpt>
      <trkpt lat="41.999359000" lon="2.597421100">
        <ele>380.80</ele>
        <time>2012-10-14T18:34:31Z</time>
      </trkpt>
      <trkpt lat="41.999393000" lon="2.597439100">
        <ele>381.30</ele>
        <time>2012-10-14T18:34:33Z</time>
      </trkpt>
      <trkpt lat="41.999599000" lon="2.597443100">
        <ele>379.90</ele>
        <time>2012-10-14T18:34:38Z</time>
      </trkpt>
      <trkpt lat="41.999630000" lon="2.597602100">
        <ele>377.50</ele>
        <time>2012-10-14T18:34:42Z</time>
      </trkpt>
      <trkpt lat="41.999683000" lon="2.597708100">
        <ele>373.60</ele>
        <time>2012-10-14T18:34:45Z</time>
      </trkpt>
      <trkpt lat="41.999733000" lon="2.597663100">
        <ele>370.70</ele>
        <time>2012-10-14T18:34:47Z</time>
      </trkpt>
      <trkpt lat="41.999783000" lon="2.597522100">
        <ele>368.80</ele>
        <time>2012-10-14T18:34:50Z</time>
      </trkpt>
      <trkpt lat="41.999783000" lon="2.597237100">
        <ele>368.80</ele>
        <time>2012-10-14T18:34:56Z</time>
      </trkpt>
      <trkpt lat="41.999893000" lon="2.597120100">
        <ele>368.80</ele>
        <time>2012-10-14T18:34:59Z</time>
      </trkpt>
      <trkpt lat="41.999920000" lon="2.597119100">
        <ele>368.30</ele>
        <time>2012-10-14T18:35:04Z</time>
      </trkpt>
      <trkpt lat="41.999935000" lon="2.597121100">
        <ele>368.30</ele>
        <time>2012-10-14T18:35:06Z</time>
      </trkpt>
      <trkpt lat="41.999992000" lon="2.597124100">
        <ele>366.40</ele>
        <time>2012-10-14T18:35:15Z</time>
      </trkpt>
      <trkpt lat="41.999992000" lon="2.597124100">
        <ele>366.40</ele>
        <time>2012-10-14T18:35:27Z</time>
      </trkpt>
      <trkpt lat="42.000011000" lon="2.597124100">
        <ele>365.40</ele>
        <time>2012-10-14T18:35:34Z</time>
      </trkpt>
      <trkpt lat="42.000011000" lon="2.597124100">
        <ele>365.40</ele>
        <time>2012-10-14T18:35:43Z</time>
      </trkpt>
      <trkpt lat="42.000122000" lon="2.597114100">
        <ele>365.00</ele>
        <time>2012-10-14T18:35:55Z</time>
      </trkpt>
      <trkpt lat="42.000237000" lon="2.597247100">
        <ele>363.50</ele>
        <time>2012-10-14T18:35:58Z</time>
      </trkpt>
      <trkpt lat="42.000252000" lon="2.597299100">
        <ele>364.00</ele>
        <time>2012-10-14T18:36:00Z</time>
      </trkpt>
      <trkpt lat="42.000229000" lon="2.597569100">
        <ele>357.30</ele>
        <time>2012-10-14T18:36:05Z</time>
      </trkpt>
      <trkpt lat="42.000149000" lon="2.597767100">
        <ele>353.40</ele>
        <time>2012-10-14T18:36:07Z</time>
      </trkpt>
      <trkpt lat="42.000111000" lon="2.597983100">
        <ele>348.10</ele>
        <time>2012-10-14T18:36:12Z</time>
      </trkpt>
      <trkpt lat="42.000130000" lon="2.598186100">
        <ele>344.80</ele>
        <time>2012-10-14T18:36:14Z</time>
      </trkpt>
      <trkpt lat="42.000160000" lon="2.598487100">
        <ele>340.40</ele>
        <time>2012-10-14T18:36:19Z</time>
      </trkpt>
      <trkpt lat="42.000191000" lon="2.598933100">
        <ele>334.70</ele>
        <time>2012-10-14T18:36:26Z</time>
      </trkpt>
      <trkpt lat="42.000202000" lon="2.599023100">
        <ele>333.20</ele>
        <time>2012-10-14T18:36:26Z</time>
      </trkpt>
      <trkpt lat="42.000221000" lon="2.599198100">
        <ele>330.80</ele>
        <time>2012-10-14T18:36:28Z</time>
      </trkpt>
      <trkpt lat="42.000248000" lon="2.599381100">
        <ele>327.50</ele>
        <time>2012-10-14T18:36:30Z</time>
      </trkpt>
      <trkpt lat="42.000267000" lon="2.599744100">
        <ele>321.20</ele>
        <time>2012-10-14T18:36:35Z</time>
      </trkpt>
      <trkpt lat="42.000263000" lon="2.599856100">
        <ele>320.30</ele>
        <time>2012-10-14T18:36:35Z</time>
      </trkpt>
      <trkpt lat="42.000202000" lon="2.600084100">
        <ele>315.50</ele>
        <time>2012-10-14T18:36:38Z</time>
      </trkpt>
      <trkpt lat="42.000164000" lon="2.600162100">
        <ele>315.90</ele>
        <time>2012-10-14T18:36:40Z</time>
      </trkpt>
      <trkpt lat="41.999958000" lon="2.600379100">
        <ele>315.00</ele>
        <time>2012-10-14T18:36:44Z</time>
      </trkpt>
      <trkpt lat="41.999855000" lon="2.600552100">
        <ele>314.50</ele>
        <time>2012-10-14T18:36:47Z</time>
      </trkpt>
      <trkpt lat="41.999847000" lon="2.600627100">
        <ele>313.50</ele>
        <time>2012-10-14T18:36:47Z</time>
      </trkpt>
      <trkpt lat="41.999794000" lon="2.601111100">
        <ele>309.70</ele>
        <time>2012-10-14T18:36:54Z</time>
      </trkpt>
      <trkpt lat="41.999783000" lon="2.601271100">
        <ele>307.80</ele>
        <time>2012-10-14T18:36:56Z</time>
      </trkpt>
      <trkpt lat="41.999744000" lon="2.601501100">
        <ele>305.40</ele>
        <time>2012-10-14T18:36:59Z</time>
      </trkpt>
      <trkpt lat="41.999611000" lon="2.601798100">
        <ele>301.50</ele>
        <time>2012-10-14T18:37:03Z</time>
      </trkpt>
      <trkpt lat="41.999382000" lon="2.602026100">
        <ele>297.20</ele>
        <time>2012-10-14T18:37:06Z</time>
      </trkpt>
      <trkpt lat="41.999313000" lon="2.602052100">
        <ele>295.70</ele>
        <time>2012-10-14T18:37:08Z</time>
      </trkpt>
      <trkpt lat="41.998966000" lon="2.602156100">
        <ele>290.90</ele>
        <time>2012-10-14T18:37:13Z</time>
      </trkpt>
      <trkpt lat="41.998905000" lon="2.602176100">
        <ele>290.00</ele>
        <time>2012-10-14T18:37:13Z</time>
      </trkpt>
      <trkpt lat="41.998741000" lon="2.602314100">
        <ele>287.10</ele>
        <time>2012-10-14T18:37:17Z</time>
      </trkpt>
      <trkpt lat="41.998611000" lon="2.602453100">
        <ele>285.20</ele>
        <time>2012-10-14T18:37:20Z</time>
      </trkpt>
      <trkpt lat="41.998489000" lon="2.602607100">
        <ele>282.30</ele>
        <time>2012-10-14T18:37:24Z</time>
      </trkpt>
      <trkpt lat="41.998489000" lon="2.602633100">
        <ele>281.30</ele>
        <time>2012-10-14T18:37:29Z</time>
      </trkpt>
      <trkpt lat="41.998497000" lon="2.602647100">
        <ele>282.30</ele>
        <time>2012-10-14T18:38:11Z</time>
      </trkpt>
      <trkpt lat="41.998493000" lon="2.602648100">
        <ele>282.30</ele>
        <time>2012-10-14T18:38:25Z</time>
      </trkpt>
      <trkpt lat="41.998493000" lon="2.602651100">
        <ele>282.30</ele>
        <time>2012-10-14T18:38:51Z</time>
      </trkpt>
      <trkpt lat="41.998638000" lon="2.602648100">
        <ele>282.30</ele>
        <time>2012-10-14T18:38:58Z</time>
      </trkpt>
      <trkpt lat="41.998684000" lon="2.602643100">
        <ele>282.30</ele>
        <time>2012-10-14T18:38:58Z</time>
      </trkpt>
      <trkpt lat="41.998848000" lon="2.602618100">
        <ele>279.40</ele>
        <time>2012-10-14T18:39:01Z</time>
      </trkpt>
      <trkpt lat="41.999054000" lon="2.602618100">
        <ele>274.10</ele>
        <time>2012-10-14T18:39:05Z</time>
      </trkpt>
      <trkpt lat="41.999031000" lon="2.602704100">
        <ele>269.80</ele>
        <time>2012-10-14T18:39:08Z</time>
      </trkpt>
      <trkpt lat="41.998894000" lon="2.602769100">
        <ele>267.40</ele>
        <time>2012-10-14T18:39:12Z</time>
      </trkpt>
      <trkpt lat="41.998837000" lon="2.602816100">
        <ele>266.40</ele>
        <time>2012-10-14T18:39:12Z</time>
      </trkpt>
      <trkpt lat="41.998692000" lon="2.602952100">
        <ele>265.90</ele>
        <time>2012-10-14T18:39:15Z</time>
      </trkpt>
      <trkpt lat="41.998436000" lon="2.603235100">
        <ele>262.10</ele>
        <time>2012-10-14T18:39:19Z</time>
      </trkpt>
      <trkpt lat="41.998337000" lon="2.603348100">
        <ele>260.20</ele>
        <time>2012-10-14T18:39:22Z</time>
      </trkpt>
      <trkpt lat="41.998173000" lon="2.603656100">
        <ele>254.90</ele>
        <time>2012-10-14T18:39:26Z</time>
      </trkpt>
      <trkpt lat="41.998138000" lon="2.603745100">
        <ele>253.90</ele>
        <time>2012-10-14T18:39:26Z</time>
      </trkpt>
      <trkpt lat="41.997952000" lon="2.604058100">
        <ele>248.20</ele>
        <time>2012-10-14T18:39:31Z</time>
      </trkpt>
      <trkpt lat="41.997890000" lon="2.604226100">
        <ele>244.80</ele>
        <time>2012-10-14T18:39:33Z</time>
      </trkpt>
      <trkpt lat="41.997822000" lon="2.604399100">
        <ele>239.50</ele>
        <time>2012-10-14T18:39:36Z</time>
      </trkpt>
      <trkpt lat="41.997929000" lon="2.604575100">
        <ele>234.70</ele>
        <time>2012-10-14T18:39:40Z</time>
      </trkpt>
      <trkpt lat="41.998131000" lon="2.604637100">
        <ele>233.70</ele>
        <time>2012-10-14T18:39:43Z</time>
      </trkpt>
      <trkpt lat="41.998390000" lon="2.604687100">
        <ele>229.40</ele>
        <time>2012-10-14T18:39:48Z</time>
      </trkpt>
      <trkpt lat="41.998539000" lon="2.604757100">
        <ele>227.50</ele>
        <time>2012-10-14T18:39:50Z</time>
      </trkpt>
      <trkpt lat="41.998764000" lon="2.604812100">
        <ele>223.20</ele>
        <time>2012-10-14T18:39:54Z</time>
      </trkpt>
      <trkpt lat="41.998974000" lon="2.604814100">
        <ele>218.40</ele>
        <time>2012-10-14T18:39:57Z</time>
      </trkpt>
      <trkpt lat="41.999104000" lon="2.604765100">
        <ele>215.00</ele>
        <time>2012-10-14T18:39:59Z</time>
      </trkpt>
      <trkpt lat="41.999229000" lon="2.604734100">
        <ele>212.10</ele>
        <time>2012-10-14T18:40:00Z</time>
      </trkpt>
      <trkpt lat="41.999340000" lon="2.604769100">
        <ele>207.80</ele>
        <time>2012-10-14T18:40:04Z</time>
      </trkpt>
      <trkpt lat="41.999352000" lon="2.604776100">
        <ele>206.30</ele>
        <time>2012-10-14T18:40:09Z</time>
      </trkpt>
      <trkpt lat="41.999352000" lon="2.604776100">
        <ele>206.30</ele>
        <time>2012-10-14T18:40:13Z</time>
      </trkpt>
      <trkpt lat="41.999352000" lon="2.604772100">
        <ele>211.10</ele>
        <time>2012-10-14T18:40:28Z</time>
      </trkpt>
      <trkpt lat="41.999352000" lon="2.604773100">
        <ele>210.20</ele>
        <time>2012-10-14T18:40:58Z</time>
      </trkpt>
      <trkpt lat="41.999359000" lon="2.604778100">
        <ele>210.20</ele>
        <time>2012-10-14T18:41:31Z</time>
      </trkpt>
      <trkpt lat="41.999359000" lon="2.604776100">
        <ele>210.20</ele>
        <time>2012-10-14T18:41:47Z</time>
      </trkpt>
      <trkpt lat="41.999363000" lon="2.604772100">
        <ele>210.20</ele>
        <time>2012-10-14T18:42:04Z</time>
      </trkpt>
      <trkpt lat="41.999371000" lon="2.604766100">
        <ele>210.20</ele>
        <time>2012-10-14T18:42:15Z</time>
      </trkpt>
      <trkpt lat="41.999371000" lon="2.604767100">
        <ele>210.20</ele>
        <time>2012-10-14T18:43:26Z</time>
      </trkpt>
      <trkpt lat="41.999374000" lon="2.604760100">
        <ele>210.20</ele>
        <time>2012-10-14T18:44:22Z</time>
      </trkpt>
      <trkpt lat="41.999420000" lon="2.604783100">
        <ele>210.20</ele>
        <time>2012-10-14T18:44:29Z</time>
      </trkpt>
      <trkpt lat="41.999622000" lon="2.604814100">
        <ele>210.20</ele>
        <time>2012-10-14T18:44:34Z</time>
      </trkpt>
      <trkpt lat="41.999790000" lon="2.604821100">
        <ele>209.70</ele>
        <time>2012-10-14T18:44:37Z</time>
      </trkpt>
      <trkpt lat="42.000057000" lon="2.604877100">
        <ele>208.30</ele>
        <time>2012-10-14T18:44:43Z</time>
      </trkpt>
      <trkpt lat="42.000210000" lon="2.604903100">
        <ele>208.30</ele>
        <time>2012-10-14T18:44:46Z</time>
      </trkpt>
      <trkpt lat="42.000343000" lon="2.604935100">
        <ele>207.80</ele>
        <time>2012-10-14T18:44:48Z</time>
      </trkpt>
      <trkpt lat="42.000435000" lon="2.604953100">
        <ele>207.80</ele>
        <time>2012-10-14T18:44:50Z</time>
      </trkpt>
      <trkpt lat="42.000710000" lon="2.604945100">
        <ele>207.30</ele>
        <time>2012-10-14T18:44:57Z</time>
      </trkpt>
      <trkpt lat="42.000980000" lon="2.605017100">
        <ele>206.80</ele>
        <time>2012-10-14T18:45:04Z</time>
      </trkpt>
      <trkpt lat="42.000992000" lon="2.605124100">
        <ele>206.30</ele>
        <time>2012-10-14T18:45:07Z</time>
      </trkpt>
      <trkpt lat="42.000961000" lon="2.605131100">
        <ele>205.90</ele>
        <time>2012-10-14T18:45:09Z</time>
      </trkpt>
      <trkpt lat="42.000648000" lon="2.605140100">
        <ele>204.90</ele>
        <time>2012-10-14T18:45:16Z</time>
      </trkpt>
      <trkpt lat="42.000202000" lon="2.605262100">
        <ele>203.90</ele>
        <time>2012-10-14T18:45:23Z</time>
      </trkpt>
      <trkpt lat="41.999683000" lon="2.605549100">
        <ele>202.50</ele>
        <time>2012-10-14T18:45:30Z</time>
      </trkpt>
      <trkpt lat="41.999256000" lon="2.605918100">
        <ele>199.60</ele>
        <time>2012-10-14T18:45:35Z</time>
      </trkpt>
      <trkpt lat="41.999134000" lon="2.606051100">
        <ele>198.60</ele>
        <time>2012-10-14T18:45:37Z</time>
      </trkpt>
      <trkpt lat="41.998512000" lon="2.606756100">
        <ele>197.70</ele>
        <time>2012-10-14T18:45:49Z</time>
      </trkpt>
      <trkpt lat="41.998405000" lon="2.606883100">
        <ele>199.10</ele>
        <time>2012-10-14T18:45:51Z</time>
      </trkpt>
      <trkpt lat="41.998070000" lon="2.607247100">
        <ele>202.50</ele>
        <time>2012-10-14T18:45:56Z</time>
      </trkpt>
      <trkpt lat="41.997566000" lon="2.607633100">
        <ele>205.40</ele>
        <time>2012-10-14T18:46:05Z</time>
      </trkpt>
      <trkpt lat="41.996880000" lon="2.608025100">
        <ele>203.90</ele>
        <time>2012-10-14T18:46:15Z</time>
      </trkpt>
      <trkpt lat="41.996078000" lon="2.608471100">
        <ele>202.50</ele>
        <time>2012-10-14T18:46:25Z</time>
      </trkpt>
      <trkpt lat="41.995434000" lon="2.608936100">
        <ele>201.10</ele>
        <time>2012-10-14T18:46:34Z</time>
      </trkpt>
      <trkpt lat="41.994736000" lon="2.609710100">
        <ele>199.10</ele>
        <time>2012-10-14T18:46:46Z</time>
      </trkpt>
      <trkpt lat="41.994209000" lon="2.610161100">
        <ele>198.20</ele>
        <time>2012-10-14T18:46:53Z</time>
      </trkpt>
      <trkpt lat="41.993458000" lon="2.610541100">
        <ele>197.20</ele>
        <time>2012-10-14T18:47:04Z</time>
      </trkpt>
      <trkpt lat="41.992756000" lon="2.610795100">
        <ele>196.20</ele>
        <time>2012-10-14T18:47:12Z</time>
      </trkpt>
      <trkpt lat="41.992214000" lon="2.610760100">
        <ele>195.80</ele>
        <time>2012-10-14T18:47:19Z</time>
      </trkpt>
      <trkpt lat="41.991714000" lon="2.610513100">
        <ele>195.30</ele>
        <time>2012-10-14T18:47:26Z</time>
      </trkpt>
      <trkpt lat="41.991650000" lon="2.610460100">
        <ele>195.30</ele>
        <time>2012-10-14T18:47:28Z</time>
      </trkpt>
      <trkpt lat="41.991196000" lon="2.609888100">
        <ele>194.80</ele>
        <time>2012-10-14T18:47:35Z</time>
      </trkpt>
      <trkpt lat="41.990765000" lon="2.609021100">
        <ele>192.90</ele>
        <time>2012-10-14T18:47:46Z</time>
      </trkpt>
      <trkpt lat="41.990314000" lon="2.608264100">
        <ele>191.90</ele>
        <time>2012-10-14T18:47:54Z</time>
      </trkpt>
      <trkpt lat="41.989712000" lon="2.607553100">
        <ele>191.00</ele>
        <time>2012-10-14T18:48:05Z</time>
      </trkpt>
      <trkpt lat="41.989128000" lon="2.606921100">
        <ele>189.50</ele>
        <time>2012-10-14T18:48:13Z</time>
      </trkpt>
      <trkpt lat="41.988480000" lon="2.606216100">
        <ele>188.60</ele>
        <time>2012-10-14T18:48:24Z</time>
      </trkpt>
      <trkpt lat="41.987961000" lon="2.605581100">
        <ele>188.10</ele>
        <time>2012-10-14T18:48:34Z</time>
      </trkpt>
      <trkpt lat="41.987511000" lon="2.604846100">
        <ele>187.10</ele>
        <time>2012-10-14T18:48:45Z</time>
      </trkpt>
      <trkpt lat="41.987122000" lon="2.604206100">
        <ele>186.60</ele>
        <time>2012-10-14T18:48:53Z</time>
      </trkpt>
      <trkpt lat="41.986900000" lon="2.604014100">
        <ele>186.10</ele>
        <time>2012-10-14T18:48:57Z</time>
      </trkpt>
      <trkpt lat="41.986721000" lon="2.603908100">
        <ele>186.10</ele>
        <time>2012-10-14T18:49:00Z</time>
      </trkpt>
      <trkpt lat="41.986431000" lon="2.603854100">
        <ele>185.70</ele>
        <time>2012-10-14T18:49:06Z</time>
      </trkpt>
      <trkpt lat="41.986141000" lon="2.603883100">
        <ele>185.70</ele>
        <time>2012-10-14T18:49:11Z</time>
      </trkpt>
      <trkpt lat="41.986034000" lon="2.603920100">
        <ele>185.70</ele>
        <time>2012-10-14T18:49:13Z</time>
      </trkpt>
      <trkpt lat="41.985928000" lon="2.603940100">
        <ele>185.20</ele>
        <time>2012-10-14T18:49:14Z</time>
      </trkpt>
      <trkpt lat="41.985359000" lon="2.604093100">
        <ele>185.20</ele>
        <time>2012-10-14T18:49:25Z</time>
      </trkpt>
      <trkpt lat="41.985077000" lon="2.604270100">
        <ele>185.20</ele>
        <time>2012-10-14T18:49:30Z</time>
      </trkpt>
      <trkpt lat="41.984882000" lon="2.604509100">
        <ele>185.20</ele>
        <time>2012-10-14T18:49:34Z</time>
      </trkpt>
      <trkpt lat="41.984695000" lon="2.604829100">
        <ele>185.20</ele>
        <time>2012-10-14T18:49:39Z</time>
      </trkpt>
      <trkpt lat="41.984486000" lon="2.605127100">
        <ele>184.70</ele>
        <time>2012-10-14T18:49:44Z</time>
      </trkpt>
      <trkpt lat="41.984375000" lon="2.605439100">
        <ele>184.20</ele>
        <time>2012-10-14T18:49:49Z</time>
      </trkpt>
      <trkpt lat="41.984322000" lon="2.605559100">
        <ele>184.20</ele>
        <time>2012-10-14T18:49:51Z</time>
      </trkpt>
      <trkpt lat="41.984165000" lon="2.605895100">
        <ele>183.80</ele>
        <time>2012-10-14T18:49:56Z</time>
      </trkpt>
      <trkpt lat="41.984089000" lon="2.606042100">
        <ele>183.80</ele>
        <time>2012-10-14T18:50:00Z</time>
      </trkpt>
      <trkpt lat="41.984001000" lon="2.606089100">
        <ele>183.30</ele>
        <time>2012-10-14T18:50:05Z</time>
      </trkpt>
      <trkpt lat="41.983936000" lon="2.606147100">
        <ele>182.80</ele>
        <time>2012-10-14T18:50:12Z</time>
      </trkpt>
      <trkpt lat="41.983932000" lon="2.606148100">
        <ele>182.80</ele>
        <time>2012-10-14T18:50:19Z</time>
      </trkpt>
      <trkpt lat="41.983932000" lon="2.606150100">
        <ele>182.80</ele>
        <time>2012-10-14T18:51:16Z</time>
      </trkpt>
      <trkpt lat="41.983936000" lon="2.606149100">
        <ele>182.80</ele>
        <time>2012-10-14T18:51:27Z</time>
      </trkpt>
      <trkpt lat="41.983932000" lon="2.606147100">
        <ele>182.30</ele>
        <time>2012-10-14T18:51:37Z</time>
      </trkpt>
    </trkseg>
  </trk>
</gpx>
